<?xml version="1.0" encoding="UTF-8" standalone="no" ?>
<gpx xmlns="http://www.topografix.com/GPX/1/1" xmlns:xsi="http://www.w3.org/2001/XMLSchema-instance" xsi:schemaLocation="http://www.topografix.com/GPX/1/1 http://www.topografix.com/GPX/1/1/gpx.xsd" version="1.1" creator="VisuGPX - https://www.visugpx.com">
  <metadata>
    <name>SO-E-Bouaye St Lumine de Coutais La Chevrolière Pont St Martin St Aignan D2A</name>
    <desc><![CDATA[SO-E-Bouaye St Lumine de Coutais La Chevrolière Pont St Martin St Aignan D2A]]></desc>
  </metadata>
  <trk>
    <name><![CDATA[2021-03-07 13:40 +01:00]]></name>
    <trkseg>
      <trkpt lat="47.16775" lon="-1.62653">
        <ele>63</ele>
        <time>2021-03-07T12:40:52.000Z</time>
      </trkpt>
      <trkpt lat="47.16785" lon="-1.62655">
        <ele>72</ele>
        <time>2021-03-07T12:43:18.000Z</time>
      </trkpt>
      <trkpt lat="47.16773" lon="-1.62678">
        <ele>70</ele>
        <time>2021-03-07T12:43:22.000Z</time>
      </trkpt>
      <trkpt lat="47.1676" lon="-1.62679">
        <ele>69</ele>
        <time>2021-03-07T12:43:24.000Z</time>
      </trkpt>
      <trkpt lat="47.16751" lon="-1.62675">
        <ele>70</ele>
        <time>2021-03-07T12:43:26.000Z</time>
      </trkpt>
      <trkpt lat="47.16741" lon="-1.62681">
        <ele>72</ele>
        <time>2021-03-07T12:43:28.000Z</time>
      </trkpt>
      <trkpt lat="47.1673" lon="-1.62687">
        <ele>71</ele>
        <time>2021-03-07T12:43:30.000Z</time>
      </trkpt>
      <trkpt lat="47.16719" lon="-1.62693">
        <ele>70</ele>
        <time>2021-03-07T12:43:33.000Z</time>
      </trkpt>
      <trkpt lat="47.16706" lon="-1.62681">
        <ele>69</ele>
        <time>2021-03-07T12:43:35.000Z</time>
      </trkpt>
      <trkpt lat="47.167" lon="-1.62662">
        <ele>69</ele>
        <time>2021-03-07T12:43:37.000Z</time>
      </trkpt>
      <trkpt lat="47.16696" lon="-1.62644">
        <ele>69</ele>
        <time>2021-03-07T12:43:39.000Z</time>
      </trkpt>
      <trkpt lat="47.16694" lon="-1.62614">
        <ele>70</ele>
        <time>2021-03-07T12:43:42.000Z</time>
      </trkpt>
      <trkpt lat="47.16694" lon="-1.62592">
        <ele>71</ele>
        <time>2021-03-07T12:43:44.000Z</time>
      </trkpt>
      <trkpt lat="47.16697" lon="-1.62571">
        <ele>70</ele>
        <time>2021-03-07T12:43:46.000Z</time>
      </trkpt>
      <trkpt lat="47.16698" lon="-1.62549">
        <ele>69</ele>
        <time>2021-03-07T12:43:48.000Z</time>
      </trkpt>
      <trkpt lat="47.16702" lon="-1.62528">
        <ele>68</ele>
        <time>2021-03-07T12:43:50.000Z</time>
      </trkpt>
      <trkpt lat="47.16705" lon="-1.62507">
        <ele>68</ele>
        <time>2021-03-07T12:43:52.000Z</time>
      </trkpt>
      <trkpt lat="47.16709" lon="-1.62485">
        <ele>67</ele>
        <time>2021-03-07T12:43:54.000Z</time>
      </trkpt>
      <trkpt lat="47.16713" lon="-1.62465">
        <ele>67</ele>
        <time>2021-03-07T12:43:56.000Z</time>
      </trkpt>
      <trkpt lat="47.16715" lon="-1.62446">
        <ele>67</ele>
        <time>2021-03-07T12:43:58.000Z</time>
      </trkpt>
      <trkpt lat="47.16718" lon="-1.62428">
        <ele>67</ele>
        <time>2021-03-07T12:44:00.000Z</time>
      </trkpt>
      <trkpt lat="47.16723" lon="-1.62416">
        <ele>65</ele>
        <time>2021-03-07T12:44:02.000Z</time>
      </trkpt>
      <trkpt lat="47.16715" lon="-1.62396">
        <ele>64</ele>
        <time>2021-03-07T12:44:05.000Z</time>
      </trkpt>
      <trkpt lat="47.16705" lon="-1.62382">
        <ele>64</ele>
        <time>2021-03-07T12:44:07.000Z</time>
      </trkpt>
      <trkpt lat="47.16689" lon="-1.62364">
        <ele>65</ele>
        <time>2021-03-07T12:44:10.000Z</time>
      </trkpt>
      <trkpt lat="47.16674" lon="-1.62362">
        <ele>63</ele>
        <time>2021-03-07T12:44:12.000Z</time>
      </trkpt>
      <trkpt lat="47.16655" lon="-1.62364">
        <ele>64</ele>
        <time>2021-03-07T12:44:15.000Z</time>
      </trkpt>
      <trkpt lat="47.16645" lon="-1.62371">
        <ele>65</ele>
        <time>2021-03-07T12:44:17.000Z</time>
      </trkpt>
      <trkpt lat="47.16635" lon="-1.62381">
        <ele>65</ele>
        <time>2021-03-07T12:44:19.000Z</time>
      </trkpt>
      <trkpt lat="47.16625" lon="-1.62399">
        <ele>66</ele>
        <time>2021-03-07T12:44:21.000Z</time>
      </trkpt>
      <trkpt lat="47.16616" lon="-1.62415">
        <ele>67</ele>
        <time>2021-03-07T12:44:23.000Z</time>
      </trkpt>
      <trkpt lat="47.16608" lon="-1.62431">
        <ele>68</ele>
        <time>2021-03-07T12:44:25.000Z</time>
      </trkpt>
      <trkpt lat="47.16601" lon="-1.62447">
        <ele>68</ele>
        <time>2021-03-07T12:44:27.000Z</time>
      </trkpt>
      <trkpt lat="47.16598" lon="-1.62462">
        <ele>68</ele>
        <time>2021-03-07T12:44:29.000Z</time>
      </trkpt>
      <trkpt lat="47.16592" lon="-1.62479">
        <ele>68</ele>
        <time>2021-03-07T12:44:31.000Z</time>
      </trkpt>
      <trkpt lat="47.16585" lon="-1.62494">
        <ele>69</ele>
        <time>2021-03-07T12:44:33.000Z</time>
      </trkpt>
      <trkpt lat="47.16577" lon="-1.6251">
        <ele>70</ele>
        <time>2021-03-07T12:44:35.000Z</time>
      </trkpt>
      <trkpt lat="47.16562" lon="-1.62543">
        <ele>73</ele>
        <time>2021-03-07T12:44:38.995Z</time>
      </trkpt>
      <trkpt lat="47.16547" lon="-1.62554">
        <ele>70</ele>
        <time>2021-03-07T12:44:41.000Z</time>
      </trkpt>
      <trkpt lat="47.16538" lon="-1.62564">
        <ele>71</ele>
        <time>2021-03-07T12:44:43.000Z</time>
      </trkpt>
      <trkpt lat="47.16516" lon="-1.62564">
        <ele>70</ele>
        <time>2021-03-07T12:44:46.000Z</time>
      </trkpt>
      <trkpt lat="47.16502" lon="-1.62561">
        <ele>70</ele>
        <time>2021-03-07T12:44:48.000Z</time>
      </trkpt>
      <trkpt lat="47.16489" lon="-1.62562">
        <ele>68</ele>
        <time>2021-03-07T12:44:51.000Z</time>
      </trkpt>
      <trkpt lat="47.16468" lon="-1.62556">
        <ele>68</ele>
        <time>2021-03-07T12:44:54.000Z</time>
      </trkpt>
      <trkpt lat="47.16455" lon="-1.6255">
        <ele>71</ele>
        <time>2021-03-07T12:44:56.000Z</time>
      </trkpt>
      <trkpt lat="47.16443" lon="-1.62548">
        <ele>70</ele>
        <time>2021-03-07T12:44:58.000Z</time>
      </trkpt>
      <trkpt lat="47.16429" lon="-1.62553">
        <ele>69</ele>
        <time>2021-03-07T12:45:00.000Z</time>
      </trkpt>
      <trkpt lat="47.16417" lon="-1.62563">
        <ele>68</ele>
        <time>2021-03-07T12:45:02.000Z</time>
      </trkpt>
      <trkpt lat="47.16405" lon="-1.62572">
        <ele>70</ele>
        <time>2021-03-07T12:45:04.000Z</time>
      </trkpt>
      <trkpt lat="47.16392" lon="-1.6258">
        <ele>69</ele>
        <time>2021-03-07T12:45:06.000Z</time>
      </trkpt>
      <trkpt lat="47.16379" lon="-1.62586">
        <ele>68</ele>
        <time>2021-03-07T12:45:08.000Z</time>
      </trkpt>
      <trkpt lat="47.16366" lon="-1.62586">
        <ele>69</ele>
        <time>2021-03-07T12:45:10.000Z</time>
      </trkpt>
      <trkpt lat="47.16349" lon="-1.62583">
        <ele>67</ele>
        <time>2021-03-07T12:45:12.000Z</time>
      </trkpt>
      <trkpt lat="47.16335" lon="-1.62577">
        <ele>66</ele>
        <time>2021-03-07T12:45:14.000Z</time>
      </trkpt>
      <trkpt lat="47.16321" lon="-1.62573">
        <ele>66</ele>
        <time>2021-03-07T12:45:16.000Z</time>
      </trkpt>
      <trkpt lat="47.16303" lon="-1.62579">
        <ele>65</ele>
        <time>2021-03-07T12:45:19.000Z</time>
      </trkpt>
      <trkpt lat="47.16292" lon="-1.62592">
        <ele>64</ele>
        <time>2021-03-07T12:45:21.000Z</time>
      </trkpt>
      <trkpt lat="47.16287" lon="-1.62613">
        <ele>64</ele>
        <time>2021-03-07T12:45:23.000Z</time>
      </trkpt>
      <trkpt lat="47.16283" lon="-1.62634">
        <ele>64</ele>
        <time>2021-03-07T12:45:25.000Z</time>
      </trkpt>
      <trkpt lat="47.16281" lon="-1.62665">
        <ele>65</ele>
        <time>2021-03-07T12:45:28.000Z</time>
      </trkpt>
      <trkpt lat="47.1628" lon="-1.62688">
        <ele>65</ele>
        <time>2021-03-07T12:45:30.000Z</time>
      </trkpt>
      <trkpt lat="47.16277" lon="-1.62703">
        <ele>67</ele>
        <time>2021-03-07T12:45:32.000Z</time>
      </trkpt>
      <trkpt lat="47.16274" lon="-1.62717">
        <ele>67</ele>
        <time>2021-03-07T12:45:34.000Z</time>
      </trkpt>
      <trkpt lat="47.16278" lon="-1.6273">
        <ele>67</ele>
        <time>2021-03-07T12:45:37.000Z</time>
      </trkpt>
      <trkpt lat="47.16268" lon="-1.6274">
        <ele>67</ele>
        <time>2021-03-07T12:45:40.000Z</time>
      </trkpt>
      <trkpt lat="47.16255" lon="-1.62744">
        <ele>68</ele>
        <time>2021-03-07T12:45:42.000Z</time>
      </trkpt>
      <trkpt lat="47.16241" lon="-1.62753">
        <ele>68</ele>
        <time>2021-03-07T12:45:44.000Z</time>
      </trkpt>
      <trkpt lat="47.16226" lon="-1.62763">
        <ele>67</ele>
        <time>2021-03-07T12:45:46.000Z</time>
      </trkpt>
      <trkpt lat="47.1621" lon="-1.62768">
        <ele>67</ele>
        <time>2021-03-07T12:45:48.000Z</time>
      </trkpt>
      <trkpt lat="47.16195" lon="-1.62779">
        <ele>66</ele>
        <time>2021-03-07T12:45:50.000Z</time>
      </trkpt>
      <trkpt lat="47.1618" lon="-1.62794">
        <ele>65</ele>
        <time>2021-03-07T12:45:52.000Z</time>
      </trkpt>
      <trkpt lat="47.16173" lon="-1.62801">
        <ele>63</ele>
        <time>2021-03-07T12:45:53.000Z</time>
      </trkpt>
      <trkpt lat="47.16165" lon="-1.62808">
        <ele>63</ele>
        <time>2021-03-07T12:45:54.000Z</time>
      </trkpt>
      <trkpt lat="47.16157" lon="-1.62815">
        <ele>62</ele>
        <time>2021-03-07T12:45:55.000Z</time>
      </trkpt>
      <trkpt lat="47.16149" lon="-1.62823">
        <ele>62</ele>
        <time>2021-03-07T12:45:56.000Z</time>
      </trkpt>
      <trkpt lat="47.16141" lon="-1.6283">
        <ele>62</ele>
        <time>2021-03-07T12:45:57.000Z</time>
      </trkpt>
      <trkpt lat="47.16133" lon="-1.62837">
        <ele>62</ele>
        <time>2021-03-07T12:45:58.000Z</time>
      </trkpt>
      <trkpt lat="47.16125" lon="-1.62844">
        <ele>61</ele>
        <time>2021-03-07T12:45:59.000Z</time>
      </trkpt>
      <trkpt lat="47.16117" lon="-1.62852">
        <ele>61</ele>
        <time>2021-03-07T12:46:00.000Z</time>
      </trkpt>
      <trkpt lat="47.16109" lon="-1.62859">
        <ele>61</ele>
        <time>2021-03-07T12:46:01.000Z</time>
      </trkpt>
      <trkpt lat="47.16101" lon="-1.62866">
        <ele>61</ele>
        <time>2021-03-07T12:46:02.000Z</time>
      </trkpt>
      <trkpt lat="47.16079" lon="-1.62887">
        <ele>61</ele>
        <time>2021-03-07T12:46:05.000Z</time>
      </trkpt>
      <trkpt lat="47.16071" lon="-1.62894">
        <ele>61</ele>
        <time>2021-03-07T12:46:06.000Z</time>
      </trkpt>
      <trkpt lat="47.16063" lon="-1.62901">
        <ele>61</ele>
        <time>2021-03-07T12:46:07.000Z</time>
      </trkpt>
      <trkpt lat="47.16056" lon="-1.62908">
        <ele>61</ele>
        <time>2021-03-07T12:46:08.000Z</time>
      </trkpt>
      <trkpt lat="47.16048" lon="-1.62914">
        <ele>61</ele>
        <time>2021-03-07T12:46:09.000Z</time>
      </trkpt>
      <trkpt lat="47.1604" lon="-1.62921">
        <ele>60</ele>
        <time>2021-03-07T12:46:10.000Z</time>
      </trkpt>
      <trkpt lat="47.16024" lon="-1.62935">
        <ele>60</ele>
        <time>2021-03-07T12:46:12.000Z</time>
      </trkpt>
      <trkpt lat="47.16016" lon="-1.62941">
        <ele>60</ele>
        <time>2021-03-07T12:46:13.000Z</time>
      </trkpt>
      <trkpt lat="47.16008" lon="-1.62948">
        <ele>60</ele>
        <time>2021-03-07T12:46:14.000Z</time>
      </trkpt>
      <trkpt lat="47.15999" lon="-1.62956">
        <ele>60</ele>
        <time>2021-03-07T12:46:15.000Z</time>
      </trkpt>
      <trkpt lat="47.15991" lon="-1.62963">
        <ele>59</ele>
        <time>2021-03-07T12:46:16.000Z</time>
      </trkpt>
      <trkpt lat="47.15982" lon="-1.6297">
        <ele>59</ele>
        <time>2021-03-07T12:46:17.000Z</time>
      </trkpt>
      <trkpt lat="47.15974" lon="-1.62977">
        <ele>58</ele>
        <time>2021-03-07T12:46:18.000Z</time>
      </trkpt>
      <trkpt lat="47.15966" lon="-1.62985">
        <ele>58</ele>
        <time>2021-03-07T12:46:19.000Z</time>
      </trkpt>
      <trkpt lat="47.15958" lon="-1.62992">
        <ele>57</ele>
        <time>2021-03-07T12:46:20.000Z</time>
      </trkpt>
      <trkpt lat="47.1595" lon="-1.63">
        <ele>57</ele>
        <time>2021-03-07T12:46:21.000Z</time>
      </trkpt>
      <trkpt lat="47.15942" lon="-1.63008">
        <ele>57</ele>
        <time>2021-03-07T12:46:22.000Z</time>
      </trkpt>
      <trkpt lat="47.15932" lon="-1.63018">
        <ele>56</ele>
        <time>2021-03-07T12:46:23.000Z</time>
      </trkpt>
      <trkpt lat="47.15914" lon="-1.63031">
        <ele>55</ele>
        <time>2021-03-07T12:46:25.000Z</time>
      </trkpt>
      <trkpt lat="47.159" lon="-1.63045">
        <ele>54</ele>
        <time>2021-03-07T12:46:27.000Z</time>
      </trkpt>
      <trkpt lat="47.15892" lon="-1.63052">
        <ele>53</ele>
        <time>2021-03-07T12:46:28.000Z</time>
      </trkpt>
      <trkpt lat="47.15884" lon="-1.63059">
        <ele>53</ele>
        <time>2021-03-07T12:46:29.000Z</time>
      </trkpt>
      <trkpt lat="47.15876" lon="-1.63066">
        <ele>53</ele>
        <time>2021-03-07T12:46:30.000Z</time>
      </trkpt>
      <trkpt lat="47.15862" lon="-1.63078">
        <ele>52</ele>
        <time>2021-03-07T12:46:32.000Z</time>
      </trkpt>
      <trkpt lat="47.15848" lon="-1.6309">
        <ele>51</ele>
        <time>2021-03-07T12:46:34.000Z</time>
      </trkpt>
      <trkpt lat="47.15834" lon="-1.63103">
        <ele>50</ele>
        <time>2021-03-07T12:46:36.000Z</time>
      </trkpt>
      <trkpt lat="47.15826" lon="-1.63109">
        <ele>50</ele>
        <time>2021-03-07T12:46:37.000Z</time>
      </trkpt>
      <trkpt lat="47.15811" lon="-1.63121">
        <ele>50</ele>
        <time>2021-03-07T12:46:39.000Z</time>
      </trkpt>
      <trkpt lat="47.15797" lon="-1.63134">
        <ele>50</ele>
        <time>2021-03-07T12:46:41.000Z</time>
      </trkpt>
      <trkpt lat="47.15784" lon="-1.63151">
        <ele>48</ele>
        <time>2021-03-07T12:46:43.000Z</time>
      </trkpt>
      <trkpt lat="47.1577" lon="-1.63162">
        <ele>49</ele>
        <time>2021-03-07T12:46:45.000Z</time>
      </trkpt>
      <trkpt lat="47.15761" lon="-1.63169">
        <ele>49</ele>
        <time>2021-03-07T12:46:46.000Z</time>
      </trkpt>
      <trkpt lat="47.15751" lon="-1.63175">
        <ele>50</ele>
        <time>2021-03-07T12:46:47.000Z</time>
      </trkpt>
      <trkpt lat="47.15729" lon="-1.63191">
        <ele>52</ele>
        <time>2021-03-07T12:46:50.000Z</time>
      </trkpt>
      <trkpt lat="47.1572" lon="-1.63199">
        <ele>52</ele>
        <time>2021-03-07T12:46:51.000Z</time>
      </trkpt>
      <trkpt lat="47.15714" lon="-1.63209">
        <ele>52</ele>
        <time>2021-03-07T12:46:52.000Z</time>
      </trkpt>
      <trkpt lat="47.15701" lon="-1.63218">
        <ele>53</ele>
        <time>2021-03-07T12:46:54.000Z</time>
      </trkpt>
      <trkpt lat="47.15686" lon="-1.6323">
        <ele>54</ele>
        <time>2021-03-07T12:46:56.000Z</time>
      </trkpt>
      <trkpt lat="47.15664" lon="-1.63251">
        <ele>54</ele>
        <time>2021-03-07T12:46:59.000Z</time>
      </trkpt>
      <trkpt lat="47.15656" lon="-1.63259">
        <ele>54</ele>
        <time>2021-03-07T12:47:00.000Z</time>
      </trkpt>
      <trkpt lat="47.15645" lon="-1.63272">
        <ele>54</ele>
        <time>2021-03-07T12:47:02.000Z</time>
      </trkpt>
      <trkpt lat="47.15632" lon="-1.63282">
        <ele>53</ele>
        <time>2021-03-07T12:47:04.000Z</time>
      </trkpt>
      <trkpt lat="47.15617" lon="-1.63293">
        <ele>54</ele>
        <time>2021-03-07T12:47:06.000Z</time>
      </trkpt>
      <trkpt lat="47.15608" lon="-1.63298">
        <ele>54</ele>
        <time>2021-03-07T12:47:07.000Z</time>
      </trkpt>
      <trkpt lat="47.156" lon="-1.63304">
        <ele>55</ele>
        <time>2021-03-07T12:47:08.000Z</time>
      </trkpt>
      <trkpt lat="47.15592" lon="-1.63312">
        <ele>54</ele>
        <time>2021-03-07T12:47:09.000Z</time>
      </trkpt>
      <trkpt lat="47.1558" lon="-1.63326">
        <ele>54</ele>
        <time>2021-03-07T12:47:11.000Z</time>
      </trkpt>
      <trkpt lat="47.15567" lon="-1.63335">
        <ele>56</ele>
        <time>2021-03-07T12:47:13.000Z</time>
      </trkpt>
      <trkpt lat="47.15554" lon="-1.63346">
        <ele>57</ele>
        <time>2021-03-07T12:47:15.000Z</time>
      </trkpt>
      <trkpt lat="47.15541" lon="-1.63357">
        <ele>58</ele>
        <time>2021-03-07T12:47:17.000Z</time>
      </trkpt>
      <trkpt lat="47.1553" lon="-1.63368">
        <ele>58</ele>
        <time>2021-03-07T12:47:19.000Z</time>
      </trkpt>
      <trkpt lat="47.15512" lon="-1.63386">
        <ele>60</ele>
        <time>2021-03-07T12:47:22.000Z</time>
      </trkpt>
      <trkpt lat="47.15494" lon="-1.63405">
        <ele>60</ele>
        <time>2021-03-07T12:47:25.000Z</time>
      </trkpt>
      <trkpt lat="47.1548" lon="-1.63415">
        <ele>62</ele>
        <time>2021-03-07T12:47:27.000Z</time>
      </trkpt>
      <trkpt lat="47.15468" lon="-1.63427">
        <ele>62</ele>
        <time>2021-03-07T12:47:29.000Z</time>
      </trkpt>
      <trkpt lat="47.1546" lon="-1.63435">
        <ele>62</ele>
        <time>2021-03-07T12:47:30.000Z</time>
      </trkpt>
      <trkpt lat="47.15444" lon="-1.63448">
        <ele>61</ele>
        <time>2021-03-07T12:47:32.000Z</time>
      </trkpt>
      <trkpt lat="47.15433" lon="-1.63456">
        <ele>62</ele>
        <time>2021-03-07T12:47:34.000Z</time>
      </trkpt>
      <trkpt lat="47.15421" lon="-1.63467">
        <ele>62</ele>
        <time>2021-03-07T12:47:36.000Z</time>
      </trkpt>
      <trkpt lat="47.15409" lon="-1.63481">
        <ele>62</ele>
        <time>2021-03-07T12:47:38.000Z</time>
      </trkpt>
      <trkpt lat="47.15393" lon="-1.63499">
        <ele>61</ele>
        <time>2021-03-07T12:47:41.000Z</time>
      </trkpt>
      <trkpt lat="47.15384" lon="-1.63509">
        <ele>63</ele>
        <time>2021-03-07T12:47:43.000Z</time>
      </trkpt>
      <trkpt lat="47.1537" lon="-1.63514">
        <ele>62</ele>
        <time>2021-03-07T12:47:45.000Z</time>
      </trkpt>
      <trkpt lat="47.1536" lon="-1.63537">
        <ele>63</ele>
        <time>2021-03-07T12:47:47.000Z</time>
      </trkpt>
      <trkpt lat="47.15344" lon="-1.63547">
        <ele>63</ele>
        <time>2021-03-07T12:47:49.000Z</time>
      </trkpt>
      <trkpt lat="47.1533" lon="-1.63556">
        <ele>63</ele>
        <time>2021-03-07T12:47:51.000Z</time>
      </trkpt>
      <trkpt lat="47.15318" lon="-1.63565">
        <ele>63</ele>
        <time>2021-03-07T12:47:53.000Z</time>
      </trkpt>
      <trkpt lat="47.15302" lon="-1.63572">
        <ele>63</ele>
        <time>2021-03-07T12:47:55.000Z</time>
      </trkpt>
      <trkpt lat="47.15283" lon="-1.63586">
        <ele>62</ele>
        <time>2021-03-07T12:47:58.000Z</time>
      </trkpt>
      <trkpt lat="47.1527" lon="-1.63598">
        <ele>63</ele>
        <time>2021-03-07T12:48:00.000Z</time>
      </trkpt>
      <trkpt lat="47.15257" lon="-1.63609">
        <ele>65</ele>
        <time>2021-03-07T12:48:02.000Z</time>
      </trkpt>
      <trkpt lat="47.15237" lon="-1.63626">
        <ele>66</ele>
        <time>2021-03-07T12:48:05.000Z</time>
      </trkpt>
      <trkpt lat="47.15225" lon="-1.63639">
        <ele>65</ele>
        <time>2021-03-07T12:48:07.000Z</time>
      </trkpt>
      <trkpt lat="47.15213" lon="-1.63651">
        <ele>65</ele>
        <time>2021-03-07T12:48:09.000Z</time>
      </trkpt>
      <trkpt lat="47.15199" lon="-1.63662">
        <ele>65</ele>
        <time>2021-03-07T12:48:11.000Z</time>
      </trkpt>
      <trkpt lat="47.15186" lon="-1.63674">
        <ele>65</ele>
        <time>2021-03-07T12:48:13.000Z</time>
      </trkpt>
      <trkpt lat="47.15173" lon="-1.63687">
        <ele>66</ele>
        <time>2021-03-07T12:48:15.000Z</time>
      </trkpt>
      <trkpt lat="47.1516" lon="-1.63699">
        <ele>66</ele>
        <time>2021-03-07T12:48:17.000Z</time>
      </trkpt>
      <trkpt lat="47.15148" lon="-1.63716">
        <ele>64</ele>
        <time>2021-03-07T12:48:19.000Z</time>
      </trkpt>
      <trkpt lat="47.15136" lon="-1.63726">
        <ele>63</ele>
        <time>2021-03-07T12:48:21.000Z</time>
      </trkpt>
      <trkpt lat="47.15125" lon="-1.63742">
        <ele>63</ele>
        <time>2021-03-07T12:48:23.000Z</time>
      </trkpt>
      <trkpt lat="47.15109" lon="-1.63753">
        <ele>61</ele>
        <time>2021-03-07T12:48:25.000Z</time>
      </trkpt>
      <trkpt lat="47.151" lon="-1.6376">
        <ele>61</ele>
        <time>2021-03-07T12:48:26.000Z</time>
      </trkpt>
      <trkpt lat="47.15086" lon="-1.63773">
        <ele>61</ele>
        <time>2021-03-07T12:48:28.000Z</time>
      </trkpt>
      <trkpt lat="47.15074" lon="-1.63789">
        <ele>63</ele>
        <time>2021-03-07T12:48:30.000Z</time>
      </trkpt>
      <trkpt lat="47.15057" lon="-1.63813">
        <ele>64</ele>
        <time>2021-03-07T12:48:33.000Z</time>
      </trkpt>
      <trkpt lat="47.15051" lon="-1.63822">
        <ele>64</ele>
        <time>2021-03-07T12:48:34.000Z</time>
      </trkpt>
      <trkpt lat="47.15038" lon="-1.63839">
        <ele>64</ele>
        <time>2021-03-07T12:48:36.000Z</time>
      </trkpt>
      <trkpt lat="47.15026" lon="-1.63854">
        <ele>64</ele>
        <time>2021-03-07T12:48:38.000Z</time>
      </trkpt>
      <trkpt lat="47.15015" lon="-1.63871">
        <ele>64</ele>
        <time>2021-03-07T12:48:40.000Z</time>
      </trkpt>
      <trkpt lat="47.15001" lon="-1.63888">
        <ele>64</ele>
        <time>2021-03-07T12:48:42.000Z</time>
      </trkpt>
      <trkpt lat="47.14994" lon="-1.63896">
        <ele>64</ele>
        <time>2021-03-07T12:48:43.000Z</time>
      </trkpt>
      <trkpt lat="47.14983" lon="-1.63913">
        <ele>63</ele>
        <time>2021-03-07T12:48:45.000Z</time>
      </trkpt>
      <trkpt lat="47.14974" lon="-1.63931">
        <ele>63</ele>
        <time>2021-03-07T12:48:47.000Z</time>
      </trkpt>
      <trkpt lat="47.14965" lon="-1.63948">
        <ele>64</ele>
        <time>2021-03-07T12:48:49.000Z</time>
      </trkpt>
      <trkpt lat="47.14954" lon="-1.63964">
        <ele>64</ele>
        <time>2021-03-07T12:48:51.000Z</time>
      </trkpt>
      <trkpt lat="47.14941" lon="-1.63988">
        <ele>64</ele>
        <time>2021-03-07T12:48:54.000Z</time>
      </trkpt>
      <trkpt lat="47.14933" lon="-1.64006">
        <ele>65</ele>
        <time>2021-03-07T12:48:56.000Z</time>
      </trkpt>
      <trkpt lat="47.14923" lon="-1.64025">
        <ele>64</ele>
        <time>2021-03-07T12:48:58.000Z</time>
      </trkpt>
      <trkpt lat="47.1491" lon="-1.64044">
        <ele>63</ele>
        <time>2021-03-07T12:49:00.000Z</time>
      </trkpt>
      <trkpt lat="47.149" lon="-1.64077">
        <ele>63</ele>
        <time>2021-03-07T12:49:03.000Z</time>
      </trkpt>
      <trkpt lat="47.14892" lon="-1.64097">
        <ele>64</ele>
        <time>2021-03-07T12:49:05.000Z</time>
      </trkpt>
      <trkpt lat="47.14883" lon="-1.64118">
        <ele>64</ele>
        <time>2021-03-07T12:49:07.000Z</time>
      </trkpt>
      <trkpt lat="47.14874" lon="-1.64139">
        <ele>65</ele>
        <time>2021-03-07T12:49:09.000Z</time>
      </trkpt>
      <trkpt lat="47.14862" lon="-1.6417">
        <ele>65</ele>
        <time>2021-03-07T12:49:12.000Z</time>
      </trkpt>
      <trkpt lat="47.14855" lon="-1.64191">
        <ele>66</ele>
        <time>2021-03-07T12:49:14.000Z</time>
      </trkpt>
      <trkpt lat="47.14848" lon="-1.64213">
        <ele>66</ele>
        <time>2021-03-07T12:49:16.000Z</time>
      </trkpt>
      <trkpt lat="47.14841" lon="-1.64234">
        <ele>66</ele>
        <time>2021-03-07T12:49:18.000Z</time>
      </trkpt>
      <trkpt lat="47.14831" lon="-1.64266">
        <ele>66</ele>
        <time>2021-03-07T12:49:21.000Z</time>
      </trkpt>
      <trkpt lat="47.14825" lon="-1.64287">
        <ele>66</ele>
        <time>2021-03-07T12:49:23.000Z</time>
      </trkpt>
      <trkpt lat="47.14819" lon="-1.64309">
        <ele>66</ele>
        <time>2021-03-07T12:49:25.000Z</time>
      </trkpt>
      <trkpt lat="47.14815" lon="-1.6433">
        <ele>66</ele>
        <time>2021-03-07T12:49:27.000Z</time>
      </trkpt>
      <trkpt lat="47.14807" lon="-1.64362">
        <ele>67</ele>
        <time>2021-03-07T12:49:30.000Z</time>
      </trkpt>
      <trkpt lat="47.14802" lon="-1.64382">
        <ele>67</ele>
        <time>2021-03-07T12:49:32.000Z</time>
      </trkpt>
      <trkpt lat="47.14794" lon="-1.64414">
        <ele>67</ele>
        <time>2021-03-07T12:49:35.000Z</time>
      </trkpt>
      <trkpt lat="47.14788" lon="-1.64435">
        <ele>68</ele>
        <time>2021-03-07T12:49:37.000Z</time>
      </trkpt>
      <trkpt lat="47.1478" lon="-1.6447">
        <ele>67</ele>
        <time>2021-03-07T12:49:40.000Z</time>
      </trkpt>
      <trkpt lat="47.14778" lon="-1.64493">
        <ele>68</ele>
        <time>2021-03-07T12:49:42.000Z</time>
      </trkpt>
      <trkpt lat="47.14773" lon="-1.6453">
        <ele>68</ele>
        <time>2021-03-07T12:49:45.000Z</time>
      </trkpt>
      <trkpt lat="47.1477" lon="-1.64542">
        <ele>68</ele>
        <time>2021-03-07T12:49:46.000Z</time>
      </trkpt>
      <trkpt lat="47.14769" lon="-1.64564">
        <ele>69</ele>
        <time>2021-03-07T12:49:48.000Z</time>
      </trkpt>
      <trkpt lat="47.14764" lon="-1.64585">
        <ele>69</ele>
        <time>2021-03-07T12:49:50.000Z</time>
      </trkpt>
      <trkpt lat="47.14762" lon="-1.64609">
        <ele>68</ele>
        <time>2021-03-07T12:49:52.000Z</time>
      </trkpt>
      <trkpt lat="47.1476" lon="-1.64622">
        <ele>68</ele>
        <time>2021-03-07T12:49:53.000Z</time>
      </trkpt>
      <trkpt lat="47.14758" lon="-1.64635">
        <ele>68</ele>
        <time>2021-03-07T12:49:54.000Z</time>
      </trkpt>
      <trkpt lat="47.14749" lon="-1.64683">
        <ele>69</ele>
        <time>2021-03-07T12:49:58.000Z</time>
      </trkpt>
      <trkpt lat="47.14745" lon="-1.64708">
        <ele>69</ele>
        <time>2021-03-07T12:50:00.000Z</time>
      </trkpt>
      <trkpt lat="47.1474" lon="-1.64731">
        <ele>68</ele>
        <time>2021-03-07T12:50:02.000Z</time>
      </trkpt>
      <trkpt lat="47.14733" lon="-1.64753">
        <ele>67</ele>
        <time>2021-03-07T12:50:04.000Z</time>
      </trkpt>
      <trkpt lat="47.14726" lon="-1.64778">
        <ele>66</ele>
        <time>2021-03-07T12:50:06.000Z</time>
      </trkpt>
      <trkpt lat="47.14721" lon="-1.6479">
        <ele>65</ele>
        <time>2021-03-07T12:50:07.000Z</time>
      </trkpt>
      <trkpt lat="47.14713" lon="-1.64819">
        <ele>64</ele>
        <time>2021-03-07T12:50:09.000Z</time>
      </trkpt>
      <trkpt lat="47.14708" lon="-1.64833">
        <ele>62</ele>
        <time>2021-03-07T12:50:10.000Z</time>
      </trkpt>
      <trkpt lat="47.14703" lon="-1.64845">
        <ele>62</ele>
        <time>2021-03-07T12:50:11.000Z</time>
      </trkpt>
      <trkpt lat="47.147" lon="-1.64857">
        <ele>62</ele>
        <time>2021-03-07T12:50:12.000Z</time>
      </trkpt>
      <trkpt lat="47.14698" lon="-1.6487">
        <ele>62</ele>
        <time>2021-03-07T12:50:13.000Z</time>
      </trkpt>
      <trkpt lat="47.14698" lon="-1.64896">
        <ele>62</ele>
        <time>2021-03-07T12:50:15.000Z</time>
      </trkpt>
      <trkpt lat="47.14699" lon="-1.64916">
        <ele>62</ele>
        <time>2021-03-07T12:50:17.000Z</time>
      </trkpt>
      <trkpt lat="47.14689" lon="-1.64937">
        <ele>60</ele>
        <time>2021-03-07T12:50:20.000Z</time>
      </trkpt>
      <trkpt lat="47.14679" lon="-1.64945">
        <ele>60</ele>
        <time>2021-03-07T12:50:22.000Z</time>
      </trkpt>
      <trkpt lat="47.14671" lon="-1.64967">
        <ele>60</ele>
        <time>2021-03-07T12:50:25.000Z</time>
      </trkpt>
      <trkpt lat="47.14666" lon="-1.64982">
        <ele>58</ele>
        <time>2021-03-07T12:50:26.000Z</time>
      </trkpt>
      <trkpt lat="47.1466" lon="-1.64994">
        <ele>57</ele>
        <time>2021-03-07T12:50:27.000Z</time>
      </trkpt>
      <trkpt lat="47.1465" lon="-1.65013">
        <ele>55</ele>
        <time>2021-03-07T12:50:29.000Z</time>
      </trkpt>
      <trkpt lat="47.14646" lon="-1.65026">
        <ele>56</ele>
        <time>2021-03-07T12:50:30.000Z</time>
      </trkpt>
      <trkpt lat="47.14637" lon="-1.65049">
        <ele>56</ele>
        <time>2021-03-07T12:50:32.000Z</time>
      </trkpt>
      <trkpt lat="47.14627" lon="-1.65073">
        <ele>54</ele>
        <time>2021-03-07T12:50:34.000Z</time>
      </trkpt>
      <trkpt lat="47.14621" lon="-1.65084">
        <ele>54</ele>
        <time>2021-03-07T12:50:35.000Z</time>
      </trkpt>
      <trkpt lat="47.14616" lon="-1.65095">
        <ele>54</ele>
        <time>2021-03-07T12:50:36.000Z</time>
      </trkpt>
      <trkpt lat="47.1461" lon="-1.65116">
        <ele>55</ele>
        <time>2021-03-07T12:50:38.000Z</time>
      </trkpt>
      <trkpt lat="47.14604" lon="-1.65141">
        <ele>56</ele>
        <time>2021-03-07T12:50:40.000Z</time>
      </trkpt>
      <trkpt lat="47.14596" lon="-1.65166">
        <ele>54</ele>
        <time>2021-03-07T12:50:42.000Z</time>
      </trkpt>
      <trkpt lat="47.14587" lon="-1.65192">
        <ele>52</ele>
        <time>2021-03-07T12:50:44.000Z</time>
      </trkpt>
      <trkpt lat="47.14582" lon="-1.65214">
        <ele>51</ele>
        <time>2021-03-07T12:50:46.000Z</time>
      </trkpt>
      <trkpt lat="47.14576" lon="-1.65252">
        <ele>48</ele>
        <time>2021-03-07T12:50:49.000Z</time>
      </trkpt>
      <trkpt lat="47.14571" lon="-1.65275">
        <ele>49</ele>
        <time>2021-03-07T12:50:51.000Z</time>
      </trkpt>
      <trkpt lat="47.14567" lon="-1.65296">
        <ele>51</ele>
        <time>2021-03-07T12:50:53.000Z</time>
      </trkpt>
      <trkpt lat="47.14561" lon="-1.65323">
        <ele>51</ele>
        <time>2021-03-07T12:50:55.000Z</time>
      </trkpt>
      <trkpt lat="47.14558" lon="-1.65348">
        <ele>51</ele>
        <time>2021-03-07T12:50:57.000Z</time>
      </trkpt>
      <trkpt lat="47.14554" lon="-1.65371">
        <ele>52</ele>
        <time>2021-03-07T12:50:59.000Z</time>
      </trkpt>
      <trkpt lat="47.14547" lon="-1.65393">
        <ele>52</ele>
        <time>2021-03-07T12:51:01.000Z</time>
      </trkpt>
      <trkpt lat="47.14543" lon="-1.65405">
        <ele>52</ele>
        <time>2021-03-07T12:51:02.000Z</time>
      </trkpt>
      <trkpt lat="47.14533" lon="-1.65423">
        <ele>54</ele>
        <time>2021-03-07T12:51:04.000Z</time>
      </trkpt>
      <trkpt lat="47.1453" lon="-1.65445">
        <ele>56</ele>
        <time>2021-03-07T12:51:06.000Z</time>
      </trkpt>
      <trkpt lat="47.14525" lon="-1.65466">
        <ele>56</ele>
        <time>2021-03-07T12:51:08.000Z</time>
      </trkpt>
      <trkpt lat="47.14515" lon="-1.65496">
        <ele>55</ele>
        <time>2021-03-07T12:51:11.000Z</time>
      </trkpt>
      <trkpt lat="47.14507" lon="-1.65518">
        <ele>54</ele>
        <time>2021-03-07T12:51:13.000Z</time>
      </trkpt>
      <trkpt lat="47.14499" lon="-1.6554">
        <ele>54</ele>
        <time>2021-03-07T12:51:15.000Z</time>
      </trkpt>
      <trkpt lat="47.1449" lon="-1.65562">
        <ele>53</ele>
        <time>2021-03-07T12:51:17.000Z</time>
      </trkpt>
      <trkpt lat="47.14481" lon="-1.65582">
        <ele>53</ele>
        <time>2021-03-07T12:51:19.000Z</time>
      </trkpt>
      <trkpt lat="47.14473" lon="-1.65603">
        <ele>52</ele>
        <time>2021-03-07T12:51:21.000Z</time>
      </trkpt>
      <trkpt lat="47.14464" lon="-1.65623">
        <ele>52</ele>
        <time>2021-03-07T12:51:23.000Z</time>
      </trkpt>
      <trkpt lat="47.14457" lon="-1.65644">
        <ele>51</ele>
        <time>2021-03-07T12:51:25.000Z</time>
      </trkpt>
      <trkpt lat="47.14449" lon="-1.65665">
        <ele>51</ele>
        <time>2021-03-07T12:51:27.000Z</time>
      </trkpt>
      <trkpt lat="47.14438" lon="-1.65697">
        <ele>53</ele>
        <time>2021-03-07T12:51:30.000Z</time>
      </trkpt>
      <trkpt lat="47.1443" lon="-1.65729">
        <ele>55</ele>
        <time>2021-03-07T12:51:33.000Z</time>
      </trkpt>
      <trkpt lat="47.14429" lon="-1.65755">
        <ele>54</ele>
        <time>2021-03-07T12:51:35.000Z</time>
      </trkpt>
      <trkpt lat="47.1442" lon="-1.65789">
        <ele>50</ele>
        <time>2021-03-07T12:51:38.000Z</time>
      </trkpt>
      <trkpt lat="47.14417" lon="-1.65811">
        <ele>50</ele>
        <time>2021-03-07T12:51:40.000Z</time>
      </trkpt>
      <trkpt lat="47.14417" lon="-1.65832">
        <ele>50</ele>
        <time>2021-03-07T12:51:42.000Z</time>
      </trkpt>
      <trkpt lat="47.14414" lon="-1.65854">
        <ele>53</ele>
        <time>2021-03-07T12:51:44.000Z</time>
      </trkpt>
      <trkpt lat="47.14411" lon="-1.65877">
        <ele>55</ele>
        <time>2021-03-07T12:51:46.000Z</time>
      </trkpt>
      <trkpt lat="47.1441" lon="-1.659">
        <ele>54</ele>
        <time>2021-03-07T12:51:48.000Z</time>
      </trkpt>
      <trkpt lat="47.14407" lon="-1.65924">
        <ele>53</ele>
        <time>2021-03-07T12:51:50.000Z</time>
      </trkpt>
      <trkpt lat="47.14406" lon="-1.65946">
        <ele>53</ele>
        <time>2021-03-07T12:51:52.000Z</time>
      </trkpt>
      <trkpt lat="47.14406" lon="-1.65966">
        <ele>54</ele>
        <time>2021-03-07T12:51:54.000Z</time>
      </trkpt>
      <trkpt lat="47.14406" lon="-1.65987">
        <ele>56</ele>
        <time>2021-03-07T12:51:56.000Z</time>
      </trkpt>
      <trkpt lat="47.14406" lon="-1.6602">
        <ele>55</ele>
        <time>2021-03-07T12:51:59.000Z</time>
      </trkpt>
      <trkpt lat="47.14404" lon="-1.66053">
        <ele>55</ele>
        <time>2021-03-07T12:52:02.000Z</time>
      </trkpt>
      <trkpt lat="47.14399" lon="-1.66084">
        <ele>58</ele>
        <time>2021-03-07T12:52:05.000Z</time>
      </trkpt>
      <trkpt lat="47.14396" lon="-1.66104">
        <ele>58</ele>
        <time>2021-03-07T12:52:07.000Z</time>
      </trkpt>
      <trkpt lat="47.14393" lon="-1.66124">
        <ele>58</ele>
        <time>2021-03-07T12:52:09.000Z</time>
      </trkpt>
      <trkpt lat="47.14389" lon="-1.66145">
        <ele>58</ele>
        <time>2021-03-07T12:52:11.000Z</time>
      </trkpt>
      <trkpt lat="47.14388" lon="-1.66167">
        <ele>58</ele>
        <time>2021-03-07T12:52:13.000Z</time>
      </trkpt>
      <trkpt lat="47.14388" lon="-1.66189">
        <ele>58</ele>
        <time>2021-03-07T12:52:15.000Z</time>
      </trkpt>
      <trkpt lat="47.14382" lon="-1.66208">
        <ele>58</ele>
        <time>2021-03-07T12:52:17.000Z</time>
      </trkpt>
      <trkpt lat="47.14374" lon="-1.66227">
        <ele>58</ele>
        <time>2021-03-07T12:52:19.000Z</time>
      </trkpt>
      <trkpt lat="47.1437" lon="-1.66251">
        <ele>58</ele>
        <time>2021-03-07T12:52:21.000Z</time>
      </trkpt>
      <trkpt lat="47.14367" lon="-1.66272">
        <ele>57</ele>
        <time>2021-03-07T12:52:23.000Z</time>
      </trkpt>
      <trkpt lat="47.14363" lon="-1.66295">
        <ele>57</ele>
        <time>2021-03-07T12:52:25.000Z</time>
      </trkpt>
      <trkpt lat="47.14355" lon="-1.66315">
        <ele>57</ele>
        <time>2021-03-07T12:52:27.000Z</time>
      </trkpt>
      <trkpt lat="47.14349" lon="-1.66335">
        <ele>58</ele>
        <time>2021-03-07T12:52:29.000Z</time>
      </trkpt>
      <trkpt lat="47.14342" lon="-1.66357">
        <ele>58</ele>
        <time>2021-03-07T12:52:31.000Z</time>
      </trkpt>
      <trkpt lat="47.14336" lon="-1.66381">
        <ele>59</ele>
        <time>2021-03-07T12:52:33.000Z</time>
      </trkpt>
      <trkpt lat="47.14333" lon="-1.66396">
        <ele>58</ele>
        <time>2021-03-07T12:52:34.000Z</time>
      </trkpt>
      <trkpt lat="47.14329" lon="-1.66409">
        <ele>58</ele>
        <time>2021-03-07T12:52:35.000Z</time>
      </trkpt>
      <trkpt lat="47.14325" lon="-1.66429">
        <ele>57</ele>
        <time>2021-03-07T12:52:37.000Z</time>
      </trkpt>
      <trkpt lat="47.1432" lon="-1.66451">
        <ele>57</ele>
        <time>2021-03-07T12:52:39.000Z</time>
      </trkpt>
      <trkpt lat="47.14313" lon="-1.66473">
        <ele>57</ele>
        <time>2021-03-07T12:52:41.000Z</time>
      </trkpt>
      <trkpt lat="47.14308" lon="-1.66495">
        <ele>57</ele>
        <time>2021-03-07T12:52:43.000Z</time>
      </trkpt>
      <trkpt lat="47.14304" lon="-1.66515">
        <ele>56</ele>
        <time>2021-03-07T12:52:45.000Z</time>
      </trkpt>
      <trkpt lat="47.14301" lon="-1.66536">
        <ele>55</ele>
        <time>2021-03-07T12:52:47.000Z</time>
      </trkpt>
      <trkpt lat="47.14299" lon="-1.66549">
        <ele>55</ele>
        <time>2021-03-07T12:52:48.000Z</time>
      </trkpt>
      <trkpt lat="47.14294" lon="-1.66562">
        <ele>55</ele>
        <time>2021-03-07T12:52:49.000Z</time>
      </trkpt>
      <trkpt lat="47.14286" lon="-1.66582">
        <ele>55</ele>
        <time>2021-03-07T12:52:51.000Z</time>
      </trkpt>
      <trkpt lat="47.1428" lon="-1.66602">
        <ele>55</ele>
        <time>2021-03-07T12:52:53.000Z</time>
      </trkpt>
      <trkpt lat="47.1427" lon="-1.66634">
        <ele>55</ele>
        <time>2021-03-07T12:52:56.000Z</time>
      </trkpt>
      <trkpt lat="47.14262" lon="-1.66657">
        <ele>55</ele>
        <time>2021-03-07T12:52:58.000Z</time>
      </trkpt>
      <trkpt lat="47.14253" lon="-1.6668">
        <ele>55</ele>
        <time>2021-03-07T12:53:00.000Z</time>
      </trkpt>
      <trkpt lat="47.14244" lon="-1.66704">
        <ele>54</ele>
        <time>2021-03-07T12:53:02.000Z</time>
      </trkpt>
      <trkpt lat="47.1424" lon="-1.66716">
        <ele>54</ele>
        <time>2021-03-07T12:53:03.000Z</time>
      </trkpt>
      <trkpt lat="47.14234" lon="-1.6674">
        <ele>53</ele>
        <time>2021-03-07T12:53:05.000Z</time>
      </trkpt>
      <trkpt lat="47.14226" lon="-1.66761">
        <ele>53</ele>
        <time>2021-03-07T12:53:07.000Z</time>
      </trkpt>
      <trkpt lat="47.14222" lon="-1.66772">
        <ele>53</ele>
        <time>2021-03-07T12:53:08.000Z</time>
      </trkpt>
      <trkpt lat="47.14214" lon="-1.66793">
        <ele>52</ele>
        <time>2021-03-07T12:53:10.000Z</time>
      </trkpt>
      <trkpt lat="47.14207" lon="-1.66815">
        <ele>53</ele>
        <time>2021-03-07T12:53:12.000Z</time>
      </trkpt>
      <trkpt lat="47.14201" lon="-1.6684">
        <ele>50</ele>
        <time>2021-03-07T12:53:14.000Z</time>
      </trkpt>
      <trkpt lat="47.14196" lon="-1.66859">
        <ele>47</ele>
        <time>2021-03-07T12:53:16.000Z</time>
      </trkpt>
      <trkpt lat="47.14194" lon="-1.66879">
        <ele>48</ele>
        <time>2021-03-07T12:53:18.000Z</time>
      </trkpt>
      <trkpt lat="47.14188" lon="-1.669">
        <ele>51</ele>
        <time>2021-03-07T12:53:20.000Z</time>
      </trkpt>
      <trkpt lat="47.14178" lon="-1.66938">
        <ele>52</ele>
        <time>2021-03-07T12:53:23.000Z</time>
      </trkpt>
      <trkpt lat="47.14177" lon="-1.66968">
        <ele>52</ele>
        <time>2021-03-07T12:53:26.000Z</time>
      </trkpt>
      <trkpt lat="47.14179" lon="-1.66988">
        <ele>53</ele>
        <time>2021-03-07T12:53:28.000Z</time>
      </trkpt>
      <trkpt lat="47.14178" lon="-1.67013">
        <ele>52</ele>
        <time>2021-03-07T12:53:30.000Z</time>
      </trkpt>
      <trkpt lat="47.1418" lon="-1.67045">
        <ele>52</ele>
        <time>2021-03-07T12:53:33.000Z</time>
      </trkpt>
      <trkpt lat="47.14179" lon="-1.67068">
        <ele>51</ele>
        <time>2021-03-07T12:53:35.000Z</time>
      </trkpt>
      <trkpt lat="47.14181" lon="-1.6709">
        <ele>52</ele>
        <time>2021-03-07T12:53:37.000Z</time>
      </trkpt>
      <trkpt lat="47.14183" lon="-1.67108">
        <ele>53</ele>
        <time>2021-03-07T12:53:39.000Z</time>
      </trkpt>
      <trkpt lat="47.14191" lon="-1.67127">
        <ele>53</ele>
        <time>2021-03-07T12:53:41.000Z</time>
      </trkpt>
      <trkpt lat="47.14193" lon="-1.67143">
        <ele>52</ele>
        <time>2021-03-07T12:53:43.000Z</time>
      </trkpt>
      <trkpt lat="47.14195" lon="-1.67156">
        <ele>53</ele>
        <time>2021-03-07T12:53:45.000Z</time>
      </trkpt>
      <trkpt lat="47.14197" lon="-1.67169">
        <ele>54</ele>
        <time>2021-03-07T12:53:47.000Z</time>
      </trkpt>
      <trkpt lat="47.14198" lon="-1.67186">
        <ele>55</ele>
        <time>2021-03-07T12:53:50.000Z</time>
      </trkpt>
      <trkpt lat="47.14201" lon="-1.67199">
        <ele>55</ele>
        <time>2021-03-07T12:53:57.000Z</time>
      </trkpt>
      <trkpt lat="47.14206" lon="-1.67212">
        <ele>53</ele>
        <time>2021-03-07T12:54:07.000Z</time>
      </trkpt>
      <trkpt lat="47.14212" lon="-1.67223">
        <ele>52</ele>
        <time>2021-03-07T12:54:11.000Z</time>
      </trkpt>
      <trkpt lat="47.14214" lon="-1.67237">
        <ele>51</ele>
        <time>2021-03-07T12:54:15.000Z</time>
      </trkpt>
      <trkpt lat="47.14214" lon="-1.67254">
        <ele>52</ele>
        <time>2021-03-07T12:54:17.000Z</time>
      </trkpt>
      <trkpt lat="47.14219" lon="-1.67274">
        <ele>51</ele>
        <time>2021-03-07T12:54:19.000Z</time>
      </trkpt>
      <trkpt lat="47.14226" lon="-1.67295">
        <ele>52</ele>
        <time>2021-03-07T12:54:21.000Z</time>
      </trkpt>
      <trkpt lat="47.14235" lon="-1.67316">
        <ele>53</ele>
        <time>2021-03-07T12:54:23.000Z</time>
      </trkpt>
      <trkpt lat="47.14243" lon="-1.67336">
        <ele>54</ele>
        <time>2021-03-07T12:54:25.000Z</time>
      </trkpt>
      <trkpt lat="47.14248" lon="-1.67357">
        <ele>53</ele>
        <time>2021-03-07T12:54:27.000Z</time>
      </trkpt>
      <trkpt lat="47.14256" lon="-1.67374">
        <ele>54</ele>
        <time>2021-03-07T12:54:29.000Z</time>
      </trkpt>
      <trkpt lat="47.14266" lon="-1.67392">
        <ele>54</ele>
        <time>2021-03-07T12:54:31.000Z</time>
      </trkpt>
      <trkpt lat="47.14274" lon="-1.67411">
        <ele>55</ele>
        <time>2021-03-07T12:54:33.000Z</time>
      </trkpt>
      <trkpt lat="47.14281" lon="-1.67431">
        <ele>54</ele>
        <time>2021-03-07T12:54:35.000Z</time>
      </trkpt>
      <trkpt lat="47.14289" lon="-1.67449">
        <ele>53</ele>
        <time>2021-03-07T12:54:37.000Z</time>
      </trkpt>
      <trkpt lat="47.14295" lon="-1.67469">
        <ele>53</ele>
        <time>2021-03-07T12:54:39.000Z</time>
      </trkpt>
      <trkpt lat="47.14301" lon="-1.67488">
        <ele>52</ele>
        <time>2021-03-07T12:54:41.000Z</time>
      </trkpt>
      <trkpt lat="47.14307" lon="-1.67506">
        <ele>51</ele>
        <time>2021-03-07T12:54:43.000Z</time>
      </trkpt>
      <trkpt lat="47.14316" lon="-1.67534">
        <ele>50</ele>
        <time>2021-03-07T12:54:46.000Z</time>
      </trkpt>
      <trkpt lat="47.1432" lon="-1.67551">
        <ele>51</ele>
        <time>2021-03-07T12:54:48.000Z</time>
      </trkpt>
      <trkpt lat="47.14326" lon="-1.6757">
        <ele>50</ele>
        <time>2021-03-07T12:54:50.000Z</time>
      </trkpt>
      <trkpt lat="47.14327" lon="-1.67595">
        <ele>50</ele>
        <time>2021-03-07T12:54:52.000Z</time>
      </trkpt>
      <trkpt lat="47.14324" lon="-1.67629">
        <ele>53</ele>
        <time>2021-03-07T12:54:55.000Z</time>
      </trkpt>
      <trkpt lat="47.14324" lon="-1.67652">
        <ele>54</ele>
        <time>2021-03-07T12:54:57.000Z</time>
      </trkpt>
      <trkpt lat="47.14326" lon="-1.67673">
        <ele>54</ele>
        <time>2021-03-07T12:54:59.000Z</time>
      </trkpt>
      <trkpt lat="47.14328" lon="-1.67706">
        <ele>52</ele>
        <time>2021-03-07T12:55:02.000Z</time>
      </trkpt>
      <trkpt lat="47.14334" lon="-1.67725">
        <ele>52</ele>
        <time>2021-03-07T12:55:04.000Z</time>
      </trkpt>
      <trkpt lat="47.14338" lon="-1.67746">
        <ele>51</ele>
        <time>2021-03-07T12:55:06.000Z</time>
      </trkpt>
      <trkpt lat="47.14343" lon="-1.67765">
        <ele>51</ele>
        <time>2021-03-07T12:55:08.000Z</time>
      </trkpt>
      <trkpt lat="47.14349" lon="-1.67783">
        <ele>52</ele>
        <time>2021-03-07T12:55:10.000Z</time>
      </trkpt>
      <trkpt lat="47.14354" lon="-1.67801">
        <ele>53</ele>
        <time>2021-03-07T12:55:12.000Z</time>
      </trkpt>
      <trkpt lat="47.14359" lon="-1.6782">
        <ele>54</ele>
        <time>2021-03-07T12:55:14.000Z</time>
      </trkpt>
      <trkpt lat="47.14364" lon="-1.6784">
        <ele>54</ele>
        <time>2021-03-07T12:55:16.000Z</time>
      </trkpt>
      <trkpt lat="47.14371" lon="-1.67858">
        <ele>54</ele>
        <time>2021-03-07T12:55:18.000Z</time>
      </trkpt>
      <trkpt lat="47.14377" lon="-1.67874">
        <ele>54</ele>
        <time>2021-03-07T12:55:20.000Z</time>
      </trkpt>
      <trkpt lat="47.14376" lon="-1.67904">
        <ele>50</ele>
        <time>2021-03-07T12:55:23.000Z</time>
      </trkpt>
      <trkpt lat="47.14372" lon="-1.67923">
        <ele>52</ele>
        <time>2021-03-07T12:55:25.000Z</time>
      </trkpt>
      <trkpt lat="47.14372" lon="-1.67942">
        <ele>53</ele>
        <time>2021-03-07T12:55:27.000Z</time>
      </trkpt>
      <trkpt lat="47.14373" lon="-1.67964">
        <ele>53</ele>
        <time>2021-03-07T12:55:29.000Z</time>
      </trkpt>
      <trkpt lat="47.14374" lon="-1.67984">
        <ele>53</ele>
        <time>2021-03-07T12:55:31.000Z</time>
      </trkpt>
      <trkpt lat="47.14375" lon="-1.68004">
        <ele>53</ele>
        <time>2021-03-07T12:55:33.000Z</time>
      </trkpt>
      <trkpt lat="47.14378" lon="-1.68021">
        <ele>54</ele>
        <time>2021-03-07T12:55:35.000Z</time>
      </trkpt>
      <trkpt lat="47.1438" lon="-1.68036">
        <ele>53</ele>
        <time>2021-03-07T12:55:37.000Z</time>
      </trkpt>
      <trkpt lat="47.14383" lon="-1.68053">
        <ele>53</ele>
        <time>2021-03-07T12:55:39.000Z</time>
      </trkpt>
      <trkpt lat="47.14387" lon="-1.68075">
        <ele>53</ele>
        <time>2021-03-07T12:55:41.000Z</time>
      </trkpt>
      <trkpt lat="47.1439" lon="-1.68097">
        <ele>53</ele>
        <time>2021-03-07T12:55:43.000Z</time>
      </trkpt>
      <trkpt lat="47.1439" lon="-1.6812">
        <ele>55</ele>
        <time>2021-03-07T12:55:45.000Z</time>
      </trkpt>
      <trkpt lat="47.14391" lon="-1.68142">
        <ele>56</ele>
        <time>2021-03-07T12:55:47.000Z</time>
      </trkpt>
      <trkpt lat="47.14392" lon="-1.68162">
        <ele>56</ele>
        <time>2021-03-07T12:55:49.000Z</time>
      </trkpt>
      <trkpt lat="47.14394" lon="-1.68183">
        <ele>57</ele>
        <time>2021-03-07T12:55:51.000Z</time>
      </trkpt>
      <trkpt lat="47.14396" lon="-1.68204">
        <ele>57</ele>
        <time>2021-03-07T12:55:53.000Z</time>
      </trkpt>
      <trkpt lat="47.144" lon="-1.68224">
        <ele>57</ele>
        <time>2021-03-07T12:55:55.000Z</time>
      </trkpt>
      <trkpt lat="47.14408" lon="-1.68235">
        <ele>56</ele>
        <time>2021-03-07T12:55:57.000Z</time>
      </trkpt>
      <trkpt lat="47.14406" lon="-1.68252">
        <ele>56</ele>
        <time>2021-03-07T12:55:59.000Z</time>
      </trkpt>
      <trkpt lat="47.14399" lon="-1.68269">
        <ele>56</ele>
        <time>2021-03-07T12:56:01.000Z</time>
      </trkpt>
      <trkpt lat="47.14402" lon="-1.6829">
        <ele>56</ele>
        <time>2021-03-07T12:56:03.000Z</time>
      </trkpt>
      <trkpt lat="47.14405" lon="-1.68311">
        <ele>56</ele>
        <time>2021-03-07T12:56:05.000Z</time>
      </trkpt>
      <trkpt lat="47.14413" lon="-1.68344">
        <ele>55</ele>
        <time>2021-03-07T12:56:08.000Z</time>
      </trkpt>
      <trkpt lat="47.14415" lon="-1.68357">
        <ele>55</ele>
        <time>2021-03-07T12:56:09.000Z</time>
      </trkpt>
      <trkpt lat="47.14416" lon="-1.68388">
        <ele>54</ele>
        <time>2021-03-07T12:56:12.000Z</time>
      </trkpt>
      <trkpt lat="47.14413" lon="-1.68419">
        <ele>54</ele>
        <time>2021-03-07T12:56:15.000Z</time>
      </trkpt>
      <trkpt lat="47.14411" lon="-1.68441">
        <ele>56</ele>
        <time>2021-03-07T12:56:17.000Z</time>
      </trkpt>
      <trkpt lat="47.1441" lon="-1.68464">
        <ele>56</ele>
        <time>2021-03-07T12:56:19.000Z</time>
      </trkpt>
      <trkpt lat="47.14409" lon="-1.68486">
        <ele>56</ele>
        <time>2021-03-07T12:56:21.000Z</time>
      </trkpt>
      <trkpt lat="47.14412" lon="-1.68519">
        <ele>56</ele>
        <time>2021-03-07T12:56:24.000Z</time>
      </trkpt>
      <trkpt lat="47.14413" lon="-1.6854">
        <ele>56</ele>
        <time>2021-03-07T12:56:26.000Z</time>
      </trkpt>
      <trkpt lat="47.14416" lon="-1.68561">
        <ele>55</ele>
        <time>2021-03-07T12:56:28.000Z</time>
      </trkpt>
      <trkpt lat="47.1442" lon="-1.68579">
        <ele>55</ele>
        <time>2021-03-07T12:56:30.000Z</time>
      </trkpt>
      <trkpt lat="47.14418" lon="-1.68598">
        <ele>55</ele>
        <time>2021-03-07T12:56:32.000Z</time>
      </trkpt>
      <trkpt lat="47.14422" lon="-1.6863">
        <ele>56</ele>
        <time>2021-03-07T12:56:35.000Z</time>
      </trkpt>
      <trkpt lat="47.14425" lon="-1.6865">
        <ele>56</ele>
        <time>2021-03-07T12:56:37.000Z</time>
      </trkpt>
      <trkpt lat="47.14426" lon="-1.68667">
        <ele>56</ele>
        <time>2021-03-07T12:56:39.000Z</time>
      </trkpt>
      <trkpt lat="47.14427" lon="-1.68688">
        <ele>57</ele>
        <time>2021-03-07T12:56:41.000Z</time>
      </trkpt>
      <trkpt lat="47.14423" lon="-1.68724">
        <ele>56</ele>
        <time>2021-03-07T12:56:44.000Z</time>
      </trkpt>
      <trkpt lat="47.14425" lon="-1.68747">
        <ele>57</ele>
        <time>2021-03-07T12:56:46.000Z</time>
      </trkpt>
      <trkpt lat="47.14425" lon="-1.68779">
        <ele>56</ele>
        <time>2021-03-07T12:56:49.000Z</time>
      </trkpt>
      <trkpt lat="47.14431" lon="-1.68794">
        <ele>54</ele>
        <time>2021-03-07T12:56:50.000Z</time>
      </trkpt>
      <trkpt lat="47.1444" lon="-1.68812">
        <ele>50</ele>
        <time>2021-03-07T12:56:51.000Z</time>
      </trkpt>
      <trkpt lat="47.14456" lon="-1.68825">
        <ele>47</ele>
        <time>2021-03-07T12:56:52.000Z</time>
      </trkpt>
      <trkpt lat="47.14472" lon="-1.68838">
        <ele>48</ele>
        <time>2021-03-07T12:56:53.000Z</time>
      </trkpt>
      <trkpt lat="47.14501" lon="-1.68853">
        <ele>49</ele>
        <time>2021-03-07T12:56:55.000Z</time>
      </trkpt>
      <trkpt lat="47.14507" lon="-1.68874">
        <ele>55</ele>
        <time>2021-03-07T12:56:58.000Z</time>
      </trkpt>
      <trkpt lat="47.14508" lon="-1.68898">
        <ele>57</ele>
        <time>2021-03-07T12:57:00.000Z</time>
      </trkpt>
      <trkpt lat="47.14511" lon="-1.68929">
        <ele>66</ele>
        <time>2021-03-07T12:57:02.000Z</time>
      </trkpt>
      <trkpt lat="47.14487" lon="-1.68933">
        <ele>73</ele>
        <time>2021-03-07T12:57:03.000Z</time>
      </trkpt>
      <trkpt lat="47.14475" lon="-1.68944">
        <ele>78</ele>
        <time>2021-03-07T12:57:04.000Z</time>
      </trkpt>
      <trkpt lat="47.14477" lon="-1.68969">
        <ele>78</ele>
        <time>2021-03-07T12:57:06.000Z</time>
      </trkpt>
      <trkpt lat="47.14494" lon="-1.68993">
        <ele>77</ele>
        <time>2021-03-07T12:57:08.000Z</time>
      </trkpt>
      <trkpt lat="47.14487" lon="-1.69002">
        <ele>78</ele>
        <time>2021-03-07T12:57:09.000Z</time>
      </trkpt>
      <trkpt lat="47.14465" lon="-1.69005">
        <ele>80</ele>
        <time>2021-03-07T12:57:10.000Z</time>
      </trkpt>
      <trkpt lat="47.14456" lon="-1.69011">
        <ele>84</ele>
        <time>2021-03-07T12:57:11.000Z</time>
      </trkpt>
      <trkpt lat="47.14457" lon="-1.69029">
        <ele>86</ele>
        <time>2021-03-07T12:57:14.000Z</time>
      </trkpt>
      <trkpt lat="47.14444" lon="-1.6903">
        <ele>84</ele>
        <time>2021-03-07T12:57:15.000Z</time>
      </trkpt>
      <trkpt lat="47.14435" lon="-1.69042">
        <ele>84</ele>
        <time>2021-03-07T12:57:16.000Z</time>
      </trkpt>
      <trkpt lat="47.14429" lon="-1.69052">
        <ele>80</ele>
        <time>2021-03-07T12:57:17.000Z</time>
      </trkpt>
      <trkpt lat="47.14418" lon="-1.69073">
        <ele>69</ele>
        <time>2021-03-07T12:57:19.000Z</time>
      </trkpt>
      <trkpt lat="47.14416" lon="-1.69092">
        <ele>67</ele>
        <time>2021-03-07T12:57:21.000Z</time>
      </trkpt>
      <trkpt lat="47.14414" lon="-1.69113">
        <ele>66</ele>
        <time>2021-03-07T12:57:23.000Z</time>
      </trkpt>
      <trkpt lat="47.14407" lon="-1.69133">
        <ele>66</ele>
        <time>2021-03-07T12:57:25.000Z</time>
      </trkpt>
      <trkpt lat="47.14402" lon="-1.69149">
        <ele>66</ele>
        <time>2021-03-07T12:57:27.000Z</time>
      </trkpt>
      <trkpt lat="47.14402" lon="-1.6917">
        <ele>67</ele>
        <time>2021-03-07T12:57:29.000Z</time>
      </trkpt>
      <trkpt lat="47.14402" lon="-1.692">
        <ele>68</ele>
        <time>2021-03-07T12:57:32.000Z</time>
      </trkpt>
      <trkpt lat="47.14401" lon="-1.69231">
        <ele>68</ele>
        <time>2021-03-07T12:57:35.000Z</time>
      </trkpt>
      <trkpt lat="47.14402" lon="-1.69261">
        <ele>67</ele>
        <time>2021-03-07T12:57:38.000Z</time>
      </trkpt>
      <trkpt lat="47.14401" lon="-1.69282">
        <ele>67</ele>
        <time>2021-03-07T12:57:40.000Z</time>
      </trkpt>
      <trkpt lat="47.14401" lon="-1.69303">
        <ele>67</ele>
        <time>2021-03-07T12:57:42.000Z</time>
      </trkpt>
      <trkpt lat="47.14401" lon="-1.69325">
        <ele>65</ele>
        <time>2021-03-07T12:57:44.000Z</time>
      </trkpt>
      <trkpt lat="47.14398" lon="-1.69346">
        <ele>66</ele>
        <time>2021-03-07T12:57:46.000Z</time>
      </trkpt>
      <trkpt lat="47.14395" lon="-1.69364">
        <ele>67</ele>
        <time>2021-03-07T12:57:48.000Z</time>
      </trkpt>
      <trkpt lat="47.14393" lon="-1.69383">
        <ele>65</ele>
        <time>2021-03-07T12:57:50.000Z</time>
      </trkpt>
      <trkpt lat="47.1439" lon="-1.69413">
        <ele>64</ele>
        <time>2021-03-07T12:57:53.000Z</time>
      </trkpt>
      <trkpt lat="47.14389" lon="-1.69435">
        <ele>64</ele>
        <time>2021-03-07T12:57:55.000Z</time>
      </trkpt>
      <trkpt lat="47.14388" lon="-1.69458">
        <ele>63</ele>
        <time>2021-03-07T12:57:57.000Z</time>
      </trkpt>
      <trkpt lat="47.14387" lon="-1.69481">
        <ele>62</ele>
        <time>2021-03-07T12:57:59.000Z</time>
      </trkpt>
      <trkpt lat="47.14386" lon="-1.69505">
        <ele>62</ele>
        <time>2021-03-07T12:58:01.000Z</time>
      </trkpt>
      <trkpt lat="47.1438" lon="-1.69542">
        <ele>59</ele>
        <time>2021-03-07T12:58:04.000Z</time>
      </trkpt>
      <trkpt lat="47.14372" lon="-1.69572">
        <ele>59</ele>
        <time>2021-03-07T12:58:07.000Z</time>
      </trkpt>
      <trkpt lat="47.14362" lon="-1.69593">
        <ele>58</ele>
        <time>2021-03-07T12:58:09.000Z</time>
      </trkpt>
      <trkpt lat="47.14354" lon="-1.69615">
        <ele>53</ele>
        <time>2021-03-07T12:58:11.000Z</time>
      </trkpt>
      <trkpt lat="47.1435" lon="-1.69627">
        <ele>52</ele>
        <time>2021-03-07T12:58:12.000Z</time>
      </trkpt>
      <trkpt lat="47.14345" lon="-1.6965">
        <ele>53</ele>
        <time>2021-03-07T12:58:14.000Z</time>
      </trkpt>
      <trkpt lat="47.1434" lon="-1.69672">
        <ele>54</ele>
        <time>2021-03-07T12:58:16.000Z</time>
      </trkpt>
      <trkpt lat="47.14337" lon="-1.69686">
        <ele>52</ele>
        <time>2021-03-07T12:58:17.000Z</time>
      </trkpt>
      <trkpt lat="47.14335" lon="-1.69699">
        <ele>52</ele>
        <time>2021-03-07T12:58:18.000Z</time>
      </trkpt>
      <trkpt lat="47.14331" lon="-1.69715">
        <ele>52</ele>
        <time>2021-03-07T12:58:20.000Z</time>
      </trkpt>
      <trkpt lat="47.14311" lon="-1.69712">
        <ele>53</ele>
        <time>2021-03-07T12:58:22.000Z</time>
      </trkpt>
      <trkpt lat="47.143" lon="-1.6971">
        <ele>53</ele>
        <time>2021-03-07T12:58:23.000Z</time>
      </trkpt>
      <trkpt lat="47.14291" lon="-1.69709">
        <ele>54</ele>
        <time>2021-03-07T12:58:24.000Z</time>
      </trkpt>
      <trkpt lat="47.14274" lon="-1.69709">
        <ele>53</ele>
        <time>2021-03-07T12:58:26.000Z</time>
      </trkpt>
      <trkpt lat="47.14258" lon="-1.69709">
        <ele>54</ele>
        <time>2021-03-07T12:58:28.000Z</time>
      </trkpt>
      <trkpt lat="47.14242" lon="-1.69711">
        <ele>53</ele>
        <time>2021-03-07T12:58:30.000Z</time>
      </trkpt>
      <trkpt lat="47.14225" lon="-1.69713">
        <ele>53</ele>
        <time>2021-03-07T12:58:32.000Z</time>
      </trkpt>
      <trkpt lat="47.1421" lon="-1.69716">
        <ele>53</ele>
        <time>2021-03-07T12:58:34.000Z</time>
      </trkpt>
      <trkpt lat="47.14194" lon="-1.69718">
        <ele>54</ele>
        <time>2021-03-07T12:58:36.000Z</time>
      </trkpt>
      <trkpt lat="47.14178" lon="-1.69721">
        <ele>54</ele>
        <time>2021-03-07T12:58:38.000Z</time>
      </trkpt>
      <trkpt lat="47.14162" lon="-1.69724">
        <ele>54</ele>
        <time>2021-03-07T12:58:40.000Z</time>
      </trkpt>
      <trkpt lat="47.14145" lon="-1.69726">
        <ele>55</ele>
        <time>2021-03-07T12:58:42.000Z</time>
      </trkpt>
      <trkpt lat="47.1413" lon="-1.69731">
        <ele>55</ele>
        <time>2021-03-07T12:58:44.000Z</time>
      </trkpt>
      <trkpt lat="47.14117" lon="-1.69733">
        <ele>55</ele>
        <time>2021-03-07T12:58:46.000Z</time>
      </trkpt>
      <trkpt lat="47.14093" lon="-1.69735">
        <ele>56</ele>
        <time>2021-03-07T12:58:49.000Z</time>
      </trkpt>
      <trkpt lat="47.14077" lon="-1.69738">
        <ele>55</ele>
        <time>2021-03-07T12:58:51.000Z</time>
      </trkpt>
      <trkpt lat="47.14062" lon="-1.69736">
        <ele>55</ele>
        <time>2021-03-07T12:58:53.000Z</time>
      </trkpt>
      <trkpt lat="47.14048" lon="-1.69733">
        <ele>55</ele>
        <time>2021-03-07T12:58:55.000Z</time>
      </trkpt>
      <trkpt lat="47.14034" lon="-1.69731">
        <ele>55</ele>
        <time>2021-03-07T12:58:57.000Z</time>
      </trkpt>
      <trkpt lat="47.14021" lon="-1.6973">
        <ele>53</ele>
        <time>2021-03-07T12:58:59.000Z</time>
      </trkpt>
      <trkpt lat="47.14007" lon="-1.69728">
        <ele>54</ele>
        <time>2021-03-07T12:59:01.000Z</time>
      </trkpt>
      <trkpt lat="47.13992" lon="-1.69726">
        <ele>54</ele>
        <time>2021-03-07T12:59:03.000Z</time>
      </trkpt>
      <trkpt lat="47.13973" lon="-1.69723">
        <ele>53</ele>
        <time>2021-03-07T12:59:06.000Z</time>
      </trkpt>
      <trkpt lat="47.1396" lon="-1.69721">
        <ele>52</ele>
        <time>2021-03-07T12:59:08.000Z</time>
      </trkpt>
      <trkpt lat="47.13945" lon="-1.6972">
        <ele>51</ele>
        <time>2021-03-07T12:59:10.000Z</time>
      </trkpt>
      <trkpt lat="47.13928" lon="-1.69718">
        <ele>50</ele>
        <time>2021-03-07T12:59:12.000Z</time>
      </trkpt>
      <trkpt lat="47.13903" lon="-1.69718">
        <ele>48</ele>
        <time>2021-03-07T12:59:15.000Z</time>
      </trkpt>
      <trkpt lat="47.13888" lon="-1.69722">
        <ele>47</ele>
        <time>2021-03-07T12:59:17.000Z</time>
      </trkpt>
      <trkpt lat="47.13866" lon="-1.69728">
        <ele>50</ele>
        <time>2021-03-07T12:59:20.000Z</time>
      </trkpt>
      <trkpt lat="47.13852" lon="-1.69734">
        <ele>47</ele>
        <time>2021-03-07T12:59:22.000Z</time>
      </trkpt>
      <trkpt lat="47.13832" lon="-1.69736">
        <ele>46</ele>
        <time>2021-03-07T12:59:25.000Z</time>
      </trkpt>
      <trkpt lat="47.13823" lon="-1.69734">
        <ele>46</ele>
        <time>2021-03-07T12:59:26.000Z</time>
      </trkpt>
      <trkpt lat="47.13807" lon="-1.69732">
        <ele>48</ele>
        <time>2021-03-07T12:59:28.000Z</time>
      </trkpt>
      <trkpt lat="47.13793" lon="-1.6973">
        <ele>48</ele>
        <time>2021-03-07T12:59:30.000Z</time>
      </trkpt>
      <trkpt lat="47.13779" lon="-1.6973">
        <ele>46</ele>
        <time>2021-03-07T12:59:32.000Z</time>
      </trkpt>
      <trkpt lat="47.13764" lon="-1.69731">
        <ele>47</ele>
        <time>2021-03-07T12:59:34.000Z</time>
      </trkpt>
      <trkpt lat="47.13748" lon="-1.69733">
        <ele>48</ele>
        <time>2021-03-07T12:59:36.000Z</time>
      </trkpt>
      <trkpt lat="47.13733" lon="-1.69736">
        <ele>49</ele>
        <time>2021-03-07T12:59:38.000Z</time>
      </trkpt>
      <trkpt lat="47.13719" lon="-1.69739">
        <ele>49</ele>
        <time>2021-03-07T12:59:40.000Z</time>
      </trkpt>
      <trkpt lat="47.13705" lon="-1.69741">
        <ele>50</ele>
        <time>2021-03-07T12:59:42.000Z</time>
      </trkpt>
      <trkpt lat="47.13692" lon="-1.69745">
        <ele>47</ele>
        <time>2021-03-07T12:59:44.000Z</time>
      </trkpt>
      <trkpt lat="47.13678" lon="-1.69743">
        <ele>48</ele>
        <time>2021-03-07T12:59:46.000Z</time>
      </trkpt>
      <trkpt lat="47.13661" lon="-1.69742">
        <ele>49</ele>
        <time>2021-03-07T12:59:48.000Z</time>
      </trkpt>
      <trkpt lat="47.13647" lon="-1.69741">
        <ele>49</ele>
        <time>2021-03-07T12:59:50.000Z</time>
      </trkpt>
      <trkpt lat="47.13631" lon="-1.69741">
        <ele>50</ele>
        <time>2021-03-07T12:59:52.000Z</time>
      </trkpt>
      <trkpt lat="47.13616" lon="-1.69742">
        <ele>48</ele>
        <time>2021-03-07T12:59:54.000Z</time>
      </trkpt>
      <trkpt lat="47.13602" lon="-1.69742">
        <ele>48</ele>
        <time>2021-03-07T12:59:56.000Z</time>
      </trkpt>
      <trkpt lat="47.13586" lon="-1.69743">
        <ele>49</ele>
        <time>2021-03-07T12:59:58.000Z</time>
      </trkpt>
      <trkpt lat="47.1357" lon="-1.69743">
        <ele>50</ele>
        <time>2021-03-07T13:00:00.000Z</time>
      </trkpt>
      <trkpt lat="47.13555" lon="-1.69744">
        <ele>49</ele>
        <time>2021-03-07T13:00:02.000Z</time>
      </trkpt>
      <trkpt lat="47.1353" lon="-1.69744">
        <ele>48</ele>
        <time>2021-03-07T13:00:05.000Z</time>
      </trkpt>
      <trkpt lat="47.13514" lon="-1.69746">
        <ele>46</ele>
        <time>2021-03-07T13:00:07.000Z</time>
      </trkpt>
      <trkpt lat="47.13493" lon="-1.69749">
        <ele>44</ele>
        <time>2021-03-07T13:00:10.000Z</time>
      </trkpt>
      <trkpt lat="47.1348" lon="-1.69749">
        <ele>45</ele>
        <time>2021-03-07T13:00:12.000Z</time>
      </trkpt>
      <trkpt lat="47.13467" lon="-1.69752">
        <ele>45</ele>
        <time>2021-03-07T13:00:14.000Z</time>
      </trkpt>
      <trkpt lat="47.13453" lon="-1.69759">
        <ele>45</ele>
        <time>2021-03-07T13:00:16.000Z</time>
      </trkpt>
      <trkpt lat="47.13439" lon="-1.69765">
        <ele>46</ele>
        <time>2021-03-07T13:00:18.000Z</time>
      </trkpt>
      <trkpt lat="47.13418" lon="-1.69776">
        <ele>46</ele>
        <time>2021-03-07T13:00:21.000Z</time>
      </trkpt>
      <trkpt lat="47.13404" lon="-1.69783">
        <ele>46</ele>
        <time>2021-03-07T13:00:23.000Z</time>
      </trkpt>
      <trkpt lat="47.13388" lon="-1.6979">
        <ele>46</ele>
        <time>2021-03-07T13:00:25.000Z</time>
      </trkpt>
      <trkpt lat="47.13374" lon="-1.69797">
        <ele>46</ele>
        <time>2021-03-07T13:00:27.000Z</time>
      </trkpt>
      <trkpt lat="47.13352" lon="-1.69806">
        <ele>47</ele>
        <time>2021-03-07T13:00:30.000Z</time>
      </trkpt>
      <trkpt lat="47.13341" lon="-1.69812">
        <ele>46</ele>
        <time>2021-03-07T13:00:32.000Z</time>
      </trkpt>
      <trkpt lat="47.13327" lon="-1.69818">
        <ele>46</ele>
        <time>2021-03-07T13:00:34.000Z</time>
      </trkpt>
      <trkpt lat="47.13314" lon="-1.69829">
        <ele>45</ele>
        <time>2021-03-07T13:00:36.000Z</time>
      </trkpt>
      <trkpt lat="47.133" lon="-1.69835">
        <ele>47</ele>
        <time>2021-03-07T13:00:38.000Z</time>
      </trkpt>
      <trkpt lat="47.13285" lon="-1.69841">
        <ele>48</ele>
        <time>2021-03-07T13:00:40.000Z</time>
      </trkpt>
      <trkpt lat="47.13272" lon="-1.69849">
        <ele>45</ele>
        <time>2021-03-07T13:00:42.000Z</time>
      </trkpt>
      <trkpt lat="47.13254" lon="-1.69859">
        <ele>48</ele>
        <time>2021-03-07T13:00:45.000Z</time>
      </trkpt>
      <trkpt lat="47.13241" lon="-1.69864">
        <ele>49</ele>
        <time>2021-03-07T13:00:47.000Z</time>
      </trkpt>
      <trkpt lat="47.13227" lon="-1.69871">
        <ele>49</ele>
        <time>2021-03-07T13:00:49.000Z</time>
      </trkpt>
      <trkpt lat="47.13215" lon="-1.69883">
        <ele>47</ele>
        <time>2021-03-07T13:00:51.000Z</time>
      </trkpt>
      <trkpt lat="47.132" lon="-1.6989">
        <ele>47</ele>
        <time>2021-03-07T13:00:53.000Z</time>
      </trkpt>
      <trkpt lat="47.13185" lon="-1.69897">
        <ele>47</ele>
        <time>2021-03-07T13:00:55.000Z</time>
      </trkpt>
      <trkpt lat="47.13171" lon="-1.69904">
        <ele>47</ele>
        <time>2021-03-07T13:00:57.000Z</time>
      </trkpt>
      <trkpt lat="47.13156" lon="-1.6991">
        <ele>45</ele>
        <time>2021-03-07T13:00:59.000Z</time>
      </trkpt>
      <trkpt lat="47.13145" lon="-1.69915">
        <ele>46</ele>
        <time>2021-03-07T13:01:01.000Z</time>
      </trkpt>
      <trkpt lat="47.13131" lon="-1.69922">
        <ele>47</ele>
        <time>2021-03-07T13:01:03.000Z</time>
      </trkpt>
      <trkpt lat="47.13118" lon="-1.6993">
        <ele>48</ele>
        <time>2021-03-07T13:01:05.000Z</time>
      </trkpt>
      <trkpt lat="47.13104" lon="-1.69937">
        <ele>48</ele>
        <time>2021-03-07T13:01:07.000Z</time>
      </trkpt>
      <trkpt lat="47.1309" lon="-1.69944">
        <ele>48</ele>
        <time>2021-03-07T13:01:09.000Z</time>
      </trkpt>
      <trkpt lat="47.13072" lon="-1.69956">
        <ele>47</ele>
        <time>2021-03-07T13:01:12.000Z</time>
      </trkpt>
      <trkpt lat="47.13058" lon="-1.69963">
        <ele>44</ele>
        <time>2021-03-07T13:01:14.000Z</time>
      </trkpt>
      <trkpt lat="47.13044" lon="-1.6997">
        <ele>44</ele>
        <time>2021-03-07T13:01:16.000Z</time>
      </trkpt>
      <trkpt lat="47.13029" lon="-1.69976">
        <ele>44</ele>
        <time>2021-03-07T13:01:18.000Z</time>
      </trkpt>
      <trkpt lat="47.13011" lon="-1.69991">
        <ele>43</ele>
        <time>2021-03-07T13:01:21.000Z</time>
      </trkpt>
      <trkpt lat="47.12996" lon="-1.69995">
        <ele>44</ele>
        <time>2021-03-07T13:01:23.000Z</time>
      </trkpt>
      <trkpt lat="47.12981" lon="-1.70002">
        <ele>44</ele>
        <time>2021-03-07T13:01:25.000Z</time>
      </trkpt>
      <trkpt lat="47.12968" lon="-1.70009">
        <ele>45</ele>
        <time>2021-03-07T13:01:27.000Z</time>
      </trkpt>
      <trkpt lat="47.12955" lon="-1.70015">
        <ele>45</ele>
        <time>2021-03-07T13:01:29.000Z</time>
      </trkpt>
      <trkpt lat="47.12942" lon="-1.70022">
        <ele>46</ele>
        <time>2021-03-07T13:01:31.000Z</time>
      </trkpt>
      <trkpt lat="47.12928" lon="-1.7003">
        <ele>46</ele>
        <time>2021-03-07T13:01:33.000Z</time>
      </trkpt>
      <trkpt lat="47.12907" lon="-1.70041">
        <ele>45</ele>
        <time>2021-03-07T13:01:36.000Z</time>
      </trkpt>
      <trkpt lat="47.12894" lon="-1.70048">
        <ele>46</ele>
        <time>2021-03-07T13:01:38.000Z</time>
      </trkpt>
      <trkpt lat="47.12878" lon="-1.70055">
        <ele>46</ele>
        <time>2021-03-07T13:01:40.000Z</time>
      </trkpt>
      <trkpt lat="47.12863" lon="-1.70062">
        <ele>47</ele>
        <time>2021-03-07T13:01:42.000Z</time>
      </trkpt>
      <trkpt lat="47.1285" lon="-1.70069">
        <ele>47</ele>
        <time>2021-03-07T13:01:44.000Z</time>
      </trkpt>
      <trkpt lat="47.12837" lon="-1.70079">
        <ele>46</ele>
        <time>2021-03-07T13:01:46.000Z</time>
      </trkpt>
      <trkpt lat="47.12824" lon="-1.70085">
        <ele>45</ele>
        <time>2021-03-07T13:01:48.000Z</time>
      </trkpt>
      <trkpt lat="47.12809" lon="-1.7009">
        <ele>46</ele>
        <time>2021-03-07T13:01:50.000Z</time>
      </trkpt>
      <trkpt lat="47.12795" lon="-1.70098">
        <ele>47</ele>
        <time>2021-03-07T13:01:52.000Z</time>
      </trkpt>
      <trkpt lat="47.12782" lon="-1.70105">
        <ele>46</ele>
        <time>2021-03-07T13:01:54.000Z</time>
      </trkpt>
      <trkpt lat="47.1277" lon="-1.70113">
        <ele>45</ele>
        <time>2021-03-07T13:01:56.000Z</time>
      </trkpt>
      <trkpt lat="47.12755" lon="-1.70121">
        <ele>46</ele>
        <time>2021-03-07T13:01:58.000Z</time>
      </trkpt>
      <trkpt lat="47.12733" lon="-1.70132">
        <ele>48</ele>
        <time>2021-03-07T13:02:01.000Z</time>
      </trkpt>
      <trkpt lat="47.12718" lon="-1.70139">
        <ele>49</ele>
        <time>2021-03-07T13:02:03.000Z</time>
      </trkpt>
      <trkpt lat="47.12705" lon="-1.70146">
        <ele>50</ele>
        <time>2021-03-07T13:02:05.000Z</time>
      </trkpt>
      <trkpt lat="47.1269" lon="-1.70153">
        <ele>50</ele>
        <time>2021-03-07T13:02:07.000Z</time>
      </trkpt>
      <trkpt lat="47.12675" lon="-1.7016">
        <ele>50</ele>
        <time>2021-03-07T13:02:09.000Z</time>
      </trkpt>
      <trkpt lat="47.12661" lon="-1.70167">
        <ele>50</ele>
        <time>2021-03-07T13:02:11.000Z</time>
      </trkpt>
      <trkpt lat="47.12637" lon="-1.70179">
        <ele>50</ele>
        <time>2021-03-07T13:02:14.000Z</time>
      </trkpt>
      <trkpt lat="47.12623" lon="-1.70186">
        <ele>50</ele>
        <time>2021-03-07T13:02:16.000Z</time>
      </trkpt>
      <trkpt lat="47.12609" lon="-1.70194">
        <ele>50</ele>
        <time>2021-03-07T13:02:18.000Z</time>
      </trkpt>
      <trkpt lat="47.12595" lon="-1.70201">
        <ele>50</ele>
        <time>2021-03-07T13:02:20.000Z</time>
      </trkpt>
      <trkpt lat="47.12582" lon="-1.70209">
        <ele>49</ele>
        <time>2021-03-07T13:02:22.000Z</time>
      </trkpt>
      <trkpt lat="47.12562" lon="-1.7022">
        <ele>46</ele>
        <time>2021-03-07T13:02:25.000Z</time>
      </trkpt>
      <trkpt lat="47.12551" lon="-1.70227">
        <ele>47</ele>
        <time>2021-03-07T13:02:27.000Z</time>
      </trkpt>
      <trkpt lat="47.12537" lon="-1.70237">
        <ele>47</ele>
        <time>2021-03-07T13:02:29.000Z</time>
      </trkpt>
      <trkpt lat="47.12523" lon="-1.70245">
        <ele>48</ele>
        <time>2021-03-07T13:02:31.000Z</time>
      </trkpt>
      <trkpt lat="47.12509" lon="-1.70252">
        <ele>48</ele>
        <time>2021-03-07T13:02:33.000Z</time>
      </trkpt>
      <trkpt lat="47.12495" lon="-1.7026">
        <ele>47</ele>
        <time>2021-03-07T13:02:35.000Z</time>
      </trkpt>
      <trkpt lat="47.12479" lon="-1.70267">
        <ele>46</ele>
        <time>2021-03-07T13:02:37.000Z</time>
      </trkpt>
      <trkpt lat="47.12465" lon="-1.70276">
        <ele>46</ele>
        <time>2021-03-07T13:02:39.000Z</time>
      </trkpt>
      <trkpt lat="47.12453" lon="-1.70286">
        <ele>46</ele>
        <time>2021-03-07T13:02:41.000Z</time>
      </trkpt>
      <trkpt lat="47.12446" lon="-1.70301">
        <ele>44</ele>
        <time>2021-03-07T13:02:43.000Z</time>
      </trkpt>
      <trkpt lat="47.1244" lon="-1.70318">
        <ele>45</ele>
        <time>2021-03-07T13:02:45.000Z</time>
      </trkpt>
      <trkpt lat="47.1243" lon="-1.70335">
        <ele>46</ele>
        <time>2021-03-07T13:02:47.000Z</time>
      </trkpt>
      <trkpt lat="47.12424" lon="-1.70353">
        <ele>45</ele>
        <time>2021-03-07T13:02:49.000Z</time>
      </trkpt>
      <trkpt lat="47.1242" lon="-1.70372">
        <ele>44</ele>
        <time>2021-03-07T13:02:51.000Z</time>
      </trkpt>
      <trkpt lat="47.12416" lon="-1.70392">
        <ele>44</ele>
        <time>2021-03-07T13:02:53.000Z</time>
      </trkpt>
      <trkpt lat="47.12413" lon="-1.7041">
        <ele>44</ele>
        <time>2021-03-07T13:02:55.000Z</time>
      </trkpt>
      <trkpt lat="47.12409" lon="-1.70429">
        <ele>44</ele>
        <time>2021-03-07T13:02:57.000Z</time>
      </trkpt>
      <trkpt lat="47.12403" lon="-1.70459">
        <ele>43</ele>
        <time>2021-03-07T13:03:00.000Z</time>
      </trkpt>
      <trkpt lat="47.12396" lon="-1.70482">
        <ele>45</ele>
        <time>2021-03-07T13:03:02.000Z</time>
      </trkpt>
      <trkpt lat="47.12389" lon="-1.70502">
        <ele>47</ele>
        <time>2021-03-07T13:03:04.000Z</time>
      </trkpt>
      <trkpt lat="47.12383" lon="-1.70521">
        <ele>47</ele>
        <time>2021-03-07T13:03:06.000Z</time>
      </trkpt>
      <trkpt lat="47.12375" lon="-1.7054">
        <ele>48</ele>
        <time>2021-03-07T13:03:08.000Z</time>
      </trkpt>
      <trkpt lat="47.12359" lon="-1.70564">
        <ele>49</ele>
        <time>2021-03-07T13:03:11.000Z</time>
      </trkpt>
      <trkpt lat="47.12348" lon="-1.70579">
        <ele>50</ele>
        <time>2021-03-07T13:03:13.000Z</time>
      </trkpt>
      <trkpt lat="47.12336" lon="-1.70599">
        <ele>48</ele>
        <time>2021-03-07T13:03:15.000Z</time>
      </trkpt>
      <trkpt lat="47.12326" lon="-1.70615">
        <ele>46</ele>
        <time>2021-03-07T13:03:17.000Z</time>
      </trkpt>
      <trkpt lat="47.12309" lon="-1.70633">
        <ele>48</ele>
        <time>2021-03-07T13:03:20.000Z</time>
      </trkpt>
      <trkpt lat="47.12298" lon="-1.70647">
        <ele>47</ele>
        <time>2021-03-07T13:03:22.000Z</time>
      </trkpt>
      <trkpt lat="47.12281" lon="-1.7067">
        <ele>47</ele>
        <time>2021-03-07T13:03:25.000Z</time>
      </trkpt>
      <trkpt lat="47.12272" lon="-1.70685">
        <ele>46</ele>
        <time>2021-03-07T13:03:27.000Z</time>
      </trkpt>
      <trkpt lat="47.12262" lon="-1.70699">
        <ele>47</ele>
        <time>2021-03-07T13:03:29.000Z</time>
      </trkpt>
      <trkpt lat="47.12252" lon="-1.70714">
        <ele>48</ele>
        <time>2021-03-07T13:03:31.000Z</time>
      </trkpt>
      <trkpt lat="47.12241" lon="-1.70727">
        <ele>49</ele>
        <time>2021-03-07T13:03:33.000Z</time>
      </trkpt>
      <trkpt lat="47.12228" lon="-1.70739">
        <ele>50</ele>
        <time>2021-03-07T13:03:35.000Z</time>
      </trkpt>
      <trkpt lat="47.1221" lon="-1.7076">
        <ele>48</ele>
        <time>2021-03-07T13:03:38.000Z</time>
      </trkpt>
      <trkpt lat="47.12197" lon="-1.70769">
        <ele>49</ele>
        <time>2021-03-07T13:03:40.000Z</time>
      </trkpt>
      <trkpt lat="47.12183" lon="-1.70778">
        <ele>50</ele>
        <time>2021-03-07T13:03:42.000Z</time>
      </trkpt>
      <trkpt lat="47.12163" lon="-1.70791">
        <ele>51</ele>
        <time>2021-03-07T13:03:45.000Z</time>
      </trkpt>
      <trkpt lat="47.1215" lon="-1.70801">
        <ele>48</ele>
        <time>2021-03-07T13:03:47.000Z</time>
      </trkpt>
      <trkpt lat="47.12137" lon="-1.70808">
        <ele>50</ele>
        <time>2021-03-07T13:03:49.000Z</time>
      </trkpt>
      <trkpt lat="47.12124" lon="-1.70815">
        <ele>51</ele>
        <time>2021-03-07T13:03:51.000Z</time>
      </trkpt>
      <trkpt lat="47.12111" lon="-1.70824">
        <ele>51</ele>
        <time>2021-03-07T13:03:53.000Z</time>
      </trkpt>
      <trkpt lat="47.12093" lon="-1.70838">
        <ele>50</ele>
        <time>2021-03-07T13:03:56.000Z</time>
      </trkpt>
      <trkpt lat="47.1208" lon="-1.70848">
        <ele>49</ele>
        <time>2021-03-07T13:03:58.000Z</time>
      </trkpt>
      <trkpt lat="47.1206" lon="-1.70857">
        <ele>51</ele>
        <time>2021-03-07T13:04:01.000Z</time>
      </trkpt>
      <trkpt lat="47.12047" lon="-1.70868">
        <ele>48</ele>
        <time>2021-03-07T13:04:03.000Z</time>
      </trkpt>
      <trkpt lat="47.12028" lon="-1.70878">
        <ele>50</ele>
        <time>2021-03-07T13:04:06.000Z</time>
      </trkpt>
      <trkpt lat="47.12016" lon="-1.70886">
        <ele>52</ele>
        <time>2021-03-07T13:04:08.000Z</time>
      </trkpt>
      <trkpt lat="47.12003" lon="-1.70894">
        <ele>53</ele>
        <time>2021-03-07T13:04:10.000Z</time>
      </trkpt>
      <trkpt lat="47.11989" lon="-1.70903">
        <ele>53</ele>
        <time>2021-03-07T13:04:12.000Z</time>
      </trkpt>
      <trkpt lat="47.11975" lon="-1.70911">
        <ele>53</ele>
        <time>2021-03-07T13:04:14.000Z</time>
      </trkpt>
      <trkpt lat="47.11962" lon="-1.70921">
        <ele>52</ele>
        <time>2021-03-07T13:04:16.000Z</time>
      </trkpt>
      <trkpt lat="47.11947" lon="-1.7093">
        <ele>53</ele>
        <time>2021-03-07T13:04:18.000Z</time>
      </trkpt>
      <trkpt lat="47.11933" lon="-1.7094">
        <ele>52</ele>
        <time>2021-03-07T13:04:20.000Z</time>
      </trkpt>
      <trkpt lat="47.11918" lon="-1.7095">
        <ele>52</ele>
        <time>2021-03-07T13:04:22.000Z</time>
      </trkpt>
      <trkpt lat="47.11903" lon="-1.7096">
        <ele>52</ele>
        <time>2021-03-07T13:04:24.000Z</time>
      </trkpt>
      <trkpt lat="47.11889" lon="-1.70973">
        <ele>50</ele>
        <time>2021-03-07T13:04:26.000Z</time>
      </trkpt>
      <trkpt lat="47.1186" lon="-1.70987">
        <ele>50</ele>
        <time>2021-03-07T13:04:30.000Z</time>
      </trkpt>
      <trkpt lat="47.11845" lon="-1.70995">
        <ele>50</ele>
        <time>2021-03-07T13:04:32.000Z</time>
      </trkpt>
      <trkpt lat="47.11832" lon="-1.71004">
        <ele>49</ele>
        <time>2021-03-07T13:04:34.000Z</time>
      </trkpt>
      <trkpt lat="47.11819" lon="-1.71015">
        <ele>49</ele>
        <time>2021-03-07T13:04:36.000Z</time>
      </trkpt>
      <trkpt lat="47.11806" lon="-1.71024">
        <ele>49</ele>
        <time>2021-03-07T13:04:38.000Z</time>
      </trkpt>
      <trkpt lat="47.11792" lon="-1.71033">
        <ele>50</ele>
        <time>2021-03-07T13:04:40.000Z</time>
      </trkpt>
      <trkpt lat="47.11771" lon="-1.71048">
        <ele>47</ele>
        <time>2021-03-07T13:04:43.000Z</time>
      </trkpt>
      <trkpt lat="47.11753" lon="-1.71058">
        <ele>49</ele>
        <time>2021-03-07T13:04:46.000Z</time>
      </trkpt>
      <trkpt lat="47.11741" lon="-1.71065">
        <ele>50</ele>
        <time>2021-03-07T13:04:48.000Z</time>
      </trkpt>
      <trkpt lat="47.11727" lon="-1.71074">
        <ele>50</ele>
        <time>2021-03-07T13:04:50.000Z</time>
      </trkpt>
      <trkpt lat="47.11708" lon="-1.71088">
        <ele>49</ele>
        <time>2021-03-07T13:04:53.000Z</time>
      </trkpt>
      <trkpt lat="47.11696" lon="-1.71095">
        <ele>51</ele>
        <time>2021-03-07T13:04:55.000Z</time>
      </trkpt>
      <trkpt lat="47.11684" lon="-1.71104">
        <ele>52</ele>
        <time>2021-03-07T13:04:57.000Z</time>
      </trkpt>
      <trkpt lat="47.11672" lon="-1.71111">
        <ele>52</ele>
        <time>2021-03-07T13:04:59.000Z</time>
      </trkpt>
      <trkpt lat="47.11659" lon="-1.7112">
        <ele>52</ele>
        <time>2021-03-07T13:05:01.000Z</time>
      </trkpt>
      <trkpt lat="47.11648" lon="-1.71129">
        <ele>52</ele>
        <time>2021-03-07T13:05:03.000Z</time>
      </trkpt>
      <trkpt lat="47.11629" lon="-1.71146">
        <ele>51</ele>
        <time>2021-03-07T13:05:06.000Z</time>
      </trkpt>
      <trkpt lat="47.11618" lon="-1.71158">
        <ele>51</ele>
        <time>2021-03-07T13:05:08.000Z</time>
      </trkpt>
      <trkpt lat="47.11606" lon="-1.71168">
        <ele>50</ele>
        <time>2021-03-07T13:05:10.000Z</time>
      </trkpt>
      <trkpt lat="47.11596" lon="-1.71181">
        <ele>50</ele>
        <time>2021-03-07T13:05:12.000Z</time>
      </trkpt>
      <trkpt lat="47.11585" lon="-1.71195">
        <ele>51</ele>
        <time>2021-03-07T13:05:14.000Z</time>
      </trkpt>
      <trkpt lat="47.11574" lon="-1.71209">
        <ele>51</ele>
        <time>2021-03-07T13:05:16.000Z</time>
      </trkpt>
      <trkpt lat="47.1156" lon="-1.71234">
        <ele>51</ele>
        <time>2021-03-07T13:05:19.000Z</time>
      </trkpt>
      <trkpt lat="47.11546" lon="-1.71255">
        <ele>49</ele>
        <time>2021-03-07T13:05:22.000Z</time>
      </trkpt>
      <trkpt lat="47.11535" lon="-1.71273">
        <ele>50</ele>
        <time>2021-03-07T13:05:24.000Z</time>
      </trkpt>
      <trkpt lat="47.11526" lon="-1.7129">
        <ele>50</ele>
        <time>2021-03-07T13:05:26.000Z</time>
      </trkpt>
      <trkpt lat="47.11517" lon="-1.71306">
        <ele>50</ele>
        <time>2021-03-07T13:05:28.000Z</time>
      </trkpt>
      <trkpt lat="47.1151" lon="-1.71326">
        <ele>48</ele>
        <time>2021-03-07T13:05:30.000Z</time>
      </trkpt>
      <trkpt lat="47.115" lon="-1.71342">
        <ele>48</ele>
        <time>2021-03-07T13:05:32.000Z</time>
      </trkpt>
      <trkpt lat="47.11492" lon="-1.71359">
        <ele>49</ele>
        <time>2021-03-07T13:05:34.000Z</time>
      </trkpt>
      <trkpt lat="47.11483" lon="-1.71376">
        <ele>50</ele>
        <time>2021-03-07T13:05:36.000Z</time>
      </trkpt>
      <trkpt lat="47.11474" lon="-1.71395">
        <ele>48</ele>
        <time>2021-03-07T13:05:38.000Z</time>
      </trkpt>
      <trkpt lat="47.11465" lon="-1.71414">
        <ele>49</ele>
        <time>2021-03-07T13:05:40.000Z</time>
      </trkpt>
      <trkpt lat="47.11455" lon="-1.71429">
        <ele>49</ele>
        <time>2021-03-07T13:05:42.000Z</time>
      </trkpt>
      <trkpt lat="47.11447" lon="-1.71449">
        <ele>47</ele>
        <time>2021-03-07T13:05:44.000Z</time>
      </trkpt>
      <trkpt lat="47.11438" lon="-1.71466">
        <ele>48</ele>
        <time>2021-03-07T13:05:46.000Z</time>
      </trkpt>
      <trkpt lat="47.11429" lon="-1.71483">
        <ele>48</ele>
        <time>2021-03-07T13:05:48.000Z</time>
      </trkpt>
      <trkpt lat="47.1142" lon="-1.71501">
        <ele>49</ele>
        <time>2021-03-07T13:05:50.000Z</time>
      </trkpt>
      <trkpt lat="47.1141" lon="-1.71518">
        <ele>49</ele>
        <time>2021-03-07T13:05:52.000Z</time>
      </trkpt>
      <trkpt lat="47.11401" lon="-1.71537">
        <ele>48</ele>
        <time>2021-03-07T13:05:54.000Z</time>
      </trkpt>
      <trkpt lat="47.11394" lon="-1.71555">
        <ele>49</ele>
        <time>2021-03-07T13:05:56.000Z</time>
      </trkpt>
      <trkpt lat="47.11384" lon="-1.71571">
        <ele>50</ele>
        <time>2021-03-07T13:05:58.000Z</time>
      </trkpt>
      <trkpt lat="47.11374" lon="-1.71587">
        <ele>50</ele>
        <time>2021-03-07T13:06:00.000Z</time>
      </trkpt>
      <trkpt lat="47.11364" lon="-1.71604">
        <ele>51</ele>
        <time>2021-03-07T13:06:02.000Z</time>
      </trkpt>
      <trkpt lat="47.11355" lon="-1.71621">
        <ele>51</ele>
        <time>2021-03-07T13:06:04.000Z</time>
      </trkpt>
      <trkpt lat="47.11344" lon="-1.71638">
        <ele>51</ele>
        <time>2021-03-07T13:06:06.000Z</time>
      </trkpt>
      <trkpt lat="47.11325" lon="-1.71656">
        <ele>51</ele>
        <time>2021-03-07T13:06:09.000Z</time>
      </trkpt>
      <trkpt lat="47.1131" lon="-1.71665">
        <ele>51</ele>
        <time>2021-03-07T13:06:11.000Z</time>
      </trkpt>
      <trkpt lat="47.11296" lon="-1.71674">
        <ele>51</ele>
        <time>2021-03-07T13:06:13.000Z</time>
      </trkpt>
      <trkpt lat="47.11281" lon="-1.71679">
        <ele>51</ele>
        <time>2021-03-07T13:06:15.000Z</time>
      </trkpt>
      <trkpt lat="47.11264" lon="-1.71677">
        <ele>50</ele>
        <time>2021-03-07T13:06:17.000Z</time>
      </trkpt>
      <trkpt lat="47.11255" lon="-1.71677">
        <ele>50</ele>
        <time>2021-03-07T13:06:18.000Z</time>
      </trkpt>
      <trkpt lat="47.11241" lon="-1.7168">
        <ele>50</ele>
        <time>2021-03-07T13:06:20.000Z</time>
      </trkpt>
      <trkpt lat="47.11228" lon="-1.71691">
        <ele>50</ele>
        <time>2021-03-07T13:06:22.000Z</time>
      </trkpt>
      <trkpt lat="47.11216" lon="-1.71703">
        <ele>51</ele>
        <time>2021-03-07T13:06:24.000Z</time>
      </trkpt>
      <trkpt lat="47.11201" lon="-1.71715">
        <ele>49</ele>
        <time>2021-03-07T13:06:26.000Z</time>
      </trkpt>
      <trkpt lat="47.11188" lon="-1.71728">
        <ele>49</ele>
        <time>2021-03-07T13:06:28.000Z</time>
      </trkpt>
      <trkpt lat="47.11177" lon="-1.71738">
        <ele>50</ele>
        <time>2021-03-07T13:06:30.000Z</time>
      </trkpt>
      <trkpt lat="47.11165" lon="-1.7175">
        <ele>50</ele>
        <time>2021-03-07T13:06:32.000Z</time>
      </trkpt>
      <trkpt lat="47.11154" lon="-1.71761">
        <ele>49</ele>
        <time>2021-03-07T13:06:34.000Z</time>
      </trkpt>
      <trkpt lat="47.1114" lon="-1.71772">
        <ele>50</ele>
        <time>2021-03-07T13:06:36.000Z</time>
      </trkpt>
      <trkpt lat="47.11128" lon="-1.71784">
        <ele>47</ele>
        <time>2021-03-07T13:06:38.000Z</time>
      </trkpt>
      <trkpt lat="47.11109" lon="-1.71799">
        <ele>50</ele>
        <time>2021-03-07T13:06:41.000Z</time>
      </trkpt>
      <trkpt lat="47.11096" lon="-1.71811">
        <ele>51</ele>
        <time>2021-03-07T13:06:43.000Z</time>
      </trkpt>
      <trkpt lat="47.11084" lon="-1.71823">
        <ele>52</ele>
        <time>2021-03-07T13:06:45.000Z</time>
      </trkpt>
      <trkpt lat="47.11072" lon="-1.71836">
        <ele>53</ele>
        <time>2021-03-07T13:06:47.000Z</time>
      </trkpt>
      <trkpt lat="47.1106" lon="-1.7185">
        <ele>54</ele>
        <time>2021-03-07T13:06:49.000Z</time>
      </trkpt>
      <trkpt lat="47.11049" lon="-1.71864">
        <ele>54</ele>
        <time>2021-03-07T13:06:51.000Z</time>
      </trkpt>
      <trkpt lat="47.11038" lon="-1.71879">
        <ele>54</ele>
        <time>2021-03-07T13:06:53.000Z</time>
      </trkpt>
      <trkpt lat="47.11028" lon="-1.71893">
        <ele>54</ele>
        <time>2021-03-07T13:06:55.000Z</time>
      </trkpt>
      <trkpt lat="47.11018" lon="-1.71908">
        <ele>54</ele>
        <time>2021-03-07T13:06:57.000Z</time>
      </trkpt>
      <trkpt lat="47.11003" lon="-1.7193">
        <ele>54</ele>
        <time>2021-03-07T13:07:00.000Z</time>
      </trkpt>
      <trkpt lat="47.10993" lon="-1.71945">
        <ele>54</ele>
        <time>2021-03-07T13:07:02.000Z</time>
      </trkpt>
      <trkpt lat="47.10982" lon="-1.71961">
        <ele>54</ele>
        <time>2021-03-07T13:07:04.000Z</time>
      </trkpt>
      <trkpt lat="47.10973" lon="-1.71978">
        <ele>52</ele>
        <time>2021-03-07T13:07:06.000Z</time>
      </trkpt>
      <trkpt lat="47.10962" lon="-1.71992">
        <ele>51</ele>
        <time>2021-03-07T13:07:08.000Z</time>
      </trkpt>
      <trkpt lat="47.1095" lon="-1.72009">
        <ele>50</ele>
        <time>2021-03-07T13:07:10.000Z</time>
      </trkpt>
      <trkpt lat="47.10935" lon="-1.72029">
        <ele>51</ele>
        <time>2021-03-07T13:07:13.000Z</time>
      </trkpt>
      <trkpt lat="47.10923" lon="-1.72046">
        <ele>48</ele>
        <time>2021-03-07T13:07:15.000Z</time>
      </trkpt>
      <trkpt lat="47.10906" lon="-1.72066">
        <ele>49</ele>
        <time>2021-03-07T13:07:18.000Z</time>
      </trkpt>
      <trkpt lat="47.10897" lon="-1.7208">
        <ele>49</ele>
        <time>2021-03-07T13:07:20.000Z</time>
      </trkpt>
      <trkpt lat="47.10883" lon="-1.72104">
        <ele>45</ele>
        <time>2021-03-07T13:07:23.000Z</time>
      </trkpt>
      <trkpt lat="47.10875" lon="-1.72117">
        <ele>45</ele>
        <time>2021-03-07T13:07:25.000Z</time>
      </trkpt>
      <trkpt lat="47.10864" lon="-1.7213">
        <ele>47</ele>
        <time>2021-03-07T13:07:27.000Z</time>
      </trkpt>
      <trkpt lat="47.10852" lon="-1.72139">
        <ele>48</ele>
        <time>2021-03-07T13:07:29.000Z</time>
      </trkpt>
      <trkpt lat="47.10835" lon="-1.72143">
        <ele>45</ele>
        <time>2021-03-07T13:07:32.000Z</time>
      </trkpt>
      <trkpt lat="47.10807" lon="-1.72132">
        <ele>49</ele>
        <time>2021-03-07T13:07:35.000Z</time>
      </trkpt>
      <trkpt lat="47.10797" lon="-1.72118">
        <ele>52</ele>
        <time>2021-03-07T13:07:37.000Z</time>
      </trkpt>
      <trkpt lat="47.10783" lon="-1.72107">
        <ele>53</ele>
        <time>2021-03-07T13:07:39.000Z</time>
      </trkpt>
      <trkpt lat="47.10771" lon="-1.72103">
        <ele>50</ele>
        <time>2021-03-07T13:07:41.000Z</time>
      </trkpt>
      <trkpt lat="47.10756" lon="-1.72098">
        <ele>49</ele>
        <time>2021-03-07T13:07:43.000Z</time>
      </trkpt>
      <trkpt lat="47.1074" lon="-1.72099">
        <ele>50</ele>
        <time>2021-03-07T13:07:45.000Z</time>
      </trkpt>
      <trkpt lat="47.10726" lon="-1.72103">
        <ele>51</ele>
        <time>2021-03-07T13:07:47.000Z</time>
      </trkpt>
      <trkpt lat="47.10703" lon="-1.72111">
        <ele>52</ele>
        <time>2021-03-07T13:07:50.000Z</time>
      </trkpt>
      <trkpt lat="47.10689" lon="-1.72115">
        <ele>52</ele>
        <time>2021-03-07T13:07:52.000Z</time>
      </trkpt>
      <trkpt lat="47.10675" lon="-1.72121">
        <ele>52</ele>
        <time>2021-03-07T13:07:54.000Z</time>
      </trkpt>
      <trkpt lat="47.10654" lon="-1.72127">
        <ele>49</ele>
        <time>2021-03-07T13:07:57.000Z</time>
      </trkpt>
      <trkpt lat="47.10639" lon="-1.72132">
        <ele>49</ele>
        <time>2021-03-07T13:07:59.000Z</time>
      </trkpt>
      <trkpt lat="47.10624" lon="-1.72138">
        <ele>49</ele>
        <time>2021-03-07T13:08:01.000Z</time>
      </trkpt>
      <trkpt lat="47.10611" lon="-1.72147">
        <ele>49</ele>
        <time>2021-03-07T13:08:03.000Z</time>
      </trkpt>
      <trkpt lat="47.10598" lon="-1.7216">
        <ele>48</ele>
        <time>2021-03-07T13:08:05.000Z</time>
      </trkpt>
      <trkpt lat="47.10582" lon="-1.72184">
        <ele>49</ele>
        <time>2021-03-07T13:08:08.000Z</time>
      </trkpt>
      <trkpt lat="47.10572" lon="-1.722">
        <ele>48</ele>
        <time>2021-03-07T13:08:10.000Z</time>
      </trkpt>
      <trkpt lat="47.10562" lon="-1.72215">
        <ele>48</ele>
        <time>2021-03-07T13:08:12.000Z</time>
      </trkpt>
      <trkpt lat="47.10552" lon="-1.72231">
        <ele>49</ele>
        <time>2021-03-07T13:08:14.000Z</time>
      </trkpt>
      <trkpt lat="47.10543" lon="-1.72247">
        <ele>49</ele>
        <time>2021-03-07T13:08:16.000Z</time>
      </trkpt>
      <trkpt lat="47.10534" lon="-1.72262">
        <ele>49</ele>
        <time>2021-03-07T13:08:18.000Z</time>
      </trkpt>
      <trkpt lat="47.10523" lon="-1.72275">
        <ele>50</ele>
        <time>2021-03-07T13:08:20.000Z</time>
      </trkpt>
      <trkpt lat="47.10511" lon="-1.72285">
        <ele>51</ele>
        <time>2021-03-07T13:08:22.000Z</time>
      </trkpt>
      <trkpt lat="47.10499" lon="-1.72293">
        <ele>51</ele>
        <time>2021-03-07T13:08:24.000Z</time>
      </trkpt>
      <trkpt lat="47.10486" lon="-1.723">
        <ele>51</ele>
        <time>2021-03-07T13:08:26.000Z</time>
      </trkpt>
      <trkpt lat="47.10471" lon="-1.72308">
        <ele>51</ele>
        <time>2021-03-07T13:08:28.000Z</time>
      </trkpt>
      <trkpt lat="47.10457" lon="-1.72314">
        <ele>51</ele>
        <time>2021-03-07T13:08:30.000Z</time>
      </trkpt>
      <trkpt lat="47.10445" lon="-1.72319">
        <ele>50</ele>
        <time>2021-03-07T13:08:32.000Z</time>
      </trkpt>
      <trkpt lat="47.10435" lon="-1.72327">
        <ele>51</ele>
        <time>2021-03-07T13:08:34.000Z</time>
      </trkpt>
      <trkpt lat="47.10421" lon="-1.72333">
        <ele>50</ele>
        <time>2021-03-07T13:08:36.000Z</time>
      </trkpt>
      <trkpt lat="47.10407" lon="-1.72341">
        <ele>51</ele>
        <time>2021-03-07T13:08:38.000Z</time>
      </trkpt>
      <trkpt lat="47.10393" lon="-1.72347">
        <ele>51</ele>
        <time>2021-03-07T13:08:40.000Z</time>
      </trkpt>
      <trkpt lat="47.1038" lon="-1.72354">
        <ele>52</ele>
        <time>2021-03-07T13:08:42.000Z</time>
      </trkpt>
      <trkpt lat="47.10367" lon="-1.72361">
        <ele>53</ele>
        <time>2021-03-07T13:08:44.000Z</time>
      </trkpt>
      <trkpt lat="47.10348" lon="-1.72373">
        <ele>56</ele>
        <time>2021-03-07T13:08:47.000Z</time>
      </trkpt>
      <trkpt lat="47.10335" lon="-1.72378">
        <ele>57</ele>
        <time>2021-03-07T13:08:49.000Z</time>
      </trkpt>
      <trkpt lat="47.10322" lon="-1.72385">
        <ele>57</ele>
        <time>2021-03-07T13:08:51.000Z</time>
      </trkpt>
      <trkpt lat="47.10297" lon="-1.72399">
        <ele>57</ele>
        <time>2021-03-07T13:08:55.000Z</time>
      </trkpt>
      <trkpt lat="47.10284" lon="-1.72406">
        <ele>57</ele>
        <time>2021-03-07T13:08:57.000Z</time>
      </trkpt>
      <trkpt lat="47.10272" lon="-1.72414">
        <ele>57</ele>
        <time>2021-03-07T13:08:59.000Z</time>
      </trkpt>
      <trkpt lat="47.10261" lon="-1.72425">
        <ele>57</ele>
        <time>2021-03-07T13:09:01.000Z</time>
      </trkpt>
      <trkpt lat="47.1025" lon="-1.72438">
        <ele>57</ele>
        <time>2021-03-07T13:09:03.000Z</time>
      </trkpt>
      <trkpt lat="47.10241" lon="-1.72453">
        <ele>57</ele>
        <time>2021-03-07T13:09:05.000Z</time>
      </trkpt>
      <trkpt lat="47.10234" lon="-1.72468">
        <ele>54</ele>
        <time>2021-03-07T13:09:07.000Z</time>
      </trkpt>
      <trkpt lat="47.10226" lon="-1.72483">
        <ele>53</ele>
        <time>2021-03-07T13:09:09.000Z</time>
      </trkpt>
      <trkpt lat="47.10216" lon="-1.72498">
        <ele>54</ele>
        <time>2021-03-07T13:09:11.000Z</time>
      </trkpt>
      <trkpt lat="47.10208" lon="-1.72514">
        <ele>54</ele>
        <time>2021-03-07T13:09:13.000Z</time>
      </trkpt>
      <trkpt lat="47.10199" lon="-1.72529">
        <ele>54</ele>
        <time>2021-03-07T13:09:15.000Z</time>
      </trkpt>
      <trkpt lat="47.10189" lon="-1.72544">
        <ele>54</ele>
        <time>2021-03-07T13:09:17.000Z</time>
      </trkpt>
      <trkpt lat="47.10178" lon="-1.72558">
        <ele>56</ele>
        <time>2021-03-07T13:09:19.000Z</time>
      </trkpt>
      <trkpt lat="47.10167" lon="-1.72572">
        <ele>57</ele>
        <time>2021-03-07T13:09:21.000Z</time>
      </trkpt>
      <trkpt lat="47.10157" lon="-1.72586">
        <ele>57</ele>
        <time>2021-03-07T13:09:23.000Z</time>
      </trkpt>
      <trkpt lat="47.10146" lon="-1.72599">
        <ele>58</ele>
        <time>2021-03-07T13:09:25.000Z</time>
      </trkpt>
      <trkpt lat="47.10134" lon="-1.7261">
        <ele>58</ele>
        <time>2021-03-07T13:09:27.000Z</time>
      </trkpt>
      <trkpt lat="47.10123" lon="-1.72622">
        <ele>58</ele>
        <time>2021-03-07T13:09:29.000Z</time>
      </trkpt>
      <trkpt lat="47.10111" lon="-1.72634">
        <ele>58</ele>
        <time>2021-03-07T13:09:31.000Z</time>
      </trkpt>
      <trkpt lat="47.10099" lon="-1.72645">
        <ele>58</ele>
        <time>2021-03-07T13:09:33.000Z</time>
      </trkpt>
      <trkpt lat="47.10087" lon="-1.72657">
        <ele>57</ele>
        <time>2021-03-07T13:09:35.000Z</time>
      </trkpt>
      <trkpt lat="47.10075" lon="-1.72669">
        <ele>58</ele>
        <time>2021-03-07T13:09:37.000Z</time>
      </trkpt>
      <trkpt lat="47.10063" lon="-1.72681">
        <ele>57</ele>
        <time>2021-03-07T13:09:39.000Z</time>
      </trkpt>
      <trkpt lat="47.1005" lon="-1.72694">
        <ele>57</ele>
        <time>2021-03-07T13:09:41.000Z</time>
      </trkpt>
      <trkpt lat="47.10037" lon="-1.72705">
        <ele>57</ele>
        <time>2021-03-07T13:09:43.000Z</time>
      </trkpt>
      <trkpt lat="47.10025" lon="-1.72715">
        <ele>56</ele>
        <time>2021-03-07T13:09:45.000Z</time>
      </trkpt>
      <trkpt lat="47.10012" lon="-1.72726">
        <ele>57</ele>
        <time>2021-03-07T13:09:47.000Z</time>
      </trkpt>
      <trkpt lat="47.09999" lon="-1.72737">
        <ele>55</ele>
        <time>2021-03-07T13:09:49.000Z</time>
      </trkpt>
      <trkpt lat="47.09985" lon="-1.72747">
        <ele>56</ele>
        <time>2021-03-07T13:09:51.000Z</time>
      </trkpt>
      <trkpt lat="47.09966" lon="-1.72757">
        <ele>56</ele>
        <time>2021-03-07T13:09:54.000Z</time>
      </trkpt>
      <trkpt lat="47.09947" lon="-1.72767">
        <ele>56</ele>
        <time>2021-03-07T13:09:57.000Z</time>
      </trkpt>
      <trkpt lat="47.09934" lon="-1.72774">
        <ele>56</ele>
        <time>2021-03-07T13:09:59.000Z</time>
      </trkpt>
      <trkpt lat="47.09913" lon="-1.72787">
        <ele>52</ele>
        <time>2021-03-07T13:10:02.000Z</time>
      </trkpt>
      <trkpt lat="47.09901" lon="-1.72793">
        <ele>47</ele>
        <time>2021-03-07T13:10:04.000Z</time>
      </trkpt>
      <trkpt lat="47.09887" lon="-1.72797">
        <ele>50</ele>
        <time>2021-03-07T13:10:06.000Z</time>
      </trkpt>
      <trkpt lat="47.09873" lon="-1.72804">
        <ele>51</ele>
        <time>2021-03-07T13:10:08.000Z</time>
      </trkpt>
      <trkpt lat="47.09853" lon="-1.72818">
        <ele>50</ele>
        <time>2021-03-07T13:10:11.000Z</time>
      </trkpt>
      <trkpt lat="47.09838" lon="-1.72823">
        <ele>51</ele>
        <time>2021-03-07T13:10:13.000Z</time>
      </trkpt>
      <trkpt lat="47.09825" lon="-1.72829">
        <ele>51</ele>
        <time>2021-03-07T13:10:15.000Z</time>
      </trkpt>
      <trkpt lat="47.09812" lon="-1.72838">
        <ele>50</ele>
        <time>2021-03-07T13:10:17.000Z</time>
      </trkpt>
      <trkpt lat="47.09801" lon="-1.72848">
        <ele>50</ele>
        <time>2021-03-07T13:10:19.000Z</time>
      </trkpt>
      <trkpt lat="47.09789" lon="-1.72862">
        <ele>51</ele>
        <time>2021-03-07T13:10:21.000Z</time>
      </trkpt>
      <trkpt lat="47.09776" lon="-1.72872">
        <ele>53</ele>
        <time>2021-03-07T13:10:23.000Z</time>
      </trkpt>
      <trkpt lat="47.09756" lon="-1.72865">
        <ele>54</ele>
        <time>2021-03-07T13:10:26.000Z</time>
      </trkpt>
      <trkpt lat="47.09748" lon="-1.72846">
        <ele>57</ele>
        <time>2021-03-07T13:10:28.000Z</time>
      </trkpt>
      <trkpt lat="47.0974" lon="-1.72826">
        <ele>60</ele>
        <time>2021-03-07T13:10:30.000Z</time>
      </trkpt>
      <trkpt lat="47.09731" lon="-1.72808">
        <ele>60</ele>
        <time>2021-03-07T13:10:32.000Z</time>
      </trkpt>
      <trkpt lat="47.09722" lon="-1.72792">
        <ele>59</ele>
        <time>2021-03-07T13:10:34.000Z</time>
      </trkpt>
      <trkpt lat="47.09713" lon="-1.72772">
        <ele>59</ele>
        <time>2021-03-07T13:10:36.000Z</time>
      </trkpt>
      <trkpt lat="47.09699" lon="-1.72747">
        <ele>58</ele>
        <time>2021-03-07T13:10:39.000Z</time>
      </trkpt>
      <trkpt lat="47.09686" lon="-1.72735">
        <ele>58</ele>
        <time>2021-03-07T13:10:41.000Z</time>
      </trkpt>
      <trkpt lat="47.09662" lon="-1.72724">
        <ele>54</ele>
        <time>2021-03-07T13:10:44.000Z</time>
      </trkpt>
      <trkpt lat="47.09648" lon="-1.72723">
        <ele>54</ele>
        <time>2021-03-07T13:10:46.000Z</time>
      </trkpt>
      <trkpt lat="47.09633" lon="-1.72719">
        <ele>55</ele>
        <time>2021-03-07T13:10:48.000Z</time>
      </trkpt>
      <trkpt lat="47.09619" lon="-1.72713">
        <ele>54</ele>
        <time>2021-03-07T13:10:50.000Z</time>
      </trkpt>
      <trkpt lat="47.09604" lon="-1.72705">
        <ele>54</ele>
        <time>2021-03-07T13:10:52.000Z</time>
      </trkpt>
      <trkpt lat="47.09589" lon="-1.72698">
        <ele>54</ele>
        <time>2021-03-07T13:10:54.000Z</time>
      </trkpt>
      <trkpt lat="47.09574" lon="-1.72691">
        <ele>54</ele>
        <time>2021-03-07T13:10:56.000Z</time>
      </trkpt>
      <trkpt lat="47.09559" lon="-1.72683">
        <ele>54</ele>
        <time>2021-03-07T13:10:58.000Z</time>
      </trkpt>
      <trkpt lat="47.09543" lon="-1.72681">
        <ele>53</ele>
        <time>2021-03-07T13:11:00.000Z</time>
      </trkpt>
      <trkpt lat="47.09529" lon="-1.72693">
        <ele>53</ele>
        <time>2021-03-07T13:11:02.000Z</time>
      </trkpt>
      <trkpt lat="47.09519" lon="-1.72711">
        <ele>53</ele>
        <time>2021-03-07T13:11:04.000Z</time>
      </trkpt>
      <trkpt lat="47.0951" lon="-1.72729">
        <ele>52</ele>
        <time>2021-03-07T13:11:06.000Z</time>
      </trkpt>
      <trkpt lat="47.09501" lon="-1.72748">
        <ele>52</ele>
        <time>2021-03-07T13:11:08.000Z</time>
      </trkpt>
      <trkpt lat="47.09493" lon="-1.72766">
        <ele>51</ele>
        <time>2021-03-07T13:11:10.000Z</time>
      </trkpt>
      <trkpt lat="47.09485" lon="-1.72784">
        <ele>51</ele>
        <time>2021-03-07T13:11:12.000Z</time>
      </trkpt>
      <trkpt lat="47.09475" lon="-1.72813">
        <ele>49</ele>
        <time>2021-03-07T13:11:15.000Z</time>
      </trkpt>
      <trkpt lat="47.09466" lon="-1.72828">
        <ele>49</ele>
        <time>2021-03-07T13:11:17.000Z</time>
      </trkpt>
      <trkpt lat="47.09452" lon="-1.72853">
        <ele>50</ele>
        <time>2021-03-07T13:11:20.000Z</time>
      </trkpt>
      <trkpt lat="47.09442" lon="-1.72879">
        <ele>50</ele>
        <time>2021-03-07T13:11:23.000Z</time>
      </trkpt>
      <trkpt lat="47.09434" lon="-1.72896">
        <ele>49</ele>
        <time>2021-03-07T13:11:25.000Z</time>
      </trkpt>
      <trkpt lat="47.09425" lon="-1.72913">
        <ele>49</ele>
        <time>2021-03-07T13:11:27.000Z</time>
      </trkpt>
      <trkpt lat="47.09416" lon="-1.7293">
        <ele>50</ele>
        <time>2021-03-07T13:11:29.000Z</time>
      </trkpt>
      <trkpt lat="47.09408" lon="-1.72948">
        <ele>48</ele>
        <time>2021-03-07T13:11:31.000Z</time>
      </trkpt>
      <trkpt lat="47.09399" lon="-1.72965">
        <ele>47</ele>
        <time>2021-03-07T13:11:33.000Z</time>
      </trkpt>
      <trkpt lat="47.09393" lon="-1.72985">
        <ele>47</ele>
        <time>2021-03-07T13:11:35.000Z</time>
      </trkpt>
      <trkpt lat="47.09391" lon="-1.73005">
        <ele>48</ele>
        <time>2021-03-07T13:11:37.000Z</time>
      </trkpt>
      <trkpt lat="47.0939" lon="-1.73025">
        <ele>48</ele>
        <time>2021-03-07T13:11:39.000Z</time>
      </trkpt>
      <trkpt lat="47.09389" lon="-1.73056">
        <ele>49</ele>
        <time>2021-03-07T13:11:42.000Z</time>
      </trkpt>
      <trkpt lat="47.09383" lon="-1.73076">
        <ele>48</ele>
        <time>2021-03-07T13:11:44.000Z</time>
      </trkpt>
      <trkpt lat="47.09376" lon="-1.73094">
        <ele>49</ele>
        <time>2021-03-07T13:11:46.000Z</time>
      </trkpt>
      <trkpt lat="47.09365" lon="-1.73108">
        <ele>49</ele>
        <time>2021-03-07T13:11:48.000Z</time>
      </trkpt>
      <trkpt lat="47.09345" lon="-1.73124">
        <ele>49</ele>
        <time>2021-03-07T13:11:51.000Z</time>
      </trkpt>
      <trkpt lat="47.0933" lon="-1.73136">
        <ele>48</ele>
        <time>2021-03-07T13:11:53.000Z</time>
      </trkpt>
      <trkpt lat="47.09318" lon="-1.73146">
        <ele>48</ele>
        <time>2021-03-07T13:11:55.000Z</time>
      </trkpt>
      <trkpt lat="47.09304" lon="-1.73156">
        <ele>48</ele>
        <time>2021-03-07T13:11:57.000Z</time>
      </trkpt>
      <trkpt lat="47.09291" lon="-1.73165">
        <ele>48</ele>
        <time>2021-03-07T13:11:59.000Z</time>
      </trkpt>
      <trkpt lat="47.0928" lon="-1.73177">
        <ele>47</ele>
        <time>2021-03-07T13:12:01.000Z</time>
      </trkpt>
      <trkpt lat="47.09268" lon="-1.7319">
        <ele>46</ele>
        <time>2021-03-07T13:12:03.000Z</time>
      </trkpt>
      <trkpt lat="47.09254" lon="-1.73199">
        <ele>47</ele>
        <time>2021-03-07T13:12:05.000Z</time>
      </trkpt>
      <trkpt lat="47.09242" lon="-1.7321">
        <ele>46</ele>
        <time>2021-03-07T13:12:07.000Z</time>
      </trkpt>
      <trkpt lat="47.0923" lon="-1.73218">
        <ele>45</ele>
        <time>2021-03-07T13:12:09.000Z</time>
      </trkpt>
      <trkpt lat="47.09217" lon="-1.73227">
        <ele>46</ele>
        <time>2021-03-07T13:12:11.000Z</time>
      </trkpt>
      <trkpt lat="47.09203" lon="-1.73237">
        <ele>47</ele>
        <time>2021-03-07T13:12:13.000Z</time>
      </trkpt>
      <trkpt lat="47.09189" lon="-1.73247">
        <ele>47</ele>
        <time>2021-03-07T13:12:15.000Z</time>
      </trkpt>
      <trkpt lat="47.09169" lon="-1.73265">
        <ele>46</ele>
        <time>2021-03-07T13:12:18.000Z</time>
      </trkpt>
      <trkpt lat="47.09156" lon="-1.73273">
        <ele>47</ele>
        <time>2021-03-07T13:12:20.000Z</time>
      </trkpt>
      <trkpt lat="47.09143" lon="-1.73283">
        <ele>48</ele>
        <time>2021-03-07T13:12:22.000Z</time>
      </trkpt>
      <trkpt lat="47.09131" lon="-1.73293">
        <ele>48</ele>
        <time>2021-03-07T13:12:24.000Z</time>
      </trkpt>
      <trkpt lat="47.09119" lon="-1.73303">
        <ele>48</ele>
        <time>2021-03-07T13:12:26.000Z</time>
      </trkpt>
      <trkpt lat="47.0911" lon="-1.73314">
        <ele>49</ele>
        <time>2021-03-07T13:12:28.000Z</time>
      </trkpt>
      <trkpt lat="47.09098" lon="-1.73324">
        <ele>49</ele>
        <time>2021-03-07T13:12:30.000Z</time>
      </trkpt>
      <trkpt lat="47.09085" lon="-1.73338">
        <ele>45</ele>
        <time>2021-03-07T13:12:32.000Z</time>
      </trkpt>
      <trkpt lat="47.09074" lon="-1.7335">
        <ele>45</ele>
        <time>2021-03-07T13:12:34.000Z</time>
      </trkpt>
      <trkpt lat="47.09057" lon="-1.73363">
        <ele>48</ele>
        <time>2021-03-07T13:12:37.000Z</time>
      </trkpt>
      <trkpt lat="47.09045" lon="-1.73371">
        <ele>47</ele>
        <time>2021-03-07T13:12:39.000Z</time>
      </trkpt>
      <trkpt lat="47.09034" lon="-1.73381">
        <ele>47</ele>
        <time>2021-03-07T13:12:41.000Z</time>
      </trkpt>
      <trkpt lat="47.09022" lon="-1.73391">
        <ele>48</ele>
        <time>2021-03-07T13:12:43.000Z</time>
      </trkpt>
      <trkpt lat="47.0901" lon="-1.73401">
        <ele>49</ele>
        <time>2021-03-07T13:12:45.000Z</time>
      </trkpt>
      <trkpt lat="47.08998" lon="-1.73413">
        <ele>48</ele>
        <time>2021-03-07T13:12:47.000Z</time>
      </trkpt>
      <trkpt lat="47.08987" lon="-1.73426">
        <ele>49</ele>
        <time>2021-03-07T13:12:49.000Z</time>
      </trkpt>
      <trkpt lat="47.08976" lon="-1.73439">
        <ele>49</ele>
        <time>2021-03-07T13:12:51.000Z</time>
      </trkpt>
      <trkpt lat="47.08967" lon="-1.73453">
        <ele>48</ele>
        <time>2021-03-07T13:12:53.000Z</time>
      </trkpt>
      <trkpt lat="47.08958" lon="-1.73469">
        <ele>48</ele>
        <time>2021-03-07T13:12:55.000Z</time>
      </trkpt>
      <trkpt lat="47.08952" lon="-1.73486">
        <ele>47</ele>
        <time>2021-03-07T13:12:57.000Z</time>
      </trkpt>
      <trkpt lat="47.08947" lon="-1.73505">
        <ele>47</ele>
        <time>2021-03-07T13:12:59.000Z</time>
      </trkpt>
      <trkpt lat="47.08942" lon="-1.73524">
        <ele>47</ele>
        <time>2021-03-07T13:13:01.000Z</time>
      </trkpt>
      <trkpt lat="47.08936" lon="-1.73544">
        <ele>46</ele>
        <time>2021-03-07T13:13:03.000Z</time>
      </trkpt>
      <trkpt lat="47.0893" lon="-1.73564">
        <ele>45</ele>
        <time>2021-03-07T13:13:05.000Z</time>
      </trkpt>
      <trkpt lat="47.08927" lon="-1.73582">
        <ele>45</ele>
        <time>2021-03-07T13:13:07.000Z</time>
      </trkpt>
      <trkpt lat="47.08924" lon="-1.73601">
        <ele>45</ele>
        <time>2021-03-07T13:13:09.000Z</time>
      </trkpt>
      <trkpt lat="47.08922" lon="-1.7362">
        <ele>45</ele>
        <time>2021-03-07T13:13:11.000Z</time>
      </trkpt>
      <trkpt lat="47.08919" lon="-1.73641">
        <ele>46</ele>
        <time>2021-03-07T13:13:13.000Z</time>
      </trkpt>
      <trkpt lat="47.08914" lon="-1.7366">
        <ele>46</ele>
        <time>2021-03-07T13:13:15.000Z</time>
      </trkpt>
      <trkpt lat="47.08903" lon="-1.73685">
        <ele>47</ele>
        <time>2021-03-07T13:13:18.000Z</time>
      </trkpt>
      <trkpt lat="47.08891" lon="-1.73712">
        <ele>47</ele>
        <time>2021-03-07T13:13:21.000Z</time>
      </trkpt>
      <trkpt lat="47.08884" lon="-1.73729">
        <ele>46</ele>
        <time>2021-03-07T13:13:23.000Z</time>
      </trkpt>
      <trkpt lat="47.08873" lon="-1.73753">
        <ele>46</ele>
        <time>2021-03-07T13:13:26.000Z</time>
      </trkpt>
      <trkpt lat="47.08863" lon="-1.7377">
        <ele>47</ele>
        <time>2021-03-07T13:13:28.000Z</time>
      </trkpt>
      <trkpt lat="47.08848" lon="-1.73792">
        <ele>49</ele>
        <time>2021-03-07T13:13:31.000Z</time>
      </trkpt>
      <trkpt lat="47.08833" lon="-1.73813">
        <ele>50</ele>
        <time>2021-03-07T13:13:34.000Z</time>
      </trkpt>
      <trkpt lat="47.08821" lon="-1.73826">
        <ele>51</ele>
        <time>2021-03-07T13:13:36.000Z</time>
      </trkpt>
      <trkpt lat="47.0881" lon="-1.73839">
        <ele>50</ele>
        <time>2021-03-07T13:13:38.000Z</time>
      </trkpt>
      <trkpt lat="47.08793" lon="-1.73862">
        <ele>46</ele>
        <time>2021-03-07T13:13:41.000Z</time>
      </trkpt>
      <trkpt lat="47.08785" lon="-1.73877">
        <ele>47</ele>
        <time>2021-03-07T13:13:43.000Z</time>
      </trkpt>
      <trkpt lat="47.08777" lon="-1.73893">
        <ele>48</ele>
        <time>2021-03-07T13:13:45.000Z</time>
      </trkpt>
      <trkpt lat="47.08769" lon="-1.73911">
        <ele>48</ele>
        <time>2021-03-07T13:13:47.000Z</time>
      </trkpt>
      <trkpt lat="47.08756" lon="-1.73935">
        <ele>48</ele>
        <time>2021-03-07T13:13:50.000Z</time>
      </trkpt>
      <trkpt lat="47.08744" lon="-1.73953">
        <ele>46</ele>
        <time>2021-03-07T13:13:52.000Z</time>
      </trkpt>
      <trkpt lat="47.08731" lon="-1.73977">
        <ele>46</ele>
        <time>2021-03-07T13:13:55.000Z</time>
      </trkpt>
      <trkpt lat="47.08724" lon="-1.73994">
        <ele>46</ele>
        <time>2021-03-07T13:13:57.000Z</time>
      </trkpt>
      <trkpt lat="47.08716" lon="-1.74011">
        <ele>46</ele>
        <time>2021-03-07T13:13:59.000Z</time>
      </trkpt>
      <trkpt lat="47.08704" lon="-1.74038">
        <ele>46</ele>
        <time>2021-03-07T13:14:02.000Z</time>
      </trkpt>
      <trkpt lat="47.08698" lon="-1.74056">
        <ele>46</ele>
        <time>2021-03-07T13:14:04.000Z</time>
      </trkpt>
      <trkpt lat="47.0869" lon="-1.74074">
        <ele>46</ele>
        <time>2021-03-07T13:14:06.000Z</time>
      </trkpt>
      <trkpt lat="47.08684" lon="-1.74092">
        <ele>44</ele>
        <time>2021-03-07T13:14:08.000Z</time>
      </trkpt>
      <trkpt lat="47.08679" lon="-1.7411">
        <ele>43</ele>
        <time>2021-03-07T13:14:10.000Z</time>
      </trkpt>
      <trkpt lat="47.08671" lon="-1.74127">
        <ele>44</ele>
        <time>2021-03-07T13:14:12.000Z</time>
      </trkpt>
      <trkpt lat="47.08662" lon="-1.74144">
        <ele>45</ele>
        <time>2021-03-07T13:14:14.000Z</time>
      </trkpt>
      <trkpt lat="47.08652" lon="-1.74159">
        <ele>46</ele>
        <time>2021-03-07T13:14:16.000Z</time>
      </trkpt>
      <trkpt lat="47.08641" lon="-1.74173">
        <ele>45</ele>
        <time>2021-03-07T13:14:18.000Z</time>
      </trkpt>
      <trkpt lat="47.08629" lon="-1.74188">
        <ele>45</ele>
        <time>2021-03-07T13:14:20.000Z</time>
      </trkpt>
      <trkpt lat="47.08619" lon="-1.742">
        <ele>47</ele>
        <time>2021-03-07T13:14:22.000Z</time>
      </trkpt>
      <trkpt lat="47.08609" lon="-1.74213">
        <ele>47</ele>
        <time>2021-03-07T13:14:24.000Z</time>
      </trkpt>
      <trkpt lat="47.08598" lon="-1.74226">
        <ele>48</ele>
        <time>2021-03-07T13:14:26.000Z</time>
      </trkpt>
      <trkpt lat="47.08587" lon="-1.74239">
        <ele>48</ele>
        <time>2021-03-07T13:14:28.000Z</time>
      </trkpt>
      <trkpt lat="47.08576" lon="-1.74252">
        <ele>48</ele>
        <time>2021-03-07T13:14:30.000Z</time>
      </trkpt>
      <trkpt lat="47.08565" lon="-1.74265">
        <ele>48</ele>
        <time>2021-03-07T13:14:32.000Z</time>
      </trkpt>
      <trkpt lat="47.08555" lon="-1.74278">
        <ele>48</ele>
        <time>2021-03-07T13:14:34.000Z</time>
      </trkpt>
      <trkpt lat="47.08547" lon="-1.74294">
        <ele>48</ele>
        <time>2021-03-07T13:14:36.000Z</time>
      </trkpt>
      <trkpt lat="47.08541" lon="-1.74313">
        <ele>47</ele>
        <time>2021-03-07T13:14:38.000Z</time>
      </trkpt>
      <trkpt lat="47.08537" lon="-1.74334">
        <ele>48</ele>
        <time>2021-03-07T13:14:40.000Z</time>
      </trkpt>
      <trkpt lat="47.08535" lon="-1.74354">
        <ele>48</ele>
        <time>2021-03-07T13:14:42.000Z</time>
      </trkpt>
      <trkpt lat="47.0853" lon="-1.74373">
        <ele>48</ele>
        <time>2021-03-07T13:14:44.000Z</time>
      </trkpt>
      <trkpt lat="47.08523" lon="-1.74388">
        <ele>48</ele>
        <time>2021-03-07T13:14:46.000Z</time>
      </trkpt>
      <trkpt lat="47.08513" lon="-1.74401">
        <ele>48</ele>
        <time>2021-03-07T13:14:48.000Z</time>
      </trkpt>
      <trkpt lat="47.08502" lon="-1.74414">
        <ele>48</ele>
        <time>2021-03-07T13:14:50.000Z</time>
      </trkpt>
      <trkpt lat="47.0849" lon="-1.74427">
        <ele>48</ele>
        <time>2021-03-07T13:14:52.000Z</time>
      </trkpt>
      <trkpt lat="47.08479" lon="-1.74439">
        <ele>47</ele>
        <time>2021-03-07T13:14:54.000Z</time>
      </trkpt>
      <trkpt lat="47.08469" lon="-1.74453">
        <ele>46</ele>
        <time>2021-03-07T13:14:56.000Z</time>
      </trkpt>
      <trkpt lat="47.08456" lon="-1.74466">
        <ele>46</ele>
        <time>2021-03-07T13:14:58.000Z</time>
      </trkpt>
      <trkpt lat="47.08444" lon="-1.74479">
        <ele>47</ele>
        <time>2021-03-07T13:15:00.000Z</time>
      </trkpt>
      <trkpt lat="47.08433" lon="-1.74492">
        <ele>48</ele>
        <time>2021-03-07T13:15:02.000Z</time>
      </trkpt>
      <trkpt lat="47.08421" lon="-1.74504">
        <ele>47</ele>
        <time>2021-03-07T13:15:04.000Z</time>
      </trkpt>
      <trkpt lat="47.08412" lon="-1.74516">
        <ele>46</ele>
        <time>2021-03-07T13:15:06.000Z</time>
      </trkpt>
      <trkpt lat="47.08403" lon="-1.74528">
        <ele>45</ele>
        <time>2021-03-07T13:15:08.000Z</time>
      </trkpt>
      <trkpt lat="47.08394" lon="-1.74542">
        <ele>45</ele>
        <time>2021-03-07T13:15:10.000Z</time>
      </trkpt>
      <trkpt lat="47.08384" lon="-1.74554">
        <ele>45</ele>
        <time>2021-03-07T13:15:12.000Z</time>
      </trkpt>
      <trkpt lat="47.0837" lon="-1.74565">
        <ele>46</ele>
        <time>2021-03-07T13:15:14.000Z</time>
      </trkpt>
      <trkpt lat="47.08355" lon="-1.7457">
        <ele>46</ele>
        <time>2021-03-07T13:15:16.000Z</time>
      </trkpt>
      <trkpt lat="47.08342" lon="-1.74576">
        <ele>46</ele>
        <time>2021-03-07T13:15:18.000Z</time>
      </trkpt>
      <trkpt lat="47.08328" lon="-1.74584">
        <ele>46</ele>
        <time>2021-03-07T13:15:20.000Z</time>
      </trkpt>
      <trkpt lat="47.08309" lon="-1.746">
        <ele>45</ele>
        <time>2021-03-07T13:15:23.000Z</time>
      </trkpt>
      <trkpt lat="47.08292" lon="-1.74622">
        <ele>46</ele>
        <time>2021-03-07T13:15:26.000Z</time>
      </trkpt>
      <trkpt lat="47.08281" lon="-1.74636">
        <ele>47</ele>
        <time>2021-03-07T13:15:28.000Z</time>
      </trkpt>
      <trkpt lat="47.08271" lon="-1.74651">
        <ele>46</ele>
        <time>2021-03-07T13:15:30.000Z</time>
      </trkpt>
      <trkpt lat="47.08261" lon="-1.74665">
        <ele>46</ele>
        <time>2021-03-07T13:15:32.000Z</time>
      </trkpt>
      <trkpt lat="47.08248" lon="-1.7469">
        <ele>42</ele>
        <time>2021-03-07T13:15:35.000Z</time>
      </trkpt>
      <trkpt lat="47.08238" lon="-1.74704">
        <ele>43</ele>
        <time>2021-03-07T13:15:37.000Z</time>
      </trkpt>
      <trkpt lat="47.08227" lon="-1.74719">
        <ele>44</ele>
        <time>2021-03-07T13:15:39.000Z</time>
      </trkpt>
      <trkpt lat="47.08218" lon="-1.74736">
        <ele>44</ele>
        <time>2021-03-07T13:15:41.000Z</time>
      </trkpt>
      <trkpt lat="47.08211" lon="-1.74753">
        <ele>42</ele>
        <time>2021-03-07T13:15:43.000Z</time>
      </trkpt>
      <trkpt lat="47.08208" lon="-1.74773">
        <ele>41</ele>
        <time>2021-03-07T13:15:45.000Z</time>
      </trkpt>
      <trkpt lat="47.08205" lon="-1.74793">
        <ele>42</ele>
        <time>2021-03-07T13:15:47.000Z</time>
      </trkpt>
      <trkpt lat="47.082" lon="-1.74813">
        <ele>43</ele>
        <time>2021-03-07T13:15:49.000Z</time>
      </trkpt>
      <trkpt lat="47.08193" lon="-1.74831">
        <ele>42</ele>
        <time>2021-03-07T13:15:51.000Z</time>
      </trkpt>
      <trkpt lat="47.08187" lon="-1.74844">
        <ele>42</ele>
        <time>2021-03-07T13:15:53.000Z</time>
      </trkpt>
      <trkpt lat="47.08173" lon="-1.74854">
        <ele>44</ele>
        <time>2021-03-07T13:15:55.000Z</time>
      </trkpt>
      <trkpt lat="47.08158" lon="-1.74864">
        <ele>46</ele>
        <time>2021-03-07T13:15:57.000Z</time>
      </trkpt>
      <trkpt lat="47.08145" lon="-1.74872">
        <ele>45</ele>
        <time>2021-03-07T13:15:59.000Z</time>
      </trkpt>
      <trkpt lat="47.08134" lon="-1.74878">
        <ele>45</ele>
        <time>2021-03-07T13:16:01.000Z</time>
      </trkpt>
      <trkpt lat="47.0812" lon="-1.74884">
        <ele>45</ele>
        <time>2021-03-07T13:16:03.000Z</time>
      </trkpt>
      <trkpt lat="47.08104" lon="-1.74885">
        <ele>45</ele>
        <time>2021-03-07T13:16:05.000Z</time>
      </trkpt>
      <trkpt lat="47.0809" lon="-1.74888">
        <ele>42</ele>
        <time>2021-03-07T13:16:07.000Z</time>
      </trkpt>
      <trkpt lat="47.08079" lon="-1.74899">
        <ele>41</ele>
        <time>2021-03-07T13:16:09.000Z</time>
      </trkpt>
      <trkpt lat="47.08068" lon="-1.74914">
        <ele>42</ele>
        <time>2021-03-07T13:16:11.000Z</time>
      </trkpt>
      <trkpt lat="47.08055" lon="-1.74927">
        <ele>43</ele>
        <time>2021-03-07T13:16:13.000Z</time>
      </trkpt>
      <trkpt lat="47.0804" lon="-1.74939">
        <ele>43</ele>
        <time>2021-03-07T13:16:15.000Z</time>
      </trkpt>
      <trkpt lat="47.08027" lon="-1.74947">
        <ele>44</ele>
        <time>2021-03-07T13:16:17.000Z</time>
      </trkpt>
      <trkpt lat="47.08013" lon="-1.74953">
        <ele>43</ele>
        <time>2021-03-07T13:16:19.000Z</time>
      </trkpt>
      <trkpt lat="47.08" lon="-1.74962">
        <ele>42</ele>
        <time>2021-03-07T13:16:21.000Z</time>
      </trkpt>
      <trkpt lat="47.07985" lon="-1.74969">
        <ele>42</ele>
        <time>2021-03-07T13:16:23.000Z</time>
      </trkpt>
      <trkpt lat="47.07972" lon="-1.74979">
        <ele>44</ele>
        <time>2021-03-07T13:16:25.000Z</time>
      </trkpt>
      <trkpt lat="47.07959" lon="-1.74988">
        <ele>45</ele>
        <time>2021-03-07T13:16:27.000Z</time>
      </trkpt>
      <trkpt lat="47.07937" lon="-1.75001">
        <ele>47</ele>
        <time>2021-03-07T13:16:30.000Z</time>
      </trkpt>
      <trkpt lat="47.07927" lon="-1.75008">
        <ele>45</ele>
        <time>2021-03-07T13:16:32.000Z</time>
      </trkpt>
      <trkpt lat="47.07912" lon="-1.75019">
        <ele>45</ele>
        <time>2021-03-07T13:16:35.000Z</time>
      </trkpt>
      <trkpt lat="47.07898" lon="-1.75028">
        <ele>47</ele>
        <time>2021-03-07T13:16:37.000Z</time>
      </trkpt>
      <trkpt lat="47.07885" lon="-1.75035">
        <ele>46</ele>
        <time>2021-03-07T13:16:39.000Z</time>
      </trkpt>
      <trkpt lat="47.07865" lon="-1.75045">
        <ele>47</ele>
        <time>2021-03-07T13:16:42.000Z</time>
      </trkpt>
      <trkpt lat="47.07849" lon="-1.75051">
        <ele>48</ele>
        <time>2021-03-07T13:16:44.000Z</time>
      </trkpt>
      <trkpt lat="47.07833" lon="-1.75054">
        <ele>49</ele>
        <time>2021-03-07T13:16:46.000Z</time>
      </trkpt>
      <trkpt lat="47.07818" lon="-1.75057">
        <ele>47</ele>
        <time>2021-03-07T13:16:48.000Z</time>
      </trkpt>
      <trkpt lat="47.07804" lon="-1.75056">
        <ele>49</ele>
        <time>2021-03-07T13:16:50.000Z</time>
      </trkpt>
      <trkpt lat="47.07791" lon="-1.75057">
        <ele>50</ele>
        <time>2021-03-07T13:16:52.000Z</time>
      </trkpt>
      <trkpt lat="47.07771" lon="-1.75058">
        <ele>51</ele>
        <time>2021-03-07T13:16:55.000Z</time>
      </trkpt>
      <trkpt lat="47.07757" lon="-1.7506">
        <ele>48</ele>
        <time>2021-03-07T13:16:57.000Z</time>
      </trkpt>
      <trkpt lat="47.07744" lon="-1.75058">
        <ele>49</ele>
        <time>2021-03-07T13:16:59.000Z</time>
      </trkpt>
      <trkpt lat="47.07732" lon="-1.75059">
        <ele>51</ele>
        <time>2021-03-07T13:17:01.000Z</time>
      </trkpt>
      <trkpt lat="47.07721" lon="-1.7506">
        <ele>51</ele>
        <time>2021-03-07T13:17:03.000Z</time>
      </trkpt>
      <trkpt lat="47.07712" lon="-1.75067">
        <ele>49</ele>
        <time>2021-03-07T13:17:05.000Z</time>
      </trkpt>
      <trkpt lat="47.0771" lon="-1.75086">
        <ele>48</ele>
        <time>2021-03-07T13:17:07.000Z</time>
      </trkpt>
      <trkpt lat="47.07712" lon="-1.75104">
        <ele>49</ele>
        <time>2021-03-07T13:17:09.000Z</time>
      </trkpt>
      <trkpt lat="47.07713" lon="-1.75124">
        <ele>51</ele>
        <time>2021-03-07T13:17:11.000Z</time>
      </trkpt>
      <trkpt lat="47.07717" lon="-1.75143">
        <ele>50</ele>
        <time>2021-03-07T13:17:13.000Z</time>
      </trkpt>
      <trkpt lat="47.07722" lon="-1.75161">
        <ele>51</ele>
        <time>2021-03-07T13:17:15.000Z</time>
      </trkpt>
      <trkpt lat="47.07729" lon="-1.75179">
        <ele>51</ele>
        <time>2021-03-07T13:17:17.000Z</time>
      </trkpt>
      <trkpt lat="47.07743" lon="-1.75211">
        <ele>50</ele>
        <time>2021-03-07T13:17:21.000Z</time>
      </trkpt>
      <trkpt lat="47.07749" lon="-1.7523">
        <ele>49</ele>
        <time>2021-03-07T13:17:23.000Z</time>
      </trkpt>
      <trkpt lat="47.07754" lon="-1.75248">
        <ele>49</ele>
        <time>2021-03-07T13:17:25.000Z</time>
      </trkpt>
      <trkpt lat="47.0776" lon="-1.75265">
        <ele>46</ele>
        <time>2021-03-07T13:17:27.000Z</time>
      </trkpt>
      <trkpt lat="47.07766" lon="-1.7528">
        <ele>45</ele>
        <time>2021-03-07T13:17:29.000Z</time>
      </trkpt>
      <trkpt lat="47.07774" lon="-1.75305">
        <ele>47</ele>
        <time>2021-03-07T13:17:32.000Z</time>
      </trkpt>
      <trkpt lat="47.07781" lon="-1.75322">
        <ele>47</ele>
        <time>2021-03-07T13:17:34.000Z</time>
      </trkpt>
      <trkpt lat="47.07787" lon="-1.75338">
        <ele>47</ele>
        <time>2021-03-07T13:17:36.000Z</time>
      </trkpt>
      <trkpt lat="47.07795" lon="-1.75355">
        <ele>48</ele>
        <time>2021-03-07T13:17:38.000Z</time>
      </trkpt>
      <trkpt lat="47.07802" lon="-1.7537">
        <ele>49</ele>
        <time>2021-03-07T13:17:40.000Z</time>
      </trkpt>
      <trkpt lat="47.07807" lon="-1.75384">
        <ele>48</ele>
        <time>2021-03-07T13:17:42.000Z</time>
      </trkpt>
      <trkpt lat="47.07815" lon="-1.75394">
        <ele>47</ele>
        <time>2021-03-07T13:17:44.000Z</time>
      </trkpt>
      <trkpt lat="47.0782" lon="-1.75406">
        <ele>47</ele>
        <time>2021-03-07T13:17:46.000Z</time>
      </trkpt>
      <trkpt lat="47.07817" lon="-1.75419">
        <ele>50</ele>
        <time>2021-03-07T13:17:48.000Z</time>
      </trkpt>
      <trkpt lat="47.07807" lon="-1.75428">
        <ele>52</ele>
        <time>2021-03-07T13:17:50.000Z</time>
      </trkpt>
      <trkpt lat="47.07794" lon="-1.75434">
        <ele>50</ele>
        <time>2021-03-07T13:17:52.000Z</time>
      </trkpt>
      <trkpt lat="47.07782" lon="-1.7544">
        <ele>50</ele>
        <time>2021-03-07T13:17:54.000Z</time>
      </trkpt>
      <trkpt lat="47.07768" lon="-1.75444">
        <ele>51</ele>
        <time>2021-03-07T13:17:56.000Z</time>
      </trkpt>
      <trkpt lat="47.07749" lon="-1.7545">
        <ele>52</ele>
        <time>2021-03-07T13:17:59.000Z</time>
      </trkpt>
      <trkpt lat="47.0774" lon="-1.75455">
        <ele>51</ele>
        <time>2021-03-07T13:18:01.000Z</time>
      </trkpt>
      <trkpt lat="47.07725" lon="-1.7546">
        <ele>52</ele>
        <time>2021-03-07T13:18:03.000Z</time>
      </trkpt>
      <trkpt lat="47.07713" lon="-1.75465">
        <ele>53</ele>
        <time>2021-03-07T13:18:05.000Z</time>
      </trkpt>
      <trkpt lat="47.07701" lon="-1.7547">
        <ele>53</ele>
        <time>2021-03-07T13:18:07.000Z</time>
      </trkpt>
      <trkpt lat="47.07685" lon="-1.7548">
        <ele>53</ele>
        <time>2021-03-07T13:18:10.000Z</time>
      </trkpt>
      <trkpt lat="47.07672" lon="-1.75482">
        <ele>54</ele>
        <time>2021-03-07T13:18:12.000Z</time>
      </trkpt>
      <trkpt lat="47.0766" lon="-1.75485">
        <ele>55</ele>
        <time>2021-03-07T13:18:14.000Z</time>
      </trkpt>
      <trkpt lat="47.07648" lon="-1.75489">
        <ele>54</ele>
        <time>2021-03-07T13:18:16.000Z</time>
      </trkpt>
      <trkpt lat="47.0763" lon="-1.75499">
        <ele>52</ele>
        <time>2021-03-07T13:18:19.000Z</time>
      </trkpt>
      <trkpt lat="47.07619" lon="-1.75502">
        <ele>52</ele>
        <time>2021-03-07T13:18:21.000Z</time>
      </trkpt>
      <trkpt lat="47.07608" lon="-1.75505">
        <ele>52</ele>
        <time>2021-03-07T13:18:23.000Z</time>
      </trkpt>
      <trkpt lat="47.07597" lon="-1.75509">
        <ele>53</ele>
        <time>2021-03-07T13:18:25.000Z</time>
      </trkpt>
      <trkpt lat="47.07586" lon="-1.75514">
        <ele>55</ele>
        <time>2021-03-07T13:18:27.000Z</time>
      </trkpt>
      <trkpt lat="47.07574" lon="-1.75519">
        <ele>54</ele>
        <time>2021-03-07T13:18:29.000Z</time>
      </trkpt>
      <trkpt lat="47.07563" lon="-1.75522">
        <ele>56</ele>
        <time>2021-03-07T13:18:31.000Z</time>
      </trkpt>
      <trkpt lat="47.07551" lon="-1.75527">
        <ele>57</ele>
        <time>2021-03-07T13:18:33.000Z</time>
      </trkpt>
      <trkpt lat="47.0754" lon="-1.75531">
        <ele>57</ele>
        <time>2021-03-07T13:18:35.000Z</time>
      </trkpt>
      <trkpt lat="47.07528" lon="-1.75536">
        <ele>58</ele>
        <time>2021-03-07T13:18:37.000Z</time>
      </trkpt>
      <trkpt lat="47.07517" lon="-1.75541">
        <ele>56</ele>
        <time>2021-03-07T13:18:39.000Z</time>
      </trkpt>
      <trkpt lat="47.07506" lon="-1.75547">
        <ele>54</ele>
        <time>2021-03-07T13:18:41.000Z</time>
      </trkpt>
      <trkpt lat="47.07495" lon="-1.7555">
        <ele>56</ele>
        <time>2021-03-07T13:18:43.000Z</time>
      </trkpt>
      <trkpt lat="47.07484" lon="-1.75554">
        <ele>57</ele>
        <time>2021-03-07T13:18:45.000Z</time>
      </trkpt>
      <trkpt lat="47.07472" lon="-1.75561">
        <ele>55</ele>
        <time>2021-03-07T13:18:47.000Z</time>
      </trkpt>
      <trkpt lat="47.07461" lon="-1.75567">
        <ele>54</ele>
        <time>2021-03-07T13:18:49.000Z</time>
      </trkpt>
      <trkpt lat="47.0745" lon="-1.75568">
        <ele>55</ele>
        <time>2021-03-07T13:18:51.000Z</time>
      </trkpt>
      <trkpt lat="47.07438" lon="-1.75571">
        <ele>57</ele>
        <time>2021-03-07T13:18:53.000Z</time>
      </trkpt>
      <trkpt lat="47.07428" lon="-1.75576">
        <ele>56</ele>
        <time>2021-03-07T13:18:55.000Z</time>
      </trkpt>
      <trkpt lat="47.07416" lon="-1.75583">
        <ele>55</ele>
        <time>2021-03-07T13:18:57.000Z</time>
      </trkpt>
      <trkpt lat="47.07405" lon="-1.75586">
        <ele>56</ele>
        <time>2021-03-07T13:18:59.000Z</time>
      </trkpt>
      <trkpt lat="47.07394" lon="-1.75589">
        <ele>57</ele>
        <time>2021-03-07T13:19:01.000Z</time>
      </trkpt>
      <trkpt lat="47.07383" lon="-1.75593">
        <ele>59</ele>
        <time>2021-03-07T13:19:03.000Z</time>
      </trkpt>
      <trkpt lat="47.07366" lon="-1.75599">
        <ele>60</ele>
        <time>2021-03-07T13:19:06.000Z</time>
      </trkpt>
      <trkpt lat="47.07355" lon="-1.75603">
        <ele>61</ele>
        <time>2021-03-07T13:19:08.000Z</time>
      </trkpt>
      <trkpt lat="47.07344" lon="-1.75608">
        <ele>62</ele>
        <time>2021-03-07T13:19:10.000Z</time>
      </trkpt>
      <trkpt lat="47.07333" lon="-1.75612">
        <ele>63</ele>
        <time>2021-03-07T13:19:12.000Z</time>
      </trkpt>
      <trkpt lat="47.07315" lon="-1.75619">
        <ele>63</ele>
        <time>2021-03-07T13:19:15.000Z</time>
      </trkpt>
      <trkpt lat="47.07304" lon="-1.75626">
        <ele>63</ele>
        <time>2021-03-07T13:19:17.000Z</time>
      </trkpt>
      <trkpt lat="47.07293" lon="-1.75633">
        <ele>63</ele>
        <time>2021-03-07T13:19:19.000Z</time>
      </trkpt>
      <trkpt lat="47.07285" lon="-1.7564">
        <ele>62</ele>
        <time>2021-03-07T13:19:21.000Z</time>
      </trkpt>
      <trkpt lat="47.07268" lon="-1.75653">
        <ele>63</ele>
        <time>2021-03-07T13:19:24.000Z</time>
      </trkpt>
      <trkpt lat="47.07258" lon="-1.75663">
        <ele>63</ele>
        <time>2021-03-07T13:19:26.000Z</time>
      </trkpt>
      <trkpt lat="47.07248" lon="-1.75676">
        <ele>60</ele>
        <time>2021-03-07T13:19:28.000Z</time>
      </trkpt>
      <trkpt lat="47.07238" lon="-1.75687">
        <ele>60</ele>
        <time>2021-03-07T13:19:30.000Z</time>
      </trkpt>
      <trkpt lat="47.07224" lon="-1.75702">
        <ele>63</ele>
        <time>2021-03-07T13:19:33.000Z</time>
      </trkpt>
      <trkpt lat="47.07213" lon="-1.75713">
        <ele>63</ele>
        <time>2021-03-07T13:19:35.000Z</time>
      </trkpt>
      <trkpt lat="47.07206" lon="-1.75727">
        <ele>61</ele>
        <time>2021-03-07T13:19:37.000Z</time>
      </trkpt>
      <trkpt lat="47.07197" lon="-1.75736">
        <ele>62</ele>
        <time>2021-03-07T13:19:39.000Z</time>
      </trkpt>
      <trkpt lat="47.07187" lon="-1.75746">
        <ele>63</ele>
        <time>2021-03-07T13:19:41.000Z</time>
      </trkpt>
      <trkpt lat="47.07177" lon="-1.75757">
        <ele>63</ele>
        <time>2021-03-07T13:19:43.000Z</time>
      </trkpt>
      <trkpt lat="47.07167" lon="-1.75769">
        <ele>64</ele>
        <time>2021-03-07T13:19:45.000Z</time>
      </trkpt>
      <trkpt lat="47.07158" lon="-1.75779">
        <ele>64</ele>
        <time>2021-03-07T13:19:47.000Z</time>
      </trkpt>
      <trkpt lat="47.07148" lon="-1.7579">
        <ele>64</ele>
        <time>2021-03-07T13:19:49.000Z</time>
      </trkpt>
      <trkpt lat="47.07138" lon="-1.75801">
        <ele>64</ele>
        <time>2021-03-07T13:19:51.000Z</time>
      </trkpt>
      <trkpt lat="47.07127" lon="-1.75815">
        <ele>65</ele>
        <time>2021-03-07T13:19:53.000Z</time>
      </trkpt>
      <trkpt lat="47.07117" lon="-1.75826">
        <ele>66</ele>
        <time>2021-03-07T13:19:55.000Z</time>
      </trkpt>
      <trkpt lat="47.07107" lon="-1.75838">
        <ele>65</ele>
        <time>2021-03-07T13:19:57.000Z</time>
      </trkpt>
      <trkpt lat="47.07097" lon="-1.75849">
        <ele>65</ele>
        <time>2021-03-07T13:19:59.000Z</time>
      </trkpt>
      <trkpt lat="47.07087" lon="-1.75861">
        <ele>66</ele>
        <time>2021-03-07T13:20:01.000Z</time>
      </trkpt>
      <trkpt lat="47.07077" lon="-1.75875">
        <ele>63</ele>
        <time>2021-03-07T13:20:03.000Z</time>
      </trkpt>
      <trkpt lat="47.07058" lon="-1.75897">
        <ele>64</ele>
        <time>2021-03-07T13:20:07.000Z</time>
      </trkpt>
      <trkpt lat="47.07047" lon="-1.75911">
        <ele>62</ele>
        <time>2021-03-07T13:20:09.000Z</time>
      </trkpt>
      <trkpt lat="47.07038" lon="-1.75925">
        <ele>60</ele>
        <time>2021-03-07T13:20:11.000Z</time>
      </trkpt>
      <trkpt lat="47.07027" lon="-1.75933">
        <ele>61</ele>
        <time>2021-03-07T13:20:13.000Z</time>
      </trkpt>
      <trkpt lat="47.07017" lon="-1.75944">
        <ele>64</ele>
        <time>2021-03-07T13:20:15.000Z</time>
      </trkpt>
      <trkpt lat="47.07007" lon="-1.75955">
        <ele>64</ele>
        <time>2021-03-07T13:20:17.000Z</time>
      </trkpt>
      <trkpt lat="47.06996" lon="-1.75967">
        <ele>65</ele>
        <time>2021-03-07T13:20:19.000Z</time>
      </trkpt>
      <trkpt lat="47.0699" lon="-1.7598">
        <ele>61</ele>
        <time>2021-03-07T13:20:21.000Z</time>
      </trkpt>
      <trkpt lat="47.0698" lon="-1.75989">
        <ele>63</ele>
        <time>2021-03-07T13:20:23.000Z</time>
      </trkpt>
      <trkpt lat="47.06968" lon="-1.76001">
        <ele>65</ele>
        <time>2021-03-07T13:20:25.000Z</time>
      </trkpt>
      <trkpt lat="47.06957" lon="-1.76012">
        <ele>65</ele>
        <time>2021-03-07T13:20:27.000Z</time>
      </trkpt>
      <trkpt lat="47.06946" lon="-1.76024">
        <ele>65</ele>
        <time>2021-03-07T13:20:29.000Z</time>
      </trkpt>
      <trkpt lat="47.06936" lon="-1.76035">
        <ele>66</ele>
        <time>2021-03-07T13:20:31.000Z</time>
      </trkpt>
      <trkpt lat="47.06925" lon="-1.76044">
        <ele>67</ele>
        <time>2021-03-07T13:20:33.000Z</time>
      </trkpt>
      <trkpt lat="47.06914" lon="-1.76052">
        <ele>68</ele>
        <time>2021-03-07T13:20:35.000Z</time>
      </trkpt>
      <trkpt lat="47.06903" lon="-1.76059">
        <ele>69</ele>
        <time>2021-03-07T13:20:37.000Z</time>
      </trkpt>
      <trkpt lat="47.0689" lon="-1.76065">
        <ele>70</ele>
        <time>2021-03-07T13:20:39.000Z</time>
      </trkpt>
      <trkpt lat="47.06872" lon="-1.76074">
        <ele>71</ele>
        <time>2021-03-07T13:20:42.000Z</time>
      </trkpt>
      <trkpt lat="47.06861" lon="-1.76081">
        <ele>69</ele>
        <time>2021-03-07T13:20:44.000Z</time>
      </trkpt>
      <trkpt lat="47.06845" lon="-1.76086">
        <ele>70</ele>
        <time>2021-03-07T13:20:47.000Z</time>
      </trkpt>
      <trkpt lat="47.06833" lon="-1.76091">
        <ele>71</ele>
        <time>2021-03-07T13:20:49.000Z</time>
      </trkpt>
      <trkpt lat="47.06821" lon="-1.761">
        <ele>69</ele>
        <time>2021-03-07T13:20:51.000Z</time>
      </trkpt>
      <trkpt lat="47.06804" lon="-1.76105">
        <ele>70</ele>
        <time>2021-03-07T13:20:54.000Z</time>
      </trkpt>
      <trkpt lat="47.06792" lon="-1.76111">
        <ele>71</ele>
        <time>2021-03-07T13:20:56.000Z</time>
      </trkpt>
      <trkpt lat="47.06779" lon="-1.76116">
        <ele>70</ele>
        <time>2021-03-07T13:20:58.000Z</time>
      </trkpt>
      <trkpt lat="47.06763" lon="-1.76123">
        <ele>70</ele>
        <time>2021-03-07T13:21:01.000Z</time>
      </trkpt>
      <trkpt lat="47.06752" lon="-1.76128">
        <ele>70</ele>
        <time>2021-03-07T13:21:03.000Z</time>
      </trkpt>
      <trkpt lat="47.06735" lon="-1.76134">
        <ele>73</ele>
        <time>2021-03-07T13:21:06.000Z</time>
      </trkpt>
      <trkpt lat="47.06723" lon="-1.76137">
        <ele>74</ele>
        <time>2021-03-07T13:21:08.000Z</time>
      </trkpt>
      <trkpt lat="47.06712" lon="-1.76143">
        <ele>75</ele>
        <time>2021-03-07T13:21:10.000Z</time>
      </trkpt>
      <trkpt lat="47.06701" lon="-1.76149">
        <ele>76</ele>
        <time>2021-03-07T13:21:12.000Z</time>
      </trkpt>
      <trkpt lat="47.0669" lon="-1.76155">
        <ele>76</ele>
        <time>2021-03-07T13:21:14.000Z</time>
      </trkpt>
      <trkpt lat="47.06678" lon="-1.7616">
        <ele>77</ele>
        <time>2021-03-07T13:21:16.000Z</time>
      </trkpt>
      <trkpt lat="47.06667" lon="-1.76166">
        <ele>77</ele>
        <time>2021-03-07T13:21:18.000Z</time>
      </trkpt>
      <trkpt lat="47.06656" lon="-1.76171">
        <ele>78</ele>
        <time>2021-03-07T13:21:20.000Z</time>
      </trkpt>
      <trkpt lat="47.06639" lon="-1.76179">
        <ele>76</ele>
        <time>2021-03-07T13:21:23.000Z</time>
      </trkpt>
      <trkpt lat="47.06626" lon="-1.76183">
        <ele>76</ele>
        <time>2021-03-07T13:21:25.000Z</time>
      </trkpt>
      <trkpt lat="47.06616" lon="-1.76188">
        <ele>76</ele>
        <time>2021-03-07T13:21:27.000Z</time>
      </trkpt>
      <trkpt lat="47.06593" lon="-1.762">
        <ele>77</ele>
        <time>2021-03-07T13:21:31.000Z</time>
      </trkpt>
      <trkpt lat="47.06582" lon="-1.76205">
        <ele>77</ele>
        <time>2021-03-07T13:21:33.000Z</time>
      </trkpt>
      <trkpt lat="47.06572" lon="-1.76209">
        <ele>79</ele>
        <time>2021-03-07T13:21:35.000Z</time>
      </trkpt>
      <trkpt lat="47.06561" lon="-1.76214">
        <ele>80</ele>
        <time>2021-03-07T13:21:37.000Z</time>
      </trkpt>
      <trkpt lat="47.06549" lon="-1.76219">
        <ele>80</ele>
        <time>2021-03-07T13:21:39.000Z</time>
      </trkpt>
      <trkpt lat="47.06538" lon="-1.76225">
        <ele>80</ele>
        <time>2021-03-07T13:21:41.000Z</time>
      </trkpt>
      <trkpt lat="47.06526" lon="-1.7623">
        <ele>80</ele>
        <time>2021-03-07T13:21:43.000Z</time>
      </trkpt>
      <trkpt lat="47.06514" lon="-1.76235">
        <ele>80</ele>
        <time>2021-03-07T13:21:45.000Z</time>
      </trkpt>
      <trkpt lat="47.06503" lon="-1.76241">
        <ele>80</ele>
        <time>2021-03-07T13:21:47.000Z</time>
      </trkpt>
      <trkpt lat="47.0649" lon="-1.76247">
        <ele>79</ele>
        <time>2021-03-07T13:21:49.000Z</time>
      </trkpt>
      <trkpt lat="47.06478" lon="-1.76253">
        <ele>79</ele>
        <time>2021-03-07T13:21:51.000Z</time>
      </trkpt>
      <trkpt lat="47.06468" lon="-1.76261">
        <ele>76</ele>
        <time>2021-03-07T13:21:53.000Z</time>
      </trkpt>
      <trkpt lat="47.06455" lon="-1.76268">
        <ele>76</ele>
        <time>2021-03-07T13:21:55.000Z</time>
      </trkpt>
      <trkpt lat="47.06443" lon="-1.76277">
        <ele>76</ele>
        <time>2021-03-07T13:21:57.000Z</time>
      </trkpt>
      <trkpt lat="47.06429" lon="-1.76283">
        <ele>76</ele>
        <time>2021-03-07T13:21:59.000Z</time>
      </trkpt>
      <trkpt lat="47.06408" lon="-1.76292">
        <ele>75</ele>
        <time>2021-03-07T13:22:02.000Z</time>
      </trkpt>
      <trkpt lat="47.06393" lon="-1.76298">
        <ele>75</ele>
        <time>2021-03-07T13:22:04.000Z</time>
      </trkpt>
      <trkpt lat="47.06379" lon="-1.76303">
        <ele>75</ele>
        <time>2021-03-07T13:22:06.000Z</time>
      </trkpt>
      <trkpt lat="47.06365" lon="-1.76309">
        <ele>75</ele>
        <time>2021-03-07T13:22:08.000Z</time>
      </trkpt>
      <trkpt lat="47.06351" lon="-1.76314">
        <ele>76</ele>
        <time>2021-03-07T13:22:10.000Z</time>
      </trkpt>
      <trkpt lat="47.06337" lon="-1.7632">
        <ele>77</ele>
        <time>2021-03-07T13:22:12.000Z</time>
      </trkpt>
      <trkpt lat="47.06315" lon="-1.76331">
        <ele>77</ele>
        <time>2021-03-07T13:22:15.000Z</time>
      </trkpt>
      <trkpt lat="47.063" lon="-1.76329">
        <ele>76</ele>
        <time>2021-03-07T13:22:17.000Z</time>
      </trkpt>
      <trkpt lat="47.06296" lon="-1.76311">
        <ele>78</ele>
        <time>2021-03-07T13:22:19.000Z</time>
      </trkpt>
      <trkpt lat="47.06299" lon="-1.7629">
        <ele>77</ele>
        <time>2021-03-07T13:22:21.000Z</time>
      </trkpt>
      <trkpt lat="47.06301" lon="-1.76271">
        <ele>77</ele>
        <time>2021-03-07T13:22:23.000Z</time>
      </trkpt>
      <trkpt lat="47.06303" lon="-1.76251">
        <ele>77</ele>
        <time>2021-03-07T13:22:25.000Z</time>
      </trkpt>
      <trkpt lat="47.06301" lon="-1.76232">
        <ele>77</ele>
        <time>2021-03-07T13:22:27.000Z</time>
      </trkpt>
      <trkpt lat="47.06298" lon="-1.76213">
        <ele>77</ele>
        <time>2021-03-07T13:22:29.000Z</time>
      </trkpt>
      <trkpt lat="47.06294" lon="-1.76195">
        <ele>76</ele>
        <time>2021-03-07T13:22:31.000Z</time>
      </trkpt>
      <trkpt lat="47.06283" lon="-1.76168">
        <ele>74</ele>
        <time>2021-03-07T13:22:34.000Z</time>
      </trkpt>
      <trkpt lat="47.06275" lon="-1.76154">
        <ele>74</ele>
        <time>2021-03-07T13:22:36.000Z</time>
      </trkpt>
      <trkpt lat="47.0626" lon="-1.76135">
        <ele>73</ele>
        <time>2021-03-07T13:22:39.000Z</time>
      </trkpt>
      <trkpt lat="47.0625" lon="-1.76127">
        <ele>73</ele>
        <time>2021-03-07T13:22:41.000Z</time>
      </trkpt>
      <trkpt lat="47.0624" lon="-1.76117">
        <ele>73</ele>
        <time>2021-03-07T13:22:43.000Z</time>
      </trkpt>
      <trkpt lat="47.06231" lon="-1.76106">
        <ele>71</ele>
        <time>2021-03-07T13:22:45.000Z</time>
      </trkpt>
      <trkpt lat="47.0622" lon="-1.76093">
        <ele>71</ele>
        <time>2021-03-07T13:22:47.000Z</time>
      </trkpt>
      <trkpt lat="47.06208" lon="-1.76083">
        <ele>69</ele>
        <time>2021-03-07T13:22:49.000Z</time>
      </trkpt>
      <trkpt lat="47.06198" lon="-1.76067">
        <ele>69</ele>
        <time>2021-03-07T13:22:51.000Z</time>
      </trkpt>
      <trkpt lat="47.06187" lon="-1.76056">
        <ele>67</ele>
        <time>2021-03-07T13:22:53.000Z</time>
      </trkpt>
      <trkpt lat="47.06177" lon="-1.76042">
        <ele>68</ele>
        <time>2021-03-07T13:22:55.000Z</time>
      </trkpt>
      <trkpt lat="47.06168" lon="-1.76028">
        <ele>68</ele>
        <time>2021-03-07T13:22:57.000Z</time>
      </trkpt>
      <trkpt lat="47.06161" lon="-1.76019">
        <ele>70</ele>
        <time>2021-03-07T13:22:58.000Z</time>
      </trkpt>
      <trkpt lat="47.06148" lon="-1.76003">
        <ele>71</ele>
        <time>2021-03-07T13:23:00.000Z</time>
      </trkpt>
      <trkpt lat="47.0613" lon="-1.75985">
        <ele>70</ele>
        <time>2021-03-07T13:23:03.000Z</time>
      </trkpt>
      <trkpt lat="47.06119" lon="-1.75969">
        <ele>70</ele>
        <time>2021-03-07T13:23:05.000Z</time>
      </trkpt>
      <trkpt lat="47.06108" lon="-1.75955">
        <ele>71</ele>
        <time>2021-03-07T13:23:07.000Z</time>
      </trkpt>
      <trkpt lat="47.06098" lon="-1.75943">
        <ele>71</ele>
        <time>2021-03-07T13:23:09.000Z</time>
      </trkpt>
      <trkpt lat="47.06086" lon="-1.75934">
        <ele>70</ele>
        <time>2021-03-07T13:23:11.000Z</time>
      </trkpt>
      <trkpt lat="47.06077" lon="-1.75923">
        <ele>70</ele>
        <time>2021-03-07T13:23:13.000Z</time>
      </trkpt>
      <trkpt lat="47.06066" lon="-1.7591">
        <ele>70</ele>
        <time>2021-03-07T13:23:15.000Z</time>
      </trkpt>
      <trkpt lat="47.06049" lon="-1.75889">
        <ele>70</ele>
        <time>2021-03-07T13:23:18.000Z</time>
      </trkpt>
      <trkpt lat="47.06037" lon="-1.75876">
        <ele>69</ele>
        <time>2021-03-07T13:23:20.000Z</time>
      </trkpt>
      <trkpt lat="47.06026" lon="-1.75866">
        <ele>69</ele>
        <time>2021-03-07T13:23:22.000Z</time>
      </trkpt>
      <trkpt lat="47.06014" lon="-1.75851">
        <ele>69</ele>
        <time>2021-03-07T13:23:24.000Z</time>
      </trkpt>
      <trkpt lat="47.06003" lon="-1.75837">
        <ele>69</ele>
        <time>2021-03-07T13:23:26.000Z</time>
      </trkpt>
      <trkpt lat="47.0599" lon="-1.75825">
        <ele>67</ele>
        <time>2021-03-07T13:23:28.000Z</time>
      </trkpt>
      <trkpt lat="47.05973" lon="-1.75801">
        <ele>66</ele>
        <time>2021-03-07T13:23:31.000Z</time>
      </trkpt>
      <trkpt lat="47.05964" lon="-1.75784">
        <ele>67</ele>
        <time>2021-03-07T13:23:33.000Z</time>
      </trkpt>
      <trkpt lat="47.05956" lon="-1.75767">
        <ele>68</ele>
        <time>2021-03-07T13:23:35.000Z</time>
      </trkpt>
      <trkpt lat="47.05947" lon="-1.75749">
        <ele>68</ele>
        <time>2021-03-07T13:23:37.000Z</time>
      </trkpt>
      <trkpt lat="47.0594" lon="-1.75731">
        <ele>68</ele>
        <time>2021-03-07T13:23:39.000Z</time>
      </trkpt>
      <trkpt lat="47.05933" lon="-1.75714">
        <ele>68</ele>
        <time>2021-03-07T13:23:41.000Z</time>
      </trkpt>
      <trkpt lat="47.05927" lon="-1.75695">
        <ele>69</ele>
        <time>2021-03-07T13:23:43.000Z</time>
      </trkpt>
      <trkpt lat="47.05917" lon="-1.75667">
        <ele>69</ele>
        <time>2021-03-07T13:23:46.000Z</time>
      </trkpt>
      <trkpt lat="47.05909" lon="-1.7565">
        <ele>69</ele>
        <time>2021-03-07T13:23:48.000Z</time>
      </trkpt>
      <trkpt lat="47.05899" lon="-1.75624">
        <ele>69</ele>
        <time>2021-03-07T13:23:51.000Z</time>
      </trkpt>
      <trkpt lat="47.05893" lon="-1.75608">
        <ele>65</ele>
        <time>2021-03-07T13:23:53.000Z</time>
      </trkpt>
      <trkpt lat="47.05886" lon="-1.75579">
        <ele>66</ele>
        <time>2021-03-07T13:23:56.000Z</time>
      </trkpt>
      <trkpt lat="47.0588" lon="-1.75562">
        <ele>67</ele>
        <time>2021-03-07T13:23:58.000Z</time>
      </trkpt>
      <trkpt lat="47.05873" lon="-1.75547">
        <ele>66</ele>
        <time>2021-03-07T13:24:00.000Z</time>
      </trkpt>
      <trkpt lat="47.05869" lon="-1.75529">
        <ele>66</ele>
        <time>2021-03-07T13:24:02.000Z</time>
      </trkpt>
      <trkpt lat="47.05863" lon="-1.75511">
        <ele>67</ele>
        <time>2021-03-07T13:24:04.000Z</time>
      </trkpt>
      <trkpt lat="47.05857" lon="-1.75494">
        <ele>66</ele>
        <time>2021-03-07T13:24:06.000Z</time>
      </trkpt>
      <trkpt lat="47.0585" lon="-1.75477">
        <ele>64</ele>
        <time>2021-03-07T13:24:08.000Z</time>
      </trkpt>
      <trkpt lat="47.05846" lon="-1.75459">
        <ele>64</ele>
        <time>2021-03-07T13:24:10.000Z</time>
      </trkpt>
      <trkpt lat="47.0584" lon="-1.75443">
        <ele>65</ele>
        <time>2021-03-07T13:24:12.000Z</time>
      </trkpt>
      <trkpt lat="47.05831" lon="-1.75418">
        <ele>66</ele>
        <time>2021-03-07T13:24:15.000Z</time>
      </trkpt>
      <trkpt lat="47.05826" lon="-1.75402">
        <ele>66</ele>
        <time>2021-03-07T13:24:17.000Z</time>
      </trkpt>
      <trkpt lat="47.0582" lon="-1.75385">
        <ele>66</ele>
        <time>2021-03-07T13:24:19.000Z</time>
      </trkpt>
      <trkpt lat="47.05813" lon="-1.75369">
        <ele>66</ele>
        <time>2021-03-07T13:24:21.000Z</time>
      </trkpt>
      <trkpt lat="47.05806" lon="-1.75353">
        <ele>67</ele>
        <time>2021-03-07T13:24:23.000Z</time>
      </trkpt>
      <trkpt lat="47.05797" lon="-1.75335">
        <ele>65</ele>
        <time>2021-03-07T13:24:25.000Z</time>
      </trkpt>
      <trkpt lat="47.05787" lon="-1.75314">
        <ele>66</ele>
        <time>2021-03-07T13:24:28.000Z</time>
      </trkpt>
      <trkpt lat="47.0578" lon="-1.75299">
        <ele>67</ele>
        <time>2021-03-07T13:24:30.000Z</time>
      </trkpt>
      <trkpt lat="47.05771" lon="-1.75282">
        <ele>65</ele>
        <time>2021-03-07T13:24:32.000Z</time>
      </trkpt>
      <trkpt lat="47.05765" lon="-1.75267">
        <ele>65</ele>
        <time>2021-03-07T13:24:34.000Z</time>
      </trkpt>
      <trkpt lat="47.0576" lon="-1.75252">
        <ele>66</ele>
        <time>2021-03-07T13:24:36.000Z</time>
      </trkpt>
      <trkpt lat="47.05753" lon="-1.75237">
        <ele>66</ele>
        <time>2021-03-07T13:24:38.000Z</time>
      </trkpt>
      <trkpt lat="47.05742" lon="-1.75216">
        <ele>66</ele>
        <time>2021-03-07T13:24:41.000Z</time>
      </trkpt>
      <trkpt lat="47.05734" lon="-1.752">
        <ele>65</ele>
        <time>2021-03-07T13:24:43.000Z</time>
      </trkpt>
      <trkpt lat="47.05726" lon="-1.75183">
        <ele>66</ele>
        <time>2021-03-07T13:24:45.000Z</time>
      </trkpt>
      <trkpt lat="47.05719" lon="-1.75166">
        <ele>66</ele>
        <time>2021-03-07T13:24:47.000Z</time>
      </trkpt>
      <trkpt lat="47.05712" lon="-1.75148">
        <ele>66</ele>
        <time>2021-03-07T13:24:49.000Z</time>
      </trkpt>
      <trkpt lat="47.05705" lon="-1.75132">
        <ele>65</ele>
        <time>2021-03-07T13:24:51.000Z</time>
      </trkpt>
      <trkpt lat="47.05697" lon="-1.75114">
        <ele>64</ele>
        <time>2021-03-07T13:24:53.000Z</time>
      </trkpt>
      <trkpt lat="47.05683" lon="-1.75088">
        <ele>63</ele>
        <time>2021-03-07T13:24:56.000Z</time>
      </trkpt>
      <trkpt lat="47.05672" lon="-1.75072">
        <ele>63</ele>
        <time>2021-03-07T13:24:58.000Z</time>
      </trkpt>
      <trkpt lat="47.05659" lon="-1.75056">
        <ele>63</ele>
        <time>2021-03-07T13:25:00.000Z</time>
      </trkpt>
      <trkpt lat="47.05646" lon="-1.75041">
        <ele>62</ele>
        <time>2021-03-07T13:25:02.000Z</time>
      </trkpt>
      <trkpt lat="47.05628" lon="-1.75021">
        <ele>60</ele>
        <time>2021-03-07T13:25:05.000Z</time>
      </trkpt>
      <trkpt lat="47.05614" lon="-1.7501">
        <ele>59</ele>
        <time>2021-03-07T13:25:07.000Z</time>
      </trkpt>
      <trkpt lat="47.05606" lon="-1.75003">
        <ele>58</ele>
        <time>2021-03-07T13:25:08.000Z</time>
      </trkpt>
      <trkpt lat="47.05592" lon="-1.74989">
        <ele>58</ele>
        <time>2021-03-07T13:25:10.000Z</time>
      </trkpt>
      <trkpt lat="47.05576" lon="-1.74976">
        <ele>56</ele>
        <time>2021-03-07T13:25:12.000Z</time>
      </trkpt>
      <trkpt lat="47.05561" lon="-1.74964">
        <ele>55</ele>
        <time>2021-03-07T13:25:14.000Z</time>
      </trkpt>
      <trkpt lat="47.05548" lon="-1.7495">
        <ele>55</ele>
        <time>2021-03-07T13:25:16.000Z</time>
      </trkpt>
      <trkpt lat="47.05534" lon="-1.74935">
        <ele>56</ele>
        <time>2021-03-07T13:25:18.000Z</time>
      </trkpt>
      <trkpt lat="47.05521" lon="-1.74924">
        <ele>53</ele>
        <time>2021-03-07T13:25:20.000Z</time>
      </trkpt>
      <trkpt lat="47.05507" lon="-1.74911">
        <ele>53</ele>
        <time>2021-03-07T13:25:22.000Z</time>
      </trkpt>
      <trkpt lat="47.05493" lon="-1.74898">
        <ele>51</ele>
        <time>2021-03-07T13:25:24.000Z</time>
      </trkpt>
      <trkpt lat="47.05479" lon="-1.74885">
        <ele>51</ele>
        <time>2021-03-07T13:25:26.000Z</time>
      </trkpt>
      <trkpt lat="47.05465" lon="-1.74872">
        <ele>51</ele>
        <time>2021-03-07T13:25:28.000Z</time>
      </trkpt>
      <trkpt lat="47.05451" lon="-1.74859">
        <ele>51</ele>
        <time>2021-03-07T13:25:30.000Z</time>
      </trkpt>
      <trkpt lat="47.05443" lon="-1.74851">
        <ele>51</ele>
        <time>2021-03-07T13:25:31.000Z</time>
      </trkpt>
      <trkpt lat="47.05428" lon="-1.74838">
        <ele>50</ele>
        <time>2021-03-07T13:25:33.000Z</time>
      </trkpt>
      <trkpt lat="47.05413" lon="-1.74827">
        <ele>50</ele>
        <time>2021-03-07T13:25:35.000Z</time>
      </trkpt>
      <trkpt lat="47.05404" lon="-1.74821">
        <ele>50</ele>
        <time>2021-03-07T13:25:36.000Z</time>
      </trkpt>
      <trkpt lat="47.0539" lon="-1.74809">
        <ele>50</ele>
        <time>2021-03-07T13:25:38.000Z</time>
      </trkpt>
      <trkpt lat="47.05377" lon="-1.748">
        <ele>51</ele>
        <time>2021-03-07T13:25:40.000Z</time>
      </trkpt>
      <trkpt lat="47.05364" lon="-1.74787">
        <ele>50</ele>
        <time>2021-03-07T13:25:42.000Z</time>
      </trkpt>
      <trkpt lat="47.05353" lon="-1.74772">
        <ele>50</ele>
        <time>2021-03-07T13:25:44.000Z</time>
      </trkpt>
      <trkpt lat="47.05343" lon="-1.74757">
        <ele>51</ele>
        <time>2021-03-07T13:25:46.000Z</time>
      </trkpt>
      <trkpt lat="47.05335" lon="-1.74741">
        <ele>51</ele>
        <time>2021-03-07T13:25:48.000Z</time>
      </trkpt>
      <trkpt lat="47.05326" lon="-1.74725">
        <ele>50</ele>
        <time>2021-03-07T13:25:50.000Z</time>
      </trkpt>
      <trkpt lat="47.05316" lon="-1.74709">
        <ele>47</ele>
        <time>2021-03-07T13:25:52.000Z</time>
      </trkpt>
      <trkpt lat="47.05309" lon="-1.74693">
        <ele>49</ele>
        <time>2021-03-07T13:25:54.000Z</time>
      </trkpt>
      <trkpt lat="47.05301" lon="-1.74677">
        <ele>50</ele>
        <time>2021-03-07T13:25:56.000Z</time>
      </trkpt>
      <trkpt lat="47.05294" lon="-1.74662">
        <ele>51</ele>
        <time>2021-03-07T13:25:58.000Z</time>
      </trkpt>
      <trkpt lat="47.05287" lon="-1.74646">
        <ele>52</ele>
        <time>2021-03-07T13:26:00.000Z</time>
      </trkpt>
      <trkpt lat="47.05276" lon="-1.74621">
        <ele>53</ele>
        <time>2021-03-07T13:26:03.000Z</time>
      </trkpt>
      <trkpt lat="47.0527" lon="-1.74606">
        <ele>51</ele>
        <time>2021-03-07T13:26:05.000Z</time>
      </trkpt>
      <trkpt lat="47.05262" lon="-1.74593">
        <ele>51</ele>
        <time>2021-03-07T13:26:07.000Z</time>
      </trkpt>
      <trkpt lat="47.05256" lon="-1.74583">
        <ele>52</ele>
        <time>2021-03-07T13:26:09.000Z</time>
      </trkpt>
      <trkpt lat="47.05249" lon="-1.74564">
        <ele>53</ele>
        <time>2021-03-07T13:26:11.000Z</time>
      </trkpt>
      <trkpt lat="47.05242" lon="-1.74547">
        <ele>54</ele>
        <time>2021-03-07T13:26:13.000Z</time>
      </trkpt>
      <trkpt lat="47.05237" lon="-1.74529">
        <ele>55</ele>
        <time>2021-03-07T13:26:15.000Z</time>
      </trkpt>
      <trkpt lat="47.05233" lon="-1.74512">
        <ele>56</ele>
        <time>2021-03-07T13:26:17.000Z</time>
      </trkpt>
      <trkpt lat="47.05229" lon="-1.74496">
        <ele>57</ele>
        <time>2021-03-07T13:26:19.000Z</time>
      </trkpt>
      <trkpt lat="47.05224" lon="-1.74472">
        <ele>57</ele>
        <time>2021-03-07T13:26:22.000Z</time>
      </trkpt>
      <trkpt lat="47.05222" lon="-1.74455">
        <ele>58</ele>
        <time>2021-03-07T13:26:24.000Z</time>
      </trkpt>
      <trkpt lat="47.05222" lon="-1.74431">
        <ele>58</ele>
        <time>2021-03-07T13:26:27.000Z</time>
      </trkpt>
      <trkpt lat="47.05222" lon="-1.74414">
        <ele>59</ele>
        <time>2021-03-07T13:26:29.000Z</time>
      </trkpt>
      <trkpt lat="47.05222" lon="-1.74397">
        <ele>60</ele>
        <time>2021-03-07T13:26:31.000Z</time>
      </trkpt>
      <trkpt lat="47.05223" lon="-1.74381">
        <ele>60</ele>
        <time>2021-03-07T13:26:33.000Z</time>
      </trkpt>
      <trkpt lat="47.05223" lon="-1.74365">
        <ele>60</ele>
        <time>2021-03-07T13:26:35.000Z</time>
      </trkpt>
      <trkpt lat="47.05224" lon="-1.74349">
        <ele>61</ele>
        <time>2021-03-07T13:26:37.000Z</time>
      </trkpt>
      <trkpt lat="47.05224" lon="-1.74332">
        <ele>62</ele>
        <time>2021-03-07T13:26:39.000Z</time>
      </trkpt>
      <trkpt lat="47.05223" lon="-1.74316">
        <ele>61</ele>
        <time>2021-03-07T13:26:41.000Z</time>
      </trkpt>
      <trkpt lat="47.05223" lon="-1.74301">
        <ele>61</ele>
        <time>2021-03-07T13:26:43.000Z</time>
      </trkpt>
      <trkpt lat="47.05224" lon="-1.74277">
        <ele>62</ele>
        <time>2021-03-07T13:26:46.000Z</time>
      </trkpt>
      <trkpt lat="47.05223" lon="-1.74255">
        <ele>62</ele>
        <time>2021-03-07T13:26:49.000Z</time>
      </trkpt>
      <trkpt lat="47.05224" lon="-1.74238">
        <ele>63</ele>
        <time>2021-03-07T13:26:51.000Z</time>
      </trkpt>
      <trkpt lat="47.05226" lon="-1.74221">
        <ele>64</ele>
        <time>2021-03-07T13:26:53.000Z</time>
      </trkpt>
      <trkpt lat="47.05226" lon="-1.74204">
        <ele>64</ele>
        <time>2021-03-07T13:26:55.000Z</time>
      </trkpt>
      <trkpt lat="47.05226" lon="-1.74189">
        <ele>64</ele>
        <time>2021-03-07T13:26:57.000Z</time>
      </trkpt>
      <trkpt lat="47.05227" lon="-1.74173">
        <ele>64</ele>
        <time>2021-03-07T13:26:59.000Z</time>
      </trkpt>
      <trkpt lat="47.05228" lon="-1.74158">
        <ele>65</ele>
        <time>2021-03-07T13:27:01.000Z</time>
      </trkpt>
      <trkpt lat="47.05227" lon="-1.74142">
        <ele>66</ele>
        <time>2021-03-07T13:27:03.000Z</time>
      </trkpt>
      <trkpt lat="47.05228" lon="-1.74126">
        <ele>66</ele>
        <time>2021-03-07T13:27:05.000Z</time>
      </trkpt>
      <trkpt lat="47.05228" lon="-1.74111">
        <ele>66</ele>
        <time>2021-03-07T13:27:07.000Z</time>
      </trkpt>
      <trkpt lat="47.05228" lon="-1.74096">
        <ele>66</ele>
        <time>2021-03-07T13:27:09.000Z</time>
      </trkpt>
      <trkpt lat="47.05229" lon="-1.7408">
        <ele>66</ele>
        <time>2021-03-07T13:27:11.000Z</time>
      </trkpt>
      <trkpt lat="47.05229" lon="-1.74065">
        <ele>66</ele>
        <time>2021-03-07T13:27:13.000Z</time>
      </trkpt>
      <trkpt lat="47.0523" lon="-1.7405">
        <ele>66</ele>
        <time>2021-03-07T13:27:15.000Z</time>
      </trkpt>
      <trkpt lat="47.0523" lon="-1.74034">
        <ele>67</ele>
        <time>2021-03-07T13:27:17.000Z</time>
      </trkpt>
      <trkpt lat="47.0523" lon="-1.74019">
        <ele>67</ele>
        <time>2021-03-07T13:27:19.000Z</time>
      </trkpt>
      <trkpt lat="47.0523" lon="-1.74004">
        <ele>67</ele>
        <time>2021-03-07T13:27:21.000Z</time>
      </trkpt>
      <trkpt lat="47.05231" lon="-1.73987">
        <ele>67</ele>
        <time>2021-03-07T13:27:23.000Z</time>
      </trkpt>
      <trkpt lat="47.05231" lon="-1.73972">
        <ele>67</ele>
        <time>2021-03-07T13:27:25.000Z</time>
      </trkpt>
      <trkpt lat="47.05232" lon="-1.73956">
        <ele>65</ele>
        <time>2021-03-07T13:27:27.000Z</time>
      </trkpt>
      <trkpt lat="47.05233" lon="-1.73933">
        <ele>66</ele>
        <time>2021-03-07T13:27:30.000Z</time>
      </trkpt>
      <trkpt lat="47.05233" lon="-1.73917">
        <ele>66</ele>
        <time>2021-03-07T13:27:32.000Z</time>
      </trkpt>
      <trkpt lat="47.05232" lon="-1.73902">
        <ele>66</ele>
        <time>2021-03-07T13:27:34.000Z</time>
      </trkpt>
      <trkpt lat="47.05233" lon="-1.73887">
        <ele>66</ele>
        <time>2021-03-07T13:27:36.000Z</time>
      </trkpt>
      <trkpt lat="47.05233" lon="-1.73869">
        <ele>67</ele>
        <time>2021-03-07T13:27:38.000Z</time>
      </trkpt>
      <trkpt lat="47.05233" lon="-1.73853">
        <ele>67</ele>
        <time>2021-03-07T13:27:40.000Z</time>
      </trkpt>
      <trkpt lat="47.05234" lon="-1.73837">
        <ele>67</ele>
        <time>2021-03-07T13:27:42.000Z</time>
      </trkpt>
      <trkpt lat="47.05232" lon="-1.7382">
        <ele>67</ele>
        <time>2021-03-07T13:27:44.000Z</time>
      </trkpt>
      <trkpt lat="47.05232" lon="-1.73805">
        <ele>65</ele>
        <time>2021-03-07T13:27:46.000Z</time>
      </trkpt>
      <trkpt lat="47.05234" lon="-1.73791">
        <ele>66</ele>
        <time>2021-03-07T13:27:48.000Z</time>
      </trkpt>
      <trkpt lat="47.05234" lon="-1.73776">
        <ele>67</ele>
        <time>2021-03-07T13:27:50.000Z</time>
      </trkpt>
      <trkpt lat="47.05234" lon="-1.73763">
        <ele>67</ele>
        <time>2021-03-07T13:27:52.000Z</time>
      </trkpt>
      <trkpt lat="47.05234" lon="-1.73746">
        <ele>67</ele>
        <time>2021-03-07T13:27:54.000Z</time>
      </trkpt>
      <trkpt lat="47.05234" lon="-1.7373">
        <ele>68</ele>
        <time>2021-03-07T13:27:56.000Z</time>
      </trkpt>
      <trkpt lat="47.05235" lon="-1.73714">
        <ele>68</ele>
        <time>2021-03-07T13:27:58.000Z</time>
      </trkpt>
      <trkpt lat="47.05237" lon="-1.73699">
        <ele>68</ele>
        <time>2021-03-07T13:28:00.000Z</time>
      </trkpt>
      <trkpt lat="47.05238" lon="-1.73683">
        <ele>69</ele>
        <time>2021-03-07T13:28:02.000Z</time>
      </trkpt>
      <trkpt lat="47.05239" lon="-1.73666">
        <ele>68</ele>
        <time>2021-03-07T13:28:04.000Z</time>
      </trkpt>
      <trkpt lat="47.05242" lon="-1.73648">
        <ele>68</ele>
        <time>2021-03-07T13:28:06.000Z</time>
      </trkpt>
      <trkpt lat="47.05246" lon="-1.7363">
        <ele>66</ele>
        <time>2021-03-07T13:28:08.000Z</time>
      </trkpt>
      <trkpt lat="47.05252" lon="-1.73618">
        <ele>66</ele>
        <time>2021-03-07T13:28:10.000Z</time>
      </trkpt>
      <trkpt lat="47.05257" lon="-1.73604">
        <ele>67</ele>
        <time>2021-03-07T13:28:12.000Z</time>
      </trkpt>
      <trkpt lat="47.05262" lon="-1.73588">
        <ele>67</ele>
        <time>2021-03-07T13:28:14.000Z</time>
      </trkpt>
      <trkpt lat="47.05268" lon="-1.73574">
        <ele>64</ele>
        <time>2021-03-07T13:28:16.000Z</time>
      </trkpt>
      <trkpt lat="47.05273" lon="-1.73559">
        <ele>65</ele>
        <time>2021-03-07T13:28:18.000Z</time>
      </trkpt>
      <trkpt lat="47.05278" lon="-1.73543">
        <ele>66</ele>
        <time>2021-03-07T13:28:20.000Z</time>
      </trkpt>
      <trkpt lat="47.05282" lon="-1.73526">
        <ele>66</ele>
        <time>2021-03-07T13:28:22.000Z</time>
      </trkpt>
      <trkpt lat="47.05285" lon="-1.7351">
        <ele>65</ele>
        <time>2021-03-07T13:28:24.000Z</time>
      </trkpt>
      <trkpt lat="47.05291" lon="-1.73494">
        <ele>65</ele>
        <time>2021-03-07T13:28:26.000Z</time>
      </trkpt>
      <trkpt lat="47.05296" lon="-1.73477">
        <ele>65</ele>
        <time>2021-03-07T13:28:28.000Z</time>
      </trkpt>
      <trkpt lat="47.05301" lon="-1.73461">
        <ele>66</ele>
        <time>2021-03-07T13:28:30.000Z</time>
      </trkpt>
      <trkpt lat="47.05303" lon="-1.73445">
        <ele>64</ele>
        <time>2021-03-07T13:28:32.000Z</time>
      </trkpt>
      <trkpt lat="47.05306" lon="-1.73427">
        <ele>65</ele>
        <time>2021-03-07T13:28:34.000Z</time>
      </trkpt>
      <trkpt lat="47.05309" lon="-1.73409">
        <ele>66</ele>
        <time>2021-03-07T13:28:36.000Z</time>
      </trkpt>
      <trkpt lat="47.0531" lon="-1.73392">
        <ele>65</ele>
        <time>2021-03-07T13:28:38.000Z</time>
      </trkpt>
      <trkpt lat="47.05313" lon="-1.73374">
        <ele>65</ele>
        <time>2021-03-07T13:28:40.000Z</time>
      </trkpt>
      <trkpt lat="47.05316" lon="-1.73356">
        <ele>65</ele>
        <time>2021-03-07T13:28:42.000Z</time>
      </trkpt>
      <trkpt lat="47.05318" lon="-1.73337">
        <ele>65</ele>
        <time>2021-03-07T13:28:44.000Z</time>
      </trkpt>
      <trkpt lat="47.0532" lon="-1.73319">
        <ele>65</ele>
        <time>2021-03-07T13:28:46.000Z</time>
      </trkpt>
      <trkpt lat="47.0532" lon="-1.73303">
        <ele>63</ele>
        <time>2021-03-07T13:28:48.000Z</time>
      </trkpt>
      <trkpt lat="47.05322" lon="-1.73286">
        <ele>63</ele>
        <time>2021-03-07T13:28:50.000Z</time>
      </trkpt>
      <trkpt lat="47.05322" lon="-1.73261">
        <ele>65</ele>
        <time>2021-03-07T13:28:53.000Z</time>
      </trkpt>
      <trkpt lat="47.0532" lon="-1.73246">
        <ele>64</ele>
        <time>2021-03-07T13:28:55.000Z</time>
      </trkpt>
      <trkpt lat="47.05318" lon="-1.7323">
        <ele>65</ele>
        <time>2021-03-07T13:28:57.000Z</time>
      </trkpt>
      <trkpt lat="47.05315" lon="-1.73211">
        <ele>62</ele>
        <time>2021-03-07T13:28:59.000Z</time>
      </trkpt>
      <trkpt lat="47.05313" lon="-1.73194">
        <ele>64</ele>
        <time>2021-03-07T13:29:01.000Z</time>
      </trkpt>
      <trkpt lat="47.05311" lon="-1.73178">
        <ele>66</ele>
        <time>2021-03-07T13:29:03.000Z</time>
      </trkpt>
      <trkpt lat="47.05308" lon="-1.73161">
        <ele>67</ele>
        <time>2021-03-07T13:29:05.000Z</time>
      </trkpt>
      <trkpt lat="47.05305" lon="-1.73146">
        <ele>67</ele>
        <time>2021-03-07T13:29:07.000Z</time>
      </trkpt>
      <trkpt lat="47.05308" lon="-1.73131">
        <ele>68</ele>
        <time>2021-03-07T13:29:09.000Z</time>
      </trkpt>
      <trkpt lat="47.05318" lon="-1.73122">
        <ele>70</ele>
        <time>2021-03-07T13:29:11.000Z</time>
      </trkpt>
      <trkpt lat="47.05326" lon="-1.7311">
        <ele>71</ele>
        <time>2021-03-07T13:29:13.000Z</time>
      </trkpt>
      <trkpt lat="47.05334" lon="-1.73097">
        <ele>71</ele>
        <time>2021-03-07T13:29:15.000Z</time>
      </trkpt>
      <trkpt lat="47.05344" lon="-1.73085">
        <ele>71</ele>
        <time>2021-03-07T13:29:17.000Z</time>
      </trkpt>
      <trkpt lat="47.05352" lon="-1.73074">
        <ele>71</ele>
        <time>2021-03-07T13:29:19.000Z</time>
      </trkpt>
      <trkpt lat="47.05359" lon="-1.73061">
        <ele>72</ele>
        <time>2021-03-07T13:29:21.000Z</time>
      </trkpt>
      <trkpt lat="47.05371" lon="-1.73041">
        <ele>71</ele>
        <time>2021-03-07T13:29:24.000Z</time>
      </trkpt>
      <trkpt lat="47.05377" lon="-1.73029">
        <ele>71</ele>
        <time>2021-03-07T13:29:26.000Z</time>
      </trkpt>
      <trkpt lat="47.05385" lon="-1.73018">
        <ele>71</ele>
        <time>2021-03-07T13:29:28.000Z</time>
      </trkpt>
      <trkpt lat="47.05392" lon="-1.73006">
        <ele>72</ele>
        <time>2021-03-07T13:29:30.000Z</time>
      </trkpt>
      <trkpt lat="47.05398" lon="-1.72994">
        <ele>73</ele>
        <time>2021-03-07T13:29:32.000Z</time>
      </trkpt>
      <trkpt lat="47.05403" lon="-1.72981">
        <ele>73</ele>
        <time>2021-03-07T13:29:34.000Z</time>
      </trkpt>
      <trkpt lat="47.05411" lon="-1.72968">
        <ele>71</ele>
        <time>2021-03-07T13:29:36.000Z</time>
      </trkpt>
      <trkpt lat="47.05418" lon="-1.72955">
        <ele>71</ele>
        <time>2021-03-07T13:29:38.000Z</time>
      </trkpt>
      <trkpt lat="47.05424" lon="-1.72942">
        <ele>72</ele>
        <time>2021-03-07T13:29:40.000Z</time>
      </trkpt>
      <trkpt lat="47.05431" lon="-1.72922">
        <ele>72</ele>
        <time>2021-03-07T13:29:43.000Z</time>
      </trkpt>
      <trkpt lat="47.05435" lon="-1.72907">
        <ele>71</ele>
        <time>2021-03-07T13:29:45.000Z</time>
      </trkpt>
      <trkpt lat="47.05441" lon="-1.72895">
        <ele>71</ele>
        <time>2021-03-07T13:29:47.000Z</time>
      </trkpt>
      <trkpt lat="47.0545" lon="-1.72884">
        <ele>71</ele>
        <time>2021-03-07T13:29:49.000Z</time>
      </trkpt>
      <trkpt lat="47.05459" lon="-1.72874">
        <ele>71</ele>
        <time>2021-03-07T13:29:51.000Z</time>
      </trkpt>
      <trkpt lat="47.05467" lon="-1.72862">
        <ele>71</ele>
        <time>2021-03-07T13:29:53.000Z</time>
      </trkpt>
      <trkpt lat="47.05475" lon="-1.72851">
        <ele>71</ele>
        <time>2021-03-07T13:29:55.000Z</time>
      </trkpt>
      <trkpt lat="47.05483" lon="-1.72839">
        <ele>70</ele>
        <time>2021-03-07T13:29:57.000Z</time>
      </trkpt>
      <trkpt lat="47.05491" lon="-1.72827">
        <ele>70</ele>
        <time>2021-03-07T13:29:59.000Z</time>
      </trkpt>
      <trkpt lat="47.055" lon="-1.72815">
        <ele>70</ele>
        <time>2021-03-07T13:30:01.000Z</time>
      </trkpt>
      <trkpt lat="47.05511" lon="-1.72796">
        <ele>71</ele>
        <time>2021-03-07T13:30:04.000Z</time>
      </trkpt>
      <trkpt lat="47.05517" lon="-1.72782">
        <ele>71</ele>
        <time>2021-03-07T13:30:06.000Z</time>
      </trkpt>
      <trkpt lat="47.05521" lon="-1.72767">
        <ele>68</ele>
        <time>2021-03-07T13:30:08.000Z</time>
      </trkpt>
      <trkpt lat="47.05522" lon="-1.72751">
        <ele>68</ele>
        <time>2021-03-07T13:30:10.000Z</time>
      </trkpt>
      <trkpt lat="47.05524" lon="-1.72724">
        <ele>67</ele>
        <time>2021-03-07T13:30:13.000Z</time>
      </trkpt>
      <trkpt lat="47.05526" lon="-1.72707">
        <ele>67</ele>
        <time>2021-03-07T13:30:15.000Z</time>
      </trkpt>
      <trkpt lat="47.05526" lon="-1.72692">
        <ele>65</ele>
        <time>2021-03-07T13:30:17.000Z</time>
      </trkpt>
      <trkpt lat="47.05529" lon="-1.72677">
        <ele>66</ele>
        <time>2021-03-07T13:30:19.000Z</time>
      </trkpt>
      <trkpt lat="47.05534" lon="-1.7266">
        <ele>68</ele>
        <time>2021-03-07T13:30:22.000Z</time>
      </trkpt>
      <trkpt lat="47.05548" lon="-1.72654">
        <ele>69</ele>
        <time>2021-03-07T13:30:25.000Z</time>
      </trkpt>
      <trkpt lat="47.05559" lon="-1.72654">
        <ele>69</ele>
        <time>2021-03-07T13:30:27.000Z</time>
      </trkpt>
      <trkpt lat="47.0557" lon="-1.7265">
        <ele>69</ele>
        <time>2021-03-07T13:30:29.000Z</time>
      </trkpt>
      <trkpt lat="47.05579" lon="-1.72642">
        <ele>69</ele>
        <time>2021-03-07T13:30:31.000Z</time>
      </trkpt>
      <trkpt lat="47.05576" lon="-1.72626">
        <ele>67</ele>
        <time>2021-03-07T13:30:33.000Z</time>
      </trkpt>
      <trkpt lat="47.05569" lon="-1.72612">
        <ele>66</ele>
        <time>2021-03-07T13:30:35.000Z</time>
      </trkpt>
      <trkpt lat="47.05564" lon="-1.72591">
        <ele>66</ele>
        <time>2021-03-07T13:30:37.000Z</time>
      </trkpt>
      <trkpt lat="47.0556" lon="-1.72574">
        <ele>66</ele>
        <time>2021-03-07T13:30:39.000Z</time>
      </trkpt>
      <trkpt lat="47.05556" lon="-1.72556">
        <ele>66</ele>
        <time>2021-03-07T13:30:41.000Z</time>
      </trkpt>
      <trkpt lat="47.05549" lon="-1.72527">
        <ele>65</ele>
        <time>2021-03-07T13:30:44.000Z</time>
      </trkpt>
      <trkpt lat="47.05547" lon="-1.7251">
        <ele>65</ele>
        <time>2021-03-07T13:30:46.000Z</time>
      </trkpt>
      <trkpt lat="47.05544" lon="-1.72492">
        <ele>66</ele>
        <time>2021-03-07T13:30:48.000Z</time>
      </trkpt>
      <trkpt lat="47.05543" lon="-1.72474">
        <ele>65</ele>
        <time>2021-03-07T13:30:50.000Z</time>
      </trkpt>
      <trkpt lat="47.05541" lon="-1.72454">
        <ele>66</ele>
        <time>2021-03-07T13:30:52.000Z</time>
      </trkpt>
      <trkpt lat="47.05534" lon="-1.7244">
        <ele>66</ele>
        <time>2021-03-07T13:30:54.000Z</time>
      </trkpt>
      <trkpt lat="47.05523" lon="-1.7242">
        <ele>63</ele>
        <time>2021-03-07T13:30:57.000Z</time>
      </trkpt>
      <trkpt lat="47.05517" lon="-1.72397">
        <ele>64</ele>
        <time>2021-03-07T13:31:00.000Z</time>
      </trkpt>
      <trkpt lat="47.05512" lon="-1.72382">
        <ele>64</ele>
        <time>2021-03-07T13:31:02.000Z</time>
      </trkpt>
      <trkpt lat="47.05506" lon="-1.72365">
        <ele>64</ele>
        <time>2021-03-07T13:31:04.000Z</time>
      </trkpt>
      <trkpt lat="47.05503" lon="-1.72348">
        <ele>65</ele>
        <time>2021-03-07T13:31:06.000Z</time>
      </trkpt>
      <trkpt lat="47.05498" lon="-1.72323">
        <ele>66</ele>
        <time>2021-03-07T13:31:09.000Z</time>
      </trkpt>
      <trkpt lat="47.05493" lon="-1.72297">
        <ele>66</ele>
        <time>2021-03-07T13:31:12.000Z</time>
      </trkpt>
      <trkpt lat="47.05489" lon="-1.72281">
        <ele>68</ele>
        <time>2021-03-07T13:31:14.000Z</time>
      </trkpt>
      <trkpt lat="47.05485" lon="-1.72264">
        <ele>68</ele>
        <time>2021-03-07T13:31:16.000Z</time>
      </trkpt>
      <trkpt lat="47.05474" lon="-1.72231">
        <ele>65</ele>
        <time>2021-03-07T13:31:20.000Z</time>
      </trkpt>
      <trkpt lat="47.05469" lon="-1.72212">
        <ele>64</ele>
        <time>2021-03-07T13:31:22.000Z</time>
      </trkpt>
      <trkpt lat="47.05466" lon="-1.7219">
        <ele>64</ele>
        <time>2021-03-07T13:31:24.000Z</time>
      </trkpt>
      <trkpt lat="47.05461" lon="-1.7216">
        <ele>64</ele>
        <time>2021-03-07T13:31:27.000Z</time>
      </trkpt>
      <trkpt lat="47.05456" lon="-1.72141">
        <ele>64</ele>
        <time>2021-03-07T13:31:29.000Z</time>
      </trkpt>
      <trkpt lat="47.05451" lon="-1.7212">
        <ele>65</ele>
        <time>2021-03-07T13:31:31.000Z</time>
      </trkpt>
      <trkpt lat="47.05444" lon="-1.72089">
        <ele>64</ele>
        <time>2021-03-07T13:31:34.000Z</time>
      </trkpt>
      <trkpt lat="47.05439" lon="-1.72071">
        <ele>64</ele>
        <time>2021-03-07T13:31:36.000Z</time>
      </trkpt>
      <trkpt lat="47.05434" lon="-1.72048">
        <ele>63</ele>
        <time>2021-03-07T13:31:38.000Z</time>
      </trkpt>
      <trkpt lat="47.05428" lon="-1.72025">
        <ele>63</ele>
        <time>2021-03-07T13:31:40.000Z</time>
      </trkpt>
      <trkpt lat="47.05422" lon="-1.72002">
        <ele>62</ele>
        <time>2021-03-07T13:31:42.000Z</time>
      </trkpt>
      <trkpt lat="47.05416" lon="-1.71983">
        <ele>61</ele>
        <time>2021-03-07T13:31:44.000Z</time>
      </trkpt>
      <trkpt lat="47.0541" lon="-1.71962">
        <ele>62</ele>
        <time>2021-03-07T13:31:46.000Z</time>
      </trkpt>
      <trkpt lat="47.05403" lon="-1.71945">
        <ele>63</ele>
        <time>2021-03-07T13:31:48.000Z</time>
      </trkpt>
      <trkpt lat="47.05398" lon="-1.71925">
        <ele>63</ele>
        <time>2021-03-07T13:31:50.000Z</time>
      </trkpt>
      <trkpt lat="47.05395" lon="-1.71903">
        <ele>63</ele>
        <time>2021-03-07T13:31:52.000Z</time>
      </trkpt>
      <trkpt lat="47.05392" lon="-1.71882">
        <ele>64</ele>
        <time>2021-03-07T13:31:54.000Z</time>
      </trkpt>
      <trkpt lat="47.05389" lon="-1.71861">
        <ele>63</ele>
        <time>2021-03-07T13:31:56.000Z</time>
      </trkpt>
      <trkpt lat="47.05386" lon="-1.71839">
        <ele>62</ele>
        <time>2021-03-07T13:31:58.000Z</time>
      </trkpt>
      <trkpt lat="47.05384" lon="-1.71817">
        <ele>62</ele>
        <time>2021-03-07T13:32:00.000Z</time>
      </trkpt>
      <trkpt lat="47.05381" lon="-1.71795">
        <ele>62</ele>
        <time>2021-03-07T13:32:02.000Z</time>
      </trkpt>
      <trkpt lat="47.0538" lon="-1.71773">
        <ele>62</ele>
        <time>2021-03-07T13:32:04.000Z</time>
      </trkpt>
      <trkpt lat="47.05379" lon="-1.71751">
        <ele>61</ele>
        <time>2021-03-07T13:32:06.000Z</time>
      </trkpt>
      <trkpt lat="47.05383" lon="-1.71729">
        <ele>60</ele>
        <time>2021-03-07T13:32:08.000Z</time>
      </trkpt>
      <trkpt lat="47.05386" lon="-1.71708">
        <ele>61</ele>
        <time>2021-03-07T13:32:10.000Z</time>
      </trkpt>
      <trkpt lat="47.05387" lon="-1.71687">
        <ele>60</ele>
        <time>2021-03-07T13:32:12.000Z</time>
      </trkpt>
      <trkpt lat="47.05388" lon="-1.71667">
        <ele>60</ele>
        <time>2021-03-07T13:32:14.000Z</time>
      </trkpt>
      <trkpt lat="47.05389" lon="-1.71645">
        <ele>60</ele>
        <time>2021-03-07T13:32:16.000Z</time>
      </trkpt>
      <trkpt lat="47.05394" lon="-1.71624">
        <ele>56</ele>
        <time>2021-03-07T13:32:18.000Z</time>
      </trkpt>
      <trkpt lat="47.05399" lon="-1.71602">
        <ele>52</ele>
        <time>2021-03-07T13:32:20.000Z</time>
      </trkpt>
      <trkpt lat="47.05399" lon="-1.71583">
        <ele>53</ele>
        <time>2021-03-07T13:32:22.000Z</time>
      </trkpt>
      <trkpt lat="47.054" lon="-1.71551">
        <ele>51</ele>
        <time>2021-03-07T13:32:25.000Z</time>
      </trkpt>
      <trkpt lat="47.05402" lon="-1.71531">
        <ele>52</ele>
        <time>2021-03-07T13:32:27.000Z</time>
      </trkpt>
      <trkpt lat="47.05404" lon="-1.71511">
        <ele>53</ele>
        <time>2021-03-07T13:32:29.000Z</time>
      </trkpt>
      <trkpt lat="47.05406" lon="-1.71494">
        <ele>54</ele>
        <time>2021-03-07T13:32:31.000Z</time>
      </trkpt>
      <trkpt lat="47.05406" lon="-1.71476">
        <ele>56</ele>
        <time>2021-03-07T13:32:33.000Z</time>
      </trkpt>
      <trkpt lat="47.05407" lon="-1.71458">
        <ele>57</ele>
        <time>2021-03-07T13:32:35.000Z</time>
      </trkpt>
      <trkpt lat="47.05408" lon="-1.7144">
        <ele>58</ele>
        <time>2021-03-07T13:32:37.000Z</time>
      </trkpt>
      <trkpt lat="47.05407" lon="-1.71422">
        <ele>58</ele>
        <time>2021-03-07T13:32:39.000Z</time>
      </trkpt>
      <trkpt lat="47.05407" lon="-1.71403">
        <ele>59</ele>
        <time>2021-03-07T13:32:41.000Z</time>
      </trkpt>
      <trkpt lat="47.05405" lon="-1.71386">
        <ele>59</ele>
        <time>2021-03-07T13:32:43.000Z</time>
      </trkpt>
      <trkpt lat="47.05402" lon="-1.71369">
        <ele>59</ele>
        <time>2021-03-07T13:32:45.000Z</time>
      </trkpt>
      <trkpt lat="47.05399" lon="-1.71351">
        <ele>60</ele>
        <time>2021-03-07T13:32:47.000Z</time>
      </trkpt>
      <trkpt lat="47.05397" lon="-1.71333">
        <ele>60</ele>
        <time>2021-03-07T13:32:49.000Z</time>
      </trkpt>
      <trkpt lat="47.05395" lon="-1.71315">
        <ele>60</ele>
        <time>2021-03-07T13:32:51.000Z</time>
      </trkpt>
      <trkpt lat="47.05393" lon="-1.71296">
        <ele>60</ele>
        <time>2021-03-07T13:32:53.000Z</time>
      </trkpt>
      <trkpt lat="47.05391" lon="-1.71278">
        <ele>60</ele>
        <time>2021-03-07T13:32:55.000Z</time>
      </trkpt>
      <trkpt lat="47.0539" lon="-1.71261">
        <ele>60</ele>
        <time>2021-03-07T13:32:57.000Z</time>
      </trkpt>
      <trkpt lat="47.0539" lon="-1.71236">
        <ele>60</ele>
        <time>2021-03-07T13:33:00.000Z</time>
      </trkpt>
      <trkpt lat="47.0539" lon="-1.71217">
        <ele>60</ele>
        <time>2021-03-07T13:33:02.000Z</time>
      </trkpt>
      <trkpt lat="47.05388" lon="-1.71202">
        <ele>58</ele>
        <time>2021-03-07T13:33:04.000Z</time>
      </trkpt>
      <trkpt lat="47.05387" lon="-1.71183">
        <ele>58</ele>
        <time>2021-03-07T13:33:06.000Z</time>
      </trkpt>
      <trkpt lat="47.05391" lon="-1.71164">
        <ele>59</ele>
        <time>2021-03-07T13:33:08.000Z</time>
      </trkpt>
      <trkpt lat="47.05393" lon="-1.71148">
        <ele>58</ele>
        <time>2021-03-07T13:33:10.000Z</time>
      </trkpt>
      <trkpt lat="47.05396" lon="-1.7113">
        <ele>59</ele>
        <time>2021-03-07T13:33:12.000Z</time>
      </trkpt>
      <trkpt lat="47.05399" lon="-1.711">
        <ele>57</ele>
        <time>2021-03-07T13:33:15.000Z</time>
      </trkpt>
      <trkpt lat="47.05401" lon="-1.71081">
        <ele>57</ele>
        <time>2021-03-07T13:33:17.000Z</time>
      </trkpt>
      <trkpt lat="47.05403" lon="-1.71063">
        <ele>57</ele>
        <time>2021-03-07T13:33:19.000Z</time>
      </trkpt>
      <trkpt lat="47.05405" lon="-1.71044">
        <ele>58</ele>
        <time>2021-03-07T13:33:21.000Z</time>
      </trkpt>
      <trkpt lat="47.05407" lon="-1.71025">
        <ele>56</ele>
        <time>2021-03-07T13:33:23.000Z</time>
      </trkpt>
      <trkpt lat="47.05408" lon="-1.71007">
        <ele>57</ele>
        <time>2021-03-07T13:33:25.000Z</time>
      </trkpt>
      <trkpt lat="47.0541" lon="-1.70988">
        <ele>57</ele>
        <time>2021-03-07T13:33:27.000Z</time>
      </trkpt>
      <trkpt lat="47.05412" lon="-1.7097">
        <ele>55</ele>
        <time>2021-03-07T13:33:29.000Z</time>
      </trkpt>
      <trkpt lat="47.05413" lon="-1.70951">
        <ele>55</ele>
        <time>2021-03-07T13:33:31.000Z</time>
      </trkpt>
      <trkpt lat="47.05414" lon="-1.7093">
        <ele>55</ele>
        <time>2021-03-07T13:33:33.000Z</time>
      </trkpt>
      <trkpt lat="47.05416" lon="-1.70907">
        <ele>56</ele>
        <time>2021-03-07T13:33:35.000Z</time>
      </trkpt>
      <trkpt lat="47.05415" lon="-1.70876">
        <ele>55</ele>
        <time>2021-03-07T13:33:38.000Z</time>
      </trkpt>
      <trkpt lat="47.05413" lon="-1.70856">
        <ele>56</ele>
        <time>2021-03-07T13:33:40.000Z</time>
      </trkpt>
      <trkpt lat="47.0541" lon="-1.70837">
        <ele>57</ele>
        <time>2021-03-07T13:33:42.000Z</time>
      </trkpt>
      <trkpt lat="47.05407" lon="-1.70818">
        <ele>57</ele>
        <time>2021-03-07T13:33:44.000Z</time>
      </trkpt>
      <trkpt lat="47.05404" lon="-1.70799">
        <ele>58</ele>
        <time>2021-03-07T13:33:46.000Z</time>
      </trkpt>
      <trkpt lat="47.05401" lon="-1.7078">
        <ele>58</ele>
        <time>2021-03-07T13:33:48.000Z</time>
      </trkpt>
      <trkpt lat="47.05398" lon="-1.70765">
        <ele>56</ele>
        <time>2021-03-07T13:33:50.000Z</time>
      </trkpt>
      <trkpt lat="47.05395" lon="-1.70747">
        <ele>57</ele>
        <time>2021-03-07T13:33:52.000Z</time>
      </trkpt>
      <trkpt lat="47.05393" lon="-1.70728">
        <ele>56</ele>
        <time>2021-03-07T13:33:54.000Z</time>
      </trkpt>
      <trkpt lat="47.0539" lon="-1.70709">
        <ele>55</ele>
        <time>2021-03-07T13:33:56.000Z</time>
      </trkpt>
      <trkpt lat="47.05389" lon="-1.70689">
        <ele>54</ele>
        <time>2021-03-07T13:33:58.000Z</time>
      </trkpt>
      <trkpt lat="47.05385" lon="-1.7067">
        <ele>55</ele>
        <time>2021-03-07T13:34:00.000Z</time>
      </trkpt>
      <trkpt lat="47.05382" lon="-1.70652">
        <ele>55</ele>
        <time>2021-03-07T13:34:02.000Z</time>
      </trkpt>
      <trkpt lat="47.05379" lon="-1.70635">
        <ele>54</ele>
        <time>2021-03-07T13:34:04.000Z</time>
      </trkpt>
      <trkpt lat="47.05374" lon="-1.70617">
        <ele>53</ele>
        <time>2021-03-07T13:34:06.000Z</time>
      </trkpt>
      <trkpt lat="47.05368" lon="-1.70599">
        <ele>54</ele>
        <time>2021-03-07T13:34:08.000Z</time>
      </trkpt>
      <trkpt lat="47.05367" lon="-1.70579">
        <ele>56</ele>
        <time>2021-03-07T13:34:10.000Z</time>
      </trkpt>
      <trkpt lat="47.05365" lon="-1.70559">
        <ele>56</ele>
        <time>2021-03-07T13:34:12.000Z</time>
      </trkpt>
      <trkpt lat="47.0536" lon="-1.70532">
        <ele>56</ele>
        <time>2021-03-07T13:34:15.000Z</time>
      </trkpt>
      <trkpt lat="47.05357" lon="-1.70516">
        <ele>54</ele>
        <time>2021-03-07T13:34:17.000Z</time>
      </trkpt>
      <trkpt lat="47.05355" lon="-1.70496">
        <ele>55</ele>
        <time>2021-03-07T13:34:19.000Z</time>
      </trkpt>
      <trkpt lat="47.05352" lon="-1.70476">
        <ele>55</ele>
        <time>2021-03-07T13:34:21.000Z</time>
      </trkpt>
      <trkpt lat="47.05346" lon="-1.7045">
        <ele>53</ele>
        <time>2021-03-07T13:34:24.000Z</time>
      </trkpt>
      <trkpt lat="47.05341" lon="-1.7043">
        <ele>53</ele>
        <time>2021-03-07T13:34:26.000Z</time>
      </trkpt>
      <trkpt lat="47.05338" lon="-1.70412">
        <ele>55</ele>
        <time>2021-03-07T13:34:28.000Z</time>
      </trkpt>
      <trkpt lat="47.05334" lon="-1.70394">
        <ele>55</ele>
        <time>2021-03-07T13:34:30.000Z</time>
      </trkpt>
      <trkpt lat="47.05329" lon="-1.70377">
        <ele>55</ele>
        <time>2021-03-07T13:34:32.000Z</time>
      </trkpt>
      <trkpt lat="47.05323" lon="-1.70359">
        <ele>55</ele>
        <time>2021-03-07T13:34:34.000Z</time>
      </trkpt>
      <trkpt lat="47.05315" lon="-1.70343">
        <ele>53</ele>
        <time>2021-03-07T13:34:36.000Z</time>
      </trkpt>
      <trkpt lat="47.05307" lon="-1.70327">
        <ele>51</ele>
        <time>2021-03-07T13:34:38.000Z</time>
      </trkpt>
      <trkpt lat="47.05302" lon="-1.7031">
        <ele>51</ele>
        <time>2021-03-07T13:34:40.000Z</time>
      </trkpt>
      <trkpt lat="47.05296" lon="-1.70292">
        <ele>52</ele>
        <time>2021-03-07T13:34:42.000Z</time>
      </trkpt>
      <trkpt lat="47.05291" lon="-1.70273">
        <ele>52</ele>
        <time>2021-03-07T13:34:44.000Z</time>
      </trkpt>
      <trkpt lat="47.05284" lon="-1.70259">
        <ele>52</ele>
        <time>2021-03-07T13:34:46.000Z</time>
      </trkpt>
      <trkpt lat="47.05278" lon="-1.70238">
        <ele>52</ele>
        <time>2021-03-07T13:34:48.000Z</time>
      </trkpt>
      <trkpt lat="47.05271" lon="-1.70219">
        <ele>53</ele>
        <time>2021-03-07T13:34:50.000Z</time>
      </trkpt>
      <trkpt lat="47.05262" lon="-1.70199">
        <ele>51</ele>
        <time>2021-03-07T13:34:52.000Z</time>
      </trkpt>
      <trkpt lat="47.05254" lon="-1.70183">
        <ele>49</ele>
        <time>2021-03-07T13:34:54.000Z</time>
      </trkpt>
      <trkpt lat="47.05249" lon="-1.70165">
        <ele>50</ele>
        <time>2021-03-07T13:34:56.000Z</time>
      </trkpt>
      <trkpt lat="47.05243" lon="-1.70148">
        <ele>50</ele>
        <time>2021-03-07T13:34:58.000Z</time>
      </trkpt>
      <trkpt lat="47.05237" lon="-1.70129">
        <ele>51</ele>
        <time>2021-03-07T13:35:00.000Z</time>
      </trkpt>
      <trkpt lat="47.05232" lon="-1.7011">
        <ele>50</ele>
        <time>2021-03-07T13:35:02.000Z</time>
      </trkpt>
      <trkpt lat="47.05225" lon="-1.70092">
        <ele>50</ele>
        <time>2021-03-07T13:35:04.000Z</time>
      </trkpt>
      <trkpt lat="47.05218" lon="-1.70074">
        <ele>50</ele>
        <time>2021-03-07T13:35:06.000Z</time>
      </trkpt>
      <trkpt lat="47.05211" lon="-1.70056">
        <ele>50</ele>
        <time>2021-03-07T13:35:08.000Z</time>
      </trkpt>
      <trkpt lat="47.05203" lon="-1.7003">
        <ele>48</ele>
        <time>2021-03-07T13:35:11.000Z</time>
      </trkpt>
      <trkpt lat="47.05197" lon="-1.70015">
        <ele>49</ele>
        <time>2021-03-07T13:35:13.000Z</time>
      </trkpt>
      <trkpt lat="47.05189" lon="-1.69996">
        <ele>50</ele>
        <time>2021-03-07T13:35:15.000Z</time>
      </trkpt>
      <trkpt lat="47.05182" lon="-1.69979">
        <ele>51</ele>
        <time>2021-03-07T13:35:17.000Z</time>
      </trkpt>
      <trkpt lat="47.05175" lon="-1.69962">
        <ele>51</ele>
        <time>2021-03-07T13:35:19.000Z</time>
      </trkpt>
      <trkpt lat="47.05167" lon="-1.69946">
        <ele>51</ele>
        <time>2021-03-07T13:35:21.000Z</time>
      </trkpt>
      <trkpt lat="47.0516" lon="-1.69929">
        <ele>51</ele>
        <time>2021-03-07T13:35:23.000Z</time>
      </trkpt>
      <trkpt lat="47.05155" lon="-1.69901">
        <ele>50</ele>
        <time>2021-03-07T13:35:26.000Z</time>
      </trkpt>
      <trkpt lat="47.05153" lon="-1.69883">
        <ele>48</ele>
        <time>2021-03-07T13:35:28.000Z</time>
      </trkpt>
      <trkpt lat="47.05152" lon="-1.69863">
        <ele>49</ele>
        <time>2021-03-07T13:35:30.000Z</time>
      </trkpt>
      <trkpt lat="47.05146" lon="-1.69845">
        <ele>47</ele>
        <time>2021-03-07T13:35:32.000Z</time>
      </trkpt>
      <trkpt lat="47.05136" lon="-1.6982">
        <ele>48</ele>
        <time>2021-03-07T13:35:35.000Z</time>
      </trkpt>
      <trkpt lat="47.05126" lon="-1.69804">
        <ele>48</ele>
        <time>2021-03-07T13:35:37.000Z</time>
      </trkpt>
      <trkpt lat="47.05119" lon="-1.69793">
        <ele>48</ele>
        <time>2021-03-07T13:35:39.000Z</time>
      </trkpt>
      <trkpt lat="47.05111" lon="-1.69782">
        <ele>49</ele>
        <time>2021-03-07T13:35:41.000Z</time>
      </trkpt>
      <trkpt lat="47.05101" lon="-1.6977">
        <ele>49</ele>
        <time>2021-03-07T13:35:43.000Z</time>
      </trkpt>
      <trkpt lat="47.05092" lon="-1.69758">
        <ele>50</ele>
        <time>2021-03-07T13:35:45.000Z</time>
      </trkpt>
      <trkpt lat="47.05076" lon="-1.69739">
        <ele>48</ele>
        <time>2021-03-07T13:35:48.000Z</time>
      </trkpt>
      <trkpt lat="47.05067" lon="-1.69729">
        <ele>48</ele>
        <time>2021-03-07T13:35:50.000Z</time>
      </trkpt>
      <trkpt lat="47.05058" lon="-1.69716">
        <ele>49</ele>
        <time>2021-03-07T13:35:52.000Z</time>
      </trkpt>
      <trkpt lat="47.05049" lon="-1.69705">
        <ele>49</ele>
        <time>2021-03-07T13:35:54.000Z</time>
      </trkpt>
      <trkpt lat="47.0504" lon="-1.69695">
        <ele>49</ele>
        <time>2021-03-07T13:35:56.000Z</time>
      </trkpt>
      <trkpt lat="47.05031" lon="-1.69685">
        <ele>49</ele>
        <time>2021-03-07T13:35:58.000Z</time>
      </trkpt>
      <trkpt lat="47.05022" lon="-1.69674">
        <ele>49</ele>
        <time>2021-03-07T13:36:00.000Z</time>
      </trkpt>
      <trkpt lat="47.05013" lon="-1.69664">
        <ele>50</ele>
        <time>2021-03-07T13:36:02.000Z</time>
      </trkpt>
      <trkpt lat="47.05004" lon="-1.69653">
        <ele>50</ele>
        <time>2021-03-07T13:36:04.000Z</time>
      </trkpt>
      <trkpt lat="47.04993" lon="-1.6963">
        <ele>51</ele>
        <time>2021-03-07T13:36:07.000Z</time>
      </trkpt>
      <trkpt lat="47.04986" lon="-1.69616">
        <ele>49</ele>
        <time>2021-03-07T13:36:09.000Z</time>
      </trkpt>
      <trkpt lat="47.04982" lon="-1.69598">
        <ele>49</ele>
        <time>2021-03-07T13:36:11.000Z</time>
      </trkpt>
      <trkpt lat="47.04979" lon="-1.69582">
        <ele>47</ele>
        <time>2021-03-07T13:36:13.000Z</time>
      </trkpt>
      <trkpt lat="47.04971" lon="-1.69558">
        <ele>47</ele>
        <time>2021-03-07T13:36:16.000Z</time>
      </trkpt>
      <trkpt lat="47.04966" lon="-1.69539">
        <ele>48</ele>
        <time>2021-03-07T13:36:18.000Z</time>
      </trkpt>
      <trkpt lat="47.04962" lon="-1.69519">
        <ele>49</ele>
        <time>2021-03-07T13:36:20.000Z</time>
      </trkpt>
      <trkpt lat="47.04958" lon="-1.69501">
        <ele>48</ele>
        <time>2021-03-07T13:36:22.000Z</time>
      </trkpt>
      <trkpt lat="47.04954" lon="-1.69486">
        <ele>48</ele>
        <time>2021-03-07T13:36:24.000Z</time>
      </trkpt>
      <trkpt lat="47.04948" lon="-1.6946">
        <ele>48</ele>
        <time>2021-03-07T13:36:27.000Z</time>
      </trkpt>
      <trkpt lat="47.04943" lon="-1.6944">
        <ele>47</ele>
        <time>2021-03-07T13:36:29.000Z</time>
      </trkpt>
      <trkpt lat="47.04939" lon="-1.69422">
        <ele>47</ele>
        <time>2021-03-07T13:36:31.000Z</time>
      </trkpt>
      <trkpt lat="47.04934" lon="-1.69406">
        <ele>46</ele>
        <time>2021-03-07T13:36:33.000Z</time>
      </trkpt>
      <trkpt lat="47.04932" lon="-1.69391">
        <ele>46</ele>
        <time>2021-03-07T13:36:35.000Z</time>
      </trkpt>
      <trkpt lat="47.04926" lon="-1.69374">
        <ele>47</ele>
        <time>2021-03-07T13:36:37.000Z</time>
      </trkpt>
      <trkpt lat="47.04921" lon="-1.69356">
        <ele>48</ele>
        <time>2021-03-07T13:36:39.000Z</time>
      </trkpt>
      <trkpt lat="47.04916" lon="-1.69338">
        <ele>48</ele>
        <time>2021-03-07T13:36:41.000Z</time>
      </trkpt>
      <trkpt lat="47.04913" lon="-1.69321">
        <ele>45</ele>
        <time>2021-03-07T13:36:43.000Z</time>
      </trkpt>
      <trkpt lat="47.04909" lon="-1.69301">
        <ele>46</ele>
        <time>2021-03-07T13:36:45.000Z</time>
      </trkpt>
      <trkpt lat="47.049" lon="-1.69278">
        <ele>46</ele>
        <time>2021-03-07T13:36:48.000Z</time>
      </trkpt>
      <trkpt lat="47.04896" lon="-1.69261">
        <ele>46</ele>
        <time>2021-03-07T13:36:50.000Z</time>
      </trkpt>
      <trkpt lat="47.04891" lon="-1.69242">
        <ele>48</ele>
        <time>2021-03-07T13:36:52.000Z</time>
      </trkpt>
      <trkpt lat="47.04885" lon="-1.69223">
        <ele>47</ele>
        <time>2021-03-07T13:36:54.000Z</time>
      </trkpt>
      <trkpt lat="47.0488" lon="-1.69194">
        <ele>48</ele>
        <time>2021-03-07T13:36:57.000Z</time>
      </trkpt>
      <trkpt lat="47.04875" lon="-1.69174">
        <ele>48</ele>
        <time>2021-03-07T13:36:59.000Z</time>
      </trkpt>
      <trkpt lat="47.04868" lon="-1.69147">
        <ele>50</ele>
        <time>2021-03-07T13:37:02.000Z</time>
      </trkpt>
      <trkpt lat="47.04863" lon="-1.69133">
        <ele>50</ele>
        <time>2021-03-07T13:37:04.000Z</time>
      </trkpt>
      <trkpt lat="47.04859" lon="-1.69115">
        <ele>51</ele>
        <time>2021-03-07T13:37:06.000Z</time>
      </trkpt>
      <trkpt lat="47.04854" lon="-1.69096">
        <ele>51</ele>
        <time>2021-03-07T13:37:08.000Z</time>
      </trkpt>
      <trkpt lat="47.0485" lon="-1.69078">
        <ele>52</ele>
        <time>2021-03-07T13:37:10.000Z</time>
      </trkpt>
      <trkpt lat="47.04846" lon="-1.69062">
        <ele>52</ele>
        <time>2021-03-07T13:37:12.000Z</time>
      </trkpt>
      <trkpt lat="47.0484" lon="-1.69047">
        <ele>52</ele>
        <time>2021-03-07T13:37:14.000Z</time>
      </trkpt>
      <trkpt lat="47.04837" lon="-1.69029">
        <ele>52</ele>
        <time>2021-03-07T13:37:16.000Z</time>
      </trkpt>
      <trkpt lat="47.04832" lon="-1.69013">
        <ele>51</ele>
        <time>2021-03-07T13:37:18.000Z</time>
      </trkpt>
      <trkpt lat="47.04828" lon="-1.68998">
        <ele>51</ele>
        <time>2021-03-07T13:37:20.000Z</time>
      </trkpt>
      <trkpt lat="47.04824" lon="-1.68982">
        <ele>51</ele>
        <time>2021-03-07T13:37:22.000Z</time>
      </trkpt>
      <trkpt lat="47.04819" lon="-1.68963">
        <ele>51</ele>
        <time>2021-03-07T13:37:24.000Z</time>
      </trkpt>
      <trkpt lat="47.04814" lon="-1.68944">
        <ele>51</ele>
        <time>2021-03-07T13:37:26.000Z</time>
      </trkpt>
      <trkpt lat="47.04809" lon="-1.68925">
        <ele>51</ele>
        <time>2021-03-07T13:37:28.000Z</time>
      </trkpt>
      <trkpt lat="47.04804" lon="-1.68908">
        <ele>51</ele>
        <time>2021-03-07T13:37:30.000Z</time>
      </trkpt>
      <trkpt lat="47.04801" lon="-1.68892">
        <ele>52</ele>
        <time>2021-03-07T13:37:32.000Z</time>
      </trkpt>
      <trkpt lat="47.04797" lon="-1.68876">
        <ele>52</ele>
        <time>2021-03-07T13:37:34.000Z</time>
      </trkpt>
      <trkpt lat="47.04791" lon="-1.68859">
        <ele>52</ele>
        <time>2021-03-07T13:37:36.000Z</time>
      </trkpt>
      <trkpt lat="47.04788" lon="-1.68842">
        <ele>52</ele>
        <time>2021-03-07T13:37:38.000Z</time>
      </trkpt>
      <trkpt lat="47.04784" lon="-1.68826">
        <ele>53</ele>
        <time>2021-03-07T13:37:40.000Z</time>
      </trkpt>
      <trkpt lat="47.0478" lon="-1.6881">
        <ele>54</ele>
        <time>2021-03-07T13:37:42.000Z</time>
      </trkpt>
      <trkpt lat="47.04776" lon="-1.68795">
        <ele>54</ele>
        <time>2021-03-07T13:37:44.000Z</time>
      </trkpt>
      <trkpt lat="47.04772" lon="-1.68779">
        <ele>55</ele>
        <time>2021-03-07T13:37:46.000Z</time>
      </trkpt>
      <trkpt lat="47.04768" lon="-1.68763">
        <ele>55</ele>
        <time>2021-03-07T13:37:48.000Z</time>
      </trkpt>
      <trkpt lat="47.04763" lon="-1.68748">
        <ele>55</ele>
        <time>2021-03-07T13:37:50.000Z</time>
      </trkpt>
      <trkpt lat="47.04759" lon="-1.68732">
        <ele>55</ele>
        <time>2021-03-07T13:37:52.000Z</time>
      </trkpt>
      <trkpt lat="47.04755" lon="-1.68715">
        <ele>55</ele>
        <time>2021-03-07T13:37:54.000Z</time>
      </trkpt>
      <trkpt lat="47.04749" lon="-1.6869">
        <ele>55</ele>
        <time>2021-03-07T13:37:57.000Z</time>
      </trkpt>
      <trkpt lat="47.04744" lon="-1.68675">
        <ele>54</ele>
        <time>2021-03-07T13:37:59.000Z</time>
      </trkpt>
      <trkpt lat="47.04738" lon="-1.68649">
        <ele>54</ele>
        <time>2021-03-07T13:38:02.000Z</time>
      </trkpt>
      <trkpt lat="47.04733" lon="-1.68631">
        <ele>55</ele>
        <time>2021-03-07T13:38:04.000Z</time>
      </trkpt>
      <trkpt lat="47.04729" lon="-1.68614">
        <ele>55</ele>
        <time>2021-03-07T13:38:06.000Z</time>
      </trkpt>
      <trkpt lat="47.04724" lon="-1.68598">
        <ele>55</ele>
        <time>2021-03-07T13:38:08.000Z</time>
      </trkpt>
      <trkpt lat="47.0472" lon="-1.68582">
        <ele>55</ele>
        <time>2021-03-07T13:38:10.000Z</time>
      </trkpt>
      <trkpt lat="47.04716" lon="-1.68565">
        <ele>55</ele>
        <time>2021-03-07T13:38:12.000Z</time>
      </trkpt>
      <trkpt lat="47.04711" lon="-1.68548">
        <ele>55</ele>
        <time>2021-03-07T13:38:14.000Z</time>
      </trkpt>
      <trkpt lat="47.04707" lon="-1.68531">
        <ele>53</ele>
        <time>2021-03-07T13:38:16.000Z</time>
      </trkpt>
      <trkpt lat="47.04702" lon="-1.68513">
        <ele>52</ele>
        <time>2021-03-07T13:38:18.000Z</time>
      </trkpt>
      <trkpt lat="47.04697" lon="-1.68495">
        <ele>52</ele>
        <time>2021-03-07T13:38:20.000Z</time>
      </trkpt>
      <trkpt lat="47.04694" lon="-1.68482">
        <ele>52</ele>
        <time>2021-03-07T13:38:22.000Z</time>
      </trkpt>
      <trkpt lat="47.04691" lon="-1.68466">
        <ele>53</ele>
        <time>2021-03-07T13:38:24.000Z</time>
      </trkpt>
      <trkpt lat="47.04684" lon="-1.68443">
        <ele>53</ele>
        <time>2021-03-07T13:38:27.000Z</time>
      </trkpt>
      <trkpt lat="47.04681" lon="-1.68427">
        <ele>52</ele>
        <time>2021-03-07T13:38:29.000Z</time>
      </trkpt>
      <trkpt lat="47.04676" lon="-1.68409">
        <ele>52</ele>
        <time>2021-03-07T13:38:31.000Z</time>
      </trkpt>
      <trkpt lat="47.04672" lon="-1.68392">
        <ele>52</ele>
        <time>2021-03-07T13:38:33.000Z</time>
      </trkpt>
      <trkpt lat="47.04666" lon="-1.68373">
        <ele>50</ele>
        <time>2021-03-07T13:38:35.000Z</time>
      </trkpt>
      <trkpt lat="47.04661" lon="-1.68356">
        <ele>51</ele>
        <time>2021-03-07T13:38:37.000Z</time>
      </trkpt>
      <trkpt lat="47.04657" lon="-1.68339">
        <ele>51</ele>
        <time>2021-03-07T13:38:39.000Z</time>
      </trkpt>
      <trkpt lat="47.04652" lon="-1.68314">
        <ele>51</ele>
        <time>2021-03-07T13:38:42.000Z</time>
      </trkpt>
      <trkpt lat="47.04644" lon="-1.68288">
        <ele>49</ele>
        <time>2021-03-07T13:38:45.000Z</time>
      </trkpt>
      <trkpt lat="47.0464" lon="-1.68269">
        <ele>50</ele>
        <time>2021-03-07T13:38:47.000Z</time>
      </trkpt>
      <trkpt lat="47.04635" lon="-1.68252">
        <ele>50</ele>
        <time>2021-03-07T13:38:49.000Z</time>
      </trkpt>
      <trkpt lat="47.04627" lon="-1.68225">
        <ele>48</ele>
        <time>2021-03-07T13:38:52.000Z</time>
      </trkpt>
      <trkpt lat="47.04621" lon="-1.68207">
        <ele>47</ele>
        <time>2021-03-07T13:38:54.000Z</time>
      </trkpt>
      <trkpt lat="47.04617" lon="-1.68189">
        <ele>48</ele>
        <time>2021-03-07T13:38:56.000Z</time>
      </trkpt>
      <trkpt lat="47.04613" lon="-1.6817">
        <ele>49</ele>
        <time>2021-03-07T13:38:58.000Z</time>
      </trkpt>
      <trkpt lat="47.04608" lon="-1.68151">
        <ele>50</ele>
        <time>2021-03-07T13:39:00.000Z</time>
      </trkpt>
      <trkpt lat="47.04604" lon="-1.68133">
        <ele>50</ele>
        <time>2021-03-07T13:39:02.000Z</time>
      </trkpt>
      <trkpt lat="47.04597" lon="-1.68106">
        <ele>51</ele>
        <time>2021-03-07T13:39:05.000Z</time>
      </trkpt>
      <trkpt lat="47.04593" lon="-1.68089">
        <ele>51</ele>
        <time>2021-03-07T13:39:07.000Z</time>
      </trkpt>
      <trkpt lat="47.04589" lon="-1.68072">
        <ele>51</ele>
        <time>2021-03-07T13:39:09.000Z</time>
      </trkpt>
      <trkpt lat="47.04584" lon="-1.68056">
        <ele>51</ele>
        <time>2021-03-07T13:39:11.000Z</time>
      </trkpt>
      <trkpt lat="47.04579" lon="-1.6804">
        <ele>52</ele>
        <time>2021-03-07T13:39:13.000Z</time>
      </trkpt>
      <trkpt lat="47.04576" lon="-1.68022">
        <ele>53</ele>
        <time>2021-03-07T13:39:15.000Z</time>
      </trkpt>
      <trkpt lat="47.04571" lon="-1.68004">
        <ele>54</ele>
        <time>2021-03-07T13:39:17.000Z</time>
      </trkpt>
      <trkpt lat="47.04566" lon="-1.67985">
        <ele>54</ele>
        <time>2021-03-07T13:39:19.000Z</time>
      </trkpt>
      <trkpt lat="47.0456" lon="-1.67968">
        <ele>53</ele>
        <time>2021-03-07T13:39:21.000Z</time>
      </trkpt>
      <trkpt lat="47.04557" lon="-1.6795">
        <ele>54</ele>
        <time>2021-03-07T13:39:23.000Z</time>
      </trkpt>
      <trkpt lat="47.04552" lon="-1.67932">
        <ele>54</ele>
        <time>2021-03-07T13:39:25.000Z</time>
      </trkpt>
      <trkpt lat="47.04548" lon="-1.67914">
        <ele>54</ele>
        <time>2021-03-07T13:39:27.000Z</time>
      </trkpt>
      <trkpt lat="47.04544" lon="-1.67896">
        <ele>54</ele>
        <time>2021-03-07T13:39:29.000Z</time>
      </trkpt>
      <trkpt lat="47.04539" lon="-1.67879">
        <ele>55</ele>
        <time>2021-03-07T13:39:31.000Z</time>
      </trkpt>
      <trkpt lat="47.04533" lon="-1.67852">
        <ele>55</ele>
        <time>2021-03-07T13:39:34.000Z</time>
      </trkpt>
      <trkpt lat="47.04528" lon="-1.67835">
        <ele>55</ele>
        <time>2021-03-07T13:39:36.000Z</time>
      </trkpt>
      <trkpt lat="47.04524" lon="-1.67819">
        <ele>55</ele>
        <time>2021-03-07T13:39:38.000Z</time>
      </trkpt>
      <trkpt lat="47.04519" lon="-1.67802">
        <ele>56</ele>
        <time>2021-03-07T13:39:40.000Z</time>
      </trkpt>
      <trkpt lat="47.04514" lon="-1.67785">
        <ele>55</ele>
        <time>2021-03-07T13:39:42.000Z</time>
      </trkpt>
      <trkpt lat="47.0451" lon="-1.67767">
        <ele>56</ele>
        <time>2021-03-07T13:39:44.000Z</time>
      </trkpt>
      <trkpt lat="47.04505" lon="-1.67749">
        <ele>56</ele>
        <time>2021-03-07T13:39:46.000Z</time>
      </trkpt>
      <trkpt lat="47.04501" lon="-1.67732">
        <ele>56</ele>
        <time>2021-03-07T13:39:48.000Z</time>
      </trkpt>
      <trkpt lat="47.04496" lon="-1.67715">
        <ele>56</ele>
        <time>2021-03-07T13:39:50.000Z</time>
      </trkpt>
      <trkpt lat="47.04491" lon="-1.67697">
        <ele>55</ele>
        <time>2021-03-07T13:39:52.000Z</time>
      </trkpt>
      <trkpt lat="47.04484" lon="-1.67678">
        <ele>54</ele>
        <time>2021-03-07T13:39:54.000Z</time>
      </trkpt>
      <trkpt lat="47.0448" lon="-1.67661">
        <ele>54</ele>
        <time>2021-03-07T13:39:56.000Z</time>
      </trkpt>
      <trkpt lat="47.04477" lon="-1.67643">
        <ele>54</ele>
        <time>2021-03-07T13:39:58.000Z</time>
      </trkpt>
      <trkpt lat="47.04472" lon="-1.67625">
        <ele>54</ele>
        <time>2021-03-07T13:40:00.000Z</time>
      </trkpt>
      <trkpt lat="47.04465" lon="-1.67608">
        <ele>52</ele>
        <time>2021-03-07T13:40:02.000Z</time>
      </trkpt>
      <trkpt lat="47.04461" lon="-1.6758">
        <ele>51</ele>
        <time>2021-03-07T13:40:05.000Z</time>
      </trkpt>
      <trkpt lat="47.04454" lon="-1.67558">
        <ele>48</ele>
        <time>2021-03-07T13:40:07.000Z</time>
      </trkpt>
      <trkpt lat="47.04449" lon="-1.67531">
        <ele>48</ele>
        <time>2021-03-07T13:40:10.000Z</time>
      </trkpt>
      <trkpt lat="47.04444" lon="-1.67514">
        <ele>47</ele>
        <time>2021-03-07T13:40:12.000Z</time>
      </trkpt>
      <trkpt lat="47.0444" lon="-1.67494">
        <ele>48</ele>
        <time>2021-03-07T13:40:14.000Z</time>
      </trkpt>
      <trkpt lat="47.04434" lon="-1.67475">
        <ele>46</ele>
        <time>2021-03-07T13:40:16.000Z</time>
      </trkpt>
      <trkpt lat="47.04428" lon="-1.67456">
        <ele>47</ele>
        <time>2021-03-07T13:40:18.000Z</time>
      </trkpt>
      <trkpt lat="47.04423" lon="-1.67437">
        <ele>48</ele>
        <time>2021-03-07T13:40:20.000Z</time>
      </trkpt>
      <trkpt lat="47.04417" lon="-1.67406">
        <ele>49</ele>
        <time>2021-03-07T13:40:23.000Z</time>
      </trkpt>
      <trkpt lat="47.04411" lon="-1.67387">
        <ele>49</ele>
        <time>2021-03-07T13:40:25.000Z</time>
      </trkpt>
      <trkpt lat="47.04405" lon="-1.67368">
        <ele>50</ele>
        <time>2021-03-07T13:40:27.000Z</time>
      </trkpt>
      <trkpt lat="47.04401" lon="-1.67349">
        <ele>49</ele>
        <time>2021-03-07T13:40:29.000Z</time>
      </trkpt>
      <trkpt lat="47.04394" lon="-1.67321">
        <ele>48</ele>
        <time>2021-03-07T13:40:32.000Z</time>
      </trkpt>
      <trkpt lat="47.04389" lon="-1.67302">
        <ele>48</ele>
        <time>2021-03-07T13:40:34.000Z</time>
      </trkpt>
      <trkpt lat="47.04384" lon="-1.67282">
        <ele>48</ele>
        <time>2021-03-07T13:40:36.000Z</time>
      </trkpt>
      <trkpt lat="47.04379" lon="-1.67263">
        <ele>47</ele>
        <time>2021-03-07T13:40:38.000Z</time>
      </trkpt>
      <trkpt lat="47.04374" lon="-1.67246">
        <ele>47</ele>
        <time>2021-03-07T13:40:40.000Z</time>
      </trkpt>
      <trkpt lat="47.0437" lon="-1.67227">
        <ele>48</ele>
        <time>2021-03-07T13:40:42.000Z</time>
      </trkpt>
      <trkpt lat="47.04366" lon="-1.6721">
        <ele>49</ele>
        <time>2021-03-07T13:40:44.000Z</time>
      </trkpt>
      <trkpt lat="47.04361" lon="-1.67192">
        <ele>49</ele>
        <time>2021-03-07T13:40:46.000Z</time>
      </trkpt>
      <trkpt lat="47.04352" lon="-1.67168">
        <ele>48</ele>
        <time>2021-03-07T13:40:49.000Z</time>
      </trkpt>
      <trkpt lat="47.04346" lon="-1.6714">
        <ele>49</ele>
        <time>2021-03-07T13:40:52.000Z</time>
      </trkpt>
      <trkpt lat="47.04342" lon="-1.67121">
        <ele>50</ele>
        <time>2021-03-07T13:40:54.000Z</time>
      </trkpt>
      <trkpt lat="47.04338" lon="-1.67101">
        <ele>50</ele>
        <time>2021-03-07T13:40:56.000Z</time>
      </trkpt>
      <trkpt lat="47.04333" lon="-1.67082">
        <ele>50</ele>
        <time>2021-03-07T13:40:58.000Z</time>
      </trkpt>
      <trkpt lat="47.04326" lon="-1.67063">
        <ele>47</ele>
        <time>2021-03-07T13:41:00.000Z</time>
      </trkpt>
      <trkpt lat="47.0432" lon="-1.67045">
        <ele>45</ele>
        <time>2021-03-07T13:41:02.000Z</time>
      </trkpt>
      <trkpt lat="47.04317" lon="-1.67027">
        <ele>46</ele>
        <time>2021-03-07T13:41:04.000Z</time>
      </trkpt>
      <trkpt lat="47.04313" lon="-1.67009">
        <ele>47</ele>
        <time>2021-03-07T13:41:06.000Z</time>
      </trkpt>
      <trkpt lat="47.04303" lon="-1.66983">
        <ele>46</ele>
        <time>2021-03-07T13:41:09.000Z</time>
      </trkpt>
      <trkpt lat="47.043" lon="-1.66964">
        <ele>47</ele>
        <time>2021-03-07T13:41:11.000Z</time>
      </trkpt>
      <trkpt lat="47.04296" lon="-1.66944">
        <ele>47</ele>
        <time>2021-03-07T13:41:13.000Z</time>
      </trkpt>
      <trkpt lat="47.04292" lon="-1.66927">
        <ele>47</ele>
        <time>2021-03-07T13:41:15.000Z</time>
      </trkpt>
      <trkpt lat="47.04285" lon="-1.66902">
        <ele>47</ele>
        <time>2021-03-07T13:41:18.000Z</time>
      </trkpt>
      <trkpt lat="47.0428" lon="-1.66883">
        <ele>48</ele>
        <time>2021-03-07T13:41:20.000Z</time>
      </trkpt>
      <trkpt lat="47.04276" lon="-1.66866">
        <ele>49</ele>
        <time>2021-03-07T13:41:22.000Z</time>
      </trkpt>
      <trkpt lat="47.04271" lon="-1.66848">
        <ele>49</ele>
        <time>2021-03-07T13:41:24.000Z</time>
      </trkpt>
      <trkpt lat="47.04265" lon="-1.66821">
        <ele>49</ele>
        <time>2021-03-07T13:41:27.000Z</time>
      </trkpt>
      <trkpt lat="47.0426" lon="-1.66802">
        <ele>49</ele>
        <time>2021-03-07T13:41:29.000Z</time>
      </trkpt>
      <trkpt lat="47.04255" lon="-1.66783">
        <ele>50</ele>
        <time>2021-03-07T13:41:31.000Z</time>
      </trkpt>
      <trkpt lat="47.04251" lon="-1.66767">
        <ele>48</ele>
        <time>2021-03-07T13:41:33.000Z</time>
      </trkpt>
      <trkpt lat="47.04245" lon="-1.66752">
        <ele>47</ele>
        <time>2021-03-07T13:41:35.000Z</time>
      </trkpt>
      <trkpt lat="47.04239" lon="-1.66724">
        <ele>48</ele>
        <time>2021-03-07T13:41:38.000Z</time>
      </trkpt>
      <trkpt lat="47.04233" lon="-1.66696">
        <ele>49</ele>
        <time>2021-03-07T13:41:41.000Z</time>
      </trkpt>
      <trkpt lat="47.04228" lon="-1.66679">
        <ele>49</ele>
        <time>2021-03-07T13:41:43.000Z</time>
      </trkpt>
      <trkpt lat="47.04223" lon="-1.66662">
        <ele>50</ele>
        <time>2021-03-07T13:41:45.000Z</time>
      </trkpt>
      <trkpt lat="47.04216" lon="-1.66636">
        <ele>50</ele>
        <time>2021-03-07T13:41:48.000Z</time>
      </trkpt>
      <trkpt lat="47.04209" lon="-1.6661">
        <ele>50</ele>
        <time>2021-03-07T13:41:51.000Z</time>
      </trkpt>
      <trkpt lat="47.04205" lon="-1.66592">
        <ele>50</ele>
        <time>2021-03-07T13:41:53.000Z</time>
      </trkpt>
      <trkpt lat="47.042" lon="-1.66574">
        <ele>50</ele>
        <time>2021-03-07T13:41:55.000Z</time>
      </trkpt>
      <trkpt lat="47.04196" lon="-1.66557">
        <ele>50</ele>
        <time>2021-03-07T13:41:57.000Z</time>
      </trkpt>
      <trkpt lat="47.04192" lon="-1.66539">
        <ele>50</ele>
        <time>2021-03-07T13:41:59.000Z</time>
      </trkpt>
      <trkpt lat="47.04186" lon="-1.66515">
        <ele>51</ele>
        <time>2021-03-07T13:42:02.000Z</time>
      </trkpt>
      <trkpt lat="47.04181" lon="-1.66498">
        <ele>51</ele>
        <time>2021-03-07T13:42:04.000Z</time>
      </trkpt>
      <trkpt lat="47.04177" lon="-1.66481">
        <ele>51</ele>
        <time>2021-03-07T13:42:06.000Z</time>
      </trkpt>
      <trkpt lat="47.04173" lon="-1.66464">
        <ele>51</ele>
        <time>2021-03-07T13:42:08.000Z</time>
      </trkpt>
      <trkpt lat="47.04168" lon="-1.66448">
        <ele>51</ele>
        <time>2021-03-07T13:42:10.000Z</time>
      </trkpt>
      <trkpt lat="47.04164" lon="-1.66431">
        <ele>51</ele>
        <time>2021-03-07T13:42:12.000Z</time>
      </trkpt>
      <trkpt lat="47.04159" lon="-1.66415">
        <ele>52</ele>
        <time>2021-03-07T13:42:14.000Z</time>
      </trkpt>
      <trkpt lat="47.04155" lon="-1.66398">
        <ele>52</ele>
        <time>2021-03-07T13:42:16.000Z</time>
      </trkpt>
      <trkpt lat="47.04151" lon="-1.66381">
        <ele>52</ele>
        <time>2021-03-07T13:42:18.000Z</time>
      </trkpt>
      <trkpt lat="47.04147" lon="-1.66366">
        <ele>50</ele>
        <time>2021-03-07T13:42:20.000Z</time>
      </trkpt>
      <trkpt lat="47.04142" lon="-1.66348">
        <ele>50</ele>
        <time>2021-03-07T13:42:22.000Z</time>
      </trkpt>
      <trkpt lat="47.04135" lon="-1.66321">
        <ele>51</ele>
        <time>2021-03-07T13:42:25.000Z</time>
      </trkpt>
      <trkpt lat="47.04129" lon="-1.66295">
        <ele>51</ele>
        <time>2021-03-07T13:42:28.000Z</time>
      </trkpt>
      <trkpt lat="47.04125" lon="-1.66277">
        <ele>50</ele>
        <time>2021-03-07T13:42:30.000Z</time>
      </trkpt>
      <trkpt lat="47.04121" lon="-1.66259">
        <ele>51</ele>
        <time>2021-03-07T13:42:32.000Z</time>
      </trkpt>
      <trkpt lat="47.04117" lon="-1.66242">
        <ele>51</ele>
        <time>2021-03-07T13:42:34.000Z</time>
      </trkpt>
      <trkpt lat="47.04111" lon="-1.66226">
        <ele>51</ele>
        <time>2021-03-07T13:42:36.000Z</time>
      </trkpt>
      <trkpt lat="47.04104" lon="-1.66203">
        <ele>51</ele>
        <time>2021-03-07T13:42:39.000Z</time>
      </trkpt>
      <trkpt lat="47.041" lon="-1.66186">
        <ele>51</ele>
        <time>2021-03-07T13:42:41.000Z</time>
      </trkpt>
      <trkpt lat="47.04096" lon="-1.66168">
        <ele>52</ele>
        <time>2021-03-07T13:42:43.000Z</time>
      </trkpt>
      <trkpt lat="47.04091" lon="-1.66151">
        <ele>53</ele>
        <time>2021-03-07T13:42:45.000Z</time>
      </trkpt>
      <trkpt lat="47.04086" lon="-1.66135">
        <ele>54</ele>
        <time>2021-03-07T13:42:47.000Z</time>
      </trkpt>
      <trkpt lat="47.04082" lon="-1.66117">
        <ele>54</ele>
        <time>2021-03-07T13:42:49.000Z</time>
      </trkpt>
      <trkpt lat="47.04077" lon="-1.66103">
        <ele>53</ele>
        <time>2021-03-07T13:42:51.000Z</time>
      </trkpt>
      <trkpt lat="47.04072" lon="-1.66089">
        <ele>54</ele>
        <time>2021-03-07T13:42:53.000Z</time>
      </trkpt>
      <trkpt lat="47.04068" lon="-1.66069">
        <ele>55</ele>
        <time>2021-03-07T13:42:55.000Z</time>
      </trkpt>
      <trkpt lat="47.04063" lon="-1.66052">
        <ele>54</ele>
        <time>2021-03-07T13:42:57.000Z</time>
      </trkpt>
      <trkpt lat="47.04056" lon="-1.66037">
        <ele>55</ele>
        <time>2021-03-07T13:42:59.000Z</time>
      </trkpt>
      <trkpt lat="47.04047" lon="-1.66013">
        <ele>55</ele>
        <time>2021-03-07T13:43:02.000Z</time>
      </trkpt>
      <trkpt lat="47.04045" lon="-1.65993">
        <ele>55</ele>
        <time>2021-03-07T13:43:04.000Z</time>
      </trkpt>
      <trkpt lat="47.04041" lon="-1.65974">
        <ele>55</ele>
        <time>2021-03-07T13:43:06.000Z</time>
      </trkpt>
      <trkpt lat="47.04037" lon="-1.6596">
        <ele>53</ele>
        <time>2021-03-07T13:43:08.000Z</time>
      </trkpt>
      <trkpt lat="47.04032" lon="-1.65942">
        <ele>52</ele>
        <time>2021-03-07T13:43:10.000Z</time>
      </trkpt>
      <trkpt lat="47.04028" lon="-1.65922">
        <ele>52</ele>
        <time>2021-03-07T13:43:12.000Z</time>
      </trkpt>
      <trkpt lat="47.04023" lon="-1.65906">
        <ele>50</ele>
        <time>2021-03-07T13:43:14.000Z</time>
      </trkpt>
      <trkpt lat="47.04018" lon="-1.65888">
        <ele>50</ele>
        <time>2021-03-07T13:43:16.000Z</time>
      </trkpt>
      <trkpt lat="47.04014" lon="-1.65868">
        <ele>51</ele>
        <time>2021-03-07T13:43:18.000Z</time>
      </trkpt>
      <trkpt lat="47.0401" lon="-1.6585">
        <ele>51</ele>
        <time>2021-03-07T13:43:20.000Z</time>
      </trkpt>
      <trkpt lat="47.04004" lon="-1.65832">
        <ele>51</ele>
        <time>2021-03-07T13:43:22.000Z</time>
      </trkpt>
      <trkpt lat="47.03999" lon="-1.65814">
        <ele>51</ele>
        <time>2021-03-07T13:43:24.000Z</time>
      </trkpt>
      <trkpt lat="47.03994" lon="-1.65797">
        <ele>52</ele>
        <time>2021-03-07T13:43:26.000Z</time>
      </trkpt>
      <trkpt lat="47.03987" lon="-1.65775">
        <ele>48</ele>
        <time>2021-03-07T13:43:29.000Z</time>
      </trkpt>
      <trkpt lat="47.03982" lon="-1.65755">
        <ele>49</ele>
        <time>2021-03-07T13:43:31.000Z</time>
      </trkpt>
      <trkpt lat="47.03975" lon="-1.65727">
        <ele>49</ele>
        <time>2021-03-07T13:43:34.000Z</time>
      </trkpt>
      <trkpt lat="47.03971" lon="-1.65709">
        <ele>48</ele>
        <time>2021-03-07T13:43:36.000Z</time>
      </trkpt>
      <trkpt lat="47.03966" lon="-1.65692">
        <ele>47</ele>
        <time>2021-03-07T13:43:38.000Z</time>
      </trkpt>
      <trkpt lat="47.03963" lon="-1.65675">
        <ele>46</ele>
        <time>2021-03-07T13:43:40.000Z</time>
      </trkpt>
      <trkpt lat="47.03958" lon="-1.65657">
        <ele>44</ele>
        <time>2021-03-07T13:43:42.000Z</time>
      </trkpt>
      <trkpt lat="47.03947" lon="-1.65621">
        <ele>47</ele>
        <time>2021-03-07T13:43:46.000Z</time>
      </trkpt>
      <trkpt lat="47.03943" lon="-1.65604">
        <ele>48</ele>
        <time>2021-03-07T13:43:48.000Z</time>
      </trkpt>
      <trkpt lat="47.03937" lon="-1.65588">
        <ele>49</ele>
        <time>2021-03-07T13:43:50.000Z</time>
      </trkpt>
      <trkpt lat="47.03933" lon="-1.65571">
        <ele>49</ele>
        <time>2021-03-07T13:43:52.000Z</time>
      </trkpt>
      <trkpt lat="47.03928" lon="-1.65554">
        <ele>50</ele>
        <time>2021-03-07T13:43:54.000Z</time>
      </trkpt>
      <trkpt lat="47.03921" lon="-1.65529">
        <ele>51</ele>
        <time>2021-03-07T13:43:57.000Z</time>
      </trkpt>
      <trkpt lat="47.03916" lon="-1.65512">
        <ele>51</ele>
        <time>2021-03-07T13:43:59.000Z</time>
      </trkpt>
      <trkpt lat="47.03911" lon="-1.65495">
        <ele>51</ele>
        <time>2021-03-07T13:44:01.000Z</time>
      </trkpt>
      <trkpt lat="47.03904" lon="-1.6547">
        <ele>52</ele>
        <time>2021-03-07T13:44:04.000Z</time>
      </trkpt>
      <trkpt lat="47.03899" lon="-1.65453">
        <ele>52</ele>
        <time>2021-03-07T13:44:06.000Z</time>
      </trkpt>
      <trkpt lat="47.03895" lon="-1.65436">
        <ele>52</ele>
        <time>2021-03-07T13:44:08.000Z</time>
      </trkpt>
      <trkpt lat="47.03891" lon="-1.65419">
        <ele>52</ele>
        <time>2021-03-07T13:44:10.000Z</time>
      </trkpt>
      <trkpt lat="47.03886" lon="-1.65403">
        <ele>51</ele>
        <time>2021-03-07T13:44:12.000Z</time>
      </trkpt>
      <trkpt lat="47.03878" lon="-1.65378">
        <ele>49</ele>
        <time>2021-03-07T13:44:15.000Z</time>
      </trkpt>
      <trkpt lat="47.03872" lon="-1.65362">
        <ele>49</ele>
        <time>2021-03-07T13:44:17.000Z</time>
      </trkpt>
      <trkpt lat="47.03865" lon="-1.65347">
        <ele>49</ele>
        <time>2021-03-07T13:44:19.000Z</time>
      </trkpt>
      <trkpt lat="47.03851" lon="-1.65328">
        <ele>49</ele>
        <time>2021-03-07T13:44:22.000Z</time>
      </trkpt>
      <trkpt lat="47.03854" lon="-1.65311">
        <ele>49</ele>
        <time>2021-03-07T13:44:24.000Z</time>
      </trkpt>
      <trkpt lat="47.03863" lon="-1.65296">
        <ele>50</ele>
        <time>2021-03-07T13:44:26.000Z</time>
      </trkpt>
      <trkpt lat="47.03871" lon="-1.65283">
        <ele>50</ele>
        <time>2021-03-07T13:44:28.000Z</time>
      </trkpt>
      <trkpt lat="47.03887" lon="-1.65271">
        <ele>51</ele>
        <time>2021-03-07T13:44:31.000Z</time>
      </trkpt>
      <trkpt lat="47.0391" lon="-1.65256">
        <ele>52</ele>
        <time>2021-03-07T13:44:35.000Z</time>
      </trkpt>
      <trkpt lat="47.03922" lon="-1.65249">
        <ele>53</ele>
        <time>2021-03-07T13:44:37.000Z</time>
      </trkpt>
      <trkpt lat="47.03939" lon="-1.65239">
        <ele>53</ele>
        <time>2021-03-07T13:44:40.000Z</time>
      </trkpt>
      <trkpt lat="47.03954" lon="-1.65228">
        <ele>53</ele>
        <time>2021-03-07T13:44:43.000Z</time>
      </trkpt>
      <trkpt lat="47.03972" lon="-1.65215">
        <ele>50</ele>
        <time>2021-03-07T13:44:46.000Z</time>
      </trkpt>
      <trkpt lat="47.03983" lon="-1.65208">
        <ele>50</ele>
        <time>2021-03-07T13:44:48.000Z</time>
      </trkpt>
      <trkpt lat="47.03993" lon="-1.652">
        <ele>50</ele>
        <time>2021-03-07T13:44:50.000Z</time>
      </trkpt>
      <trkpt lat="47.04004" lon="-1.65193">
        <ele>51</ele>
        <time>2021-03-07T13:44:52.000Z</time>
      </trkpt>
      <trkpt lat="47.04021" lon="-1.65182">
        <ele>51</ele>
        <time>2021-03-07T13:44:55.000Z</time>
      </trkpt>
      <trkpt lat="47.04032" lon="-1.65174">
        <ele>51</ele>
        <time>2021-03-07T13:44:57.000Z</time>
      </trkpt>
      <trkpt lat="47.04044" lon="-1.65166">
        <ele>51</ele>
        <time>2021-03-07T13:44:59.000Z</time>
      </trkpt>
      <trkpt lat="47.04061" lon="-1.65154">
        <ele>51</ele>
        <time>2021-03-07T13:45:02.000Z</time>
      </trkpt>
      <trkpt lat="47.04073" lon="-1.65146">
        <ele>51</ele>
        <time>2021-03-07T13:45:04.000Z</time>
      </trkpt>
      <trkpt lat="47.04085" lon="-1.65138">
        <ele>51</ele>
        <time>2021-03-07T13:45:06.000Z</time>
      </trkpt>
      <trkpt lat="47.04097" lon="-1.6513">
        <ele>51</ele>
        <time>2021-03-07T13:45:08.000Z</time>
      </trkpt>
      <trkpt lat="47.04108" lon="-1.65123">
        <ele>50</ele>
        <time>2021-03-07T13:45:10.000Z</time>
      </trkpt>
      <trkpt lat="47.04119" lon="-1.65115">
        <ele>51</ele>
        <time>2021-03-07T13:45:12.000Z</time>
      </trkpt>
      <trkpt lat="47.0413" lon="-1.65108">
        <ele>50</ele>
        <time>2021-03-07T13:45:14.000Z</time>
      </trkpt>
      <trkpt lat="47.04141" lon="-1.651">
        <ele>46</ele>
        <time>2021-03-07T13:45:16.000Z</time>
      </trkpt>
      <trkpt lat="47.04157" lon="-1.65088">
        <ele>45</ele>
        <time>2021-03-07T13:45:19.000Z</time>
      </trkpt>
      <trkpt lat="47.04175" lon="-1.65077">
        <ele>46</ele>
        <time>2021-03-07T13:45:22.000Z</time>
      </trkpt>
      <trkpt lat="47.04192" lon="-1.65065">
        <ele>43</ele>
        <time>2021-03-07T13:45:25.000Z</time>
      </trkpt>
      <trkpt lat="47.04209" lon="-1.65054">
        <ele>45</ele>
        <time>2021-03-07T13:45:28.000Z</time>
      </trkpt>
      <trkpt lat="47.04226" lon="-1.65043">
        <ele>46</ele>
        <time>2021-03-07T13:45:31.000Z</time>
      </trkpt>
      <trkpt lat="47.04237" lon="-1.65035">
        <ele>47</ele>
        <time>2021-03-07T13:45:33.000Z</time>
      </trkpt>
      <trkpt lat="47.04248" lon="-1.65027">
        <ele>47</ele>
        <time>2021-03-07T13:45:35.000Z</time>
      </trkpt>
      <trkpt lat="47.0426" lon="-1.65019">
        <ele>47</ele>
        <time>2021-03-07T13:45:37.000Z</time>
      </trkpt>
      <trkpt lat="47.04277" lon="-1.65005">
        <ele>46</ele>
        <time>2021-03-07T13:45:40.000Z</time>
      </trkpt>
      <trkpt lat="47.04288" lon="-1.64996">
        <ele>48</ele>
        <time>2021-03-07T13:45:42.000Z</time>
      </trkpt>
      <trkpt lat="47.04298" lon="-1.64988">
        <ele>48</ele>
        <time>2021-03-07T13:45:44.000Z</time>
      </trkpt>
      <trkpt lat="47.04308" lon="-1.6498">
        <ele>48</ele>
        <time>2021-03-07T13:45:46.000Z</time>
      </trkpt>
      <trkpt lat="47.0432" lon="-1.64972">
        <ele>45</ele>
        <time>2021-03-07T13:45:48.000Z</time>
      </trkpt>
      <trkpt lat="47.0433" lon="-1.64964">
        <ele>46</ele>
        <time>2021-03-07T13:45:50.000Z</time>
      </trkpt>
      <trkpt lat="47.0434" lon="-1.64954">
        <ele>45</ele>
        <time>2021-03-07T13:45:52.000Z</time>
      </trkpt>
      <trkpt lat="47.04351" lon="-1.64947">
        <ele>47</ele>
        <time>2021-03-07T13:45:54.000Z</time>
      </trkpt>
      <trkpt lat="47.0436" lon="-1.64939">
        <ele>48</ele>
        <time>2021-03-07T13:45:56.000Z</time>
      </trkpt>
      <trkpt lat="47.0437" lon="-1.64931">
        <ele>49</ele>
        <time>2021-03-07T13:45:58.000Z</time>
      </trkpt>
      <trkpt lat="47.0438" lon="-1.64922">
        <ele>49</ele>
        <time>2021-03-07T13:46:00.000Z</time>
      </trkpt>
      <trkpt lat="47.0439" lon="-1.64913">
        <ele>49</ele>
        <time>2021-03-07T13:46:02.000Z</time>
      </trkpt>
      <trkpt lat="47.04399" lon="-1.64905">
        <ele>50</ele>
        <time>2021-03-07T13:46:04.000Z</time>
      </trkpt>
      <trkpt lat="47.04413" lon="-1.64894">
        <ele>50</ele>
        <time>2021-03-07T13:46:07.000Z</time>
      </trkpt>
      <trkpt lat="47.04428" lon="-1.6489">
        <ele>50</ele>
        <time>2021-03-07T13:46:10.000Z</time>
      </trkpt>
      <trkpt lat="47.04438" lon="-1.64893">
        <ele>50</ele>
        <time>2021-03-07T13:46:12.000Z</time>
      </trkpt>
      <trkpt lat="47.04447" lon="-1.64897">
        <ele>49</ele>
        <time>2021-03-07T13:46:14.000Z</time>
      </trkpt>
      <trkpt lat="47.04459" lon="-1.64904">
        <ele>49</ele>
        <time>2021-03-07T13:46:17.000Z</time>
      </trkpt>
      <trkpt lat="47.04471" lon="-1.64906">
        <ele>48</ele>
        <time>2021-03-07T13:46:20.000Z</time>
      </trkpt>
      <trkpt lat="47.04475" lon="-1.64891">
        <ele>48</ele>
        <time>2021-03-07T13:46:23.000Z</time>
      </trkpt>
      <trkpt lat="47.04466" lon="-1.64881">
        <ele>48</ele>
        <time>2021-03-07T13:46:26.000Z</time>
      </trkpt>
      <trkpt lat="47.04452" lon="-1.64865">
        <ele>47</ele>
        <time>2021-03-07T13:46:30.000Z</time>
      </trkpt>
      <trkpt lat="47.04456" lon="-1.64853">
        <ele>48</ele>
        <time>2021-03-07T13:46:32.000Z</time>
      </trkpt>
      <trkpt lat="47.04465" lon="-1.64847">
        <ele>47</ele>
        <time>2021-03-07T13:46:34.000Z</time>
      </trkpt>
      <trkpt lat="47.04472" lon="-1.64839">
        <ele>47</ele>
        <time>2021-03-07T13:46:36.000Z</time>
      </trkpt>
      <trkpt lat="47.0448" lon="-1.64828">
        <ele>51</ele>
        <time>2021-03-07T13:46:38.000Z</time>
      </trkpt>
      <trkpt lat="47.04487" lon="-1.64819">
        <ele>52</ele>
        <time>2021-03-07T13:46:40.000Z</time>
      </trkpt>
      <trkpt lat="47.045" lon="-1.64799">
        <ele>51</ele>
        <time>2021-03-07T13:46:44.000Z</time>
      </trkpt>
      <trkpt lat="47.04502" lon="-1.64782">
        <ele>49</ele>
        <time>2021-03-07T13:46:47.000Z</time>
      </trkpt>
      <trkpt lat="47.0451" lon="-1.64771">
        <ele>50</ele>
        <time>2021-03-07T13:46:49.000Z</time>
      </trkpt>
      <trkpt lat="47.04514" lon="-1.64759">
        <ele>51</ele>
        <time>2021-03-07T13:46:51.000Z</time>
      </trkpt>
      <trkpt lat="47.04521" lon="-1.64748">
        <ele>51</ele>
        <time>2021-03-07T13:46:53.000Z</time>
      </trkpt>
      <trkpt lat="47.04528" lon="-1.64738">
        <ele>51</ele>
        <time>2021-03-07T13:46:55.000Z</time>
      </trkpt>
      <trkpt lat="47.04536" lon="-1.64728">
        <ele>51</ele>
        <time>2021-03-07T13:46:57.000Z</time>
      </trkpt>
      <trkpt lat="47.04543" lon="-1.64718">
        <ele>52</ele>
        <time>2021-03-07T13:46:59.000Z</time>
      </trkpt>
      <trkpt lat="47.04554" lon="-1.64698">
        <ele>53</ele>
        <time>2021-03-07T13:47:03.000Z</time>
      </trkpt>
      <trkpt lat="47.04563" lon="-1.64692">
        <ele>54</ele>
        <time>2021-03-07T13:47:05.000Z</time>
      </trkpt>
      <trkpt lat="47.04573" lon="-1.64683">
        <ele>53</ele>
        <time>2021-03-07T13:47:07.000Z</time>
      </trkpt>
      <trkpt lat="47.04581" lon="-1.64662">
        <ele>51</ele>
        <time>2021-03-07T13:47:10.000Z</time>
      </trkpt>
      <trkpt lat="47.04594" lon="-1.64643">
        <ele>51</ele>
        <time>2021-03-07T13:47:13.000Z</time>
      </trkpt>
      <trkpt lat="47.04606" lon="-1.64624">
        <ele>51</ele>
        <time>2021-03-07T13:47:16.000Z</time>
      </trkpt>
      <trkpt lat="47.04617" lon="-1.64603">
        <ele>49</ele>
        <time>2021-03-07T13:47:19.000Z</time>
      </trkpt>
      <trkpt lat="47.04627" lon="-1.64583">
        <ele>48</ele>
        <time>2021-03-07T13:47:22.000Z</time>
      </trkpt>
      <trkpt lat="47.04634" lon="-1.6456">
        <ele>47</ele>
        <time>2021-03-07T13:47:25.000Z</time>
      </trkpt>
      <trkpt lat="47.04641" lon="-1.64544">
        <ele>48</ele>
        <time>2021-03-07T13:47:27.000Z</time>
      </trkpt>
      <trkpt lat="47.04647" lon="-1.64529">
        <ele>49</ele>
        <time>2021-03-07T13:47:29.000Z</time>
      </trkpt>
      <trkpt lat="47.04654" lon="-1.64515">
        <ele>48</ele>
        <time>2021-03-07T13:47:31.000Z</time>
      </trkpt>
      <trkpt lat="47.0466" lon="-1.64503">
        <ele>49</ele>
        <time>2021-03-07T13:47:33.000Z</time>
      </trkpt>
      <trkpt lat="47.04667" lon="-1.64488">
        <ele>50</ele>
        <time>2021-03-07T13:47:35.000Z</time>
      </trkpt>
      <trkpt lat="47.04673" lon="-1.64474">
        <ele>51</ele>
        <time>2021-03-07T13:47:37.000Z</time>
      </trkpt>
      <trkpt lat="47.04684" lon="-1.64454">
        <ele>51</ele>
        <time>2021-03-07T13:47:40.000Z</time>
      </trkpt>
      <trkpt lat="47.04696" lon="-1.64434">
        <ele>51</ele>
        <time>2021-03-07T13:47:43.000Z</time>
      </trkpt>
      <trkpt lat="47.04703" lon="-1.64421">
        <ele>52</ele>
        <time>2021-03-07T13:47:45.000Z</time>
      </trkpt>
      <trkpt lat="47.0471" lon="-1.64407">
        <ele>52</ele>
        <time>2021-03-07T13:47:47.000Z</time>
      </trkpt>
      <trkpt lat="47.04717" lon="-1.64395">
        <ele>48</ele>
        <time>2021-03-07T13:47:49.000Z</time>
      </trkpt>
      <trkpt lat="47.04725" lon="-1.6438">
        <ele>49</ele>
        <time>2021-03-07T13:47:51.000Z</time>
      </trkpt>
      <trkpt lat="47.04732" lon="-1.64361">
        <ele>50</ele>
        <time>2021-03-07T13:47:54.000Z</time>
      </trkpt>
      <trkpt lat="47.0473" lon="-1.64347">
        <ele>50</ele>
        <time>2021-03-07T13:47:56.000Z</time>
      </trkpt>
      <trkpt lat="47.04727" lon="-1.64332">
        <ele>51</ele>
        <time>2021-03-07T13:47:58.000Z</time>
      </trkpt>
      <trkpt lat="47.0473" lon="-1.64315">
        <ele>50</ele>
        <time>2021-03-07T13:48:00.000Z</time>
      </trkpt>
      <trkpt lat="47.04734" lon="-1.643">
        <ele>49</ele>
        <time>2021-03-07T13:48:02.000Z</time>
      </trkpt>
      <trkpt lat="47.04737" lon="-1.64284">
        <ele>49</ele>
        <time>2021-03-07T13:48:04.000Z</time>
      </trkpt>
      <trkpt lat="47.0474" lon="-1.64267">
        <ele>49</ele>
        <time>2021-03-07T13:48:06.000Z</time>
      </trkpt>
      <trkpt lat="47.04744" lon="-1.64251">
        <ele>49</ele>
        <time>2021-03-07T13:48:08.000Z</time>
      </trkpt>
      <trkpt lat="47.04748" lon="-1.64235">
        <ele>50</ele>
        <time>2021-03-07T13:48:10.000Z</time>
      </trkpt>
      <trkpt lat="47.04752" lon="-1.64219">
        <ele>50</ele>
        <time>2021-03-07T13:48:12.000Z</time>
      </trkpt>
      <trkpt lat="47.04756" lon="-1.64203">
        <ele>50</ele>
        <time>2021-03-07T13:48:14.000Z</time>
      </trkpt>
      <trkpt lat="47.0476" lon="-1.64186">
        <ele>50</ele>
        <time>2021-03-07T13:48:16.000Z</time>
      </trkpt>
      <trkpt lat="47.04766" lon="-1.64163">
        <ele>50</ele>
        <time>2021-03-07T13:48:19.000Z</time>
      </trkpt>
      <trkpt lat="47.0477" lon="-1.64138">
        <ele>49</ele>
        <time>2021-03-07T13:48:22.000Z</time>
      </trkpt>
      <trkpt lat="47.04777" lon="-1.64113">
        <ele>49</ele>
        <time>2021-03-07T13:48:25.000Z</time>
      </trkpt>
      <trkpt lat="47.04782" lon="-1.64088">
        <ele>46</ele>
        <time>2021-03-07T13:48:28.000Z</time>
      </trkpt>
      <trkpt lat="47.04784" lon="-1.64072">
        <ele>46</ele>
        <time>2021-03-07T13:48:30.000Z</time>
      </trkpt>
      <trkpt lat="47.04789" lon="-1.64056">
        <ele>46</ele>
        <time>2021-03-07T13:48:32.000Z</time>
      </trkpt>
      <trkpt lat="47.04795" lon="-1.64039">
        <ele>47</ele>
        <time>2021-03-07T13:48:34.000Z</time>
      </trkpt>
      <trkpt lat="47.048" lon="-1.64023">
        <ele>48</ele>
        <time>2021-03-07T13:48:36.000Z</time>
      </trkpt>
      <trkpt lat="47.04804" lon="-1.64007">
        <ele>47</ele>
        <time>2021-03-07T13:48:38.000Z</time>
      </trkpt>
      <trkpt lat="47.04808" lon="-1.63992">
        <ele>46</ele>
        <time>2021-03-07T13:48:40.000Z</time>
      </trkpt>
      <trkpt lat="47.04816" lon="-1.63978">
        <ele>47</ele>
        <time>2021-03-07T13:48:42.000Z</time>
      </trkpt>
      <trkpt lat="47.04824" lon="-1.63967">
        <ele>48</ele>
        <time>2021-03-07T13:48:44.000Z</time>
      </trkpt>
      <trkpt lat="47.04832" lon="-1.63957">
        <ele>46</ele>
        <time>2021-03-07T13:48:46.000Z</time>
      </trkpt>
      <trkpt lat="47.04843" lon="-1.63948">
        <ele>47</ele>
        <time>2021-03-07T13:48:48.000Z</time>
      </trkpt>
      <trkpt lat="47.04853" lon="-1.63939">
        <ele>47</ele>
        <time>2021-03-07T13:48:50.000Z</time>
      </trkpt>
      <trkpt lat="47.04864" lon="-1.63931">
        <ele>48</ele>
        <time>2021-03-07T13:48:52.000Z</time>
      </trkpt>
      <trkpt lat="47.04879" lon="-1.63918">
        <ele>49</ele>
        <time>2021-03-07T13:48:55.000Z</time>
      </trkpt>
      <trkpt lat="47.04889" lon="-1.63909">
        <ele>49</ele>
        <time>2021-03-07T13:48:57.000Z</time>
      </trkpt>
      <trkpt lat="47.04899" lon="-1.63901">
        <ele>49</ele>
        <time>2021-03-07T13:48:59.000Z</time>
      </trkpt>
      <trkpt lat="47.04908" lon="-1.63892">
        <ele>49</ele>
        <time>2021-03-07T13:49:01.000Z</time>
      </trkpt>
      <trkpt lat="47.04918" lon="-1.63884">
        <ele>49</ele>
        <time>2021-03-07T13:49:03.000Z</time>
      </trkpt>
      <trkpt lat="47.04928" lon="-1.63875">
        <ele>49</ele>
        <time>2021-03-07T13:49:05.000Z</time>
      </trkpt>
      <trkpt lat="47.04936" lon="-1.63866">
        <ele>47</ele>
        <time>2021-03-07T13:49:07.000Z</time>
      </trkpt>
      <trkpt lat="47.04946" lon="-1.63856">
        <ele>46</ele>
        <time>2021-03-07T13:49:09.000Z</time>
      </trkpt>
      <trkpt lat="47.04955" lon="-1.63847">
        <ele>47</ele>
        <time>2021-03-07T13:49:11.000Z</time>
      </trkpt>
      <trkpt lat="47.04966" lon="-1.63838">
        <ele>49</ele>
        <time>2021-03-07T13:49:13.000Z</time>
      </trkpt>
      <trkpt lat="47.04974" lon="-1.63829">
        <ele>49</ele>
        <time>2021-03-07T13:49:15.000Z</time>
      </trkpt>
      <trkpt lat="47.04983" lon="-1.6382">
        <ele>50</ele>
        <time>2021-03-07T13:49:17.000Z</time>
      </trkpt>
      <trkpt lat="47.04992" lon="-1.63811">
        <ele>51</ele>
        <time>2021-03-07T13:49:19.000Z</time>
      </trkpt>
      <trkpt lat="47.04999" lon="-1.63801">
        <ele>51</ele>
        <time>2021-03-07T13:49:21.000Z</time>
      </trkpt>
      <trkpt lat="47.05004" lon="-1.63785">
        <ele>51</ele>
        <time>2021-03-07T13:49:23.000Z</time>
      </trkpt>
      <trkpt lat="47.05004" lon="-1.63771">
        <ele>50</ele>
        <time>2021-03-07T13:49:25.000Z</time>
      </trkpt>
      <trkpt lat="47.05005" lon="-1.63756">
        <ele>50</ele>
        <time>2021-03-07T13:49:27.000Z</time>
      </trkpt>
      <trkpt lat="47.05008" lon="-1.63739">
        <ele>50</ele>
        <time>2021-03-07T13:49:29.000Z</time>
      </trkpt>
      <trkpt lat="47.05002" lon="-1.63711">
        <ele>49</ele>
        <time>2021-03-07T13:49:32.000Z</time>
      </trkpt>
      <trkpt lat="47.04998" lon="-1.63694">
        <ele>47</ele>
        <time>2021-03-07T13:49:34.000Z</time>
      </trkpt>
      <trkpt lat="47.04994" lon="-1.63676">
        <ele>47</ele>
        <time>2021-03-07T13:49:36.000Z</time>
      </trkpt>
      <trkpt lat="47.04989" lon="-1.63659">
        <ele>47</ele>
        <time>2021-03-07T13:49:38.000Z</time>
      </trkpt>
      <trkpt lat="47.04986" lon="-1.63643">
        <ele>48</ele>
        <time>2021-03-07T13:49:40.000Z</time>
      </trkpt>
      <trkpt lat="47.04983" lon="-1.63628">
        <ele>48</ele>
        <time>2021-03-07T13:49:42.000Z</time>
      </trkpt>
      <trkpt lat="47.04979" lon="-1.63613">
        <ele>48</ele>
        <time>2021-03-07T13:49:44.000Z</time>
      </trkpt>
      <trkpt lat="47.04978" lon="-1.63599">
        <ele>49</ele>
        <time>2021-03-07T13:49:46.000Z</time>
      </trkpt>
      <trkpt lat="47.04984" lon="-1.63588">
        <ele>49</ele>
        <time>2021-03-07T13:49:48.000Z</time>
      </trkpt>
      <trkpt lat="47.04993" lon="-1.6358">
        <ele>49</ele>
        <time>2021-03-07T13:49:50.000Z</time>
      </trkpt>
      <trkpt lat="47.05002" lon="-1.63571">
        <ele>49</ele>
        <time>2021-03-07T13:49:52.000Z</time>
      </trkpt>
      <trkpt lat="47.05016" lon="-1.63561">
        <ele>50</ele>
        <time>2021-03-07T13:49:55.000Z</time>
      </trkpt>
      <trkpt lat="47.05025" lon="-1.63553">
        <ele>48</ele>
        <time>2021-03-07T13:49:57.000Z</time>
      </trkpt>
      <trkpt lat="47.05036" lon="-1.63548">
        <ele>47</ele>
        <time>2021-03-07T13:49:59.000Z</time>
      </trkpt>
      <trkpt lat="47.05046" lon="-1.63546">
        <ele>49</ele>
        <time>2021-03-07T13:50:01.000Z</time>
      </trkpt>
      <trkpt lat="47.05057" lon="-1.63542">
        <ele>50</ele>
        <time>2021-03-07T13:50:03.000Z</time>
      </trkpt>
      <trkpt lat="47.05066" lon="-1.63539">
        <ele>51</ele>
        <time>2021-03-07T13:50:05.000Z</time>
      </trkpt>
      <trkpt lat="47.05076" lon="-1.63536">
        <ele>51</ele>
        <time>2021-03-07T13:50:07.000Z</time>
      </trkpt>
      <trkpt lat="47.05086" lon="-1.63533">
        <ele>52</ele>
        <time>2021-03-07T13:50:09.000Z</time>
      </trkpt>
      <trkpt lat="47.05095" lon="-1.6353">
        <ele>52</ele>
        <time>2021-03-07T13:50:11.000Z</time>
      </trkpt>
      <trkpt lat="47.05105" lon="-1.63525">
        <ele>52</ele>
        <time>2021-03-07T13:50:13.000Z</time>
      </trkpt>
      <trkpt lat="47.05114" lon="-1.63518">
        <ele>51</ele>
        <time>2021-03-07T13:50:15.000Z</time>
      </trkpt>
      <trkpt lat="47.05121" lon="-1.63507">
        <ele>51</ele>
        <time>2021-03-07T13:50:17.000Z</time>
      </trkpt>
      <trkpt lat="47.0513" lon="-1.635">
        <ele>51</ele>
        <time>2021-03-07T13:50:19.000Z</time>
      </trkpt>
      <trkpt lat="47.05142" lon="-1.63495">
        <ele>53</ele>
        <time>2021-03-07T13:50:21.000Z</time>
      </trkpt>
      <trkpt lat="47.05154" lon="-1.6349">
        <ele>53</ele>
        <time>2021-03-07T13:50:23.000Z</time>
      </trkpt>
      <trkpt lat="47.05166" lon="-1.63486">
        <ele>53</ele>
        <time>2021-03-07T13:50:25.000Z</time>
      </trkpt>
      <trkpt lat="47.05177" lon="-1.63481">
        <ele>53</ele>
        <time>2021-03-07T13:50:27.000Z</time>
      </trkpt>
      <trkpt lat="47.05195" lon="-1.63474">
        <ele>53</ele>
        <time>2021-03-07T13:50:30.000Z</time>
      </trkpt>
      <trkpt lat="47.05207" lon="-1.6347">
        <ele>53</ele>
        <time>2021-03-07T13:50:32.000Z</time>
      </trkpt>
      <trkpt lat="47.05219" lon="-1.63466">
        <ele>53</ele>
        <time>2021-03-07T13:50:34.000Z</time>
      </trkpt>
      <trkpt lat="47.05232" lon="-1.63459">
        <ele>49</ele>
        <time>2021-03-07T13:50:36.000Z</time>
      </trkpt>
      <trkpt lat="47.05243" lon="-1.63455">
        <ele>48</ele>
        <time>2021-03-07T13:50:38.000Z</time>
      </trkpt>
      <trkpt lat="47.05254" lon="-1.63453">
        <ele>49</ele>
        <time>2021-03-07T13:50:40.000Z</time>
      </trkpt>
      <trkpt lat="47.05265" lon="-1.63452">
        <ele>50</ele>
        <time>2021-03-07T13:50:42.000Z</time>
      </trkpt>
      <trkpt lat="47.05277" lon="-1.63449">
        <ele>51</ele>
        <time>2021-03-07T13:50:44.000Z</time>
      </trkpt>
      <trkpt lat="47.05289" lon="-1.63448">
        <ele>51</ele>
        <time>2021-03-07T13:50:46.000Z</time>
      </trkpt>
      <trkpt lat="47.05301" lon="-1.63446">
        <ele>51</ele>
        <time>2021-03-07T13:50:48.000Z</time>
      </trkpt>
      <trkpt lat="47.05313" lon="-1.63444">
        <ele>51</ele>
        <time>2021-03-07T13:50:50.000Z</time>
      </trkpt>
      <trkpt lat="47.05324" lon="-1.63443">
        <ele>51</ele>
        <time>2021-03-07T13:50:52.000Z</time>
      </trkpt>
      <trkpt lat="47.05336" lon="-1.63443">
        <ele>51</ele>
        <time>2021-03-07T13:50:54.000Z</time>
      </trkpt>
      <trkpt lat="47.05354" lon="-1.63441">
        <ele>51</ele>
        <time>2021-03-07T13:50:57.000Z</time>
      </trkpt>
      <trkpt lat="47.05364" lon="-1.63433">
        <ele>51</ele>
        <time>2021-03-07T13:50:59.000Z</time>
      </trkpt>
      <trkpt lat="47.05375" lon="-1.63426">
        <ele>52</ele>
        <time>2021-03-07T13:51:01.000Z</time>
      </trkpt>
      <trkpt lat="47.05391" lon="-1.6343">
        <ele>52</ele>
        <time>2021-03-07T13:51:04.000Z</time>
      </trkpt>
      <trkpt lat="47.0541" lon="-1.63431">
        <ele>51</ele>
        <time>2021-03-07T13:51:07.000Z</time>
      </trkpt>
      <trkpt lat="47.05422" lon="-1.6343">
        <ele>52</ele>
        <time>2021-03-07T13:51:09.000Z</time>
      </trkpt>
      <trkpt lat="47.05435" lon="-1.63424">
        <ele>52</ele>
        <time>2021-03-07T13:51:11.000Z</time>
      </trkpt>
      <trkpt lat="47.05452" lon="-1.63421">
        <ele>53</ele>
        <time>2021-03-07T13:51:14.000Z</time>
      </trkpt>
      <trkpt lat="47.05465" lon="-1.6342">
        <ele>53</ele>
        <time>2021-03-07T13:51:16.000Z</time>
      </trkpt>
      <trkpt lat="47.05477" lon="-1.63418">
        <ele>52</ele>
        <time>2021-03-07T13:51:18.000Z</time>
      </trkpt>
      <trkpt lat="47.0549" lon="-1.63416">
        <ele>52</ele>
        <time>2021-03-07T13:51:20.000Z</time>
      </trkpt>
      <trkpt lat="47.05503" lon="-1.63414">
        <ele>53</ele>
        <time>2021-03-07T13:51:22.000Z</time>
      </trkpt>
      <trkpt lat="47.05516" lon="-1.63412">
        <ele>53</ele>
        <time>2021-03-07T13:51:24.000Z</time>
      </trkpt>
      <trkpt lat="47.05529" lon="-1.63407">
        <ele>53</ele>
        <time>2021-03-07T13:51:26.000Z</time>
      </trkpt>
      <trkpt lat="47.05542" lon="-1.63404">
        <ele>53</ele>
        <time>2021-03-07T13:51:28.000Z</time>
      </trkpt>
      <trkpt lat="47.05555" lon="-1.634">
        <ele>53</ele>
        <time>2021-03-07T13:51:30.000Z</time>
      </trkpt>
      <trkpt lat="47.05567" lon="-1.63395">
        <ele>53</ele>
        <time>2021-03-07T13:51:32.000Z</time>
      </trkpt>
      <trkpt lat="47.05579" lon="-1.6339">
        <ele>54</ele>
        <time>2021-03-07T13:51:34.000Z</time>
      </trkpt>
      <trkpt lat="47.05591" lon="-1.63385">
        <ele>53</ele>
        <time>2021-03-07T13:51:36.000Z</time>
      </trkpt>
      <trkpt lat="47.05603" lon="-1.63379">
        <ele>53</ele>
        <time>2021-03-07T13:51:38.000Z</time>
      </trkpt>
      <trkpt lat="47.05619" lon="-1.6337">
        <ele>53</ele>
        <time>2021-03-07T13:51:41.000Z</time>
      </trkpt>
      <trkpt lat="47.05631" lon="-1.63365">
        <ele>53</ele>
        <time>2021-03-07T13:51:43.000Z</time>
      </trkpt>
      <trkpt lat="47.05647" lon="-1.63357">
        <ele>52</ele>
        <time>2021-03-07T13:51:46.000Z</time>
      </trkpt>
      <trkpt lat="47.0566" lon="-1.63352">
        <ele>53</ele>
        <time>2021-03-07T13:51:48.000Z</time>
      </trkpt>
      <trkpt lat="47.05676" lon="-1.63343">
        <ele>53</ele>
        <time>2021-03-07T13:51:51.000Z</time>
      </trkpt>
      <trkpt lat="47.05688" lon="-1.63339">
        <ele>52</ele>
        <time>2021-03-07T13:51:53.000Z</time>
      </trkpt>
      <trkpt lat="47.05704" lon="-1.63329">
        <ele>50</ele>
        <time>2021-03-07T13:51:56.000Z</time>
      </trkpt>
      <trkpt lat="47.05716" lon="-1.63322">
        <ele>49</ele>
        <time>2021-03-07T13:51:58.000Z</time>
      </trkpt>
      <trkpt lat="47.05728" lon="-1.63318">
        <ele>48</ele>
        <time>2021-03-07T13:52:00.000Z</time>
      </trkpt>
      <trkpt lat="47.05743" lon="-1.63311">
        <ele>48</ele>
        <time>2021-03-07T13:52:03.000Z</time>
      </trkpt>
      <trkpt lat="47.05754" lon="-1.63307">
        <ele>48</ele>
        <time>2021-03-07T13:52:05.000Z</time>
      </trkpt>
      <trkpt lat="47.05767" lon="-1.63302">
        <ele>50</ele>
        <time>2021-03-07T13:52:07.000Z</time>
      </trkpt>
      <trkpt lat="47.05779" lon="-1.63296">
        <ele>50</ele>
        <time>2021-03-07T13:52:09.000Z</time>
      </trkpt>
      <trkpt lat="47.05796" lon="-1.63287">
        <ele>50</ele>
        <time>2021-03-07T13:52:12.000Z</time>
      </trkpt>
      <trkpt lat="47.05805" lon="-1.63281">
        <ele>50</ele>
        <time>2021-03-07T13:52:14.000Z</time>
      </trkpt>
      <trkpt lat="47.05817" lon="-1.63276">
        <ele>51</ele>
        <time>2021-03-07T13:52:16.000Z</time>
      </trkpt>
      <trkpt lat="47.05835" lon="-1.63268">
        <ele>51</ele>
        <time>2021-03-07T13:52:19.000Z</time>
      </trkpt>
      <trkpt lat="47.05847" lon="-1.63263">
        <ele>51</ele>
        <time>2021-03-07T13:52:21.000Z</time>
      </trkpt>
      <trkpt lat="47.05858" lon="-1.63257">
        <ele>51</ele>
        <time>2021-03-07T13:52:23.000Z</time>
      </trkpt>
      <trkpt lat="47.05869" lon="-1.63252">
        <ele>51</ele>
        <time>2021-03-07T13:52:25.000Z</time>
      </trkpt>
      <trkpt lat="47.05881" lon="-1.63245">
        <ele>51</ele>
        <time>2021-03-07T13:52:27.000Z</time>
      </trkpt>
      <trkpt lat="47.05897" lon="-1.63237">
        <ele>52</ele>
        <time>2021-03-07T13:52:30.000Z</time>
      </trkpt>
      <trkpt lat="47.05909" lon="-1.63229">
        <ele>48</ele>
        <time>2021-03-07T13:52:32.000Z</time>
      </trkpt>
      <trkpt lat="47.0592" lon="-1.63226">
        <ele>49</ele>
        <time>2021-03-07T13:52:34.000Z</time>
      </trkpt>
      <trkpt lat="47.05931" lon="-1.63221">
        <ele>50</ele>
        <time>2021-03-07T13:52:36.000Z</time>
      </trkpt>
      <trkpt lat="47.05941" lon="-1.63216">
        <ele>50</ele>
        <time>2021-03-07T13:52:38.000Z</time>
      </trkpt>
      <trkpt lat="47.05953" lon="-1.63212">
        <ele>51</ele>
        <time>2021-03-07T13:52:40.000Z</time>
      </trkpt>
      <trkpt lat="47.05965" lon="-1.63207">
        <ele>51</ele>
        <time>2021-03-07T13:52:42.000Z</time>
      </trkpt>
      <trkpt lat="47.05975" lon="-1.63201">
        <ele>48</ele>
        <time>2021-03-07T13:52:44.000Z</time>
      </trkpt>
      <trkpt lat="47.05986" lon="-1.63193">
        <ele>48</ele>
        <time>2021-03-07T13:52:46.000Z</time>
      </trkpt>
      <trkpt lat="47.05996" lon="-1.6319">
        <ele>49</ele>
        <time>2021-03-07T13:52:48.000Z</time>
      </trkpt>
      <trkpt lat="47.06008" lon="-1.63185">
        <ele>50</ele>
        <time>2021-03-07T13:52:50.000Z</time>
      </trkpt>
      <trkpt lat="47.0602" lon="-1.6318">
        <ele>50</ele>
        <time>2021-03-07T13:52:52.000Z</time>
      </trkpt>
      <trkpt lat="47.06031" lon="-1.63177">
        <ele>51</ele>
        <time>2021-03-07T13:52:54.000Z</time>
      </trkpt>
      <trkpt lat="47.06043" lon="-1.63175">
        <ele>52</ele>
        <time>2021-03-07T13:52:56.000Z</time>
      </trkpt>
      <trkpt lat="47.06052" lon="-1.63176">
        <ele>52</ele>
        <time>2021-03-07T13:52:58.000Z</time>
      </trkpt>
      <trkpt lat="47.06055" lon="-1.63193">
        <ele>52</ele>
        <time>2021-03-07T13:53:00.000Z</time>
      </trkpt>
      <trkpt lat="47.06052" lon="-1.6321">
        <ele>51</ele>
        <time>2021-03-07T13:53:02.000Z</time>
      </trkpt>
      <trkpt lat="47.06048" lon="-1.63237">
        <ele>51</ele>
        <time>2021-03-07T13:53:05.000Z</time>
      </trkpt>
      <trkpt lat="47.06044" lon="-1.63255">
        <ele>52</ele>
        <time>2021-03-07T13:53:07.000Z</time>
      </trkpt>
      <trkpt lat="47.06041" lon="-1.63273">
        <ele>52</ele>
        <time>2021-03-07T13:53:09.000Z</time>
      </trkpt>
      <trkpt lat="47.06039" lon="-1.63291">
        <ele>52</ele>
        <time>2021-03-07T13:53:11.000Z</time>
      </trkpt>
      <trkpt lat="47.06039" lon="-1.63308">
        <ele>51</ele>
        <time>2021-03-07T13:53:13.000Z</time>
      </trkpt>
      <trkpt lat="47.06046" lon="-1.6332">
        <ele>48</ele>
        <time>2021-03-07T13:53:15.000Z</time>
      </trkpt>
      <trkpt lat="47.06065" lon="-1.63326">
        <ele>48</ele>
        <time>2021-03-07T13:53:18.000Z</time>
      </trkpt>
      <trkpt lat="47.06079" lon="-1.63328">
        <ele>48</ele>
        <time>2021-03-07T13:53:20.000Z</time>
      </trkpt>
      <trkpt lat="47.06097" lon="-1.63337">
        <ele>50</ele>
        <time>2021-03-07T13:53:23.000Z</time>
      </trkpt>
      <trkpt lat="47.0611" lon="-1.63341">
        <ele>48</ele>
        <time>2021-03-07T13:53:25.000Z</time>
      </trkpt>
      <trkpt lat="47.0612" lon="-1.63346">
        <ele>49</ele>
        <time>2021-03-07T13:53:27.000Z</time>
      </trkpt>
      <trkpt lat="47.06132" lon="-1.6335">
        <ele>50</ele>
        <time>2021-03-07T13:53:29.000Z</time>
      </trkpt>
      <trkpt lat="47.0615" lon="-1.63357">
        <ele>52</ele>
        <time>2021-03-07T13:53:32.000Z</time>
      </trkpt>
      <trkpt lat="47.06161" lon="-1.63357">
        <ele>49</ele>
        <time>2021-03-07T13:53:34.000Z</time>
      </trkpt>
      <trkpt lat="47.06172" lon="-1.63358">
        <ele>50</ele>
        <time>2021-03-07T13:53:36.000Z</time>
      </trkpt>
      <trkpt lat="47.06183" lon="-1.63363">
        <ele>53</ele>
        <time>2021-03-07T13:53:38.000Z</time>
      </trkpt>
      <trkpt lat="47.06194" lon="-1.6337">
        <ele>54</ele>
        <time>2021-03-07T13:53:40.000Z</time>
      </trkpt>
      <trkpt lat="47.06206" lon="-1.63379">
        <ele>54</ele>
        <time>2021-03-07T13:53:42.000Z</time>
      </trkpt>
      <trkpt lat="47.06218" lon="-1.63384">
        <ele>54</ele>
        <time>2021-03-07T13:53:44.000Z</time>
      </trkpt>
      <trkpt lat="47.06231" lon="-1.63389">
        <ele>53</ele>
        <time>2021-03-07T13:53:46.000Z</time>
      </trkpt>
      <trkpt lat="47.06243" lon="-1.63393">
        <ele>53</ele>
        <time>2021-03-07T13:53:48.000Z</time>
      </trkpt>
      <trkpt lat="47.06254" lon="-1.63396">
        <ele>54</ele>
        <time>2021-03-07T13:53:50.000Z</time>
      </trkpt>
      <trkpt lat="47.06266" lon="-1.63401">
        <ele>54</ele>
        <time>2021-03-07T13:53:52.000Z</time>
      </trkpt>
      <trkpt lat="47.06283" lon="-1.63407">
        <ele>55</ele>
        <time>2021-03-07T13:53:55.000Z</time>
      </trkpt>
      <trkpt lat="47.06293" lon="-1.6341">
        <ele>51</ele>
        <time>2021-03-07T13:53:57.000Z</time>
      </trkpt>
      <trkpt lat="47.06304" lon="-1.63413">
        <ele>52</ele>
        <time>2021-03-07T13:53:59.000Z</time>
      </trkpt>
      <trkpt lat="47.06316" lon="-1.63417">
        <ele>51</ele>
        <time>2021-03-07T13:54:01.000Z</time>
      </trkpt>
      <trkpt lat="47.06331" lon="-1.63436">
        <ele>51</ele>
        <time>2021-03-07T13:54:04.000Z</time>
      </trkpt>
      <trkpt lat="47.0634" lon="-1.63445">
        <ele>52</ele>
        <time>2021-03-07T13:54:06.000Z</time>
      </trkpt>
      <trkpt lat="47.06349" lon="-1.63458">
        <ele>49</ele>
        <time>2021-03-07T13:54:08.000Z</time>
      </trkpt>
      <trkpt lat="47.06359" lon="-1.63473">
        <ele>50</ele>
        <time>2021-03-07T13:54:10.000Z</time>
      </trkpt>
      <trkpt lat="47.06372" lon="-1.63493">
        <ele>51</ele>
        <time>2021-03-07T13:54:13.000Z</time>
      </trkpt>
      <trkpt lat="47.06379" lon="-1.6351">
        <ele>51</ele>
        <time>2021-03-07T13:54:15.000Z</time>
      </trkpt>
      <trkpt lat="47.06388" lon="-1.63523">
        <ele>51</ele>
        <time>2021-03-07T13:54:17.000Z</time>
      </trkpt>
      <trkpt lat="47.06398" lon="-1.63534">
        <ele>51</ele>
        <time>2021-03-07T13:54:19.000Z</time>
      </trkpt>
      <trkpt lat="47.06408" lon="-1.63542">
        <ele>52</ele>
        <time>2021-03-07T13:54:21.000Z</time>
      </trkpt>
      <trkpt lat="47.06419" lon="-1.63552">
        <ele>51</ele>
        <time>2021-03-07T13:54:23.000Z</time>
      </trkpt>
      <trkpt lat="47.06429" lon="-1.63561">
        <ele>51</ele>
        <time>2021-03-07T13:54:25.000Z</time>
      </trkpt>
      <trkpt lat="47.06439" lon="-1.6357">
        <ele>52</ele>
        <time>2021-03-07T13:54:27.000Z</time>
      </trkpt>
      <trkpt lat="47.06449" lon="-1.63578">
        <ele>52</ele>
        <time>2021-03-07T13:54:29.000Z</time>
      </trkpt>
      <trkpt lat="47.06461" lon="-1.63589">
        <ele>52</ele>
        <time>2021-03-07T13:54:31.000Z</time>
      </trkpt>
      <trkpt lat="47.06472" lon="-1.63598">
        <ele>53</ele>
        <time>2021-03-07T13:54:33.000Z</time>
      </trkpt>
      <trkpt lat="47.06487" lon="-1.6361">
        <ele>53</ele>
        <time>2021-03-07T13:54:36.000Z</time>
      </trkpt>
      <trkpt lat="47.06498" lon="-1.63618">
        <ele>53</ele>
        <time>2021-03-07T13:54:38.000Z</time>
      </trkpt>
      <trkpt lat="47.06514" lon="-1.63629">
        <ele>51</ele>
        <time>2021-03-07T13:54:41.000Z</time>
      </trkpt>
      <trkpt lat="47.06526" lon="-1.63638">
        <ele>52</ele>
        <time>2021-03-07T13:54:43.000Z</time>
      </trkpt>
      <trkpt lat="47.06538" lon="-1.63642">
        <ele>49</ele>
        <time>2021-03-07T13:54:45.000Z</time>
      </trkpt>
      <trkpt lat="47.06548" lon="-1.6365">
        <ele>50</ele>
        <time>2021-03-07T13:54:47.000Z</time>
      </trkpt>
      <trkpt lat="47.06558" lon="-1.6366">
        <ele>51</ele>
        <time>2021-03-07T13:54:49.000Z</time>
      </trkpt>
      <trkpt lat="47.06574" lon="-1.63673">
        <ele>51</ele>
        <time>2021-03-07T13:54:52.000Z</time>
      </trkpt>
      <trkpt lat="47.06587" lon="-1.63686">
        <ele>48</ele>
        <time>2021-03-07T13:54:54.000Z</time>
      </trkpt>
      <trkpt lat="47.06598" lon="-1.63697">
        <ele>48</ele>
        <time>2021-03-07T13:54:56.000Z</time>
      </trkpt>
      <trkpt lat="47.06607" lon="-1.63707">
        <ele>47</ele>
        <time>2021-03-07T13:54:58.000Z</time>
      </trkpt>
      <trkpt lat="47.06615" lon="-1.63719">
        <ele>48</ele>
        <time>2021-03-07T13:55:00.000Z</time>
      </trkpt>
      <trkpt lat="47.06624" lon="-1.63732">
        <ele>49</ele>
        <time>2021-03-07T13:55:02.000Z</time>
      </trkpt>
      <trkpt lat="47.06637" lon="-1.6375">
        <ele>48</ele>
        <time>2021-03-07T13:55:05.000Z</time>
      </trkpt>
      <trkpt lat="47.06645" lon="-1.63758">
        <ele>48</ele>
        <time>2021-03-07T13:55:07.000Z</time>
      </trkpt>
      <trkpt lat="47.06655" lon="-1.63771">
        <ele>48</ele>
        <time>2021-03-07T13:55:09.000Z</time>
      </trkpt>
      <trkpt lat="47.06664" lon="-1.63784">
        <ele>49</ele>
        <time>2021-03-07T13:55:11.000Z</time>
      </trkpt>
      <trkpt lat="47.06673" lon="-1.63796">
        <ele>50</ele>
        <time>2021-03-07T13:55:13.000Z</time>
      </trkpt>
      <trkpt lat="47.06682" lon="-1.63806">
        <ele>49</ele>
        <time>2021-03-07T13:55:15.000Z</time>
      </trkpt>
      <trkpt lat="47.06691" lon="-1.63818">
        <ele>49</ele>
        <time>2021-03-07T13:55:17.000Z</time>
      </trkpt>
      <trkpt lat="47.067" lon="-1.6383">
        <ele>50</ele>
        <time>2021-03-07T13:55:19.000Z</time>
      </trkpt>
      <trkpt lat="47.06717" lon="-1.63839">
        <ele>49</ele>
        <time>2021-03-07T13:55:22.000Z</time>
      </trkpt>
      <trkpt lat="47.0673" lon="-1.63834">
        <ele>49</ele>
        <time>2021-03-07T13:55:24.000Z</time>
      </trkpt>
      <trkpt lat="47.06741" lon="-1.63826">
        <ele>47</ele>
        <time>2021-03-07T13:55:26.000Z</time>
      </trkpt>
      <trkpt lat="47.06751" lon="-1.63814">
        <ele>47</ele>
        <time>2021-03-07T13:55:28.000Z</time>
      </trkpt>
      <trkpt lat="47.06766" lon="-1.63795">
        <ele>45</ele>
        <time>2021-03-07T13:55:31.000Z</time>
      </trkpt>
      <trkpt lat="47.06775" lon="-1.63785">
        <ele>47</ele>
        <time>2021-03-07T13:55:33.000Z</time>
      </trkpt>
      <trkpt lat="47.06785" lon="-1.63776">
        <ele>46</ele>
        <time>2021-03-07T13:55:35.000Z</time>
      </trkpt>
      <trkpt lat="47.06793" lon="-1.63767">
        <ele>47</ele>
        <time>2021-03-07T13:55:37.000Z</time>
      </trkpt>
      <trkpt lat="47.06809" lon="-1.63753">
        <ele>47</ele>
        <time>2021-03-07T13:55:40.000Z</time>
      </trkpt>
      <trkpt lat="47.06825" lon="-1.63736">
        <ele>48</ele>
        <time>2021-03-07T13:55:43.000Z</time>
      </trkpt>
      <trkpt lat="47.06834" lon="-1.63722">
        <ele>48</ele>
        <time>2021-03-07T13:55:45.000Z</time>
      </trkpt>
      <trkpt lat="47.06841" lon="-1.63706">
        <ele>48</ele>
        <time>2021-03-07T13:55:47.000Z</time>
      </trkpt>
      <trkpt lat="47.06846" lon="-1.63689">
        <ele>48</ele>
        <time>2021-03-07T13:55:49.000Z</time>
      </trkpt>
      <trkpt lat="47.0685" lon="-1.63671">
        <ele>48</ele>
        <time>2021-03-07T13:55:51.000Z</time>
      </trkpt>
      <trkpt lat="47.06853" lon="-1.63655">
        <ele>47</ele>
        <time>2021-03-07T13:55:53.000Z</time>
      </trkpt>
      <trkpt lat="47.06855" lon="-1.63637">
        <ele>47</ele>
        <time>2021-03-07T13:55:55.000Z</time>
      </trkpt>
      <trkpt lat="47.06856" lon="-1.63619">
        <ele>47</ele>
        <time>2021-03-07T13:55:57.000Z</time>
      </trkpt>
      <trkpt lat="47.06858" lon="-1.63592">
        <ele>46</ele>
        <time>2021-03-07T13:56:00.000Z</time>
      </trkpt>
      <trkpt lat="47.06858" lon="-1.63574">
        <ele>46</ele>
        <time>2021-03-07T13:56:02.000Z</time>
      </trkpt>
      <trkpt lat="47.0686" lon="-1.63554">
        <ele>47</ele>
        <time>2021-03-07T13:56:04.000Z</time>
      </trkpt>
      <trkpt lat="47.06866" lon="-1.63527">
        <ele>47</ele>
        <time>2021-03-07T13:56:07.000Z</time>
      </trkpt>
      <trkpt lat="47.0687" lon="-1.6351">
        <ele>47</ele>
        <time>2021-03-07T13:56:09.000Z</time>
      </trkpt>
      <trkpt lat="47.06879" lon="-1.63484">
        <ele>48</ele>
        <time>2021-03-07T13:56:12.000Z</time>
      </trkpt>
      <trkpt lat="47.06892" lon="-1.63468">
        <ele>48</ele>
        <time>2021-03-07T13:56:15.000Z</time>
      </trkpt>
      <trkpt lat="47.06908" lon="-1.63455">
        <ele>50</ele>
        <time>2021-03-07T13:56:18.000Z</time>
      </trkpt>
      <trkpt lat="47.06923" lon="-1.63443">
        <ele>52</ele>
        <time>2021-03-07T13:56:21.000Z</time>
      </trkpt>
      <trkpt lat="47.06935" lon="-1.63438">
        <ele>52</ele>
        <time>2021-03-07T13:56:23.000Z</time>
      </trkpt>
      <trkpt lat="47.06946" lon="-1.63431">
        <ele>51</ele>
        <time>2021-03-07T13:56:25.000Z</time>
      </trkpt>
      <trkpt lat="47.06962" lon="-1.63415">
        <ele>48</ele>
        <time>2021-03-07T13:56:28.000Z</time>
      </trkpt>
      <trkpt lat="47.06978" lon="-1.63402">
        <ele>48</ele>
        <time>2021-03-07T13:56:31.000Z</time>
      </trkpt>
      <trkpt lat="47.06989" lon="-1.63393">
        <ele>48</ele>
        <time>2021-03-07T13:56:33.000Z</time>
      </trkpt>
      <trkpt lat="47.06999" lon="-1.63384">
        <ele>48</ele>
        <time>2021-03-07T13:56:35.000Z</time>
      </trkpt>
      <trkpt lat="47.07008" lon="-1.63374">
        <ele>45</ele>
        <time>2021-03-07T13:56:37.000Z</time>
      </trkpt>
      <trkpt lat="47.07017" lon="-1.63365">
        <ele>46</ele>
        <time>2021-03-07T13:56:39.000Z</time>
      </trkpt>
      <trkpt lat="47.07028" lon="-1.63355">
        <ele>47</ele>
        <time>2021-03-07T13:56:41.000Z</time>
      </trkpt>
      <trkpt lat="47.07038" lon="-1.63344">
        <ele>48</ele>
        <time>2021-03-07T13:56:43.000Z</time>
      </trkpt>
      <trkpt lat="47.07053" lon="-1.63325">
        <ele>47</ele>
        <time>2021-03-07T13:56:46.000Z</time>
      </trkpt>
      <trkpt lat="47.07066" lon="-1.63305">
        <ele>48</ele>
        <time>2021-03-07T13:56:49.000Z</time>
      </trkpt>
      <trkpt lat="47.07072" lon="-1.63289">
        <ele>48</ele>
        <time>2021-03-07T13:56:51.000Z</time>
      </trkpt>
      <trkpt lat="47.07077" lon="-1.63272">
        <ele>48</ele>
        <time>2021-03-07T13:56:53.000Z</time>
      </trkpt>
      <trkpt lat="47.07082" lon="-1.63255">
        <ele>48</ele>
        <time>2021-03-07T13:56:55.000Z</time>
      </trkpt>
      <trkpt lat="47.07085" lon="-1.63237">
        <ele>48</ele>
        <time>2021-03-07T13:56:57.000Z</time>
      </trkpt>
      <trkpt lat="47.07086" lon="-1.63208">
        <ele>45</ele>
        <time>2021-03-07T13:57:00.000Z</time>
      </trkpt>
      <trkpt lat="47.07084" lon="-1.63189">
        <ele>46</ele>
        <time>2021-03-07T13:57:02.000Z</time>
      </trkpt>
      <trkpt lat="47.07087" lon="-1.63172">
        <ele>47</ele>
        <time>2021-03-07T13:57:04.000Z</time>
      </trkpt>
      <trkpt lat="47.07094" lon="-1.63148">
        <ele>47</ele>
        <time>2021-03-07T13:57:07.000Z</time>
      </trkpt>
      <trkpt lat="47.07106" lon="-1.63138">
        <ele>47</ele>
        <time>2021-03-07T13:57:09.000Z</time>
      </trkpt>
      <trkpt lat="47.07119" lon="-1.6313">
        <ele>48</ele>
        <time>2021-03-07T13:57:11.000Z</time>
      </trkpt>
      <trkpt lat="47.07131" lon="-1.63122">
        <ele>48</ele>
        <time>2021-03-07T13:57:13.000Z</time>
      </trkpt>
      <trkpt lat="47.07142" lon="-1.63117">
        <ele>46</ele>
        <time>2021-03-07T13:57:15.000Z</time>
      </trkpt>
      <trkpt lat="47.07152" lon="-1.63113">
        <ele>46</ele>
        <time>2021-03-07T13:57:17.000Z</time>
      </trkpt>
      <trkpt lat="47.07163" lon="-1.63112">
        <ele>48</ele>
        <time>2021-03-07T13:57:19.000Z</time>
      </trkpt>
      <trkpt lat="47.07174" lon="-1.63113">
        <ele>49</ele>
        <time>2021-03-07T13:57:21.000Z</time>
      </trkpt>
      <trkpt lat="47.07189" lon="-1.63117">
        <ele>49</ele>
        <time>2021-03-07T13:57:23.000Z</time>
      </trkpt>
      <trkpt lat="47.07201" lon="-1.63124">
        <ele>50</ele>
        <time>2021-03-07T13:57:25.000Z</time>
      </trkpt>
      <trkpt lat="47.07213" lon="-1.63132">
        <ele>51</ele>
        <time>2021-03-07T13:57:27.000Z</time>
      </trkpt>
      <trkpt lat="47.07225" lon="-1.63142">
        <ele>51</ele>
        <time>2021-03-07T13:57:29.000Z</time>
      </trkpt>
      <trkpt lat="47.07239" lon="-1.63152">
        <ele>50</ele>
        <time>2021-03-07T13:57:31.000Z</time>
      </trkpt>
      <trkpt lat="47.0725" lon="-1.6316">
        <ele>51</ele>
        <time>2021-03-07T13:57:33.000Z</time>
      </trkpt>
      <trkpt lat="47.0726" lon="-1.63171">
        <ele>52</ele>
        <time>2021-03-07T13:57:35.000Z</time>
      </trkpt>
      <trkpt lat="47.0727" lon="-1.63181">
        <ele>53</ele>
        <time>2021-03-07T13:57:37.000Z</time>
      </trkpt>
      <trkpt lat="47.07279" lon="-1.63192">
        <ele>52</ele>
        <time>2021-03-07T13:57:39.000Z</time>
      </trkpt>
      <trkpt lat="47.07288" lon="-1.63206">
        <ele>52</ele>
        <time>2021-03-07T13:57:41.000Z</time>
      </trkpt>
      <trkpt lat="47.07297" lon="-1.63223">
        <ele>52</ele>
        <time>2021-03-07T13:57:43.000Z</time>
      </trkpt>
      <trkpt lat="47.07305" lon="-1.63236">
        <ele>51</ele>
        <time>2021-03-07T13:57:45.000Z</time>
      </trkpt>
      <trkpt lat="47.07314" lon="-1.63247">
        <ele>51</ele>
        <time>2021-03-07T13:57:47.000Z</time>
      </trkpt>
      <trkpt lat="47.07322" lon="-1.63258">
        <ele>51</ele>
        <time>2021-03-07T13:57:49.000Z</time>
      </trkpt>
      <trkpt lat="47.0733" lon="-1.63268">
        <ele>51</ele>
        <time>2021-03-07T13:57:51.000Z</time>
      </trkpt>
      <trkpt lat="47.0734" lon="-1.63279">
        <ele>51</ele>
        <time>2021-03-07T13:57:53.000Z</time>
      </trkpt>
      <trkpt lat="47.07351" lon="-1.63286">
        <ele>51</ele>
        <time>2021-03-07T13:57:55.000Z</time>
      </trkpt>
      <trkpt lat="47.07362" lon="-1.63295">
        <ele>52</ele>
        <time>2021-03-07T13:57:57.000Z</time>
      </trkpt>
      <trkpt lat="47.07379" lon="-1.63308">
        <ele>50</ele>
        <time>2021-03-07T13:58:00.000Z</time>
      </trkpt>
      <trkpt lat="47.07389" lon="-1.63315">
        <ele>51</ele>
        <time>2021-03-07T13:58:02.000Z</time>
      </trkpt>
      <trkpt lat="47.07399" lon="-1.63323">
        <ele>51</ele>
        <time>2021-03-07T13:58:04.000Z</time>
      </trkpt>
      <trkpt lat="47.0741" lon="-1.6333">
        <ele>52</ele>
        <time>2021-03-07T13:58:06.000Z</time>
      </trkpt>
      <trkpt lat="47.07428" lon="-1.63342">
        <ele>50</ele>
        <time>2021-03-07T13:58:09.000Z</time>
      </trkpt>
      <trkpt lat="47.0744" lon="-1.63351">
        <ele>50</ele>
        <time>2021-03-07T13:58:11.000Z</time>
      </trkpt>
      <trkpt lat="47.07451" lon="-1.63357">
        <ele>49</ele>
        <time>2021-03-07T13:58:13.000Z</time>
      </trkpt>
      <trkpt lat="47.07463" lon="-1.63364">
        <ele>48</ele>
        <time>2021-03-07T13:58:15.000Z</time>
      </trkpt>
      <trkpt lat="47.07473" lon="-1.6337">
        <ele>49</ele>
        <time>2021-03-07T13:58:17.000Z</time>
      </trkpt>
      <trkpt lat="47.07484" lon="-1.63377">
        <ele>50</ele>
        <time>2021-03-07T13:58:19.000Z</time>
      </trkpt>
      <trkpt lat="47.07496" lon="-1.63384">
        <ele>51</ele>
        <time>2021-03-07T13:58:21.000Z</time>
      </trkpt>
      <trkpt lat="47.0751" lon="-1.63393">
        <ele>47</ele>
        <time>2021-03-07T13:58:23.000Z</time>
      </trkpt>
      <trkpt lat="47.0752" lon="-1.63399">
        <ele>48</ele>
        <time>2021-03-07T13:58:25.000Z</time>
      </trkpt>
      <trkpt lat="47.07531" lon="-1.63406">
        <ele>48</ele>
        <time>2021-03-07T13:58:27.000Z</time>
      </trkpt>
      <trkpt lat="47.07542" lon="-1.63413">
        <ele>49</ele>
        <time>2021-03-07T13:58:29.000Z</time>
      </trkpt>
      <trkpt lat="47.07555" lon="-1.63419">
        <ele>48</ele>
        <time>2021-03-07T13:58:31.000Z</time>
      </trkpt>
      <trkpt lat="47.07565" lon="-1.63424">
        <ele>49</ele>
        <time>2021-03-07T13:58:33.000Z</time>
      </trkpt>
      <trkpt lat="47.07576" lon="-1.63428">
        <ele>49</ele>
        <time>2021-03-07T13:58:35.000Z</time>
      </trkpt>
      <trkpt lat="47.07588" lon="-1.63432">
        <ele>50</ele>
        <time>2021-03-07T13:58:37.000Z</time>
      </trkpt>
      <trkpt lat="47.076" lon="-1.63433">
        <ele>49</ele>
        <time>2021-03-07T13:58:39.000Z</time>
      </trkpt>
      <trkpt lat="47.07611" lon="-1.6343">
        <ele>48</ele>
        <time>2021-03-07T13:58:41.000Z</time>
      </trkpt>
      <trkpt lat="47.07622" lon="-1.63427">
        <ele>48</ele>
        <time>2021-03-07T13:58:43.000Z</time>
      </trkpt>
      <trkpt lat="47.07633" lon="-1.63423">
        <ele>49</ele>
        <time>2021-03-07T13:58:45.000Z</time>
      </trkpt>
      <trkpt lat="47.07645" lon="-1.63417">
        <ele>46</ele>
        <time>2021-03-07T13:58:47.000Z</time>
      </trkpt>
      <trkpt lat="47.07662" lon="-1.63414">
        <ele>47</ele>
        <time>2021-03-07T13:58:50.000Z</time>
      </trkpt>
      <trkpt lat="47.07673" lon="-1.63412">
        <ele>47</ele>
        <time>2021-03-07T13:58:52.000Z</time>
      </trkpt>
      <trkpt lat="47.0769" lon="-1.63408">
        <ele>48</ele>
        <time>2021-03-07T13:58:55.000Z</time>
      </trkpt>
      <trkpt lat="47.07699" lon="-1.63402">
        <ele>49</ele>
        <time>2021-03-07T13:58:57.000Z</time>
      </trkpt>
      <trkpt lat="47.07708" lon="-1.63393">
        <ele>49</ele>
        <time>2021-03-07T13:58:59.000Z</time>
      </trkpt>
      <trkpt lat="47.07717" lon="-1.63382">
        <ele>50</ele>
        <time>2021-03-07T13:59:01.000Z</time>
      </trkpt>
      <trkpt lat="47.07726" lon="-1.63371">
        <ele>50</ele>
        <time>2021-03-07T13:59:03.000Z</time>
      </trkpt>
      <trkpt lat="47.07735" lon="-1.63361">
        <ele>50</ele>
        <time>2021-03-07T13:59:05.000Z</time>
      </trkpt>
      <trkpt lat="47.07743" lon="-1.6335">
        <ele>51</ele>
        <time>2021-03-07T13:59:07.000Z</time>
      </trkpt>
      <trkpt lat="47.07753" lon="-1.63339">
        <ele>51</ele>
        <time>2021-03-07T13:59:09.000Z</time>
      </trkpt>
      <trkpt lat="47.07762" lon="-1.63327">
        <ele>51</ele>
        <time>2021-03-07T13:59:11.000Z</time>
      </trkpt>
      <trkpt lat="47.07771" lon="-1.63316">
        <ele>51</ele>
        <time>2021-03-07T13:59:13.000Z</time>
      </trkpt>
      <trkpt lat="47.0778" lon="-1.63307">
        <ele>51</ele>
        <time>2021-03-07T13:59:15.000Z</time>
      </trkpt>
      <trkpt lat="47.07789" lon="-1.63297">
        <ele>51</ele>
        <time>2021-03-07T13:59:17.000Z</time>
      </trkpt>
      <trkpt lat="47.07797" lon="-1.63286">
        <ele>48</ele>
        <time>2021-03-07T13:59:19.000Z</time>
      </trkpt>
      <trkpt lat="47.07806" lon="-1.63274">
        <ele>49</ele>
        <time>2021-03-07T13:59:21.000Z</time>
      </trkpt>
      <trkpt lat="47.07815" lon="-1.63262">
        <ele>49</ele>
        <time>2021-03-07T13:59:23.000Z</time>
      </trkpt>
      <trkpt lat="47.07822" lon="-1.63249">
        <ele>50</ele>
        <time>2021-03-07T13:59:25.000Z</time>
      </trkpt>
      <trkpt lat="47.07825" lon="-1.63232">
        <ele>50</ele>
        <time>2021-03-07T13:59:27.000Z</time>
      </trkpt>
      <trkpt lat="47.07825" lon="-1.63215">
        <ele>51</ele>
        <time>2021-03-07T13:59:29.000Z</time>
      </trkpt>
      <trkpt lat="47.0782" lon="-1.632">
        <ele>51</ele>
        <time>2021-03-07T13:59:31.000Z</time>
      </trkpt>
      <trkpt lat="47.07812" lon="-1.63185">
        <ele>48</ele>
        <time>2021-03-07T13:59:33.000Z</time>
      </trkpt>
      <trkpt lat="47.078" lon="-1.63158">
        <ele>48</ele>
        <time>2021-03-07T13:59:37.000Z</time>
      </trkpt>
      <trkpt lat="47.07796" lon="-1.63145">
        <ele>48</ele>
        <time>2021-03-07T13:59:39.000Z</time>
      </trkpt>
      <trkpt lat="47.078" lon="-1.63128">
        <ele>49</ele>
        <time>2021-03-07T13:59:42.000Z</time>
      </trkpt>
      <trkpt lat="47.07809" lon="-1.63122">
        <ele>50</ele>
        <time>2021-03-07T13:59:44.000Z</time>
      </trkpt>
      <trkpt lat="47.07822" lon="-1.63122">
        <ele>50</ele>
        <time>2021-03-07T13:59:46.000Z</time>
      </trkpt>
      <trkpt lat="47.07835" lon="-1.63121">
        <ele>51</ele>
        <time>2021-03-07T13:59:48.000Z</time>
      </trkpt>
      <trkpt lat="47.07849" lon="-1.63121">
        <ele>52</ele>
        <time>2021-03-07T13:59:50.000Z</time>
      </trkpt>
      <trkpt lat="47.07862" lon="-1.63122">
        <ele>51</ele>
        <time>2021-03-07T13:59:52.000Z</time>
      </trkpt>
      <trkpt lat="47.07874" lon="-1.6312">
        <ele>51</ele>
        <time>2021-03-07T13:59:54.000Z</time>
      </trkpt>
      <trkpt lat="47.07885" lon="-1.63118">
        <ele>51</ele>
        <time>2021-03-07T13:59:56.000Z</time>
      </trkpt>
      <trkpt lat="47.07896" lon="-1.63118">
        <ele>51</ele>
        <time>2021-03-07T13:59:58.000Z</time>
      </trkpt>
      <trkpt lat="47.07908" lon="-1.63117">
        <ele>52</ele>
        <time>2021-03-07T14:00:00.000Z</time>
      </trkpt>
      <trkpt lat="47.07926" lon="-1.63115">
        <ele>52</ele>
        <time>2021-03-07T14:00:03.000Z</time>
      </trkpt>
      <trkpt lat="47.07937" lon="-1.63114">
        <ele>52</ele>
        <time>2021-03-07T14:00:05.000Z</time>
      </trkpt>
      <trkpt lat="47.07949" lon="-1.63112">
        <ele>52</ele>
        <time>2021-03-07T14:00:07.000Z</time>
      </trkpt>
      <trkpt lat="47.07961" lon="-1.6311">
        <ele>52</ele>
        <time>2021-03-07T14:00:09.000Z</time>
      </trkpt>
      <trkpt lat="47.07973" lon="-1.6311">
        <ele>50</ele>
        <time>2021-03-07T14:00:11.000Z</time>
      </trkpt>
      <trkpt lat="47.07984" lon="-1.63108">
        <ele>49</ele>
        <time>2021-03-07T14:00:13.000Z</time>
      </trkpt>
      <trkpt lat="47.07996" lon="-1.63106">
        <ele>50</ele>
        <time>2021-03-07T14:00:15.000Z</time>
      </trkpt>
      <trkpt lat="47.08007" lon="-1.63106">
        <ele>50</ele>
        <time>2021-03-07T14:00:17.000Z</time>
      </trkpt>
      <trkpt lat="47.0802" lon="-1.63106">
        <ele>50</ele>
        <time>2021-03-07T14:00:19.000Z</time>
      </trkpt>
      <trkpt lat="47.08032" lon="-1.63105">
        <ele>51</ele>
        <time>2021-03-07T14:00:21.000Z</time>
      </trkpt>
      <trkpt lat="47.08045" lon="-1.63104">
        <ele>51</ele>
        <time>2021-03-07T14:00:23.000Z</time>
      </trkpt>
      <trkpt lat="47.08057" lon="-1.63103">
        <ele>51</ele>
        <time>2021-03-07T14:00:25.000Z</time>
      </trkpt>
      <trkpt lat="47.08069" lon="-1.63102">
        <ele>51</ele>
        <time>2021-03-07T14:00:27.000Z</time>
      </trkpt>
      <trkpt lat="47.08081" lon="-1.63101">
        <ele>50</ele>
        <time>2021-03-07T14:00:29.000Z</time>
      </trkpt>
      <trkpt lat="47.08093" lon="-1.63099">
        <ele>50</ele>
        <time>2021-03-07T14:00:31.000Z</time>
      </trkpt>
      <trkpt lat="47.08122" lon="-1.63095">
        <ele>50</ele>
        <time>2021-03-07T14:00:36.000Z</time>
      </trkpt>
      <trkpt lat="47.08134" lon="-1.63094">
        <ele>50</ele>
        <time>2021-03-07T14:00:38.000Z</time>
      </trkpt>
      <trkpt lat="47.08146" lon="-1.63093">
        <ele>49</ele>
        <time>2021-03-07T14:00:40.000Z</time>
      </trkpt>
      <trkpt lat="47.08159" lon="-1.63092">
        <ele>50</ele>
        <time>2021-03-07T14:00:42.000Z</time>
      </trkpt>
      <trkpt lat="47.08171" lon="-1.6309">
        <ele>50</ele>
        <time>2021-03-07T14:00:44.000Z</time>
      </trkpt>
      <trkpt lat="47.08182" lon="-1.6309">
        <ele>49</ele>
        <time>2021-03-07T14:00:46.000Z</time>
      </trkpt>
      <trkpt lat="47.08194" lon="-1.63089">
        <ele>49</ele>
        <time>2021-03-07T14:00:48.000Z</time>
      </trkpt>
      <trkpt lat="47.08206" lon="-1.63088">
        <ele>49</ele>
        <time>2021-03-07T14:00:50.000Z</time>
      </trkpt>
      <trkpt lat="47.08219" lon="-1.63087">
        <ele>49</ele>
        <time>2021-03-07T14:00:52.000Z</time>
      </trkpt>
      <trkpt lat="47.08231" lon="-1.63086">
        <ele>49</ele>
        <time>2021-03-07T14:00:54.000Z</time>
      </trkpt>
      <trkpt lat="47.08249" lon="-1.63085">
        <ele>49</ele>
        <time>2021-03-07T14:00:57.000Z</time>
      </trkpt>
      <trkpt lat="47.08261" lon="-1.63084">
        <ele>49</ele>
        <time>2021-03-07T14:00:59.000Z</time>
      </trkpt>
      <trkpt lat="47.08272" lon="-1.63083">
        <ele>49</ele>
        <time>2021-03-07T14:01:01.000Z</time>
      </trkpt>
      <trkpt lat="47.0829" lon="-1.6308">
        <ele>49</ele>
        <time>2021-03-07T14:01:04.000Z</time>
      </trkpt>
      <trkpt lat="47.08308" lon="-1.63078">
        <ele>50</ele>
        <time>2021-03-07T14:01:07.000Z</time>
      </trkpt>
      <trkpt lat="47.0832" lon="-1.63076">
        <ele>51</ele>
        <time>2021-03-07T14:01:09.000Z</time>
      </trkpt>
      <trkpt lat="47.08332" lon="-1.63074">
        <ele>51</ele>
        <time>2021-03-07T14:01:11.000Z</time>
      </trkpt>
      <trkpt lat="47.08343" lon="-1.63074">
        <ele>48</ele>
        <time>2021-03-07T14:01:13.000Z</time>
      </trkpt>
      <trkpt lat="47.08355" lon="-1.63074">
        <ele>48</ele>
        <time>2021-03-07T14:01:15.000Z</time>
      </trkpt>
      <trkpt lat="47.08368" lon="-1.6307">
        <ele>49</ele>
        <time>2021-03-07T14:01:17.000Z</time>
      </trkpt>
      <trkpt lat="47.0838" lon="-1.63067">
        <ele>49</ele>
        <time>2021-03-07T14:01:19.000Z</time>
      </trkpt>
      <trkpt lat="47.08392" lon="-1.63063">
        <ele>47</ele>
        <time>2021-03-07T14:01:21.000Z</time>
      </trkpt>
      <trkpt lat="47.08406" lon="-1.63056">
        <ele>47</ele>
        <time>2021-03-07T14:01:23.000Z</time>
      </trkpt>
      <trkpt lat="47.08421" lon="-1.63039">
        <ele>47</ele>
        <time>2021-03-07T14:01:26.000Z</time>
      </trkpt>
      <trkpt lat="47.0843" lon="-1.63027">
        <ele>48</ele>
        <time>2021-03-07T14:01:28.000Z</time>
      </trkpt>
      <trkpt lat="47.08438" lon="-1.63013">
        <ele>48</ele>
        <time>2021-03-07T14:01:30.000Z</time>
      </trkpt>
      <trkpt lat="47.08446" lon="-1.63">
        <ele>49</ele>
        <time>2021-03-07T14:01:32.000Z</time>
      </trkpt>
      <trkpt lat="47.08455" lon="-1.62986">
        <ele>49</ele>
        <time>2021-03-07T14:01:34.000Z</time>
      </trkpt>
      <trkpt lat="47.08464" lon="-1.62973">
        <ele>49</ele>
        <time>2021-03-07T14:01:36.000Z</time>
      </trkpt>
      <trkpt lat="47.08472" lon="-1.62959">
        <ele>49</ele>
        <time>2021-03-07T14:01:38.000Z</time>
      </trkpt>
      <trkpt lat="47.0848" lon="-1.62945">
        <ele>49</ele>
        <time>2021-03-07T14:01:40.000Z</time>
      </trkpt>
      <trkpt lat="47.08491" lon="-1.62927">
        <ele>45</ele>
        <time>2021-03-07T14:01:43.000Z</time>
      </trkpt>
      <trkpt lat="47.08505" lon="-1.62906">
        <ele>47</ele>
        <time>2021-03-07T14:01:46.000Z</time>
      </trkpt>
      <trkpt lat="47.08521" lon="-1.6288">
        <ele>45</ele>
        <time>2021-03-07T14:01:50.000Z</time>
      </trkpt>
      <trkpt lat="47.08528" lon="-1.62865">
        <ele>44</ele>
        <time>2021-03-07T14:01:52.000Z</time>
      </trkpt>
      <trkpt lat="47.08537" lon="-1.62853">
        <ele>45</ele>
        <time>2021-03-07T14:01:54.000Z</time>
      </trkpt>
      <trkpt lat="47.08546" lon="-1.6284">
        <ele>45</ele>
        <time>2021-03-07T14:01:56.000Z</time>
      </trkpt>
      <trkpt lat="47.0856" lon="-1.62825">
        <ele>44</ele>
        <time>2021-03-07T14:01:59.000Z</time>
      </trkpt>
      <trkpt lat="47.08571" lon="-1.62816">
        <ele>44</ele>
        <time>2021-03-07T14:02:01.000Z</time>
      </trkpt>
      <trkpt lat="47.08577" lon="-1.62803">
        <ele>44</ele>
        <time>2021-03-07T14:02:03.000Z</time>
      </trkpt>
      <trkpt lat="47.08579" lon="-1.62785">
        <ele>45</ele>
        <time>2021-03-07T14:02:05.000Z</time>
      </trkpt>
      <trkpt lat="47.08578" lon="-1.62766">
        <ele>46</ele>
        <time>2021-03-07T14:02:07.000Z</time>
      </trkpt>
      <trkpt lat="47.08577" lon="-1.62747">
        <ele>46</ele>
        <time>2021-03-07T14:02:09.000Z</time>
      </trkpt>
      <trkpt lat="47.08578" lon="-1.62719">
        <ele>47</ele>
        <time>2021-03-07T14:02:12.000Z</time>
      </trkpt>
      <trkpt lat="47.08578" lon="-1.627">
        <ele>47</ele>
        <time>2021-03-07T14:02:14.000Z</time>
      </trkpt>
      <trkpt lat="47.08579" lon="-1.62681">
        <ele>48</ele>
        <time>2021-03-07T14:02:16.000Z</time>
      </trkpt>
      <trkpt lat="47.0858" lon="-1.62662">
        <ele>48</ele>
        <time>2021-03-07T14:02:18.000Z</time>
      </trkpt>
      <trkpt lat="47.08584" lon="-1.62638">
        <ele>46</ele>
        <time>2021-03-07T14:02:21.000Z</time>
      </trkpt>
      <trkpt lat="47.08582" lon="-1.62622">
        <ele>44</ele>
        <time>2021-03-07T14:02:23.000Z</time>
      </trkpt>
      <trkpt lat="47.08584" lon="-1.62603">
        <ele>44</ele>
        <time>2021-03-07T14:02:25.000Z</time>
      </trkpt>
      <trkpt lat="47.08583" lon="-1.62571">
        <ele>45</ele>
        <time>2021-03-07T14:02:28.000Z</time>
      </trkpt>
      <trkpt lat="47.08586" lon="-1.62547">
        <ele>46</ele>
        <time>2021-03-07T14:02:31.000Z</time>
      </trkpt>
      <trkpt lat="47.08586" lon="-1.62523">
        <ele>47</ele>
        <time>2021-03-07T14:02:34.000Z</time>
      </trkpt>
      <trkpt lat="47.08584" lon="-1.62505">
        <ele>48</ele>
        <time>2021-03-07T14:02:36.000Z</time>
      </trkpt>
      <trkpt lat="47.08587" lon="-1.62489">
        <ele>49</ele>
        <time>2021-03-07T14:02:38.000Z</time>
      </trkpt>
      <trkpt lat="47.08588" lon="-1.62473">
        <ele>50</ele>
        <time>2021-03-07T14:02:40.000Z</time>
      </trkpt>
      <trkpt lat="47.08589" lon="-1.62456">
        <ele>50</ele>
        <time>2021-03-07T14:02:42.000Z</time>
      </trkpt>
      <trkpt lat="47.0859" lon="-1.62439">
        <ele>50</ele>
        <time>2021-03-07T14:02:44.000Z</time>
      </trkpt>
      <trkpt lat="47.08591" lon="-1.62423">
        <ele>50</ele>
        <time>2021-03-07T14:02:46.000Z</time>
      </trkpt>
      <trkpt lat="47.08591" lon="-1.62396">
        <ele>45</ele>
        <time>2021-03-07T14:02:49.000Z</time>
      </trkpt>
      <trkpt lat="47.08592" lon="-1.62381">
        <ele>47</ele>
        <time>2021-03-07T14:02:51.000Z</time>
      </trkpt>
      <trkpt lat="47.08594" lon="-1.62366">
        <ele>47</ele>
        <time>2021-03-07T14:02:53.000Z</time>
      </trkpt>
      <trkpt lat="47.08602" lon="-1.62354">
        <ele>49</ele>
        <time>2021-03-07T14:02:55.000Z</time>
      </trkpt>
      <trkpt lat="47.08619" lon="-1.62343">
        <ele>49</ele>
        <time>2021-03-07T14:02:58.000Z</time>
      </trkpt>
      <trkpt lat="47.08631" lon="-1.62339">
        <ele>50</ele>
        <time>2021-03-07T14:03:00.000Z</time>
      </trkpt>
      <trkpt lat="47.08643" lon="-1.62333">
        <ele>51</ele>
        <time>2021-03-07T14:03:02.000Z</time>
      </trkpt>
      <trkpt lat="47.08655" lon="-1.62329">
        <ele>51</ele>
        <time>2021-03-07T14:03:04.000Z</time>
      </trkpt>
      <trkpt lat="47.08672" lon="-1.62321">
        <ele>50</ele>
        <time>2021-03-07T14:03:07.000Z</time>
      </trkpt>
      <trkpt lat="47.08689" lon="-1.62314">
        <ele>49</ele>
        <time>2021-03-07T14:03:10.000Z</time>
      </trkpt>
      <trkpt lat="47.08705" lon="-1.62307">
        <ele>50</ele>
        <time>2021-03-07T14:03:13.000Z</time>
      </trkpt>
      <trkpt lat="47.0872" lon="-1.62297">
        <ele>51</ele>
        <time>2021-03-07T14:03:16.000Z</time>
      </trkpt>
      <trkpt lat="47.08732" lon="-1.6229">
        <ele>50</ele>
        <time>2021-03-07T14:03:18.000Z</time>
      </trkpt>
      <trkpt lat="47.0875" lon="-1.62285">
        <ele>50</ele>
        <time>2021-03-07T14:03:21.000Z</time>
      </trkpt>
      <trkpt lat="47.08761" lon="-1.62281">
        <ele>50</ele>
        <time>2021-03-07T14:03:23.000Z</time>
      </trkpt>
      <trkpt lat="47.08777" lon="-1.62274">
        <ele>51</ele>
        <time>2021-03-07T14:03:26.000Z</time>
      </trkpt>
      <trkpt lat="47.08788" lon="-1.62271">
        <ele>51</ele>
        <time>2021-03-07T14:03:28.000Z</time>
      </trkpt>
      <trkpt lat="47.08799" lon="-1.62267">
        <ele>51</ele>
        <time>2021-03-07T14:03:30.000Z</time>
      </trkpt>
      <trkpt lat="47.0881" lon="-1.62263">
        <ele>51</ele>
        <time>2021-03-07T14:03:32.000Z</time>
      </trkpt>
      <trkpt lat="47.0882" lon="-1.62259">
        <ele>51</ele>
        <time>2021-03-07T14:03:34.000Z</time>
      </trkpt>
      <trkpt lat="47.08837" lon="-1.62251">
        <ele>51</ele>
        <time>2021-03-07T14:03:37.000Z</time>
      </trkpt>
      <trkpt lat="47.08847" lon="-1.62248">
        <ele>51</ele>
        <time>2021-03-07T14:03:39.000Z</time>
      </trkpt>
      <trkpt lat="47.08859" lon="-1.62243">
        <ele>50</ele>
        <time>2021-03-07T14:03:41.000Z</time>
      </trkpt>
      <trkpt lat="47.08871" lon="-1.62236">
        <ele>48</ele>
        <time>2021-03-07T14:03:43.000Z</time>
      </trkpt>
      <trkpt lat="47.08892" lon="-1.62229">
        <ele>48</ele>
        <time>2021-03-07T14:03:47.000Z</time>
      </trkpt>
      <trkpt lat="47.08902" lon="-1.62224">
        <ele>47</ele>
        <time>2021-03-07T14:03:49.000Z</time>
      </trkpt>
      <trkpt lat="47.08914" lon="-1.6222">
        <ele>47</ele>
        <time>2021-03-07T14:03:51.000Z</time>
      </trkpt>
      <trkpt lat="47.08924" lon="-1.62215">
        <ele>48</ele>
        <time>2021-03-07T14:03:53.000Z</time>
      </trkpt>
      <trkpt lat="47.08936" lon="-1.6221">
        <ele>49</ele>
        <time>2021-03-07T14:03:55.000Z</time>
      </trkpt>
      <trkpt lat="47.08948" lon="-1.62204">
        <ele>46</ele>
        <time>2021-03-07T14:03:57.000Z</time>
      </trkpt>
      <trkpt lat="47.08966" lon="-1.62196">
        <ele>45</ele>
        <time>2021-03-07T14:04:00.000Z</time>
      </trkpt>
      <trkpt lat="47.08975" lon="-1.62193">
        <ele>47</ele>
        <time>2021-03-07T14:04:02.000Z</time>
      </trkpt>
      <trkpt lat="47.08987" lon="-1.62188">
        <ele>47</ele>
        <time>2021-03-07T14:04:04.000Z</time>
      </trkpt>
      <trkpt lat="47.08999" lon="-1.62186">
        <ele>49</ele>
        <time>2021-03-07T14:04:06.000Z</time>
      </trkpt>
      <trkpt lat="47.09009" lon="-1.6218">
        <ele>51</ele>
        <time>2021-03-07T14:04:08.000Z</time>
      </trkpt>
      <trkpt lat="47.09025" lon="-1.62175">
        <ele>52</ele>
        <time>2021-03-07T14:04:11.000Z</time>
      </trkpt>
      <trkpt lat="47.09036" lon="-1.62169">
        <ele>51</ele>
        <time>2021-03-07T14:04:13.000Z</time>
      </trkpt>
      <trkpt lat="47.09048" lon="-1.62165">
        <ele>53</ele>
        <time>2021-03-07T14:04:15.000Z</time>
      </trkpt>
      <trkpt lat="47.09058" lon="-1.6216">
        <ele>53</ele>
        <time>2021-03-07T14:04:17.000Z</time>
      </trkpt>
      <trkpt lat="47.09068" lon="-1.62156">
        <ele>53</ele>
        <time>2021-03-07T14:04:19.000Z</time>
      </trkpt>
      <trkpt lat="47.09079" lon="-1.6215">
        <ele>52</ele>
        <time>2021-03-07T14:04:21.000Z</time>
      </trkpt>
      <trkpt lat="47.09096" lon="-1.62143">
        <ele>52</ele>
        <time>2021-03-07T14:04:24.000Z</time>
      </trkpt>
      <trkpt lat="47.09106" lon="-1.6214">
        <ele>53</ele>
        <time>2021-03-07T14:04:26.000Z</time>
      </trkpt>
      <trkpt lat="47.09117" lon="-1.62135">
        <ele>53</ele>
        <time>2021-03-07T14:04:28.000Z</time>
      </trkpt>
      <trkpt lat="47.09127" lon="-1.62131">
        <ele>53</ele>
        <time>2021-03-07T14:04:30.000Z</time>
      </trkpt>
      <trkpt lat="47.09144" lon="-1.62125">
        <ele>52</ele>
        <time>2021-03-07T14:04:33.000Z</time>
      </trkpt>
      <trkpt lat="47.09154" lon="-1.6212">
        <ele>52</ele>
        <time>2021-03-07T14:04:35.000Z</time>
      </trkpt>
      <trkpt lat="47.09165" lon="-1.62115">
        <ele>52</ele>
        <time>2021-03-07T14:04:37.000Z</time>
      </trkpt>
      <trkpt lat="47.0918" lon="-1.62105">
        <ele>51</ele>
        <time>2021-03-07T14:04:40.000Z</time>
      </trkpt>
      <trkpt lat="47.09182" lon="-1.6209">
        <ele>51</ele>
        <time>2021-03-07T14:04:42.000Z</time>
      </trkpt>
      <trkpt lat="47.09175" lon="-1.62075">
        <ele>51</ele>
        <time>2021-03-07T14:04:44.000Z</time>
      </trkpt>
      <trkpt lat="47.09169" lon="-1.62058">
        <ele>50</ele>
        <time>2021-03-07T14:04:46.000Z</time>
      </trkpt>
      <trkpt lat="47.09162" lon="-1.62041">
        <ele>50</ele>
        <time>2021-03-07T14:04:48.000Z</time>
      </trkpt>
      <trkpt lat="47.09154" lon="-1.62017">
        <ele>50</ele>
        <time>2021-03-07T14:04:51.000Z</time>
      </trkpt>
      <trkpt lat="47.09148" lon="-1.62001">
        <ele>50</ele>
        <time>2021-03-07T14:04:53.000Z</time>
      </trkpt>
      <trkpt lat="47.09142" lon="-1.61985">
        <ele>50</ele>
        <time>2021-03-07T14:04:55.000Z</time>
      </trkpt>
      <trkpt lat="47.09137" lon="-1.61968">
        <ele>50</ele>
        <time>2021-03-07T14:04:57.000Z</time>
      </trkpt>
      <trkpt lat="47.09131" lon="-1.61953">
        <ele>50</ele>
        <time>2021-03-07T14:04:59.000Z</time>
      </trkpt>
      <trkpt lat="47.09125" lon="-1.61937">
        <ele>50</ele>
        <time>2021-03-07T14:05:01.000Z</time>
      </trkpt>
      <trkpt lat="47.0912" lon="-1.61921">
        <ele>51</ele>
        <time>2021-03-07T14:05:03.000Z</time>
      </trkpt>
      <trkpt lat="47.09111" lon="-1.61897">
        <ele>51</ele>
        <time>2021-03-07T14:05:06.000Z</time>
      </trkpt>
      <trkpt lat="47.09103" lon="-1.61873">
        <ele>51</ele>
        <time>2021-03-07T14:05:09.000Z</time>
      </trkpt>
      <trkpt lat="47.09094" lon="-1.6185">
        <ele>51</ele>
        <time>2021-03-07T14:05:12.000Z</time>
      </trkpt>
      <trkpt lat="47.09088" lon="-1.61835">
        <ele>52</ele>
        <time>2021-03-07T14:05:14.000Z</time>
      </trkpt>
      <trkpt lat="47.09083" lon="-1.61819">
        <ele>52</ele>
        <time>2021-03-07T14:05:16.000Z</time>
      </trkpt>
      <trkpt lat="47.09077" lon="-1.61803">
        <ele>51</ele>
        <time>2021-03-07T14:05:18.000Z</time>
      </trkpt>
      <trkpt lat="47.09071" lon="-1.61788">
        <ele>51</ele>
        <time>2021-03-07T14:05:20.000Z</time>
      </trkpt>
      <trkpt lat="47.09066" lon="-1.61772">
        <ele>51</ele>
        <time>2021-03-07T14:05:22.000Z</time>
      </trkpt>
      <trkpt lat="47.09061" lon="-1.61757">
        <ele>51</ele>
        <time>2021-03-07T14:05:24.000Z</time>
      </trkpt>
      <trkpt lat="47.09056" lon="-1.61742">
        <ele>51</ele>
        <time>2021-03-07T14:05:26.000Z</time>
      </trkpt>
      <trkpt lat="47.0905" lon="-1.61728">
        <ele>52</ele>
        <time>2021-03-07T14:05:28.000Z</time>
      </trkpt>
      <trkpt lat="47.09045" lon="-1.61713">
        <ele>52</ele>
        <time>2021-03-07T14:05:30.000Z</time>
      </trkpt>
      <trkpt lat="47.09039" lon="-1.61699">
        <ele>53</ele>
        <time>2021-03-07T14:05:32.000Z</time>
      </trkpt>
      <trkpt lat="47.09034" lon="-1.61684">
        <ele>53</ele>
        <time>2021-03-07T14:05:34.000Z</time>
      </trkpt>
      <trkpt lat="47.09028" lon="-1.61668">
        <ele>53</ele>
        <time>2021-03-07T14:05:36.000Z</time>
      </trkpt>
      <trkpt lat="47.09023" lon="-1.61654">
        <ele>53</ele>
        <time>2021-03-07T14:05:38.000Z</time>
      </trkpt>
      <trkpt lat="47.09018" lon="-1.61638">
        <ele>53</ele>
        <time>2021-03-07T14:05:40.000Z</time>
      </trkpt>
      <trkpt lat="47.09009" lon="-1.61619">
        <ele>53</ele>
        <time>2021-03-07T14:05:43.000Z</time>
      </trkpt>
      <trkpt lat="47.09002" lon="-1.616">
        <ele>53</ele>
        <time>2021-03-07T14:05:46.000Z</time>
      </trkpt>
      <trkpt lat="47.08999" lon="-1.61582">
        <ele>53</ele>
        <time>2021-03-07T14:05:49.000Z</time>
      </trkpt>
      <trkpt lat="47.09011" lon="-1.6157">
        <ele>52</ele>
        <time>2021-03-07T14:05:52.000Z</time>
      </trkpt>
      <trkpt lat="47.09024" lon="-1.61562">
        <ele>51</ele>
        <time>2021-03-07T14:05:55.000Z</time>
      </trkpt>
      <trkpt lat="47.09035" lon="-1.61555">
        <ele>51</ele>
        <time>2021-03-07T14:05:57.000Z</time>
      </trkpt>
      <trkpt lat="47.09047" lon="-1.61551">
        <ele>50</ele>
        <time>2021-03-07T14:05:59.000Z</time>
      </trkpt>
      <trkpt lat="47.09059" lon="-1.61544">
        <ele>51</ele>
        <time>2021-03-07T14:06:01.000Z</time>
      </trkpt>
      <trkpt lat="47.09071" lon="-1.61538">
        <ele>52</ele>
        <time>2021-03-07T14:06:03.000Z</time>
      </trkpt>
      <trkpt lat="47.09082" lon="-1.61532">
        <ele>53</ele>
        <time>2021-03-07T14:06:05.000Z</time>
      </trkpt>
      <trkpt lat="47.09095" lon="-1.61529">
        <ele>52</ele>
        <time>2021-03-07T14:06:07.000Z</time>
      </trkpt>
      <trkpt lat="47.09107" lon="-1.61523">
        <ele>52</ele>
        <time>2021-03-07T14:06:09.000Z</time>
      </trkpt>
      <trkpt lat="47.09118" lon="-1.61515">
        <ele>53</ele>
        <time>2021-03-07T14:06:11.000Z</time>
      </trkpt>
      <trkpt lat="47.09128" lon="-1.61509">
        <ele>53</ele>
        <time>2021-03-07T14:06:13.000Z</time>
      </trkpt>
      <trkpt lat="47.09143" lon="-1.61497">
        <ele>52</ele>
        <time>2021-03-07T14:06:16.000Z</time>
      </trkpt>
      <trkpt lat="47.09153" lon="-1.61491">
        <ele>54</ele>
        <time>2021-03-07T14:06:18.000Z</time>
      </trkpt>
      <trkpt lat="47.09164" lon="-1.61485">
        <ele>54</ele>
        <time>2021-03-07T14:06:20.000Z</time>
      </trkpt>
      <trkpt lat="47.09175" lon="-1.61478">
        <ele>54</ele>
        <time>2021-03-07T14:06:22.000Z</time>
      </trkpt>
      <trkpt lat="47.09186" lon="-1.61471">
        <ele>53</ele>
        <time>2021-03-07T14:06:24.000Z</time>
      </trkpt>
      <trkpt lat="47.09197" lon="-1.61463">
        <ele>54</ele>
        <time>2021-03-07T14:06:26.000Z</time>
      </trkpt>
      <trkpt lat="47.09206" lon="-1.61457">
        <ele>54</ele>
        <time>2021-03-07T14:06:28.000Z</time>
      </trkpt>
      <trkpt lat="47.09222" lon="-1.61449">
        <ele>52</ele>
        <time>2021-03-07T14:06:31.000Z</time>
      </trkpt>
      <trkpt lat="47.09233" lon="-1.61443">
        <ele>52</ele>
        <time>2021-03-07T14:06:33.000Z</time>
      </trkpt>
      <trkpt lat="47.09243" lon="-1.61438">
        <ele>52</ele>
        <time>2021-03-07T14:06:35.000Z</time>
      </trkpt>
      <trkpt lat="47.09254" lon="-1.61433">
        <ele>50</ele>
        <time>2021-03-07T14:06:37.000Z</time>
      </trkpt>
      <trkpt lat="47.09267" lon="-1.61422">
        <ele>50</ele>
        <time>2021-03-07T14:06:40.000Z</time>
      </trkpt>
      <trkpt lat="47.09276" lon="-1.61418">
        <ele>52</ele>
        <time>2021-03-07T14:06:42.000Z</time>
      </trkpt>
      <trkpt lat="47.09281" lon="-1.61397">
        <ele>52</ele>
        <time>2021-03-07T14:06:45.000Z</time>
      </trkpt>
      <trkpt lat="47.09278" lon="-1.61382">
        <ele>52</ele>
        <time>2021-03-07T14:06:47.000Z</time>
      </trkpt>
      <trkpt lat="47.09275" lon="-1.61367">
        <ele>54</ele>
        <time>2021-03-07T14:06:49.000Z</time>
      </trkpt>
      <trkpt lat="47.09272" lon="-1.61351">
        <ele>54</ele>
        <time>2021-03-07T14:06:51.000Z</time>
      </trkpt>
      <trkpt lat="47.09269" lon="-1.61336">
        <ele>54</ele>
        <time>2021-03-07T14:06:53.000Z</time>
      </trkpt>
      <trkpt lat="47.09267" lon="-1.6132">
        <ele>54</ele>
        <time>2021-03-07T14:06:55.000Z</time>
      </trkpt>
      <trkpt lat="47.09265" lon="-1.61304">
        <ele>54</ele>
        <time>2021-03-07T14:06:57.000Z</time>
      </trkpt>
      <trkpt lat="47.09261" lon="-1.61289">
        <ele>55</ele>
        <time>2021-03-07T14:06:59.000Z</time>
      </trkpt>
      <trkpt lat="47.09255" lon="-1.61266">
        <ele>52</ele>
        <time>2021-03-07T14:07:02.000Z</time>
      </trkpt>
      <trkpt lat="47.09249" lon="-1.61242">
        <ele>53</ele>
        <time>2021-03-07T14:07:05.000Z</time>
      </trkpt>
      <trkpt lat="47.09245" lon="-1.61223">
        <ele>53</ele>
        <time>2021-03-07T14:07:08.000Z</time>
      </trkpt>
      <trkpt lat="47.09241" lon="-1.61209">
        <ele>55</ele>
        <time>2021-03-07T14:07:11.000Z</time>
      </trkpt>
      <trkpt lat="47.09236" lon="-1.61197">
        <ele>55</ele>
        <time>2021-03-07T14:07:14.000Z</time>
      </trkpt>
      <trkpt lat="47.09236" lon="-1.61181">
        <ele>55</ele>
        <time>2021-03-07T14:07:19.000Z</time>
      </trkpt>
      <trkpt lat="47.09245" lon="-1.61176">
        <ele>54</ele>
        <time>2021-03-07T14:07:23.000Z</time>
      </trkpt>
      <trkpt lat="47.09255" lon="-1.61176">
        <ele>55</ele>
        <time>2021-03-07T14:07:25.000Z</time>
      </trkpt>
      <trkpt lat="47.09266" lon="-1.6118">
        <ele>54</ele>
        <time>2021-03-07T14:07:27.000Z</time>
      </trkpt>
      <trkpt lat="47.09279" lon="-1.61184">
        <ele>54</ele>
        <time>2021-03-07T14:07:29.000Z</time>
      </trkpt>
      <trkpt lat="47.09291" lon="-1.61188">
        <ele>55</ele>
        <time>2021-03-07T14:07:31.000Z</time>
      </trkpt>
      <trkpt lat="47.09304" lon="-1.61193">
        <ele>55</ele>
        <time>2021-03-07T14:07:33.000Z</time>
      </trkpt>
      <trkpt lat="47.09316" lon="-1.61196">
        <ele>56</ele>
        <time>2021-03-07T14:07:35.000Z</time>
      </trkpt>
      <trkpt lat="47.09328" lon="-1.61198">
        <ele>56</ele>
        <time>2021-03-07T14:07:37.000Z</time>
      </trkpt>
      <trkpt lat="47.09345" lon="-1.61203">
        <ele>57</ele>
        <time>2021-03-07T14:07:40.000Z</time>
      </trkpt>
      <trkpt lat="47.09363" lon="-1.61207">
        <ele>57</ele>
        <time>2021-03-07T14:07:43.000Z</time>
      </trkpt>
      <trkpt lat="47.09374" lon="-1.6121">
        <ele>55</ele>
        <time>2021-03-07T14:07:45.000Z</time>
      </trkpt>
      <trkpt lat="47.09388" lon="-1.61216">
        <ele>54</ele>
        <time>2021-03-07T14:07:47.000Z</time>
      </trkpt>
      <trkpt lat="47.094" lon="-1.61224">
        <ele>55</ele>
        <time>2021-03-07T14:07:49.000Z</time>
      </trkpt>
      <trkpt lat="47.09412" lon="-1.61229">
        <ele>53</ele>
        <time>2021-03-07T14:07:51.000Z</time>
      </trkpt>
      <trkpt lat="47.09429" lon="-1.6122">
        <ele>51</ele>
        <time>2021-03-07T14:07:54.000Z</time>
      </trkpt>
      <trkpt lat="47.09437" lon="-1.61207">
        <ele>50</ele>
        <time>2021-03-07T14:07:56.000Z</time>
      </trkpt>
      <trkpt lat="47.09448" lon="-1.61188">
        <ele>49</ele>
        <time>2021-03-07T14:07:59.000Z</time>
      </trkpt>
      <trkpt lat="47.09456" lon="-1.61176">
        <ele>49</ele>
        <time>2021-03-07T14:08:01.000Z</time>
      </trkpt>
      <trkpt lat="47.0947" lon="-1.61165">
        <ele>51</ele>
        <time>2021-03-07T14:08:03.000Z</time>
      </trkpt>
      <trkpt lat="47.09482" lon="-1.61156">
        <ele>51</ele>
        <time>2021-03-07T14:08:05.000Z</time>
      </trkpt>
      <trkpt lat="47.09494" lon="-1.61147">
        <ele>50</ele>
        <time>2021-03-07T14:08:07.000Z</time>
      </trkpt>
      <trkpt lat="47.09503" lon="-1.61141">
        <ele>50</ele>
        <time>2021-03-07T14:08:09.000Z</time>
      </trkpt>
      <trkpt lat="47.09513" lon="-1.61134">
        <ele>48</ele>
        <time>2021-03-07T14:08:11.000Z</time>
      </trkpt>
      <trkpt lat="47.09527" lon="-1.61132">
        <ele>49</ele>
        <time>2021-03-07T14:08:13.000Z</time>
      </trkpt>
      <trkpt lat="47.0954" lon="-1.6113">
        <ele>49</ele>
        <time>2021-03-07T14:08:15.000Z</time>
      </trkpt>
      <trkpt lat="47.09554" lon="-1.61129">
        <ele>49</ele>
        <time>2021-03-07T14:08:17.000Z</time>
      </trkpt>
      <trkpt lat="47.09568" lon="-1.61127">
        <ele>49</ele>
        <time>2021-03-07T14:08:19.000Z</time>
      </trkpt>
      <trkpt lat="47.09588" lon="-1.61126">
        <ele>50</ele>
        <time>2021-03-07T14:08:22.000Z</time>
      </trkpt>
      <trkpt lat="47.09599" lon="-1.61124">
        <ele>50</ele>
        <time>2021-03-07T14:08:24.000Z</time>
      </trkpt>
      <trkpt lat="47.09612" lon="-1.61123">
        <ele>49</ele>
        <time>2021-03-07T14:08:26.000Z</time>
      </trkpt>
      <trkpt lat="47.09626" lon="-1.61122">
        <ele>50</ele>
        <time>2021-03-07T14:08:28.000Z</time>
      </trkpt>
      <trkpt lat="47.0964" lon="-1.61121">
        <ele>49</ele>
        <time>2021-03-07T14:08:30.000Z</time>
      </trkpt>
      <trkpt lat="47.09654" lon="-1.6112">
        <ele>49</ele>
        <time>2021-03-07T14:08:32.000Z</time>
      </trkpt>
      <trkpt lat="47.09667" lon="-1.61117">
        <ele>49</ele>
        <time>2021-03-07T14:08:34.000Z</time>
      </trkpt>
      <trkpt lat="47.0968" lon="-1.61115">
        <ele>49</ele>
        <time>2021-03-07T14:08:36.000Z</time>
      </trkpt>
      <trkpt lat="47.09692" lon="-1.61114">
        <ele>49</ele>
        <time>2021-03-07T14:08:38.000Z</time>
      </trkpt>
      <trkpt lat="47.09705" lon="-1.61112">
        <ele>49</ele>
        <time>2021-03-07T14:08:40.000Z</time>
      </trkpt>
      <trkpt lat="47.09718" lon="-1.6111">
        <ele>48</ele>
        <time>2021-03-07T14:08:42.000Z</time>
      </trkpt>
      <trkpt lat="47.09743" lon="-1.61106">
        <ele>49</ele>
        <time>2021-03-07T14:08:46.000Z</time>
      </trkpt>
      <trkpt lat="47.09756" lon="-1.61102">
        <ele>50</ele>
        <time>2021-03-07T14:08:48.000Z</time>
      </trkpt>
      <trkpt lat="47.09768" lon="-1.611">
        <ele>51</ele>
        <time>2021-03-07T14:08:50.000Z</time>
      </trkpt>
      <trkpt lat="47.0978" lon="-1.61097">
        <ele>50</ele>
        <time>2021-03-07T14:08:52.000Z</time>
      </trkpt>
      <trkpt lat="47.09798" lon="-1.6109">
        <ele>49</ele>
        <time>2021-03-07T14:08:55.000Z</time>
      </trkpt>
      <trkpt lat="47.09812" lon="-1.61085">
        <ele>49</ele>
        <time>2021-03-07T14:08:57.000Z</time>
      </trkpt>
      <trkpt lat="47.09823" lon="-1.61077">
        <ele>49</ele>
        <time>2021-03-07T14:08:59.000Z</time>
      </trkpt>
      <trkpt lat="47.09834" lon="-1.61068">
        <ele>48</ele>
        <time>2021-03-07T14:09:01.000Z</time>
      </trkpt>
      <trkpt lat="47.09851" lon="-1.61056">
        <ele>47</ele>
        <time>2021-03-07T14:09:04.000Z</time>
      </trkpt>
      <trkpt lat="47.09864" lon="-1.61036">
        <ele>49</ele>
        <time>2021-03-07T14:09:07.000Z</time>
      </trkpt>
      <trkpt lat="47.09873" lon="-1.61012">
        <ele>47</ele>
        <time>2021-03-07T14:09:10.000Z</time>
      </trkpt>
      <trkpt lat="47.09885" lon="-1.60981">
        <ele>50</ele>
        <time>2021-03-07T14:09:14.000Z</time>
      </trkpt>
      <trkpt lat="47.09891" lon="-1.60966">
        <ele>51</ele>
        <time>2021-03-07T14:09:16.000Z</time>
      </trkpt>
      <trkpt lat="47.09897" lon="-1.60951">
        <ele>50</ele>
        <time>2021-03-07T14:09:18.000Z</time>
      </trkpt>
      <trkpt lat="47.099" lon="-1.60937">
        <ele>49</ele>
        <time>2021-03-07T14:09:20.000Z</time>
      </trkpt>
      <trkpt lat="47.09907" lon="-1.60922">
        <ele>50</ele>
        <time>2021-03-07T14:09:22.000Z</time>
      </trkpt>
      <trkpt lat="47.09913" lon="-1.60907">
        <ele>50</ele>
        <time>2021-03-07T14:09:24.000Z</time>
      </trkpt>
      <trkpt lat="47.0992" lon="-1.60892">
        <ele>50</ele>
        <time>2021-03-07T14:09:26.000Z</time>
      </trkpt>
      <trkpt lat="47.09926" lon="-1.60879">
        <ele>51</ele>
        <time>2021-03-07T14:09:28.000Z</time>
      </trkpt>
      <trkpt lat="47.09931" lon="-1.60864">
        <ele>51</ele>
        <time>2021-03-07T14:09:30.000Z</time>
      </trkpt>
      <trkpt lat="47.09937" lon="-1.60849">
        <ele>52</ele>
        <time>2021-03-07T14:09:32.000Z</time>
      </trkpt>
      <trkpt lat="47.09943" lon="-1.60834">
        <ele>52</ele>
        <time>2021-03-07T14:09:34.000Z</time>
      </trkpt>
      <trkpt lat="47.09948" lon="-1.60819">
        <ele>52</ele>
        <time>2021-03-07T14:09:36.000Z</time>
      </trkpt>
      <trkpt lat="47.09952" lon="-1.60804">
        <ele>52</ele>
        <time>2021-03-07T14:09:38.000Z</time>
      </trkpt>
      <trkpt lat="47.09958" lon="-1.60789">
        <ele>51</ele>
        <time>2021-03-07T14:09:40.000Z</time>
      </trkpt>
      <trkpt lat="47.09964" lon="-1.60769">
        <ele>49</ele>
        <time>2021-03-07T14:09:43.000Z</time>
      </trkpt>
      <trkpt lat="47.09969" lon="-1.60753">
        <ele>50</ele>
        <time>2021-03-07T14:09:45.000Z</time>
      </trkpt>
      <trkpt lat="47.09972" lon="-1.60738">
        <ele>52</ele>
        <time>2021-03-07T14:09:47.000Z</time>
      </trkpt>
      <trkpt lat="47.0998" lon="-1.60716">
        <ele>52</ele>
        <time>2021-03-07T14:09:50.000Z</time>
      </trkpt>
      <trkpt lat="47.09988" lon="-1.60688">
        <ele>52</ele>
        <time>2021-03-07T14:09:54.000Z</time>
      </trkpt>
      <trkpt lat="47.09991" lon="-1.60669">
        <ele>54</ele>
        <time>2021-03-07T14:09:56.000Z</time>
      </trkpt>
      <trkpt lat="47.09996" lon="-1.60654">
        <ele>54</ele>
        <time>2021-03-07T14:09:58.000Z</time>
      </trkpt>
      <trkpt lat="47.10007" lon="-1.60621">
        <ele>53</ele>
        <time>2021-03-07T14:10:02.000Z</time>
      </trkpt>
      <trkpt lat="47.10011" lon="-1.60608">
        <ele>53</ele>
        <time>2021-03-07T14:10:04.000Z</time>
      </trkpt>
      <trkpt lat="47.10016" lon="-1.60593">
        <ele>53</ele>
        <time>2021-03-07T14:10:06.000Z</time>
      </trkpt>
      <trkpt lat="47.1002" lon="-1.60578">
        <ele>52</ele>
        <time>2021-03-07T14:10:08.000Z</time>
      </trkpt>
      <trkpt lat="47.10023" lon="-1.60561">
        <ele>51</ele>
        <time>2021-03-07T14:10:10.000Z</time>
      </trkpt>
      <trkpt lat="47.10029" lon="-1.60547">
        <ele>51</ele>
        <time>2021-03-07T14:10:12.000Z</time>
      </trkpt>
      <trkpt lat="47.10034" lon="-1.60531">
        <ele>51</ele>
        <time>2021-03-07T14:10:14.000Z</time>
      </trkpt>
      <trkpt lat="47.1004" lon="-1.60509">
        <ele>51</ele>
        <time>2021-03-07T14:10:17.000Z</time>
      </trkpt>
      <trkpt lat="47.10044" lon="-1.60492">
        <ele>51</ele>
        <time>2021-03-07T14:10:19.000Z</time>
      </trkpt>
      <trkpt lat="47.10048" lon="-1.60475">
        <ele>51</ele>
        <time>2021-03-07T14:10:21.000Z</time>
      </trkpt>
      <trkpt lat="47.10052" lon="-1.60459">
        <ele>51</ele>
        <time>2021-03-07T14:10:23.000Z</time>
      </trkpt>
      <trkpt lat="47.10055" lon="-1.60442">
        <ele>51</ele>
        <time>2021-03-07T14:10:25.000Z</time>
      </trkpt>
      <trkpt lat="47.10057" lon="-1.60425">
        <ele>51</ele>
        <time>2021-03-07T14:10:27.000Z</time>
      </trkpt>
      <trkpt lat="47.1006" lon="-1.60408">
        <ele>52</ele>
        <time>2021-03-07T14:10:29.000Z</time>
      </trkpt>
      <trkpt lat="47.10063" lon="-1.60382">
        <ele>52</ele>
        <time>2021-03-07T14:10:32.000Z</time>
      </trkpt>
      <trkpt lat="47.10065" lon="-1.60355">
        <ele>52</ele>
        <time>2021-03-07T14:10:35.000Z</time>
      </trkpt>
      <trkpt lat="47.10067" lon="-1.60338">
        <ele>52</ele>
        <time>2021-03-07T14:10:37.000Z</time>
      </trkpt>
      <trkpt lat="47.1007" lon="-1.60312">
        <ele>52</ele>
        <time>2021-03-07T14:10:40.000Z</time>
      </trkpt>
      <trkpt lat="47.10072" lon="-1.60295">
        <ele>52</ele>
        <time>2021-03-07T14:10:42.000Z</time>
      </trkpt>
      <trkpt lat="47.10073" lon="-1.60279">
        <ele>52</ele>
        <time>2021-03-07T14:10:44.000Z</time>
      </trkpt>
      <trkpt lat="47.10075" lon="-1.60262">
        <ele>53</ele>
        <time>2021-03-07T14:10:46.000Z</time>
      </trkpt>
      <trkpt lat="47.10075" lon="-1.60243">
        <ele>51</ele>
        <time>2021-03-07T14:10:48.000Z</time>
      </trkpt>
      <trkpt lat="47.10077" lon="-1.60226">
        <ele>51</ele>
        <time>2021-03-07T14:10:50.000Z</time>
      </trkpt>
      <trkpt lat="47.10078" lon="-1.602">
        <ele>51</ele>
        <time>2021-03-07T14:10:53.000Z</time>
      </trkpt>
      <trkpt lat="47.10079" lon="-1.60184">
        <ele>48</ele>
        <time>2021-03-07T14:10:55.000Z</time>
      </trkpt>
      <trkpt lat="47.10078" lon="-1.60169">
        <ele>49</ele>
        <time>2021-03-07T14:10:57.000Z</time>
      </trkpt>
      <trkpt lat="47.10073" lon="-1.60154">
        <ele>49</ele>
        <time>2021-03-07T14:10:59.000Z</time>
      </trkpt>
      <trkpt lat="47.10067" lon="-1.60137">
        <ele>50</ele>
        <time>2021-03-07T14:11:01.000Z</time>
      </trkpt>
      <trkpt lat="47.10075" lon="-1.60107">
        <ele>50</ele>
        <time>2021-03-07T14:11:05.000Z</time>
      </trkpt>
      <trkpt lat="47.10088" lon="-1.601">
        <ele>50</ele>
        <time>2021-03-07T14:11:07.000Z</time>
      </trkpt>
      <trkpt lat="47.10104" lon="-1.60093">
        <ele>52</ele>
        <time>2021-03-07T14:11:10.000Z</time>
      </trkpt>
      <trkpt lat="47.10113" lon="-1.60078">
        <ele>51</ele>
        <time>2021-03-07T14:11:12.000Z</time>
      </trkpt>
      <trkpt lat="47.10123" lon="-1.60063">
        <ele>52</ele>
        <time>2021-03-07T14:11:14.000Z</time>
      </trkpt>
      <trkpt lat="47.10134" lon="-1.60044">
        <ele>53</ele>
        <time>2021-03-07T14:11:17.000Z</time>
      </trkpt>
      <trkpt lat="47.10144" lon="-1.60032">
        <ele>53</ele>
        <time>2021-03-07T14:11:19.000Z</time>
      </trkpt>
      <trkpt lat="47.10151" lon="-1.60018">
        <ele>53</ele>
        <time>2021-03-07T14:11:21.000Z</time>
      </trkpt>
      <trkpt lat="47.10163" lon="-1.59996">
        <ele>54</ele>
        <time>2021-03-07T14:11:24.000Z</time>
      </trkpt>
      <trkpt lat="47.10172" lon="-1.59982">
        <ele>53</ele>
        <time>2021-03-07T14:11:26.000Z</time>
      </trkpt>
      <trkpt lat="47.10179" lon="-1.59969">
        <ele>53</ele>
        <time>2021-03-07T14:11:28.000Z</time>
      </trkpt>
      <trkpt lat="47.10191" lon="-1.5995">
        <ele>53</ele>
        <time>2021-03-07T14:11:31.000Z</time>
      </trkpt>
      <trkpt lat="47.10204" lon="-1.59932">
        <ele>51</ele>
        <time>2021-03-07T14:11:34.000Z</time>
      </trkpt>
      <trkpt lat="47.10213" lon="-1.59919">
        <ele>51</ele>
        <time>2021-03-07T14:11:36.000Z</time>
      </trkpt>
      <trkpt lat="47.10221" lon="-1.59906">
        <ele>52</ele>
        <time>2021-03-07T14:11:38.000Z</time>
      </trkpt>
      <trkpt lat="47.10232" lon="-1.59885">
        <ele>52</ele>
        <time>2021-03-07T14:11:41.000Z</time>
      </trkpt>
      <trkpt lat="47.10238" lon="-1.59869">
        <ele>50</ele>
        <time>2021-03-07T14:11:43.000Z</time>
      </trkpt>
      <trkpt lat="47.10244" lon="-1.59856">
        <ele>51</ele>
        <time>2021-03-07T14:11:45.000Z</time>
      </trkpt>
      <trkpt lat="47.10253" lon="-1.59844">
        <ele>52</ele>
        <time>2021-03-07T14:11:47.000Z</time>
      </trkpt>
      <trkpt lat="47.10261" lon="-1.59833">
        <ele>52</ele>
        <time>2021-03-07T14:11:49.000Z</time>
      </trkpt>
      <trkpt lat="47.10274" lon="-1.59813">
        <ele>53</ele>
        <time>2021-03-07T14:11:52.000Z</time>
      </trkpt>
      <trkpt lat="47.1028" lon="-1.59799">
        <ele>53</ele>
        <time>2021-03-07T14:11:54.000Z</time>
      </trkpt>
      <trkpt lat="47.10288" lon="-1.59787">
        <ele>54</ele>
        <time>2021-03-07T14:11:56.000Z</time>
      </trkpt>
      <trkpt lat="47.10296" lon="-1.59775">
        <ele>54</ele>
        <time>2021-03-07T14:11:58.000Z</time>
      </trkpt>
      <trkpt lat="47.10303" lon="-1.59762">
        <ele>54</ele>
        <time>2021-03-07T14:12:00.000Z</time>
      </trkpt>
      <trkpt lat="47.10318" lon="-1.59736">
        <ele>55</ele>
        <time>2021-03-07T14:12:04.000Z</time>
      </trkpt>
      <trkpt lat="47.10331" lon="-1.59718">
        <ele>54</ele>
        <time>2021-03-07T14:12:07.000Z</time>
      </trkpt>
      <trkpt lat="47.10339" lon="-1.59704">
        <ele>54</ele>
        <time>2021-03-07T14:12:09.000Z</time>
      </trkpt>
      <trkpt lat="47.10346" lon="-1.59691">
        <ele>54</ele>
        <time>2021-03-07T14:12:11.000Z</time>
      </trkpt>
      <trkpt lat="47.10354" lon="-1.59678">
        <ele>55</ele>
        <time>2021-03-07T14:12:13.000Z</time>
      </trkpt>
      <trkpt lat="47.10362" lon="-1.59666">
        <ele>55</ele>
        <time>2021-03-07T14:12:15.000Z</time>
      </trkpt>
      <trkpt lat="47.10373" lon="-1.59646">
        <ele>55</ele>
        <time>2021-03-07T14:12:18.000Z</time>
      </trkpt>
      <trkpt lat="47.10382" lon="-1.59633">
        <ele>56</ele>
        <time>2021-03-07T14:12:20.000Z</time>
      </trkpt>
      <trkpt lat="47.10389" lon="-1.5962">
        <ele>56</ele>
        <time>2021-03-07T14:12:22.000Z</time>
      </trkpt>
      <trkpt lat="47.10401" lon="-1.596">
        <ele>56</ele>
        <time>2021-03-07T14:12:25.000Z</time>
      </trkpt>
      <trkpt lat="47.10409" lon="-1.59588">
        <ele>56</ele>
        <time>2021-03-07T14:12:27.000Z</time>
      </trkpt>
      <trkpt lat="47.10421" lon="-1.59569">
        <ele>56</ele>
        <time>2021-03-07T14:12:30.000Z</time>
      </trkpt>
      <trkpt lat="47.10428" lon="-1.59556">
        <ele>55</ele>
        <time>2021-03-07T14:12:32.000Z</time>
      </trkpt>
      <trkpt lat="47.10436" lon="-1.59544">
        <ele>55</ele>
        <time>2021-03-07T14:12:34.000Z</time>
      </trkpt>
      <trkpt lat="47.10443" lon="-1.59532">
        <ele>56</ele>
        <time>2021-03-07T14:12:36.000Z</time>
      </trkpt>
      <trkpt lat="47.10449" lon="-1.5952">
        <ele>56</ele>
        <time>2021-03-07T14:12:38.000Z</time>
      </trkpt>
      <trkpt lat="47.10456" lon="-1.59506">
        <ele>55</ele>
        <time>2021-03-07T14:12:40.000Z</time>
      </trkpt>
      <trkpt lat="47.10467" lon="-1.59488">
        <ele>55</ele>
        <time>2021-03-07T14:12:43.000Z</time>
      </trkpt>
      <trkpt lat="47.10475" lon="-1.59476">
        <ele>56</ele>
        <time>2021-03-07T14:12:45.000Z</time>
      </trkpt>
      <trkpt lat="47.10481" lon="-1.59462">
        <ele>53</ele>
        <time>2021-03-07T14:12:47.000Z</time>
      </trkpt>
      <trkpt lat="47.10489" lon="-1.59452">
        <ele>54</ele>
        <time>2021-03-07T14:12:49.000Z</time>
      </trkpt>
      <trkpt lat="47.10497" lon="-1.59439">
        <ele>55</ele>
        <time>2021-03-07T14:12:51.000Z</time>
      </trkpt>
      <trkpt lat="47.10508" lon="-1.59422">
        <ele>56</ele>
        <time>2021-03-07T14:12:54.000Z</time>
      </trkpt>
      <trkpt lat="47.10517" lon="-1.59404">
        <ele>56</ele>
        <time>2021-03-07T14:12:57.000Z</time>
      </trkpt>
      <trkpt lat="47.10524" lon="-1.59392">
        <ele>56</ele>
        <time>2021-03-07T14:12:59.000Z</time>
      </trkpt>
      <trkpt lat="47.10532" lon="-1.5938">
        <ele>56</ele>
        <time>2021-03-07T14:13:01.000Z</time>
      </trkpt>
      <trkpt lat="47.1054" lon="-1.59366">
        <ele>55</ele>
        <time>2021-03-07T14:13:03.000Z</time>
      </trkpt>
      <trkpt lat="47.1055" lon="-1.59345">
        <ele>55</ele>
        <time>2021-03-07T14:13:06.000Z</time>
      </trkpt>
      <trkpt lat="47.10557" lon="-1.59334">
        <ele>56</ele>
        <time>2021-03-07T14:13:08.000Z</time>
      </trkpt>
      <trkpt lat="47.10565" lon="-1.59321">
        <ele>57</ele>
        <time>2021-03-07T14:13:10.000Z</time>
      </trkpt>
      <trkpt lat="47.10572" lon="-1.59308">
        <ele>57</ele>
        <time>2021-03-07T14:13:12.000Z</time>
      </trkpt>
      <trkpt lat="47.10579" lon="-1.59296">
        <ele>57</ele>
        <time>2021-03-07T14:13:14.000Z</time>
      </trkpt>
      <trkpt lat="47.10585" lon="-1.59281">
        <ele>56</ele>
        <time>2021-03-07T14:13:16.000Z</time>
      </trkpt>
      <trkpt lat="47.10593" lon="-1.5927">
        <ele>59</ele>
        <time>2021-03-07T14:13:18.000Z</time>
      </trkpt>
      <trkpt lat="47.106" lon="-1.59258">
        <ele>59</ele>
        <time>2021-03-07T14:13:20.000Z</time>
      </trkpt>
      <trkpt lat="47.10607" lon="-1.59245">
        <ele>59</ele>
        <time>2021-03-07T14:13:22.000Z</time>
      </trkpt>
      <trkpt lat="47.10617" lon="-1.59226">
        <ele>60</ele>
        <time>2021-03-07T14:13:25.000Z</time>
      </trkpt>
      <trkpt lat="47.10624" lon="-1.59214">
        <ele>60</ele>
        <time>2021-03-07T14:13:27.000Z</time>
      </trkpt>
      <trkpt lat="47.10631" lon="-1.59202">
        <ele>61</ele>
        <time>2021-03-07T14:13:29.000Z</time>
      </trkpt>
      <trkpt lat="47.10638" lon="-1.59191">
        <ele>61</ele>
        <time>2021-03-07T14:13:31.000Z</time>
      </trkpt>
      <trkpt lat="47.10644" lon="-1.59178">
        <ele>61</ele>
        <time>2021-03-07T14:13:33.000Z</time>
      </trkpt>
      <trkpt lat="47.10649" lon="-1.59163">
        <ele>58</ele>
        <time>2021-03-07T14:13:35.000Z</time>
      </trkpt>
      <trkpt lat="47.10654" lon="-1.59148">
        <ele>58</ele>
        <time>2021-03-07T14:13:37.000Z</time>
      </trkpt>
      <trkpt lat="47.1066" lon="-1.59135">
        <ele>59</ele>
        <time>2021-03-07T14:13:39.000Z</time>
      </trkpt>
      <trkpt lat="47.10667" lon="-1.59116">
        <ele>60</ele>
        <time>2021-03-07T14:13:42.000Z</time>
      </trkpt>
      <trkpt lat="47.1067" lon="-1.59102">
        <ele>61</ele>
        <time>2021-03-07T14:13:44.000Z</time>
      </trkpt>
      <trkpt lat="47.10676" lon="-1.59089">
        <ele>61</ele>
        <time>2021-03-07T14:13:46.000Z</time>
      </trkpt>
      <trkpt lat="47.10682" lon="-1.59075">
        <ele>61</ele>
        <time>2021-03-07T14:13:48.000Z</time>
      </trkpt>
      <trkpt lat="47.10687" lon="-1.59062">
        <ele>62</ele>
        <time>2021-03-07T14:13:50.000Z</time>
      </trkpt>
      <trkpt lat="47.10692" lon="-1.5905">
        <ele>63</ele>
        <time>2021-03-07T14:13:52.000Z</time>
      </trkpt>
      <trkpt lat="47.10697" lon="-1.59038">
        <ele>63</ele>
        <time>2021-03-07T14:13:54.000Z</time>
      </trkpt>
      <trkpt lat="47.10704" lon="-1.59017">
        <ele>63</ele>
        <time>2021-03-07T14:13:57.000Z</time>
      </trkpt>
      <trkpt lat="47.10708" lon="-1.59005">
        <ele>65</ele>
        <time>2021-03-07T14:13:59.000Z</time>
      </trkpt>
      <trkpt lat="47.10711" lon="-1.58992">
        <ele>64</ele>
        <time>2021-03-07T14:14:01.000Z</time>
      </trkpt>
      <trkpt lat="47.10718" lon="-1.58981">
        <ele>63</ele>
        <time>2021-03-07T14:14:03.000Z</time>
      </trkpt>
      <trkpt lat="47.10729" lon="-1.58961">
        <ele>63</ele>
        <time>2021-03-07T14:14:06.000Z</time>
      </trkpt>
      <trkpt lat="47.10734" lon="-1.58948">
        <ele>62</ele>
        <time>2021-03-07T14:14:08.000Z</time>
      </trkpt>
      <trkpt lat="47.10739" lon="-1.58933">
        <ele>62</ele>
        <time>2021-03-07T14:14:10.000Z</time>
      </trkpt>
      <trkpt lat="47.10746" lon="-1.58912">
        <ele>62</ele>
        <time>2021-03-07T14:14:13.000Z</time>
      </trkpt>
      <trkpt lat="47.10754" lon="-1.58902">
        <ele>62</ele>
        <time>2021-03-07T14:14:15.000Z</time>
      </trkpt>
      <trkpt lat="47.10761" lon="-1.58891">
        <ele>62</ele>
        <time>2021-03-07T14:14:17.000Z</time>
      </trkpt>
      <trkpt lat="47.10772" lon="-1.58872">
        <ele>62</ele>
        <time>2021-03-07T14:14:20.000Z</time>
      </trkpt>
      <trkpt lat="47.1078" lon="-1.58859">
        <ele>62</ele>
        <time>2021-03-07T14:14:22.000Z</time>
      </trkpt>
      <trkpt lat="47.10788" lon="-1.58848">
        <ele>62</ele>
        <time>2021-03-07T14:14:24.000Z</time>
      </trkpt>
      <trkpt lat="47.10799" lon="-1.5883">
        <ele>62</ele>
        <time>2021-03-07T14:14:27.000Z</time>
      </trkpt>
      <trkpt lat="47.10808" lon="-1.58808">
        <ele>60</ele>
        <time>2021-03-07T14:14:30.000Z</time>
      </trkpt>
      <trkpt lat="47.10818" lon="-1.58796">
        <ele>60</ele>
        <time>2021-03-07T14:14:32.000Z</time>
      </trkpt>
      <trkpt lat="47.10824" lon="-1.58781">
        <ele>59</ele>
        <time>2021-03-07T14:14:34.000Z</time>
      </trkpt>
      <trkpt lat="47.10838" lon="-1.58763">
        <ele>59</ele>
        <time>2021-03-07T14:14:37.000Z</time>
      </trkpt>
      <trkpt lat="47.10852" lon="-1.58745">
        <ele>59</ele>
        <time>2021-03-07T14:14:40.000Z</time>
      </trkpt>
      <trkpt lat="47.10866" lon="-1.58724">
        <ele>60</ele>
        <time>2021-03-07T14:14:43.000Z</time>
      </trkpt>
      <trkpt lat="47.1088" lon="-1.58702">
        <ele>57</ele>
        <time>2021-03-07T14:14:46.000Z</time>
      </trkpt>
      <trkpt lat="47.10889" lon="-1.5869">
        <ele>57</ele>
        <time>2021-03-07T14:14:48.000Z</time>
      </trkpt>
      <trkpt lat="47.10898" lon="-1.58676">
        <ele>58</ele>
        <time>2021-03-07T14:14:50.000Z</time>
      </trkpt>
      <trkpt lat="47.10908" lon="-1.58663">
        <ele>57</ele>
        <time>2021-03-07T14:14:52.000Z</time>
      </trkpt>
      <trkpt lat="47.10923" lon="-1.58645">
        <ele>57</ele>
        <time>2021-03-07T14:14:55.000Z</time>
      </trkpt>
      <trkpt lat="47.10932" lon="-1.58629">
        <ele>58</ele>
        <time>2021-03-07T14:14:57.000Z</time>
      </trkpt>
      <trkpt lat="47.10941" lon="-1.58614">
        <ele>57</ele>
        <time>2021-03-07T14:14:59.000Z</time>
      </trkpt>
      <trkpt lat="47.1095" lon="-1.58598">
        <ele>57</ele>
        <time>2021-03-07T14:15:01.000Z</time>
      </trkpt>
      <trkpt lat="47.10965" lon="-1.58578">
        <ele>55</ele>
        <time>2021-03-07T14:15:04.000Z</time>
      </trkpt>
      <trkpt lat="47.10974" lon="-1.58562">
        <ele>57</ele>
        <time>2021-03-07T14:15:06.000Z</time>
      </trkpt>
      <trkpt lat="47.10982" lon="-1.58548">
        <ele>56</ele>
        <time>2021-03-07T14:15:08.000Z</time>
      </trkpt>
      <trkpt lat="47.10996" lon="-1.58523">
        <ele>52</ele>
        <time>2021-03-07T14:15:11.000Z</time>
      </trkpt>
      <trkpt lat="47.11006" lon="-1.5851">
        <ele>55</ele>
        <time>2021-03-07T14:15:13.000Z</time>
      </trkpt>
      <trkpt lat="47.11015" lon="-1.585">
        <ele>54</ele>
        <time>2021-03-07T14:15:15.000Z</time>
      </trkpt>
      <trkpt lat="47.11031" lon="-1.58482">
        <ele>53</ele>
        <time>2021-03-07T14:15:18.000Z</time>
      </trkpt>
      <trkpt lat="47.11041" lon="-1.58468">
        <ele>53</ele>
        <time>2021-03-07T14:15:20.000Z</time>
      </trkpt>
      <trkpt lat="47.11048" lon="-1.58453">
        <ele>52</ele>
        <time>2021-03-07T14:15:22.000Z</time>
      </trkpt>
      <trkpt lat="47.11058" lon="-1.58436">
        <ele>51</ele>
        <time>2021-03-07T14:15:24.000Z</time>
      </trkpt>
      <trkpt lat="47.11068" lon="-1.58422">
        <ele>53</ele>
        <time>2021-03-07T14:15:26.000Z</time>
      </trkpt>
      <trkpt lat="47.11077" lon="-1.5841">
        <ele>53</ele>
        <time>2021-03-07T14:15:28.000Z</time>
      </trkpt>
      <trkpt lat="47.11085" lon="-1.58396">
        <ele>54</ele>
        <time>2021-03-07T14:15:30.000Z</time>
      </trkpt>
      <trkpt lat="47.11094" lon="-1.58384">
        <ele>54</ele>
        <time>2021-03-07T14:15:32.000Z</time>
      </trkpt>
      <trkpt lat="47.11103" lon="-1.58371">
        <ele>54</ele>
        <time>2021-03-07T14:15:34.000Z</time>
      </trkpt>
      <trkpt lat="47.11111" lon="-1.58359">
        <ele>54</ele>
        <time>2021-03-07T14:15:36.000Z</time>
      </trkpt>
      <trkpt lat="47.11119" lon="-1.58345">
        <ele>54</ele>
        <time>2021-03-07T14:15:38.000Z</time>
      </trkpt>
      <trkpt lat="47.11128" lon="-1.58332">
        <ele>54</ele>
        <time>2021-03-07T14:15:40.000Z</time>
      </trkpt>
      <trkpt lat="47.11139" lon="-1.58309">
        <ele>53</ele>
        <time>2021-03-07T14:15:43.000Z</time>
      </trkpt>
      <trkpt lat="47.11148" lon="-1.58296">
        <ele>54</ele>
        <time>2021-03-07T14:15:45.000Z</time>
      </trkpt>
      <trkpt lat="47.11157" lon="-1.58285">
        <ele>54</ele>
        <time>2021-03-07T14:15:47.000Z</time>
      </trkpt>
      <trkpt lat="47.11166" lon="-1.58272">
        <ele>54</ele>
        <time>2021-03-07T14:15:49.000Z</time>
      </trkpt>
      <trkpt lat="47.11175" lon="-1.58259">
        <ele>53</ele>
        <time>2021-03-07T14:15:51.000Z</time>
      </trkpt>
      <trkpt lat="47.11184" lon="-1.58247">
        <ele>53</ele>
        <time>2021-03-07T14:15:53.000Z</time>
      </trkpt>
      <trkpt lat="47.11193" lon="-1.58229">
        <ele>50</ele>
        <time>2021-03-07T14:15:55.000Z</time>
      </trkpt>
      <trkpt lat="47.11206" lon="-1.58213">
        <ele>51</ele>
        <time>2021-03-07T14:15:58.000Z</time>
      </trkpt>
      <trkpt lat="47.11219" lon="-1.58196">
        <ele>51</ele>
        <time>2021-03-07T14:16:01.000Z</time>
      </trkpt>
      <trkpt lat="47.11228" lon="-1.58186">
        <ele>51</ele>
        <time>2021-03-07T14:16:03.000Z</time>
      </trkpt>
      <trkpt lat="47.11237" lon="-1.58175">
        <ele>50</ele>
        <time>2021-03-07T14:16:05.000Z</time>
      </trkpt>
      <trkpt lat="47.11247" lon="-1.58164">
        <ele>50</ele>
        <time>2021-03-07T14:16:07.000Z</time>
      </trkpt>
      <trkpt lat="47.11258" lon="-1.58154">
        <ele>50</ele>
        <time>2021-03-07T14:16:09.000Z</time>
      </trkpt>
      <trkpt lat="47.11269" lon="-1.58144">
        <ele>50</ele>
        <time>2021-03-07T14:16:11.000Z</time>
      </trkpt>
      <trkpt lat="47.1128" lon="-1.58134">
        <ele>51</ele>
        <time>2021-03-07T14:16:13.000Z</time>
      </trkpt>
      <trkpt lat="47.11291" lon="-1.58126">
        <ele>51</ele>
        <time>2021-03-07T14:16:15.000Z</time>
      </trkpt>
      <trkpt lat="47.11301" lon="-1.58118">
        <ele>51</ele>
        <time>2021-03-07T14:16:17.000Z</time>
      </trkpt>
      <trkpt lat="47.11312" lon="-1.58109">
        <ele>49</ele>
        <time>2021-03-07T14:16:19.000Z</time>
      </trkpt>
      <trkpt lat="47.11331" lon="-1.58098">
        <ele>48</ele>
        <time>2021-03-07T14:16:22.000Z</time>
      </trkpt>
      <trkpt lat="47.1134" lon="-1.58091">
        <ele>49</ele>
        <time>2021-03-07T14:16:24.000Z</time>
      </trkpt>
      <trkpt lat="47.11351" lon="-1.58084">
        <ele>49</ele>
        <time>2021-03-07T14:16:26.000Z</time>
      </trkpt>
      <trkpt lat="47.11368" lon="-1.58073">
        <ele>48</ele>
        <time>2021-03-07T14:16:29.000Z</time>
      </trkpt>
      <trkpt lat="47.11379" lon="-1.58067">
        <ele>48</ele>
        <time>2021-03-07T14:16:31.000Z</time>
      </trkpt>
      <trkpt lat="47.11391" lon="-1.58058">
        <ele>48</ele>
        <time>2021-03-07T14:16:33.000Z</time>
      </trkpt>
      <trkpt lat="47.11403" lon="-1.58052">
        <ele>49</ele>
        <time>2021-03-07T14:16:35.000Z</time>
      </trkpt>
      <trkpt lat="47.11416" lon="-1.58045">
        <ele>50</ele>
        <time>2021-03-07T14:16:37.000Z</time>
      </trkpt>
      <trkpt lat="47.11428" lon="-1.58039">
        <ele>50</ele>
        <time>2021-03-07T14:16:39.000Z</time>
      </trkpt>
      <trkpt lat="47.11439" lon="-1.58033">
        <ele>50</ele>
        <time>2021-03-07T14:16:41.000Z</time>
      </trkpt>
      <trkpt lat="47.11449" lon="-1.58026">
        <ele>47</ele>
        <time>2021-03-07T14:16:43.000Z</time>
      </trkpt>
      <trkpt lat="47.11472" lon="-1.58024">
        <ele>48</ele>
        <time>2021-03-07T14:16:46.000Z</time>
      </trkpt>
      <trkpt lat="47.11483" lon="-1.58019">
        <ele>45</ele>
        <time>2021-03-07T14:16:48.000Z</time>
      </trkpt>
      <trkpt lat="47.11497" lon="-1.58017">
        <ele>47</ele>
        <time>2021-03-07T14:16:51.000Z</time>
      </trkpt>
      <trkpt lat="47.11509" lon="-1.58015">
        <ele>50</ele>
        <time>2021-03-07T14:16:53.000Z</time>
      </trkpt>
      <trkpt lat="47.11522" lon="-1.58014">
        <ele>51</ele>
        <time>2021-03-07T14:16:55.000Z</time>
      </trkpt>
      <trkpt lat="47.11532" lon="-1.58014">
        <ele>52</ele>
        <time>2021-03-07T14:16:57.000Z</time>
      </trkpt>
      <trkpt lat="47.11546" lon="-1.58016">
        <ele>49</ele>
        <time>2021-03-07T14:16:59.000Z</time>
      </trkpt>
      <trkpt lat="47.1156" lon="-1.5802">
        <ele>49</ele>
        <time>2021-03-07T14:17:01.000Z</time>
      </trkpt>
      <trkpt lat="47.11573" lon="-1.58022">
        <ele>49</ele>
        <time>2021-03-07T14:17:03.000Z</time>
      </trkpt>
      <trkpt lat="47.11593" lon="-1.58028">
        <ele>46</ele>
        <time>2021-03-07T14:17:06.000Z</time>
      </trkpt>
      <trkpt lat="47.11609" lon="-1.58031">
        <ele>48</ele>
        <time>2021-03-07T14:17:09.000Z</time>
      </trkpt>
      <trkpt lat="47.11621" lon="-1.58032">
        <ele>49</ele>
        <time>2021-03-07T14:17:11.000Z</time>
      </trkpt>
      <trkpt lat="47.11634" lon="-1.58027">
        <ele>48</ele>
        <time>2021-03-07T14:17:14.000Z</time>
      </trkpt>
      <trkpt lat="47.11652" lon="-1.58023">
        <ele>49</ele>
        <time>2021-03-07T14:17:17.000Z</time>
      </trkpt>
      <trkpt lat="47.11666" lon="-1.58025">
        <ele>51</ele>
        <time>2021-03-07T14:17:19.000Z</time>
      </trkpt>
      <trkpt lat="47.11678" lon="-1.58025">
        <ele>52</ele>
        <time>2021-03-07T14:17:21.000Z</time>
      </trkpt>
      <trkpt lat="47.11695" lon="-1.58027">
        <ele>53</ele>
        <time>2021-03-07T14:17:24.000Z</time>
      </trkpt>
      <trkpt lat="47.11713" lon="-1.58031">
        <ele>53</ele>
        <time>2021-03-07T14:17:27.000Z</time>
      </trkpt>
      <trkpt lat="47.11725" lon="-1.58033">
        <ele>52</ele>
        <time>2021-03-07T14:17:29.000Z</time>
      </trkpt>
      <trkpt lat="47.11735" lon="-1.58034">
        <ele>52</ele>
        <time>2021-03-07T14:17:31.000Z</time>
      </trkpt>
      <trkpt lat="47.11752" lon="-1.58037">
        <ele>52</ele>
        <time>2021-03-07T14:17:34.000Z</time>
      </trkpt>
      <trkpt lat="47.11763" lon="-1.5804">
        <ele>52</ele>
        <time>2021-03-07T14:17:36.000Z</time>
      </trkpt>
      <trkpt lat="47.11773" lon="-1.58044">
        <ele>53</ele>
        <time>2021-03-07T14:17:38.000Z</time>
      </trkpt>
      <trkpt lat="47.11784" lon="-1.58046">
        <ele>53</ele>
        <time>2021-03-07T14:17:40.000Z</time>
      </trkpt>
      <trkpt lat="47.11796" lon="-1.58049">
        <ele>53</ele>
        <time>2021-03-07T14:17:42.000Z</time>
      </trkpt>
      <trkpt lat="47.11807" lon="-1.5805">
        <ele>53</ele>
        <time>2021-03-07T14:17:44.000Z</time>
      </trkpt>
      <trkpt lat="47.11817" lon="-1.58052">
        <ele>54</ele>
        <time>2021-03-07T14:17:46.000Z</time>
      </trkpt>
      <trkpt lat="47.11828" lon="-1.58055">
        <ele>54</ele>
        <time>2021-03-07T14:17:48.000Z</time>
      </trkpt>
      <trkpt lat="47.11838" lon="-1.58057">
        <ele>54</ele>
        <time>2021-03-07T14:17:50.000Z</time>
      </trkpt>
      <trkpt lat="47.11848" lon="-1.5806">
        <ele>54</ele>
        <time>2021-03-07T14:17:52.000Z</time>
      </trkpt>
      <trkpt lat="47.11859" lon="-1.58062">
        <ele>54</ele>
        <time>2021-03-07T14:17:54.000Z</time>
      </trkpt>
      <trkpt lat="47.11869" lon="-1.58064">
        <ele>54</ele>
        <time>2021-03-07T14:17:56.000Z</time>
      </trkpt>
      <trkpt lat="47.11879" lon="-1.58067">
        <ele>54</ele>
        <time>2021-03-07T14:17:58.000Z</time>
      </trkpt>
      <trkpt lat="47.11894" lon="-1.58069">
        <ele>54</ele>
        <time>2021-03-07T14:18:01.000Z</time>
      </trkpt>
      <trkpt lat="47.11906" lon="-1.58073">
        <ele>53</ele>
        <time>2021-03-07T14:18:03.000Z</time>
      </trkpt>
      <trkpt lat="47.11915" lon="-1.58076">
        <ele>51</ele>
        <time>2021-03-07T14:18:05.000Z</time>
      </trkpt>
      <trkpt lat="47.11926" lon="-1.58079">
        <ele>52</ele>
        <time>2021-03-07T14:18:07.000Z</time>
      </trkpt>
      <trkpt lat="47.11936" lon="-1.58083">
        <ele>54</ele>
        <time>2021-03-07T14:18:09.000Z</time>
      </trkpt>
      <trkpt lat="47.11953" lon="-1.58085">
        <ele>57</ele>
        <time>2021-03-07T14:18:12.000Z</time>
      </trkpt>
      <trkpt lat="47.11963" lon="-1.58087">
        <ele>58</ele>
        <time>2021-03-07T14:18:14.000Z</time>
      </trkpt>
      <trkpt lat="47.11974" lon="-1.58089">
        <ele>59</ele>
        <time>2021-03-07T14:18:16.000Z</time>
      </trkpt>
      <trkpt lat="47.11985" lon="-1.58092">
        <ele>59</ele>
        <time>2021-03-07T14:18:18.000Z</time>
      </trkpt>
      <trkpt lat="47.11996" lon="-1.58096">
        <ele>59</ele>
        <time>2021-03-07T14:18:20.000Z</time>
      </trkpt>
      <trkpt lat="47.12012" lon="-1.58095">
        <ele>58</ele>
        <time>2021-03-07T14:18:23.000Z</time>
      </trkpt>
      <trkpt lat="47.12022" lon="-1.58096">
        <ele>58</ele>
        <time>2021-03-07T14:18:25.000Z</time>
      </trkpt>
      <trkpt lat="47.1203" lon="-1.58109">
        <ele>58</ele>
        <time>2021-03-07T14:18:27.000Z</time>
      </trkpt>
      <trkpt lat="47.12039" lon="-1.58116">
        <ele>57</ele>
        <time>2021-03-07T14:18:29.000Z</time>
      </trkpt>
      <trkpt lat="47.1205" lon="-1.5812">
        <ele>57</ele>
        <time>2021-03-07T14:18:31.000Z</time>
      </trkpt>
      <trkpt lat="47.12061" lon="-1.58128">
        <ele>57</ele>
        <time>2021-03-07T14:18:33.000Z</time>
      </trkpt>
      <trkpt lat="47.12072" lon="-1.58136">
        <ele>57</ele>
        <time>2021-03-07T14:18:35.000Z</time>
      </trkpt>
      <trkpt lat="47.12084" lon="-1.58145">
        <ele>56</ele>
        <time>2021-03-07T14:18:37.000Z</time>
      </trkpt>
      <trkpt lat="47.12095" lon="-1.58152">
        <ele>56</ele>
        <time>2021-03-07T14:18:39.000Z</time>
      </trkpt>
      <trkpt lat="47.12111" lon="-1.58161">
        <ele>56</ele>
        <time>2021-03-07T14:18:42.000Z</time>
      </trkpt>
      <trkpt lat="47.12127" lon="-1.58175">
        <ele>52</ele>
        <time>2021-03-07T14:18:45.000Z</time>
      </trkpt>
      <trkpt lat="47.12138" lon="-1.58184">
        <ele>51</ele>
        <time>2021-03-07T14:18:47.000Z</time>
      </trkpt>
      <trkpt lat="47.1215" lon="-1.5819">
        <ele>50</ele>
        <time>2021-03-07T14:18:49.000Z</time>
      </trkpt>
      <trkpt lat="47.12158" lon="-1.58198">
        <ele>47</ele>
        <time>2021-03-07T14:18:51.000Z</time>
      </trkpt>
      <trkpt lat="47.12169" lon="-1.58211">
        <ele>47</ele>
        <time>2021-03-07T14:18:53.000Z</time>
      </trkpt>
      <trkpt lat="47.12178" lon="-1.58222">
        <ele>48</ele>
        <time>2021-03-07T14:18:55.000Z</time>
      </trkpt>
      <trkpt lat="47.12186" lon="-1.58234">
        <ele>48</ele>
        <time>2021-03-07T14:18:57.000Z</time>
      </trkpt>
      <trkpt lat="47.12196" lon="-1.58244">
        <ele>49</ele>
        <time>2021-03-07T14:18:59.000Z</time>
      </trkpt>
      <trkpt lat="47.12208" lon="-1.58253">
        <ele>50</ele>
        <time>2021-03-07T14:19:01.000Z</time>
      </trkpt>
      <trkpt lat="47.12218" lon="-1.58264">
        <ele>50</ele>
        <time>2021-03-07T14:19:03.000Z</time>
      </trkpt>
      <trkpt lat="47.1223" lon="-1.58274">
        <ele>50</ele>
        <time>2021-03-07T14:19:05.000Z</time>
      </trkpt>
      <trkpt lat="47.12243" lon="-1.58288">
        <ele>49</ele>
        <time>2021-03-07T14:19:07.000Z</time>
      </trkpt>
      <trkpt lat="47.12254" lon="-1.58298">
        <ele>50</ele>
        <time>2021-03-07T14:19:09.000Z</time>
      </trkpt>
      <trkpt lat="47.12264" lon="-1.58309">
        <ele>50</ele>
        <time>2021-03-07T14:19:11.000Z</time>
      </trkpt>
      <trkpt lat="47.12281" lon="-1.58324">
        <ele>50</ele>
        <time>2021-03-07T14:19:14.000Z</time>
      </trkpt>
      <trkpt lat="47.12295" lon="-1.58332">
        <ele>50</ele>
        <time>2021-03-07T14:19:16.000Z</time>
      </trkpt>
      <trkpt lat="47.12303" lon="-1.58342">
        <ele>50</ele>
        <time>2021-03-07T14:19:18.000Z</time>
      </trkpt>
      <trkpt lat="47.12308" lon="-1.58365">
        <ele>49</ele>
        <time>2021-03-07T14:19:21.000Z</time>
      </trkpt>
      <trkpt lat="47.12309" lon="-1.58397">
        <ele>49</ele>
        <time>2021-03-07T14:19:24.000Z</time>
      </trkpt>
      <trkpt lat="47.12313" lon="-1.58414">
        <ele>50</ele>
        <time>2021-03-07T14:19:26.000Z</time>
      </trkpt>
      <trkpt lat="47.12319" lon="-1.58427">
        <ele>52</ele>
        <time>2021-03-07T14:19:28.000Z</time>
      </trkpt>
      <trkpt lat="47.12329" lon="-1.58436">
        <ele>53</ele>
        <time>2021-03-07T14:19:30.000Z</time>
      </trkpt>
      <trkpt lat="47.12337" lon="-1.58451">
        <ele>52</ele>
        <time>2021-03-07T14:19:32.000Z</time>
      </trkpt>
      <trkpt lat="47.12342" lon="-1.58467">
        <ele>51</ele>
        <time>2021-03-07T14:19:34.000Z</time>
      </trkpt>
      <trkpt lat="47.12348" lon="-1.58493">
        <ele>50</ele>
        <time>2021-03-07T14:19:37.000Z</time>
      </trkpt>
      <trkpt lat="47.12352" lon="-1.58509">
        <ele>50</ele>
        <time>2021-03-07T14:19:39.000Z</time>
      </trkpt>
      <trkpt lat="47.12355" lon="-1.58527">
        <ele>50</ele>
        <time>2021-03-07T14:19:41.000Z</time>
      </trkpt>
      <trkpt lat="47.12358" lon="-1.58544">
        <ele>50</ele>
        <time>2021-03-07T14:19:43.000Z</time>
      </trkpt>
      <trkpt lat="47.12361" lon="-1.5856">
        <ele>50</ele>
        <time>2021-03-07T14:19:45.000Z</time>
      </trkpt>
      <trkpt lat="47.12364" lon="-1.58575">
        <ele>51</ele>
        <time>2021-03-07T14:19:47.000Z</time>
      </trkpt>
      <trkpt lat="47.12369" lon="-1.58593">
        <ele>52</ele>
        <time>2021-03-07T14:19:49.000Z</time>
      </trkpt>
      <trkpt lat="47.12372" lon="-1.58612">
        <ele>53</ele>
        <time>2021-03-07T14:19:51.000Z</time>
      </trkpt>
      <trkpt lat="47.12376" lon="-1.5863">
        <ele>53</ele>
        <time>2021-03-07T14:19:53.000Z</time>
      </trkpt>
      <trkpt lat="47.12381" lon="-1.58647">
        <ele>51</ele>
        <time>2021-03-07T14:19:55.000Z</time>
      </trkpt>
      <trkpt lat="47.12385" lon="-1.58661">
        <ele>52</ele>
        <time>2021-03-07T14:19:57.000Z</time>
      </trkpt>
      <trkpt lat="47.12386" lon="-1.5868">
        <ele>53</ele>
        <time>2021-03-07T14:19:59.000Z</time>
      </trkpt>
      <trkpt lat="47.12389" lon="-1.58699">
        <ele>52</ele>
        <time>2021-03-07T14:20:01.000Z</time>
      </trkpt>
      <trkpt lat="47.12392" lon="-1.58726">
        <ele>52</ele>
        <time>2021-03-07T14:20:04.000Z</time>
      </trkpt>
      <trkpt lat="47.12398" lon="-1.58749">
        <ele>52</ele>
        <time>2021-03-07T14:20:07.000Z</time>
      </trkpt>
      <trkpt lat="47.12401" lon="-1.58764">
        <ele>53</ele>
        <time>2021-03-07T14:20:09.000Z</time>
      </trkpt>
      <trkpt lat="47.12406" lon="-1.58779">
        <ele>53</ele>
        <time>2021-03-07T14:20:11.000Z</time>
      </trkpt>
      <trkpt lat="47.12409" lon="-1.58793">
        <ele>55</ele>
        <time>2021-03-07T14:20:13.000Z</time>
      </trkpt>
      <trkpt lat="47.12413" lon="-1.5881">
        <ele>56</ele>
        <time>2021-03-07T14:20:15.000Z</time>
      </trkpt>
      <trkpt lat="47.12414" lon="-1.58829">
        <ele>54</ele>
        <time>2021-03-07T14:20:17.000Z</time>
      </trkpt>
      <trkpt lat="47.12415" lon="-1.58846">
        <ele>54</ele>
        <time>2021-03-07T14:20:19.000Z</time>
      </trkpt>
      <trkpt lat="47.12417" lon="-1.5887">
        <ele>55</ele>
        <time>2021-03-07T14:20:22.000Z</time>
      </trkpt>
      <trkpt lat="47.12421" lon="-1.58889">
        <ele>55</ele>
        <time>2021-03-07T14:20:24.000Z</time>
      </trkpt>
      <trkpt lat="47.12422" lon="-1.58908">
        <ele>54</ele>
        <time>2021-03-07T14:20:26.000Z</time>
      </trkpt>
      <trkpt lat="47.12424" lon="-1.58928">
        <ele>54</ele>
        <time>2021-03-07T14:20:28.000Z</time>
      </trkpt>
      <trkpt lat="47.12424" lon="-1.58949">
        <ele>54</ele>
        <time>2021-03-07T14:20:30.000Z</time>
      </trkpt>
      <trkpt lat="47.12425" lon="-1.58971">
        <ele>54</ele>
        <time>2021-03-07T14:20:32.000Z</time>
      </trkpt>
      <trkpt lat="47.12425" lon="-1.58994">
        <ele>53</ele>
        <time>2021-03-07T14:20:34.000Z</time>
      </trkpt>
      <trkpt lat="47.12427" lon="-1.59016">
        <ele>52</ele>
        <time>2021-03-07T14:20:36.000Z</time>
      </trkpt>
      <trkpt lat="47.12429" lon="-1.5904">
        <ele>52</ele>
        <time>2021-03-07T14:20:38.000Z</time>
      </trkpt>
      <trkpt lat="47.1243" lon="-1.59063">
        <ele>51</ele>
        <time>2021-03-07T14:20:40.000Z</time>
      </trkpt>
      <trkpt lat="47.12431" lon="-1.59085">
        <ele>51</ele>
        <time>2021-03-07T14:20:42.000Z</time>
      </trkpt>
      <trkpt lat="47.12432" lon="-1.59107">
        <ele>51</ele>
        <time>2021-03-07T14:20:44.000Z</time>
      </trkpt>
      <trkpt lat="47.12433" lon="-1.59126">
        <ele>52</ele>
        <time>2021-03-07T14:20:46.000Z</time>
      </trkpt>
      <trkpt lat="47.12433" lon="-1.59146">
        <ele>53</ele>
        <time>2021-03-07T14:20:48.000Z</time>
      </trkpt>
      <trkpt lat="47.12435" lon="-1.59166">
        <ele>52</ele>
        <time>2021-03-07T14:20:50.000Z</time>
      </trkpt>
      <trkpt lat="47.12439" lon="-1.59207">
        <ele>49</ele>
        <time>2021-03-07T14:20:54.000Z</time>
      </trkpt>
      <trkpt lat="47.12437" lon="-1.59228">
        <ele>50</ele>
        <time>2021-03-07T14:20:56.000Z</time>
      </trkpt>
      <trkpt lat="47.12437" lon="-1.59261">
        <ele>47</ele>
        <time>2021-03-07T14:20:59.000Z</time>
      </trkpt>
      <trkpt lat="47.12438" lon="-1.59282">
        <ele>46</ele>
        <time>2021-03-07T14:21:01.000Z</time>
      </trkpt>
      <trkpt lat="47.12439" lon="-1.59305">
        <ele>46</ele>
        <time>2021-03-07T14:21:03.000Z</time>
      </trkpt>
      <trkpt lat="47.12439" lon="-1.59322">
        <ele>48</ele>
        <time>2021-03-07T14:21:05.000Z</time>
      </trkpt>
      <trkpt lat="47.12439" lon="-1.59349">
        <ele>47</ele>
        <time>2021-03-07T14:21:08.000Z</time>
      </trkpt>
      <trkpt lat="47.1244" lon="-1.59369">
        <ele>48</ele>
        <time>2021-03-07T14:21:10.000Z</time>
      </trkpt>
      <trkpt lat="47.12441" lon="-1.59389">
        <ele>50</ele>
        <time>2021-03-07T14:21:12.000Z</time>
      </trkpt>
      <trkpt lat="47.12442" lon="-1.59408">
        <ele>51</ele>
        <time>2021-03-07T14:21:14.000Z</time>
      </trkpt>
      <trkpt lat="47.12445" lon="-1.59436">
        <ele>51</ele>
        <time>2021-03-07T14:21:17.000Z</time>
      </trkpt>
      <trkpt lat="47.12447" lon="-1.59454">
        <ele>51</ele>
        <time>2021-03-07T14:21:19.000Z</time>
      </trkpt>
      <trkpt lat="47.12448" lon="-1.59473">
        <ele>52</ele>
        <time>2021-03-07T14:21:21.000Z</time>
      </trkpt>
      <trkpt lat="47.12449" lon="-1.59501">
        <ele>52</ele>
        <time>2021-03-07T14:21:24.000Z</time>
      </trkpt>
      <trkpt lat="47.1245" lon="-1.59521">
        <ele>55</ele>
        <time>2021-03-07T14:21:26.000Z</time>
      </trkpt>
      <trkpt lat="47.12453" lon="-1.5955">
        <ele>57</ele>
        <time>2021-03-07T14:21:29.000Z</time>
      </trkpt>
      <trkpt lat="47.12457" lon="-1.5957">
        <ele>57</ele>
        <time>2021-03-07T14:21:31.000Z</time>
      </trkpt>
      <trkpt lat="47.12459" lon="-1.59589">
        <ele>54</ele>
        <time>2021-03-07T14:21:33.000Z</time>
      </trkpt>
      <trkpt lat="47.12458" lon="-1.5961">
        <ele>51</ele>
        <time>2021-03-07T14:21:35.000Z</time>
      </trkpt>
      <trkpt lat="47.1246" lon="-1.59631">
        <ele>47</ele>
        <time>2021-03-07T14:21:37.000Z</time>
      </trkpt>
      <trkpt lat="47.1246" lon="-1.59647">
        <ele>48</ele>
        <time>2021-03-07T14:21:39.000Z</time>
      </trkpt>
      <trkpt lat="47.1246" lon="-1.59666">
        <ele>49</ele>
        <time>2021-03-07T14:21:41.000Z</time>
      </trkpt>
      <trkpt lat="47.12459" lon="-1.59686">
        <ele>50</ele>
        <time>2021-03-07T14:21:43.000Z</time>
      </trkpt>
      <trkpt lat="47.1246" lon="-1.59706">
        <ele>50</ele>
        <time>2021-03-07T14:21:45.000Z</time>
      </trkpt>
      <trkpt lat="47.12462" lon="-1.59725">
        <ele>50</ele>
        <time>2021-03-07T14:21:47.000Z</time>
      </trkpt>
      <trkpt lat="47.12461" lon="-1.59743">
        <ele>54</ele>
        <time>2021-03-07T14:21:49.000Z</time>
      </trkpt>
      <trkpt lat="47.12462" lon="-1.59761">
        <ele>54</ele>
        <time>2021-03-07T14:21:51.000Z</time>
      </trkpt>
      <trkpt lat="47.12464" lon="-1.598">
        <ele>53</ele>
        <time>2021-03-07T14:21:55.000Z</time>
      </trkpt>
      <trkpt lat="47.12466" lon="-1.59818">
        <ele>52</ele>
        <time>2021-03-07T14:21:57.000Z</time>
      </trkpt>
      <trkpt lat="47.12468" lon="-1.59837">
        <ele>53</ele>
        <time>2021-03-07T14:21:59.000Z</time>
      </trkpt>
      <trkpt lat="47.12471" lon="-1.59855">
        <ele>54</ele>
        <time>2021-03-07T14:22:01.000Z</time>
      </trkpt>
      <trkpt lat="47.12474" lon="-1.59871">
        <ele>53</ele>
        <time>2021-03-07T14:22:03.000Z</time>
      </trkpt>
      <trkpt lat="47.12476" lon="-1.59888">
        <ele>53</ele>
        <time>2021-03-07T14:22:05.000Z</time>
      </trkpt>
      <trkpt lat="47.12477" lon="-1.59905">
        <ele>52</ele>
        <time>2021-03-07T14:22:07.000Z</time>
      </trkpt>
      <trkpt lat="47.12478" lon="-1.59925">
        <ele>52</ele>
        <time>2021-03-07T14:22:09.000Z</time>
      </trkpt>
      <trkpt lat="47.12478" lon="-1.59945">
        <ele>52</ele>
        <time>2021-03-07T14:22:11.000Z</time>
      </trkpt>
      <trkpt lat="47.12479" lon="-1.59969">
        <ele>51</ele>
        <time>2021-03-07T14:22:13.000Z</time>
      </trkpt>
      <trkpt lat="47.12481" lon="-1.59991">
        <ele>51</ele>
        <time>2021-03-07T14:22:15.000Z</time>
      </trkpt>
      <trkpt lat="47.1248" lon="-1.60013">
        <ele>52</ele>
        <time>2021-03-07T14:22:17.000Z</time>
      </trkpt>
      <trkpt lat="47.12482" lon="-1.60034">
        <ele>52</ele>
        <time>2021-03-07T14:22:19.000Z</time>
      </trkpt>
      <trkpt lat="47.12483" lon="-1.60052">
        <ele>50</ele>
        <time>2021-03-07T14:22:21.000Z</time>
      </trkpt>
      <trkpt lat="47.12484" lon="-1.60071">
        <ele>50</ele>
        <time>2021-03-07T14:22:23.000Z</time>
      </trkpt>
      <trkpt lat="47.12488" lon="-1.60088">
        <ele>50</ele>
        <time>2021-03-07T14:22:25.000Z</time>
      </trkpt>
      <trkpt lat="47.12491" lon="-1.60107">
        <ele>50</ele>
        <time>2021-03-07T14:22:27.000Z</time>
      </trkpt>
      <trkpt lat="47.12492" lon="-1.60127">
        <ele>49</ele>
        <time>2021-03-07T14:22:29.000Z</time>
      </trkpt>
      <trkpt lat="47.12493" lon="-1.60148">
        <ele>49</ele>
        <time>2021-03-07T14:22:31.000Z</time>
      </trkpt>
      <trkpt lat="47.12493" lon="-1.6017">
        <ele>48</ele>
        <time>2021-03-07T14:22:33.000Z</time>
      </trkpt>
      <trkpt lat="47.12493" lon="-1.60193">
        <ele>49</ele>
        <time>2021-03-07T14:22:35.000Z</time>
      </trkpt>
      <trkpt lat="47.12492" lon="-1.60218">
        <ele>51</ele>
        <time>2021-03-07T14:22:37.000Z</time>
      </trkpt>
      <trkpt lat="47.12496" lon="-1.60241">
        <ele>49</ele>
        <time>2021-03-07T14:22:39.000Z</time>
      </trkpt>
      <trkpt lat="47.12501" lon="-1.60262">
        <ele>49</ele>
        <time>2021-03-07T14:22:41.000Z</time>
      </trkpt>
      <trkpt lat="47.12501" lon="-1.60281">
        <ele>50</ele>
        <time>2021-03-07T14:22:43.000Z</time>
      </trkpt>
      <trkpt lat="47.12503" lon="-1.603">
        <ele>50</ele>
        <time>2021-03-07T14:22:45.000Z</time>
      </trkpt>
      <trkpt lat="47.12506" lon="-1.60319">
        <ele>51</ele>
        <time>2021-03-07T14:22:47.000Z</time>
      </trkpt>
      <trkpt lat="47.12509" lon="-1.60339">
        <ele>50</ele>
        <time>2021-03-07T14:22:49.000Z</time>
      </trkpt>
      <trkpt lat="47.12513" lon="-1.6036">
        <ele>50</ele>
        <time>2021-03-07T14:22:51.000Z</time>
      </trkpt>
      <trkpt lat="47.12516" lon="-1.60376">
        <ele>50</ele>
        <time>2021-03-07T14:22:53.000Z</time>
      </trkpt>
      <trkpt lat="47.1252" lon="-1.60395">
        <ele>50</ele>
        <time>2021-03-07T14:22:55.000Z</time>
      </trkpt>
      <trkpt lat="47.12523" lon="-1.60413">
        <ele>50</ele>
        <time>2021-03-07T14:22:57.000Z</time>
      </trkpt>
      <trkpt lat="47.12529" lon="-1.60433">
        <ele>50</ele>
        <time>2021-03-07T14:22:59.000Z</time>
      </trkpt>
      <trkpt lat="47.12532" lon="-1.60454">
        <ele>49</ele>
        <time>2021-03-07T14:23:01.000Z</time>
      </trkpt>
      <trkpt lat="47.12535" lon="-1.60472">
        <ele>49</ele>
        <time>2021-03-07T14:23:03.000Z</time>
      </trkpt>
      <trkpt lat="47.12538" lon="-1.60491">
        <ele>50</ele>
        <time>2021-03-07T14:23:05.000Z</time>
      </trkpt>
      <trkpt lat="47.12541" lon="-1.60514">
        <ele>48</ele>
        <time>2021-03-07T14:23:07.000Z</time>
      </trkpt>
      <trkpt lat="47.12543" lon="-1.6053">
        <ele>49</ele>
        <time>2021-03-07T14:23:09.000Z</time>
      </trkpt>
      <trkpt lat="47.12544" lon="-1.60549">
        <ele>50</ele>
        <time>2021-03-07T14:23:11.000Z</time>
      </trkpt>
      <trkpt lat="47.12544" lon="-1.60568">
        <ele>50</ele>
        <time>2021-03-07T14:23:13.000Z</time>
      </trkpt>
      <trkpt lat="47.12545" lon="-1.60586">
        <ele>50</ele>
        <time>2021-03-07T14:23:15.000Z</time>
      </trkpt>
      <trkpt lat="47.12545" lon="-1.60605">
        <ele>52</ele>
        <time>2021-03-07T14:23:17.000Z</time>
      </trkpt>
      <trkpt lat="47.12545" lon="-1.60624">
        <ele>52</ele>
        <time>2021-03-07T14:23:19.000Z</time>
      </trkpt>
      <trkpt lat="47.12546" lon="-1.60643">
        <ele>52</ele>
        <time>2021-03-07T14:23:21.000Z</time>
      </trkpt>
      <trkpt lat="47.12546" lon="-1.60662">
        <ele>53</ele>
        <time>2021-03-07T14:23:23.000Z</time>
      </trkpt>
      <trkpt lat="47.12547" lon="-1.60682">
        <ele>51</ele>
        <time>2021-03-07T14:23:25.000Z</time>
      </trkpt>
      <trkpt lat="47.12546" lon="-1.60704">
        <ele>50</ele>
        <time>2021-03-07T14:23:27.000Z</time>
      </trkpt>
      <trkpt lat="47.12547" lon="-1.60721">
        <ele>51</ele>
        <time>2021-03-07T14:23:29.000Z</time>
      </trkpt>
      <trkpt lat="47.12546" lon="-1.6074">
        <ele>51</ele>
        <time>2021-03-07T14:23:31.000Z</time>
      </trkpt>
      <trkpt lat="47.12544" lon="-1.6076">
        <ele>51</ele>
        <time>2021-03-07T14:23:33.000Z</time>
      </trkpt>
      <trkpt lat="47.12541" lon="-1.60778">
        <ele>51</ele>
        <time>2021-03-07T14:23:35.000Z</time>
      </trkpt>
      <trkpt lat="47.1254" lon="-1.60795">
        <ele>51</ele>
        <time>2021-03-07T14:23:37.000Z</time>
      </trkpt>
      <trkpt lat="47.12538" lon="-1.60813">
        <ele>49</ele>
        <time>2021-03-07T14:23:39.000Z</time>
      </trkpt>
      <trkpt lat="47.12537" lon="-1.6083">
        <ele>50</ele>
        <time>2021-03-07T14:23:41.000Z</time>
      </trkpt>
      <trkpt lat="47.12555" lon="-1.60836">
        <ele>56</ele>
        <time>2021-03-07T14:23:46.000Z</time>
      </trkpt>
      <trkpt lat="47.12568" lon="-1.60833">
        <ele>57</ele>
        <time>2021-03-07T14:23:48.000Z</time>
      </trkpt>
      <trkpt lat="47.12583" lon="-1.60834">
        <ele>59</ele>
        <time>2021-03-07T14:23:50.000Z</time>
      </trkpt>
      <trkpt lat="47.12596" lon="-1.60827">
        <ele>57</ele>
        <time>2021-03-07T14:23:53.000Z</time>
      </trkpt>
      <trkpt lat="47.12607" lon="-1.60821">
        <ele>54</ele>
        <time>2021-03-07T14:23:55.000Z</time>
      </trkpt>
      <trkpt lat="47.12617" lon="-1.60818">
        <ele>55</ele>
        <time>2021-03-07T14:23:57.000Z</time>
      </trkpt>
      <trkpt lat="47.12629" lon="-1.60815">
        <ele>55</ele>
        <time>2021-03-07T14:23:59.000Z</time>
      </trkpt>
      <trkpt lat="47.1264" lon="-1.60811">
        <ele>55</ele>
        <time>2021-03-07T14:24:01.000Z</time>
      </trkpt>
      <trkpt lat="47.12651" lon="-1.60808">
        <ele>56</ele>
        <time>2021-03-07T14:24:03.000Z</time>
      </trkpt>
      <trkpt lat="47.12661" lon="-1.60803">
        <ele>57</ele>
        <time>2021-03-07T14:24:05.000Z</time>
      </trkpt>
      <trkpt lat="47.12672" lon="-1.608">
        <ele>57</ele>
        <time>2021-03-07T14:24:07.000Z</time>
      </trkpt>
      <trkpt lat="47.12688" lon="-1.60794">
        <ele>57</ele>
        <time>2021-03-07T14:24:10.000Z</time>
      </trkpt>
      <trkpt lat="47.12697" lon="-1.60788">
        <ele>57</ele>
        <time>2021-03-07T14:24:12.000Z</time>
      </trkpt>
      <trkpt lat="47.12709" lon="-1.60784">
        <ele>58</ele>
        <time>2021-03-07T14:24:14.000Z</time>
      </trkpt>
      <trkpt lat="47.12719" lon="-1.60787">
        <ele>58</ele>
        <time>2021-03-07T14:24:16.000Z</time>
      </trkpt>
      <trkpt lat="47.12724" lon="-1.60802">
        <ele>59</ele>
        <time>2021-03-07T14:24:18.000Z</time>
      </trkpt>
      <trkpt lat="47.12721" lon="-1.60818">
        <ele>58</ele>
        <time>2021-03-07T14:24:20.000Z</time>
      </trkpt>
      <trkpt lat="47.12715" lon="-1.60832">
        <ele>55</ele>
        <time>2021-03-07T14:24:22.000Z</time>
      </trkpt>
      <trkpt lat="47.12708" lon="-1.60849">
        <ele>56</ele>
        <time>2021-03-07T14:24:24.000Z</time>
      </trkpt>
      <trkpt lat="47.12701" lon="-1.60867">
        <ele>56</ele>
        <time>2021-03-07T14:24:26.000Z</time>
      </trkpt>
      <trkpt lat="47.12696" lon="-1.60893">
        <ele>55</ele>
        <time>2021-03-07T14:24:29.000Z</time>
      </trkpt>
      <trkpt lat="47.12695" lon="-1.60913">
        <ele>53</ele>
        <time>2021-03-07T14:24:31.000Z</time>
      </trkpt>
      <trkpt lat="47.12694" lon="-1.60928">
        <ele>54</ele>
        <time>2021-03-07T14:24:33.000Z</time>
      </trkpt>
      <trkpt lat="47.12693" lon="-1.60944">
        <ele>54</ele>
        <time>2021-03-07T14:24:35.000Z</time>
      </trkpt>
      <trkpt lat="47.12692" lon="-1.60961">
        <ele>54</ele>
        <time>2021-03-07T14:24:37.000Z</time>
      </trkpt>
      <trkpt lat="47.12692" lon="-1.60978">
        <ele>55</ele>
        <time>2021-03-07T14:24:39.000Z</time>
      </trkpt>
      <trkpt lat="47.12691" lon="-1.60995">
        <ele>56</ele>
        <time>2021-03-07T14:24:41.000Z</time>
      </trkpt>
      <trkpt lat="47.12691" lon="-1.61011">
        <ele>55</ele>
        <time>2021-03-07T14:24:43.000Z</time>
      </trkpt>
      <trkpt lat="47.12691" lon="-1.61027">
        <ele>55</ele>
        <time>2021-03-07T14:24:45.000Z</time>
      </trkpt>
      <trkpt lat="47.1269" lon="-1.61044">
        <ele>55</ele>
        <time>2021-03-07T14:24:47.000Z</time>
      </trkpt>
      <trkpt lat="47.1269" lon="-1.61062">
        <ele>55</ele>
        <time>2021-03-07T14:24:49.000Z</time>
      </trkpt>
      <trkpt lat="47.12689" lon="-1.61079">
        <ele>56</ele>
        <time>2021-03-07T14:24:51.000Z</time>
      </trkpt>
      <trkpt lat="47.12688" lon="-1.61096">
        <ele>56</ele>
        <time>2021-03-07T14:24:53.000Z</time>
      </trkpt>
      <trkpt lat="47.12686" lon="-1.61113">
        <ele>56</ele>
        <time>2021-03-07T14:24:55.000Z</time>
      </trkpt>
      <trkpt lat="47.12684" lon="-1.6113">
        <ele>56</ele>
        <time>2021-03-07T14:24:57.000Z</time>
      </trkpt>
      <trkpt lat="47.12682" lon="-1.61146">
        <ele>55</ele>
        <time>2021-03-07T14:24:59.000Z</time>
      </trkpt>
      <trkpt lat="47.1268" lon="-1.61162">
        <ele>55</ele>
        <time>2021-03-07T14:25:01.000Z</time>
      </trkpt>
      <trkpt lat="47.12676" lon="-1.6118">
        <ele>56</ele>
        <time>2021-03-07T14:25:03.000Z</time>
      </trkpt>
      <trkpt lat="47.12672" lon="-1.61206">
        <ele>56</ele>
        <time>2021-03-07T14:25:06.000Z</time>
      </trkpt>
      <trkpt lat="47.12667" lon="-1.6123">
        <ele>55</ele>
        <time>2021-03-07T14:25:09.000Z</time>
      </trkpt>
      <trkpt lat="47.12667" lon="-1.61247">
        <ele>56</ele>
        <time>2021-03-07T14:25:11.000Z</time>
      </trkpt>
      <trkpt lat="47.12668" lon="-1.61264">
        <ele>56</ele>
        <time>2021-03-07T14:25:13.000Z</time>
      </trkpt>
      <trkpt lat="47.12673" lon="-1.61281">
        <ele>56</ele>
        <time>2021-03-07T14:25:15.000Z</time>
      </trkpt>
      <trkpt lat="47.12679" lon="-1.61296">
        <ele>56</ele>
        <time>2021-03-07T14:25:17.000Z</time>
      </trkpt>
      <trkpt lat="47.12687" lon="-1.6132">
        <ele>56</ele>
        <time>2021-03-07T14:25:20.000Z</time>
      </trkpt>
      <trkpt lat="47.12693" lon="-1.61335">
        <ele>56</ele>
        <time>2021-03-07T14:25:22.000Z</time>
      </trkpt>
      <trkpt lat="47.12698" lon="-1.61352">
        <ele>55</ele>
        <time>2021-03-07T14:25:24.000Z</time>
      </trkpt>
      <trkpt lat="47.12708" lon="-1.61373">
        <ele>50</ele>
        <time>2021-03-07T14:25:27.000Z</time>
      </trkpt>
      <trkpt lat="47.12714" lon="-1.61391">
        <ele>51</ele>
        <time>2021-03-07T14:25:29.000Z</time>
      </trkpt>
      <trkpt lat="47.12719" lon="-1.61409">
        <ele>52</ele>
        <time>2021-03-07T14:25:31.000Z</time>
      </trkpt>
      <trkpt lat="47.1273" lon="-1.61432">
        <ele>53</ele>
        <time>2021-03-07T14:25:34.000Z</time>
      </trkpt>
      <trkpt lat="47.12736" lon="-1.61447">
        <ele>53</ele>
        <time>2021-03-07T14:25:36.000Z</time>
      </trkpt>
      <trkpt lat="47.12743" lon="-1.61463">
        <ele>54</ele>
        <time>2021-03-07T14:25:38.000Z</time>
      </trkpt>
      <trkpt lat="47.12755" lon="-1.61492">
        <ele>54</ele>
        <time>2021-03-07T14:25:42.000Z</time>
      </trkpt>
      <trkpt lat="47.12761" lon="-1.61508">
        <ele>54</ele>
        <time>2021-03-07T14:25:44.000Z</time>
      </trkpt>
      <trkpt lat="47.12767" lon="-1.61523">
        <ele>54</ele>
        <time>2021-03-07T14:25:46.000Z</time>
      </trkpt>
      <trkpt lat="47.12775" lon="-1.61538">
        <ele>51</ele>
        <time>2021-03-07T14:25:48.000Z</time>
      </trkpt>
      <trkpt lat="47.12781" lon="-1.61552">
        <ele>52</ele>
        <time>2021-03-07T14:25:50.000Z</time>
      </trkpt>
      <trkpt lat="47.12786" lon="-1.61569">
        <ele>52</ele>
        <time>2021-03-07T14:25:52.000Z</time>
      </trkpt>
      <trkpt lat="47.12792" lon="-1.61584">
        <ele>52</ele>
        <time>2021-03-07T14:25:54.000Z</time>
      </trkpt>
      <trkpt lat="47.12798" lon="-1.61599">
        <ele>52</ele>
        <time>2021-03-07T14:25:56.000Z</time>
      </trkpt>
      <trkpt lat="47.12803" lon="-1.61614">
        <ele>53</ele>
        <time>2021-03-07T14:25:58.000Z</time>
      </trkpt>
      <trkpt lat="47.12808" lon="-1.6163">
        <ele>54</ele>
        <time>2021-03-07T14:26:00.000Z</time>
      </trkpt>
      <trkpt lat="47.12814" lon="-1.61643">
        <ele>54</ele>
        <time>2021-03-07T14:26:02.000Z</time>
      </trkpt>
      <trkpt lat="47.12827" lon="-1.61644">
        <ele>54</ele>
        <time>2021-03-07T14:26:05.000Z</time>
      </trkpt>
      <trkpt lat="47.12838" lon="-1.61637">
        <ele>54</ele>
        <time>2021-03-07T14:26:07.000Z</time>
      </trkpt>
      <trkpt lat="47.1285" lon="-1.61629">
        <ele>54</ele>
        <time>2021-03-07T14:26:09.000Z</time>
      </trkpt>
      <trkpt lat="47.12862" lon="-1.61621">
        <ele>54</ele>
        <time>2021-03-07T14:26:11.000Z</time>
      </trkpt>
      <trkpt lat="47.12874" lon="-1.61614">
        <ele>55</ele>
        <time>2021-03-07T14:26:13.000Z</time>
      </trkpt>
      <trkpt lat="47.12886" lon="-1.61606">
        <ele>55</ele>
        <time>2021-03-07T14:26:15.000Z</time>
      </trkpt>
      <trkpt lat="47.12898" lon="-1.61598">
        <ele>55</ele>
        <time>2021-03-07T14:26:17.000Z</time>
      </trkpt>
      <trkpt lat="47.12909" lon="-1.61591">
        <ele>55</ele>
        <time>2021-03-07T14:26:19.000Z</time>
      </trkpt>
      <trkpt lat="47.12921" lon="-1.61583">
        <ele>55</ele>
        <time>2021-03-07T14:26:21.000Z</time>
      </trkpt>
      <trkpt lat="47.12938" lon="-1.61573">
        <ele>56</ele>
        <time>2021-03-07T14:26:24.000Z</time>
      </trkpt>
      <trkpt lat="47.12948" lon="-1.61564">
        <ele>54</ele>
        <time>2021-03-07T14:26:26.000Z</time>
      </trkpt>
      <trkpt lat="47.12958" lon="-1.61549">
        <ele>53</ele>
        <time>2021-03-07T14:26:28.000Z</time>
      </trkpt>
      <trkpt lat="47.12976" lon="-1.61544">
        <ele>54</ele>
        <time>2021-03-07T14:26:31.000Z</time>
      </trkpt>
      <trkpt lat="47.12989" lon="-1.61541">
        <ele>52</ele>
        <time>2021-03-07T14:26:33.000Z</time>
      </trkpt>
      <trkpt lat="47.13" lon="-1.61532">
        <ele>53</ele>
        <time>2021-03-07T14:26:35.000Z</time>
      </trkpt>
      <trkpt lat="47.13009" lon="-1.61521">
        <ele>51</ele>
        <time>2021-03-07T14:26:37.000Z</time>
      </trkpt>
      <trkpt lat="47.1302" lon="-1.61512">
        <ele>52</ele>
        <time>2021-03-07T14:26:39.000Z</time>
      </trkpt>
      <trkpt lat="47.13033" lon="-1.61504">
        <ele>53</ele>
        <time>2021-03-07T14:26:41.000Z</time>
      </trkpt>
      <trkpt lat="47.13045" lon="-1.61496">
        <ele>52</ele>
        <time>2021-03-07T14:26:43.000Z</time>
      </trkpt>
      <trkpt lat="47.13062" lon="-1.61483">
        <ele>52</ele>
        <time>2021-03-07T14:26:46.000Z</time>
      </trkpt>
      <trkpt lat="47.13073" lon="-1.61474">
        <ele>51</ele>
        <time>2021-03-07T14:26:48.000Z</time>
      </trkpt>
      <trkpt lat="47.13083" lon="-1.61465">
        <ele>52</ele>
        <time>2021-03-07T14:26:50.000Z</time>
      </trkpt>
      <trkpt lat="47.13099" lon="-1.61454">
        <ele>51</ele>
        <time>2021-03-07T14:26:53.000Z</time>
      </trkpt>
      <trkpt lat="47.13109" lon="-1.61446">
        <ele>51</ele>
        <time>2021-03-07T14:26:55.000Z</time>
      </trkpt>
      <trkpt lat="47.13121" lon="-1.61438">
        <ele>52</ele>
        <time>2021-03-07T14:26:57.000Z</time>
      </trkpt>
      <trkpt lat="47.13134" lon="-1.61431">
        <ele>53</ele>
        <time>2021-03-07T14:26:59.000Z</time>
      </trkpt>
      <trkpt lat="47.13153" lon="-1.61421">
        <ele>54</ele>
        <time>2021-03-07T14:27:02.000Z</time>
      </trkpt>
      <trkpt lat="47.13165" lon="-1.61415">
        <ele>54</ele>
        <time>2021-03-07T14:27:04.000Z</time>
      </trkpt>
      <trkpt lat="47.13183" lon="-1.61407">
        <ele>54</ele>
        <time>2021-03-07T14:27:07.000Z</time>
      </trkpt>
      <trkpt lat="47.13195" lon="-1.61401">
        <ele>54</ele>
        <time>2021-03-07T14:27:09.000Z</time>
      </trkpt>
      <trkpt lat="47.13204" lon="-1.61395">
        <ele>54</ele>
        <time>2021-03-07T14:27:11.000Z</time>
      </trkpt>
      <trkpt lat="47.13215" lon="-1.6139">
        <ele>53</ele>
        <time>2021-03-07T14:27:13.000Z</time>
      </trkpt>
      <trkpt lat="47.13228" lon="-1.61386">
        <ele>53</ele>
        <time>2021-03-07T14:27:15.000Z</time>
      </trkpt>
      <trkpt lat="47.13242" lon="-1.61379">
        <ele>46</ele>
        <time>2021-03-07T14:27:17.000Z</time>
      </trkpt>
      <trkpt lat="47.13263" lon="-1.61373">
        <ele>48</ele>
        <time>2021-03-07T14:27:20.000Z</time>
      </trkpt>
      <trkpt lat="47.1328" lon="-1.61364">
        <ele>47</ele>
        <time>2021-03-07T14:27:23.000Z</time>
      </trkpt>
      <trkpt lat="47.13291" lon="-1.61357">
        <ele>48</ele>
        <time>2021-03-07T14:27:25.000Z</time>
      </trkpt>
      <trkpt lat="47.13303" lon="-1.61351">
        <ele>49</ele>
        <time>2021-03-07T14:27:27.000Z</time>
      </trkpt>
      <trkpt lat="47.13315" lon="-1.61344">
        <ele>50</ele>
        <time>2021-03-07T14:27:29.000Z</time>
      </trkpt>
      <trkpt lat="47.13332" lon="-1.61333">
        <ele>51</ele>
        <time>2021-03-07T14:27:32.000Z</time>
      </trkpt>
      <trkpt lat="47.13344" lon="-1.61324">
        <ele>53</ele>
        <time>2021-03-07T14:27:34.000Z</time>
      </trkpt>
      <trkpt lat="47.13356" lon="-1.61317">
        <ele>54</ele>
        <time>2021-03-07T14:27:36.000Z</time>
      </trkpt>
      <trkpt lat="47.13367" lon="-1.61309">
        <ele>55</ele>
        <time>2021-03-07T14:27:38.000Z</time>
      </trkpt>
      <trkpt lat="47.13377" lon="-1.61301">
        <ele>55</ele>
        <time>2021-03-07T14:27:40.000Z</time>
      </trkpt>
      <trkpt lat="47.13388" lon="-1.61294">
        <ele>56</ele>
        <time>2021-03-07T14:27:42.000Z</time>
      </trkpt>
      <trkpt lat="47.13399" lon="-1.61285">
        <ele>56</ele>
        <time>2021-03-07T14:27:44.000Z</time>
      </trkpt>
      <trkpt lat="47.13409" lon="-1.61275">
        <ele>54</ele>
        <time>2021-03-07T14:27:46.000Z</time>
      </trkpt>
      <trkpt lat="47.13418" lon="-1.61262">
        <ele>53</ele>
        <time>2021-03-07T14:27:48.000Z</time>
      </trkpt>
      <trkpt lat="47.13427" lon="-1.6125">
        <ele>54</ele>
        <time>2021-03-07T14:27:50.000Z</time>
      </trkpt>
      <trkpt lat="47.13435" lon="-1.61238">
        <ele>54</ele>
        <time>2021-03-07T14:27:52.000Z</time>
      </trkpt>
      <trkpt lat="47.13444" lon="-1.61226">
        <ele>55</ele>
        <time>2021-03-07T14:27:54.000Z</time>
      </trkpt>
      <trkpt lat="47.13452" lon="-1.61213">
        <ele>55</ele>
        <time>2021-03-07T14:27:56.000Z</time>
      </trkpt>
      <trkpt lat="47.13461" lon="-1.61201">
        <ele>55</ele>
        <time>2021-03-07T14:27:58.000Z</time>
      </trkpt>
      <trkpt lat="47.13473" lon="-1.61182">
        <ele>55</ele>
        <time>2021-03-07T14:28:01.000Z</time>
      </trkpt>
      <trkpt lat="47.13482" lon="-1.61169">
        <ele>56</ele>
        <time>2021-03-07T14:28:03.000Z</time>
      </trkpt>
      <trkpt lat="47.13489" lon="-1.61157">
        <ele>56</ele>
        <time>2021-03-07T14:28:05.000Z</time>
      </trkpt>
      <trkpt lat="47.13498" lon="-1.61146">
        <ele>57</ele>
        <time>2021-03-07T14:28:07.000Z</time>
      </trkpt>
      <trkpt lat="47.13508" lon="-1.61137">
        <ele>57</ele>
        <time>2021-03-07T14:28:09.000Z</time>
      </trkpt>
      <trkpt lat="47.13519" lon="-1.61129">
        <ele>57</ele>
        <time>2021-03-07T14:28:11.000Z</time>
      </trkpt>
      <trkpt lat="47.13529" lon="-1.6112">
        <ele>57</ele>
        <time>2021-03-07T14:28:13.000Z</time>
      </trkpt>
      <trkpt lat="47.13544" lon="-1.61108">
        <ele>57</ele>
        <time>2021-03-07T14:28:16.000Z</time>
      </trkpt>
      <trkpt lat="47.13554" lon="-1.61098">
        <ele>57</ele>
        <time>2021-03-07T14:28:18.000Z</time>
      </trkpt>
      <trkpt lat="47.13564" lon="-1.61089">
        <ele>58</ele>
        <time>2021-03-07T14:28:20.000Z</time>
      </trkpt>
      <trkpt lat="47.13574" lon="-1.61082">
        <ele>58</ele>
        <time>2021-03-07T14:28:22.000Z</time>
      </trkpt>
      <trkpt lat="47.13584" lon="-1.61073">
        <ele>58</ele>
        <time>2021-03-07T14:28:24.000Z</time>
      </trkpt>
      <trkpt lat="47.13594" lon="-1.61065">
        <ele>56</ele>
        <time>2021-03-07T14:28:26.000Z</time>
      </trkpt>
      <trkpt lat="47.13603" lon="-1.61056">
        <ele>55</ele>
        <time>2021-03-07T14:28:28.000Z</time>
      </trkpt>
      <trkpt lat="47.1362" lon="-1.61047">
        <ele>55</ele>
        <time>2021-03-07T14:28:31.000Z</time>
      </trkpt>
      <trkpt lat="47.13632" lon="-1.61039">
        <ele>56</ele>
        <time>2021-03-07T14:28:33.000Z</time>
      </trkpt>
      <trkpt lat="47.13642" lon="-1.61035">
        <ele>57</ele>
        <time>2021-03-07T14:28:35.000Z</time>
      </trkpt>
      <trkpt lat="47.1366" lon="-1.61029">
        <ele>58</ele>
        <time>2021-03-07T14:28:38.000Z</time>
      </trkpt>
      <trkpt lat="47.1367" lon="-1.61023">
        <ele>58</ele>
        <time>2021-03-07T14:28:40.000Z</time>
      </trkpt>
      <trkpt lat="47.13681" lon="-1.61019">
        <ele>59</ele>
        <time>2021-03-07T14:28:42.000Z</time>
      </trkpt>
      <trkpt lat="47.13693" lon="-1.61015">
        <ele>59</ele>
        <time>2021-03-07T14:28:44.000Z</time>
      </trkpt>
      <trkpt lat="47.13708" lon="-1.61007">
        <ele>60</ele>
        <time>2021-03-07T14:28:47.000Z</time>
      </trkpt>
      <trkpt lat="47.13719" lon="-1.61001">
        <ele>60</ele>
        <time>2021-03-07T14:28:49.000Z</time>
      </trkpt>
      <trkpt lat="47.13729" lon="-1.60993">
        <ele>60</ele>
        <time>2021-03-07T14:28:51.000Z</time>
      </trkpt>
      <trkpt lat="47.13738" lon="-1.60985">
        <ele>59</ele>
        <time>2021-03-07T14:28:53.000Z</time>
      </trkpt>
      <trkpt lat="47.13749" lon="-1.60969">
        <ele>60</ele>
        <time>2021-03-07T14:28:56.000Z</time>
      </trkpt>
      <trkpt lat="47.1376" lon="-1.6096">
        <ele>60</ele>
        <time>2021-03-07T14:28:58.000Z</time>
      </trkpt>
      <trkpt lat="47.13769" lon="-1.60951">
        <ele>61</ele>
        <time>2021-03-07T14:29:00.000Z</time>
      </trkpt>
      <trkpt lat="47.13779" lon="-1.60942">
        <ele>61</ele>
        <time>2021-03-07T14:29:02.000Z</time>
      </trkpt>
      <trkpt lat="47.13789" lon="-1.60932">
        <ele>62</ele>
        <time>2021-03-07T14:29:04.000Z</time>
      </trkpt>
      <trkpt lat="47.13803" lon="-1.60917">
        <ele>61</ele>
        <time>2021-03-07T14:29:07.000Z</time>
      </trkpt>
      <trkpt lat="47.13817" lon="-1.60905">
        <ele>60</ele>
        <time>2021-03-07T14:29:10.000Z</time>
      </trkpt>
      <trkpt lat="47.13827" lon="-1.60894">
        <ele>61</ele>
        <time>2021-03-07T14:29:12.000Z</time>
      </trkpt>
      <trkpt lat="47.13837" lon="-1.60884">
        <ele>61</ele>
        <time>2021-03-07T14:29:14.000Z</time>
      </trkpt>
      <trkpt lat="47.13846" lon="-1.60876">
        <ele>60</ele>
        <time>2021-03-07T14:29:16.000Z</time>
      </trkpt>
      <trkpt lat="47.13853" lon="-1.60863">
        <ele>59</ele>
        <time>2021-03-07T14:29:18.000Z</time>
      </trkpt>
      <trkpt lat="47.13871" lon="-1.60855">
        <ele>61</ele>
        <time>2021-03-07T14:29:21.000Z</time>
      </trkpt>
      <trkpt lat="47.13883" lon="-1.6085">
        <ele>61</ele>
        <time>2021-03-07T14:29:23.000Z</time>
      </trkpt>
      <trkpt lat="47.13896" lon="-1.60845">
        <ele>62</ele>
        <time>2021-03-07T14:29:25.000Z</time>
      </trkpt>
      <trkpt lat="47.13907" lon="-1.6084">
        <ele>62</ele>
        <time>2021-03-07T14:29:27.000Z</time>
      </trkpt>
      <trkpt lat="47.13918" lon="-1.60835">
        <ele>62</ele>
        <time>2021-03-07T14:29:29.000Z</time>
      </trkpt>
      <trkpt lat="47.13929" lon="-1.60829">
        <ele>62</ele>
        <time>2021-03-07T14:29:31.000Z</time>
      </trkpt>
      <trkpt lat="47.13939" lon="-1.60822">
        <ele>63</ele>
        <time>2021-03-07T14:29:33.000Z</time>
      </trkpt>
      <trkpt lat="47.13949" lon="-1.60814">
        <ele>63</ele>
        <time>2021-03-07T14:29:35.000Z</time>
      </trkpt>
      <trkpt lat="47.13959" lon="-1.60805">
        <ele>63</ele>
        <time>2021-03-07T14:29:37.000Z</time>
      </trkpt>
      <trkpt lat="47.13968" lon="-1.60797">
        <ele>63</ele>
        <time>2021-03-07T14:29:39.000Z</time>
      </trkpt>
      <trkpt lat="47.13976" lon="-1.6079">
        <ele>63</ele>
        <time>2021-03-07T14:29:41.000Z</time>
      </trkpt>
      <trkpt lat="47.13992" lon="-1.6078">
        <ele>62</ele>
        <time>2021-03-07T14:29:44.000Z</time>
      </trkpt>
      <trkpt lat="47.14003" lon="-1.60775">
        <ele>60</ele>
        <time>2021-03-07T14:29:46.000Z</time>
      </trkpt>
      <trkpt lat="47.14014" lon="-1.6077">
        <ele>59</ele>
        <time>2021-03-07T14:29:48.000Z</time>
      </trkpt>
      <trkpt lat="47.14024" lon="-1.60764">
        <ele>60</ele>
        <time>2021-03-07T14:29:50.000Z</time>
      </trkpt>
      <trkpt lat="47.14044" lon="-1.60752">
        <ele>60</ele>
        <time>2021-03-07T14:29:54.000Z</time>
      </trkpt>
      <trkpt lat="47.14056" lon="-1.60748">
        <ele>60</ele>
        <time>2021-03-07T14:29:56.000Z</time>
      </trkpt>
      <trkpt lat="47.14068" lon="-1.60747">
        <ele>63</ele>
        <time>2021-03-07T14:29:58.000Z</time>
      </trkpt>
      <trkpt lat="47.1408" lon="-1.60741">
        <ele>64</ele>
        <time>2021-03-07T14:30:00.000Z</time>
      </trkpt>
      <trkpt lat="47.14089" lon="-1.60734">
        <ele>65</ele>
        <time>2021-03-07T14:30:02.000Z</time>
      </trkpt>
      <trkpt lat="47.14099" lon="-1.60727">
        <ele>65</ele>
        <time>2021-03-07T14:30:04.000Z</time>
      </trkpt>
      <trkpt lat="47.1411" lon="-1.60719">
        <ele>66</ele>
        <time>2021-03-07T14:30:06.000Z</time>
      </trkpt>
      <trkpt lat="47.14119" lon="-1.60708">
        <ele>66</ele>
        <time>2021-03-07T14:30:08.000Z</time>
      </trkpt>
      <trkpt lat="47.14128" lon="-1.60698">
        <ele>67</ele>
        <time>2021-03-07T14:30:10.000Z</time>
      </trkpt>
      <trkpt lat="47.14137" lon="-1.60688">
        <ele>67</ele>
        <time>2021-03-07T14:30:12.000Z</time>
      </trkpt>
      <trkpt lat="47.14146" lon="-1.60679">
        <ele>68</ele>
        <time>2021-03-07T14:30:14.000Z</time>
      </trkpt>
      <trkpt lat="47.1416" lon="-1.60666">
        <ele>67</ele>
        <time>2021-03-07T14:30:17.000Z</time>
      </trkpt>
      <trkpt lat="47.14169" lon="-1.60657">
        <ele>67</ele>
        <time>2021-03-07T14:30:19.000Z</time>
      </trkpt>
      <trkpt lat="47.14179" lon="-1.6065">
        <ele>69</ele>
        <time>2021-03-07T14:30:21.000Z</time>
      </trkpt>
      <trkpt lat="47.14189" lon="-1.60644">
        <ele>70</ele>
        <time>2021-03-07T14:30:23.000Z</time>
      </trkpt>
      <trkpt lat="47.14199" lon="-1.60638">
        <ele>69</ele>
        <time>2021-03-07T14:30:25.000Z</time>
      </trkpt>
      <trkpt lat="47.14212" lon="-1.60646">
        <ele>54</ele>
        <time>2021-03-07T14:30:29.000Z</time>
      </trkpt>
      <trkpt lat="47.14236" lon="-1.60623">
        <ele>68</ele>
        <time>2021-03-07T14:30:31.000Z</time>
      </trkpt>
      <trkpt lat="47.14248" lon="-1.60601">
        <ele>68</ele>
        <time>2021-03-07T14:30:35.000Z</time>
      </trkpt>
      <trkpt lat="47.14257" lon="-1.60596">
        <ele>69</ele>
        <time>2021-03-07T14:30:37.000Z</time>
      </trkpt>
      <trkpt lat="47.14274" lon="-1.60586">
        <ele>70</ele>
        <time>2021-03-07T14:30:40.000Z</time>
      </trkpt>
      <trkpt lat="47.14284" lon="-1.60578">
        <ele>69</ele>
        <time>2021-03-07T14:30:42.000Z</time>
      </trkpt>
      <trkpt lat="47.14294" lon="-1.6057">
        <ele>69</ele>
        <time>2021-03-07T14:30:44.000Z</time>
      </trkpt>
      <trkpt lat="47.1431" lon="-1.60559">
        <ele>68</ele>
        <time>2021-03-07T14:30:47.000Z</time>
      </trkpt>
      <trkpt lat="47.1432" lon="-1.60552">
        <ele>67</ele>
        <time>2021-03-07T14:30:49.000Z</time>
      </trkpt>
      <trkpt lat="47.1433" lon="-1.60543">
        <ele>67</ele>
        <time>2021-03-07T14:30:51.000Z</time>
      </trkpt>
      <trkpt lat="47.1434" lon="-1.60534">
        <ele>68</ele>
        <time>2021-03-07T14:30:53.000Z</time>
      </trkpt>
      <trkpt lat="47.1435" lon="-1.60526">
        <ele>68</ele>
        <time>2021-03-07T14:30:55.000Z</time>
      </trkpt>
      <trkpt lat="47.14365" lon="-1.60512">
        <ele>68</ele>
        <time>2021-03-07T14:30:58.000Z</time>
      </trkpt>
      <trkpt lat="47.14373" lon="-1.60502">
        <ele>69</ele>
        <time>2021-03-07T14:31:00.000Z</time>
      </trkpt>
      <trkpt lat="47.14382" lon="-1.60493">
        <ele>68</ele>
        <time>2021-03-07T14:31:02.000Z</time>
      </trkpt>
      <trkpt lat="47.14392" lon="-1.60485">
        <ele>68</ele>
        <time>2021-03-07T14:31:04.000Z</time>
      </trkpt>
      <trkpt lat="47.14403" lon="-1.60477">
        <ele>68</ele>
        <time>2021-03-07T14:31:06.000Z</time>
      </trkpt>
      <trkpt lat="47.14416" lon="-1.60463">
        <ele>65</ele>
        <time>2021-03-07T14:31:09.000Z</time>
      </trkpt>
      <trkpt lat="47.14428" lon="-1.60457">
        <ele>67</ele>
        <time>2021-03-07T14:31:11.000Z</time>
      </trkpt>
      <trkpt lat="47.14436" lon="-1.60448">
        <ele>67</ele>
        <time>2021-03-07T14:31:13.000Z</time>
      </trkpt>
      <trkpt lat="47.14445" lon="-1.60438">
        <ele>67</ele>
        <time>2021-03-07T14:31:15.000Z</time>
      </trkpt>
      <trkpt lat="47.14451" lon="-1.60424">
        <ele>68</ele>
        <time>2021-03-07T14:31:17.000Z</time>
      </trkpt>
      <trkpt lat="47.14455" lon="-1.60408">
        <ele>68</ele>
        <time>2021-03-07T14:31:19.000Z</time>
      </trkpt>
      <trkpt lat="47.1446" lon="-1.60394">
        <ele>68</ele>
        <time>2021-03-07T14:31:21.000Z</time>
      </trkpt>
      <trkpt lat="47.14469" lon="-1.60372">
        <ele>69</ele>
        <time>2021-03-07T14:31:24.000Z</time>
      </trkpt>
      <trkpt lat="47.14473" lon="-1.60357">
        <ele>68</ele>
        <time>2021-03-07T14:31:26.000Z</time>
      </trkpt>
      <trkpt lat="47.14479" lon="-1.60341">
        <ele>69</ele>
        <time>2021-03-07T14:31:28.000Z</time>
      </trkpt>
      <trkpt lat="47.14486" lon="-1.60327">
        <ele>69</ele>
        <time>2021-03-07T14:31:30.000Z</time>
      </trkpt>
      <trkpt lat="47.14494" lon="-1.60314">
        <ele>68</ele>
        <time>2021-03-07T14:31:32.000Z</time>
      </trkpt>
      <trkpt lat="47.145" lon="-1.603">
        <ele>68</ele>
        <time>2021-03-07T14:31:34.000Z</time>
      </trkpt>
      <trkpt lat="47.14505" lon="-1.60284">
        <ele>69</ele>
        <time>2021-03-07T14:31:36.000Z</time>
      </trkpt>
      <trkpt lat="47.1451" lon="-1.6027">
        <ele>69</ele>
        <time>2021-03-07T14:31:38.000Z</time>
      </trkpt>
      <trkpt lat="47.14514" lon="-1.60254">
        <ele>69</ele>
        <time>2021-03-07T14:31:40.000Z</time>
      </trkpt>
      <trkpt lat="47.1452" lon="-1.6023">
        <ele>69</ele>
        <time>2021-03-07T14:31:43.000Z</time>
      </trkpt>
      <trkpt lat="47.14524" lon="-1.60215">
        <ele>69</ele>
        <time>2021-03-07T14:31:45.000Z</time>
      </trkpt>
      <trkpt lat="47.1453" lon="-1.60198">
        <ele>68</ele>
        <time>2021-03-07T14:31:47.000Z</time>
      </trkpt>
      <trkpt lat="47.14536" lon="-1.60181">
        <ele>66</ele>
        <time>2021-03-07T14:31:49.000Z</time>
      </trkpt>
      <trkpt lat="47.14542" lon="-1.60164">
        <ele>67</ele>
        <time>2021-03-07T14:31:51.000Z</time>
      </trkpt>
      <trkpt lat="47.14551" lon="-1.60141">
        <ele>66</ele>
        <time>2021-03-07T14:31:54.000Z</time>
      </trkpt>
      <trkpt lat="47.14557" lon="-1.60125">
        <ele>67</ele>
        <time>2021-03-07T14:31:56.000Z</time>
      </trkpt>
      <trkpt lat="47.14564" lon="-1.60109">
        <ele>68</ele>
        <time>2021-03-07T14:31:58.000Z</time>
      </trkpt>
      <trkpt lat="47.14571" lon="-1.60094">
        <ele>68</ele>
        <time>2021-03-07T14:32:00.000Z</time>
      </trkpt>
      <trkpt lat="47.14581" lon="-1.60072">
        <ele>68</ele>
        <time>2021-03-07T14:32:03.000Z</time>
      </trkpt>
      <trkpt lat="47.14587" lon="-1.60058">
        <ele>67</ele>
        <time>2021-03-07T14:32:05.000Z</time>
      </trkpt>
      <trkpt lat="47.14594" lon="-1.60042">
        <ele>67</ele>
        <time>2021-03-07T14:32:07.000Z</time>
      </trkpt>
      <trkpt lat="47.146" lon="-1.60028">
        <ele>67</ele>
        <time>2021-03-07T14:32:09.000Z</time>
      </trkpt>
      <trkpt lat="47.14606" lon="-1.60013">
        <ele>66</ele>
        <time>2021-03-07T14:32:11.000Z</time>
      </trkpt>
      <trkpt lat="47.14613" lon="-1.59997">
        <ele>66</ele>
        <time>2021-03-07T14:32:13.000Z</time>
      </trkpt>
      <trkpt lat="47.14619" lon="-1.59982">
        <ele>67</ele>
        <time>2021-03-07T14:32:15.000Z</time>
      </trkpt>
      <trkpt lat="47.14629" lon="-1.59958">
        <ele>66</ele>
        <time>2021-03-07T14:32:18.000Z</time>
      </trkpt>
      <trkpt lat="47.14634" lon="-1.59944">
        <ele>67</ele>
        <time>2021-03-07T14:32:20.000Z</time>
      </trkpt>
      <trkpt lat="47.1464" lon="-1.59931">
        <ele>65</ele>
        <time>2021-03-07T14:32:22.000Z</time>
      </trkpt>
      <trkpt lat="47.14645" lon="-1.59918">
        <ele>64</ele>
        <time>2021-03-07T14:32:24.000Z</time>
      </trkpt>
      <trkpt lat="47.14654" lon="-1.59895">
        <ele>63</ele>
        <time>2021-03-07T14:32:28.000Z</time>
      </trkpt>
      <trkpt lat="47.14664" lon="-1.59879">
        <ele>63</ele>
        <time>2021-03-07T14:32:30.000Z</time>
      </trkpt>
      <trkpt lat="47.14673" lon="-1.59866">
        <ele>63</ele>
        <time>2021-03-07T14:32:32.000Z</time>
      </trkpt>
      <trkpt lat="47.14681" lon="-1.59853">
        <ele>66</ele>
        <time>2021-03-07T14:32:34.000Z</time>
      </trkpt>
      <trkpt lat="47.1469" lon="-1.59839">
        <ele>65</ele>
        <time>2021-03-07T14:32:36.000Z</time>
      </trkpt>
      <trkpt lat="47.14698" lon="-1.59827">
        <ele>65</ele>
        <time>2021-03-07T14:32:38.000Z</time>
      </trkpt>
      <trkpt lat="47.14711" lon="-1.5981">
        <ele>66</ele>
        <time>2021-03-07T14:32:41.000Z</time>
      </trkpt>
      <trkpt lat="47.1472" lon="-1.59798">
        <ele>66</ele>
        <time>2021-03-07T14:32:43.000Z</time>
      </trkpt>
      <trkpt lat="47.14729" lon="-1.59787">
        <ele>67</ele>
        <time>2021-03-07T14:32:45.000Z</time>
      </trkpt>
      <trkpt lat="47.14739" lon="-1.59776">
        <ele>67</ele>
        <time>2021-03-07T14:32:47.000Z</time>
      </trkpt>
      <trkpt lat="47.14749" lon="-1.59767">
        <ele>67</ele>
        <time>2021-03-07T14:32:49.000Z</time>
      </trkpt>
      <trkpt lat="47.14756" lon="-1.59755">
        <ele>68</ele>
        <time>2021-03-07T14:32:51.000Z</time>
      </trkpt>
      <trkpt lat="47.14766" lon="-1.59746">
        <ele>69</ele>
        <time>2021-03-07T14:32:53.000Z</time>
      </trkpt>
      <trkpt lat="47.14775" lon="-1.59738">
        <ele>69</ele>
        <time>2021-03-07T14:32:55.000Z</time>
      </trkpt>
      <trkpt lat="47.14784" lon="-1.5973">
        <ele>69</ele>
        <time>2021-03-07T14:32:57.000Z</time>
      </trkpt>
      <trkpt lat="47.14794" lon="-1.59721">
        <ele>70</ele>
        <time>2021-03-07T14:32:59.000Z</time>
      </trkpt>
      <trkpt lat="47.14809" lon="-1.59712">
        <ele>71</ele>
        <time>2021-03-07T14:33:02.000Z</time>
      </trkpt>
      <trkpt lat="47.14825" lon="-1.59703">
        <ele>71</ele>
        <time>2021-03-07T14:33:05.000Z</time>
      </trkpt>
      <trkpt lat="47.14835" lon="-1.59697">
        <ele>71</ele>
        <time>2021-03-07T14:33:07.000Z</time>
      </trkpt>
      <trkpt lat="47.14845" lon="-1.5969">
        <ele>68</ele>
        <time>2021-03-07T14:33:09.000Z</time>
      </trkpt>
      <trkpt lat="47.14854" lon="-1.59683">
        <ele>69</ele>
        <time>2021-03-07T14:33:11.000Z</time>
      </trkpt>
      <trkpt lat="47.14864" lon="-1.59678">
        <ele>70</ele>
        <time>2021-03-07T14:33:13.000Z</time>
      </trkpt>
      <trkpt lat="47.14879" lon="-1.59673">
        <ele>71</ele>
        <time>2021-03-07T14:33:16.000Z</time>
      </trkpt>
      <trkpt lat="47.1489" lon="-1.5967">
        <ele>71</ele>
        <time>2021-03-07T14:33:18.000Z</time>
      </trkpt>
      <trkpt lat="47.14904" lon="-1.59665">
        <ele>72</ele>
        <time>2021-03-07T14:33:21.000Z</time>
      </trkpt>
      <trkpt lat="47.14913" lon="-1.59661">
        <ele>72</ele>
        <time>2021-03-07T14:33:23.000Z</time>
      </trkpt>
      <trkpt lat="47.14923" lon="-1.59657">
        <ele>71</ele>
        <time>2021-03-07T14:33:25.000Z</time>
      </trkpt>
      <trkpt lat="47.14933" lon="-1.59653">
        <ele>72</ele>
        <time>2021-03-07T14:33:27.000Z</time>
      </trkpt>
      <trkpt lat="47.14942" lon="-1.59649">
        <ele>72</ele>
        <time>2021-03-07T14:33:29.000Z</time>
      </trkpt>
      <trkpt lat="47.14957" lon="-1.59643">
        <ele>72</ele>
        <time>2021-03-07T14:33:32.000Z</time>
      </trkpt>
      <trkpt lat="47.14967" lon="-1.5964">
        <ele>72</ele>
        <time>2021-03-07T14:33:34.000Z</time>
      </trkpt>
      <trkpt lat="47.14976" lon="-1.59636">
        <ele>71</ele>
        <time>2021-03-07T14:33:36.000Z</time>
      </trkpt>
      <trkpt lat="47.14986" lon="-1.59631">
        <ele>71</ele>
        <time>2021-03-07T14:33:38.000Z</time>
      </trkpt>
      <trkpt lat="47.14995" lon="-1.59625">
        <ele>72</ele>
        <time>2021-03-07T14:33:40.000Z</time>
      </trkpt>
      <trkpt lat="47.15004" lon="-1.59616">
        <ele>72</ele>
        <time>2021-03-07T14:33:42.000Z</time>
      </trkpt>
      <trkpt lat="47.15015" lon="-1.59603">
        <ele>73</ele>
        <time>2021-03-07T14:33:45.000Z</time>
      </trkpt>
      <trkpt lat="47.15024" lon="-1.59598">
        <ele>73</ele>
        <time>2021-03-07T14:33:47.000Z</time>
      </trkpt>
      <trkpt lat="47.1504" lon="-1.59603">
        <ele>75</ele>
        <time>2021-03-07T14:33:50.000Z</time>
      </trkpt>
      <trkpt lat="47.15051" lon="-1.59601">
        <ele>75</ele>
        <time>2021-03-07T14:33:52.000Z</time>
      </trkpt>
      <trkpt lat="47.15066" lon="-1.59593">
        <ele>75</ele>
        <time>2021-03-07T14:33:55.000Z</time>
      </trkpt>
      <trkpt lat="47.15075" lon="-1.59588">
        <ele>75</ele>
        <time>2021-03-07T14:33:57.000Z</time>
      </trkpt>
      <trkpt lat="47.15089" lon="-1.59579">
        <ele>74</ele>
        <time>2021-03-07T14:34:00.000Z</time>
      </trkpt>
      <trkpt lat="47.15098" lon="-1.59573">
        <ele>74</ele>
        <time>2021-03-07T14:34:02.000Z</time>
      </trkpt>
      <trkpt lat="47.15107" lon="-1.59565">
        <ele>74</ele>
        <time>2021-03-07T14:34:04.000Z</time>
      </trkpt>
      <trkpt lat="47.15116" lon="-1.59558">
        <ele>74</ele>
        <time>2021-03-07T14:34:06.000Z</time>
      </trkpt>
      <trkpt lat="47.15125" lon="-1.59551">
        <ele>74</ele>
        <time>2021-03-07T14:34:08.000Z</time>
      </trkpt>
      <trkpt lat="47.15136" lon="-1.59541">
        <ele>73</ele>
        <time>2021-03-07T14:34:11.000Z</time>
      </trkpt>
      <trkpt lat="47.15146" lon="-1.59531">
        <ele>73</ele>
        <time>2021-03-07T14:34:13.000Z</time>
      </trkpt>
      <trkpt lat="47.15155" lon="-1.59525">
        <ele>73</ele>
        <time>2021-03-07T14:34:15.000Z</time>
      </trkpt>
      <trkpt lat="47.15164" lon="-1.59518">
        <ele>73</ele>
        <time>2021-03-07T14:34:17.000Z</time>
      </trkpt>
      <trkpt lat="47.15173" lon="-1.5951">
        <ele>73</ele>
        <time>2021-03-07T14:34:19.000Z</time>
      </trkpt>
      <trkpt lat="47.15182" lon="-1.59503">
        <ele>74</ele>
        <time>2021-03-07T14:34:21.000Z</time>
      </trkpt>
      <trkpt lat="47.15191" lon="-1.59495">
        <ele>74</ele>
        <time>2021-03-07T14:34:23.000Z</time>
      </trkpt>
      <trkpt lat="47.152" lon="-1.59486">
        <ele>74</ele>
        <time>2021-03-07T14:34:25.000Z</time>
      </trkpt>
      <trkpt lat="47.15212" lon="-1.59473">
        <ele>73</ele>
        <time>2021-03-07T14:34:29.000Z</time>
      </trkpt>
      <trkpt lat="47.1522" lon="-1.59459">
        <ele>73</ele>
        <time>2021-03-07T14:34:31.000Z</time>
      </trkpt>
      <trkpt lat="47.15228" lon="-1.59447">
        <ele>74</ele>
        <time>2021-03-07T14:34:33.000Z</time>
      </trkpt>
      <trkpt lat="47.15234" lon="-1.59435">
        <ele>74</ele>
        <time>2021-03-07T14:34:35.000Z</time>
      </trkpt>
      <trkpt lat="47.1524" lon="-1.59421">
        <ele>74</ele>
        <time>2021-03-07T14:34:37.000Z</time>
      </trkpt>
      <trkpt lat="47.15253" lon="-1.5941">
        <ele>74</ele>
        <time>2021-03-07T14:34:40.000Z</time>
      </trkpt>
      <trkpt lat="47.1526" lon="-1.59422">
        <ele>75</ele>
        <time>2021-03-07T14:34:42.000Z</time>
      </trkpt>
      <trkpt lat="47.15266" lon="-1.59439">
        <ele>75</ele>
        <time>2021-03-07T14:34:44.000Z</time>
      </trkpt>
      <trkpt lat="47.15271" lon="-1.59454">
        <ele>75</ele>
        <time>2021-03-07T14:34:46.000Z</time>
      </trkpt>
      <trkpt lat="47.15279" lon="-1.59466">
        <ele>76</ele>
        <time>2021-03-07T14:34:48.000Z</time>
      </trkpt>
      <trkpt lat="47.15287" lon="-1.59478">
        <ele>76</ele>
        <time>2021-03-07T14:34:50.000Z</time>
      </trkpt>
      <trkpt lat="47.15296" lon="-1.59489">
        <ele>76</ele>
        <time>2021-03-07T14:34:52.000Z</time>
      </trkpt>
      <trkpt lat="47.15304" lon="-1.59501">
        <ele>76</ele>
        <time>2021-03-07T14:34:54.000Z</time>
      </trkpt>
      <trkpt lat="47.15312" lon="-1.59512">
        <ele>76</ele>
        <time>2021-03-07T14:34:56.000Z</time>
      </trkpt>
      <trkpt lat="47.15319" lon="-1.59521">
        <ele>76</ele>
        <time>2021-03-07T14:34:58.000Z</time>
      </trkpt>
      <trkpt lat="47.15327" lon="-1.59535">
        <ele>76</ele>
        <time>2021-03-07T14:35:00.000Z</time>
      </trkpt>
      <trkpt lat="47.15339" lon="-1.59547">
        <ele>74</ele>
        <time>2021-03-07T14:35:03.000Z</time>
      </trkpt>
      <trkpt lat="47.1535" lon="-1.5957">
        <ele>72</ele>
        <time>2021-03-07T14:35:06.000Z</time>
      </trkpt>
      <trkpt lat="47.15358" lon="-1.59585">
        <ele>72</ele>
        <time>2021-03-07T14:35:08.000Z</time>
      </trkpt>
      <trkpt lat="47.15365" lon="-1.59598">
        <ele>73</ele>
        <time>2021-03-07T14:35:10.000Z</time>
      </trkpt>
      <trkpt lat="47.15376" lon="-1.5961">
        <ele>76</ele>
        <time>2021-03-07T14:35:12.000Z</time>
      </trkpt>
      <trkpt lat="47.15384" lon="-1.59623">
        <ele>77</ele>
        <time>2021-03-07T14:35:14.000Z</time>
      </trkpt>
      <trkpt lat="47.15393" lon="-1.59635">
        <ele>77</ele>
        <time>2021-03-07T14:35:16.000Z</time>
      </trkpt>
      <trkpt lat="47.15405" lon="-1.59654">
        <ele>76</ele>
        <time>2021-03-07T14:35:19.000Z</time>
      </trkpt>
      <trkpt lat="47.15413" lon="-1.59667">
        <ele>76</ele>
        <time>2021-03-07T14:35:21.000Z</time>
      </trkpt>
      <trkpt lat="47.15421" lon="-1.59679">
        <ele>76</ele>
        <time>2021-03-07T14:35:23.000Z</time>
      </trkpt>
      <trkpt lat="47.15428" lon="-1.5969">
        <ele>76</ele>
        <time>2021-03-07T14:35:25.000Z</time>
      </trkpt>
      <trkpt lat="47.15434" lon="-1.59699">
        <ele>74</ele>
        <time>2021-03-07T14:35:30.000Z</time>
      </trkpt>
      <trkpt lat="47.15425" lon="-1.59696">
        <ele>60</ele>
        <time>2021-03-07T14:40:32.000Z</time>
      </trkpt>
      <trkpt lat="47.15434" lon="-1.59699">
        <ele>62</ele>
        <time>2021-03-07T14:41:01.000Z</time>
      </trkpt>
      <trkpt lat="47.1544" lon="-1.59719">
        <ele>66</ele>
        <time>2021-03-07T14:56:32.000Z</time>
      </trkpt>
      <trkpt lat="47.1545" lon="-1.59729">
        <ele>70</ele>
        <time>2021-03-07T14:56:35.000Z</time>
      </trkpt>
      <trkpt lat="47.15461" lon="-1.59743">
        <ele>72</ele>
        <time>2021-03-07T14:56:38.000Z</time>
      </trkpt>
      <trkpt lat="47.15471" lon="-1.5976">
        <ele>74</ele>
        <time>2021-03-07T14:56:41.000Z</time>
      </trkpt>
      <trkpt lat="47.15479" lon="-1.59771">
        <ele>74</ele>
        <time>2021-03-07T14:56:43.000Z</time>
      </trkpt>
      <trkpt lat="47.15486" lon="-1.59782">
        <ele>73</ele>
        <time>2021-03-07T14:56:45.000Z</time>
      </trkpt>
      <trkpt lat="47.15499" lon="-1.598">
        <ele>74</ele>
        <time>2021-03-07T14:56:48.000Z</time>
      </trkpt>
      <trkpt lat="47.15507" lon="-1.59808">
        <ele>75</ele>
        <time>2021-03-07T14:56:50.000Z</time>
      </trkpt>
      <trkpt lat="47.15519" lon="-1.59813">
        <ele>72</ele>
        <time>2021-03-07T14:56:52.000Z</time>
      </trkpt>
      <trkpt lat="47.15531" lon="-1.59813">
        <ele>71</ele>
        <time>2021-03-07T14:56:54.000Z</time>
      </trkpt>
      <trkpt lat="47.1555" lon="-1.59803">
        <ele>73</ele>
        <time>2021-03-07T14:56:57.000Z</time>
      </trkpt>
      <trkpt lat="47.15562" lon="-1.59795">
        <ele>74</ele>
        <time>2021-03-07T14:56:59.000Z</time>
      </trkpt>
      <trkpt lat="47.15573" lon="-1.59788">
        <ele>73</ele>
        <time>2021-03-07T14:57:01.000Z</time>
      </trkpt>
      <trkpt lat="47.15586" lon="-1.59782">
        <ele>73</ele>
        <time>2021-03-07T14:57:03.000Z</time>
      </trkpt>
      <trkpt lat="47.15599" lon="-1.59775">
        <ele>73</ele>
        <time>2021-03-07T14:57:05.000Z</time>
      </trkpt>
      <trkpt lat="47.15612" lon="-1.59767">
        <ele>69</ele>
        <time>2021-03-07T14:57:07.000Z</time>
      </trkpt>
      <trkpt lat="47.15625" lon="-1.59762">
        <ele>70</ele>
        <time>2021-03-07T14:57:09.000Z</time>
      </trkpt>
      <trkpt lat="47.15636" lon="-1.59755">
        <ele>71</ele>
        <time>2021-03-07T14:57:11.000Z</time>
      </trkpt>
      <trkpt lat="47.1565" lon="-1.59749">
        <ele>70</ele>
        <time>2021-03-07T14:57:13.000Z</time>
      </trkpt>
      <trkpt lat="47.15663" lon="-1.59744">
        <ele>71</ele>
        <time>2021-03-07T14:57:15.000Z</time>
      </trkpt>
      <trkpt lat="47.15678" lon="-1.59736">
        <ele>72</ele>
        <time>2021-03-07T14:57:17.000Z</time>
      </trkpt>
      <trkpt lat="47.1569" lon="-1.5973">
        <ele>73</ele>
        <time>2021-03-07T14:57:19.000Z</time>
      </trkpt>
      <trkpt lat="47.15701" lon="-1.59725">
        <ele>72</ele>
        <time>2021-03-07T14:57:21.000Z</time>
      </trkpt>
      <trkpt lat="47.15721" lon="-1.59722">
        <ele>70</ele>
        <time>2021-03-07T14:57:24.000Z</time>
      </trkpt>
      <trkpt lat="47.15733" lon="-1.5972">
        <ele>69</ele>
        <time>2021-03-07T14:57:26.000Z</time>
      </trkpt>
      <trkpt lat="47.15751" lon="-1.59716">
        <ele>71</ele>
        <time>2021-03-07T14:57:29.000Z</time>
      </trkpt>
      <trkpt lat="47.15762" lon="-1.59705">
        <ele>72</ele>
        <time>2021-03-07T14:57:31.000Z</time>
      </trkpt>
      <trkpt lat="47.15777" lon="-1.59693">
        <ele>72</ele>
        <time>2021-03-07T14:57:34.000Z</time>
      </trkpt>
      <trkpt lat="47.15787" lon="-1.59699">
        <ele>73</ele>
        <time>2021-03-07T14:57:36.000Z</time>
      </trkpt>
      <trkpt lat="47.15798" lon="-1.59721">
        <ele>71</ele>
        <time>2021-03-07T14:57:39.000Z</time>
      </trkpt>
      <trkpt lat="47.15815" lon="-1.59736">
        <ele>73</ele>
        <time>2021-03-07T14:57:42.000Z</time>
      </trkpt>
      <trkpt lat="47.15825" lon="-1.59747">
        <ele>72</ele>
        <time>2021-03-07T14:57:44.000Z</time>
      </trkpt>
      <trkpt lat="47.15834" lon="-1.5976">
        <ele>73</ele>
        <time>2021-03-07T14:57:46.000Z</time>
      </trkpt>
      <trkpt lat="47.15845" lon="-1.5977">
        <ele>70</ele>
        <time>2021-03-07T14:57:48.000Z</time>
      </trkpt>
      <trkpt lat="47.15856" lon="-1.5978">
        <ele>71</ele>
        <time>2021-03-07T14:57:50.000Z</time>
      </trkpt>
      <trkpt lat="47.15871" lon="-1.59798">
        <ele>71</ele>
        <time>2021-03-07T14:57:53.000Z</time>
      </trkpt>
      <trkpt lat="47.15888" lon="-1.59816">
        <ele>73</ele>
        <time>2021-03-07T14:57:56.000Z</time>
      </trkpt>
      <trkpt lat="47.159" lon="-1.59822">
        <ele>73</ele>
        <time>2021-03-07T14:57:58.000Z</time>
      </trkpt>
      <trkpt lat="47.15913" lon="-1.59819">
        <ele>73</ele>
        <time>2021-03-07T14:58:00.000Z</time>
      </trkpt>
      <trkpt lat="47.15931" lon="-1.59809">
        <ele>73</ele>
        <time>2021-03-07T14:58:03.000Z</time>
      </trkpt>
      <trkpt lat="47.15943" lon="-1.59802">
        <ele>74</ele>
        <time>2021-03-07T14:58:05.000Z</time>
      </trkpt>
      <trkpt lat="47.15954" lon="-1.59796">
        <ele>73</ele>
        <time>2021-03-07T14:58:07.000Z</time>
      </trkpt>
      <trkpt lat="47.15966" lon="-1.59789">
        <ele>73</ele>
        <time>2021-03-07T14:58:09.000Z</time>
      </trkpt>
      <trkpt lat="47.15978" lon="-1.59782">
        <ele>73</ele>
        <time>2021-03-07T14:58:11.000Z</time>
      </trkpt>
      <trkpt lat="47.1599" lon="-1.59776">
        <ele>71</ele>
        <time>2021-03-07T14:58:13.000Z</time>
      </trkpt>
      <trkpt lat="47.16003" lon="-1.59768">
        <ele>71</ele>
        <time>2021-03-07T14:58:15.000Z</time>
      </trkpt>
      <trkpt lat="47.16015" lon="-1.59761">
        <ele>71</ele>
        <time>2021-03-07T14:58:17.000Z</time>
      </trkpt>
      <trkpt lat="47.16033" lon="-1.59751">
        <ele>70</ele>
        <time>2021-03-07T14:58:20.000Z</time>
      </trkpt>
      <trkpt lat="47.16045" lon="-1.59743">
        <ele>70</ele>
        <time>2021-03-07T14:58:22.000Z</time>
      </trkpt>
      <trkpt lat="47.16057" lon="-1.59736">
        <ele>70</ele>
        <time>2021-03-07T14:58:24.000Z</time>
      </trkpt>
      <trkpt lat="47.1607" lon="-1.59729">
        <ele>71</ele>
        <time>2021-03-07T14:58:26.000Z</time>
      </trkpt>
      <trkpt lat="47.16083" lon="-1.59723">
        <ele>71</ele>
        <time>2021-03-07T14:58:28.000Z</time>
      </trkpt>
      <trkpt lat="47.16102" lon="-1.59713">
        <ele>71</ele>
        <time>2021-03-07T14:58:31.000Z</time>
      </trkpt>
      <trkpt lat="47.16114" lon="-1.59707">
        <ele>70</ele>
        <time>2021-03-07T14:58:33.000Z</time>
      </trkpt>
      <trkpt lat="47.16127" lon="-1.597">
        <ele>71</ele>
        <time>2021-03-07T14:58:35.000Z</time>
      </trkpt>
      <trkpt lat="47.16138" lon="-1.59694">
        <ele>71</ele>
        <time>2021-03-07T14:58:37.000Z</time>
      </trkpt>
      <trkpt lat="47.16156" lon="-1.59683">
        <ele>70</ele>
        <time>2021-03-07T14:58:40.000Z</time>
      </trkpt>
      <trkpt lat="47.16168" lon="-1.59675">
        <ele>67</ele>
        <time>2021-03-07T14:58:42.000Z</time>
      </trkpt>
      <trkpt lat="47.16185" lon="-1.59664">
        <ele>65</ele>
        <time>2021-03-07T14:58:45.000Z</time>
      </trkpt>
      <trkpt lat="47.16198" lon="-1.59659">
        <ele>67</ele>
        <time>2021-03-07T14:58:47.000Z</time>
      </trkpt>
      <trkpt lat="47.1621" lon="-1.59653">
        <ele>69</ele>
        <time>2021-03-07T14:58:49.000Z</time>
      </trkpt>
      <trkpt lat="47.16222" lon="-1.59647">
        <ele>69</ele>
        <time>2021-03-07T14:58:51.000Z</time>
      </trkpt>
      <trkpt lat="47.16234" lon="-1.5964">
        <ele>70</ele>
        <time>2021-03-07T14:58:53.000Z</time>
      </trkpt>
      <trkpt lat="47.16245" lon="-1.59634">
        <ele>69</ele>
        <time>2021-03-07T14:58:55.000Z</time>
      </trkpt>
      <trkpt lat="47.16258" lon="-1.5963">
        <ele>70</ele>
        <time>2021-03-07T14:58:57.000Z</time>
      </trkpt>
      <trkpt lat="47.16271" lon="-1.59624">
        <ele>70</ele>
        <time>2021-03-07T14:58:59.000Z</time>
      </trkpt>
      <trkpt lat="47.16283" lon="-1.59617">
        <ele>70</ele>
        <time>2021-03-07T14:59:01.000Z</time>
      </trkpt>
      <trkpt lat="47.16294" lon="-1.59613">
        <ele>71</ele>
        <time>2021-03-07T14:59:03.000Z</time>
      </trkpt>
      <trkpt lat="47.16306" lon="-1.59614">
        <ele>70</ele>
        <time>2021-03-07T14:59:05.000Z</time>
      </trkpt>
      <trkpt lat="47.16317" lon="-1.59628">
        <ele>70</ele>
        <time>2021-03-07T14:59:07.000Z</time>
      </trkpt>
      <trkpt lat="47.16325" lon="-1.59644">
        <ele>70</ele>
        <time>2021-03-07T14:59:09.000Z</time>
      </trkpt>
      <trkpt lat="47.16333" lon="-1.5966">
        <ele>68</ele>
        <time>2021-03-07T14:59:11.000Z</time>
      </trkpt>
      <trkpt lat="47.16343" lon="-1.59674">
        <ele>68</ele>
        <time>2021-03-07T14:59:13.000Z</time>
      </trkpt>
      <trkpt lat="47.16353" lon="-1.59689">
        <ele>68</ele>
        <time>2021-03-07T14:59:15.000Z</time>
      </trkpt>
      <trkpt lat="47.16362" lon="-1.59703">
        <ele>67</ele>
        <time>2021-03-07T14:59:17.000Z</time>
      </trkpt>
      <trkpt lat="47.16373" lon="-1.59716">
        <ele>67</ele>
        <time>2021-03-07T14:59:19.000Z</time>
      </trkpt>
      <trkpt lat="47.16384" lon="-1.59728">
        <ele>67</ele>
        <time>2021-03-07T14:59:21.000Z</time>
      </trkpt>
      <trkpt lat="47.16395" lon="-1.59741">
        <ele>67</ele>
        <time>2021-03-07T14:59:23.000Z</time>
      </trkpt>
      <trkpt lat="47.16406" lon="-1.59749">
        <ele>67</ele>
        <time>2021-03-07T14:59:25.000Z</time>
      </trkpt>
      <trkpt lat="47.16417" lon="-1.59759">
        <ele>66</ele>
        <time>2021-03-07T14:59:27.000Z</time>
      </trkpt>
      <trkpt lat="47.16429" lon="-1.59769">
        <ele>67</ele>
        <time>2021-03-07T14:59:29.000Z</time>
      </trkpt>
      <trkpt lat="47.16438" lon="-1.59779">
        <ele>64</ele>
        <time>2021-03-07T14:59:31.000Z</time>
      </trkpt>
      <trkpt lat="47.16455" lon="-1.59793">
        <ele>64</ele>
        <time>2021-03-07T14:59:34.000Z</time>
      </trkpt>
      <trkpt lat="47.16467" lon="-1.59802">
        <ele>65</ele>
        <time>2021-03-07T14:59:36.000Z</time>
      </trkpt>
      <trkpt lat="47.16484" lon="-1.59816">
        <ele>66</ele>
        <time>2021-03-07T14:59:39.000Z</time>
      </trkpt>
      <trkpt lat="47.16495" lon="-1.59825">
        <ele>66</ele>
        <time>2021-03-07T14:59:41.000Z</time>
      </trkpt>
      <trkpt lat="47.16506" lon="-1.59834">
        <ele>67</ele>
        <time>2021-03-07T14:59:43.000Z</time>
      </trkpt>
      <trkpt lat="47.16517" lon="-1.59842">
        <ele>66</ele>
        <time>2021-03-07T14:59:45.000Z</time>
      </trkpt>
      <trkpt lat="47.16528" lon="-1.59851">
        <ele>68</ele>
        <time>2021-03-07T14:59:47.000Z</time>
      </trkpt>
      <trkpt lat="47.16539" lon="-1.59861">
        <ele>68</ele>
        <time>2021-03-07T14:59:49.000Z</time>
      </trkpt>
      <trkpt lat="47.1655" lon="-1.59871">
        <ele>68</ele>
        <time>2021-03-07T14:59:51.000Z</time>
      </trkpt>
      <trkpt lat="47.16568" lon="-1.59885">
        <ele>69</ele>
        <time>2021-03-07T14:59:54.000Z</time>
      </trkpt>
      <trkpt lat="47.16583" lon="-1.59901">
        <ele>64</ele>
        <time>2021-03-07T14:59:57.000Z</time>
      </trkpt>
      <trkpt lat="47.16593" lon="-1.59914">
        <ele>66</ele>
        <time>2021-03-07T14:59:59.000Z</time>
      </trkpt>
      <trkpt lat="47.16602" lon="-1.59926">
        <ele>67</ele>
        <time>2021-03-07T15:00:01.000Z</time>
      </trkpt>
      <trkpt lat="47.16611" lon="-1.59938">
        <ele>67</ele>
        <time>2021-03-07T15:00:03.000Z</time>
      </trkpt>
      <trkpt lat="47.16619" lon="-1.59951">
        <ele>67</ele>
        <time>2021-03-07T15:00:05.000Z</time>
      </trkpt>
      <trkpt lat="47.16628" lon="-1.59966">
        <ele>68</ele>
        <time>2021-03-07T15:00:07.000Z</time>
      </trkpt>
      <trkpt lat="47.16635" lon="-1.59976">
        <ele>68</ele>
        <time>2021-03-07T15:00:09.000Z</time>
      </trkpt>
      <trkpt lat="47.16644" lon="-1.59989">
        <ele>68</ele>
        <time>2021-03-07T15:00:11.000Z</time>
      </trkpt>
      <trkpt lat="47.16651" lon="-1.60004">
        <ele>70</ele>
        <time>2021-03-07T15:00:13.000Z</time>
      </trkpt>
      <trkpt lat="47.16659" lon="-1.60017">
        <ele>70</ele>
        <time>2021-03-07T15:00:15.000Z</time>
      </trkpt>
      <trkpt lat="47.16667" lon="-1.60031">
        <ele>70</ele>
        <time>2021-03-07T15:00:17.000Z</time>
      </trkpt>
      <trkpt lat="47.16676" lon="-1.60045">
        <ele>70</ele>
        <time>2021-03-07T15:00:19.000Z</time>
      </trkpt>
      <trkpt lat="47.16684" lon="-1.60059">
        <ele>70</ele>
        <time>2021-03-07T15:00:21.000Z</time>
      </trkpt>
      <trkpt lat="47.16693" lon="-1.60073">
        <ele>70</ele>
        <time>2021-03-07T15:00:23.000Z</time>
      </trkpt>
      <trkpt lat="47.16704" lon="-1.60092">
        <ele>66</ele>
        <time>2021-03-07T15:00:26.000Z</time>
      </trkpt>
      <trkpt lat="47.16713" lon="-1.60107">
        <ele>66</ele>
        <time>2021-03-07T15:00:28.000Z</time>
      </trkpt>
      <trkpt lat="47.16728" lon="-1.60131">
        <ele>66</ele>
        <time>2021-03-07T15:00:31.000Z</time>
      </trkpt>
      <trkpt lat="47.16736" lon="-1.60147">
        <ele>68</ele>
        <time>2021-03-07T15:00:33.000Z</time>
      </trkpt>
      <trkpt lat="47.16749" lon="-1.60171">
        <ele>66</ele>
        <time>2021-03-07T15:00:36.000Z</time>
      </trkpt>
      <trkpt lat="47.16757" lon="-1.60184">
        <ele>67</ele>
        <time>2021-03-07T15:00:38.000Z</time>
      </trkpt>
      <trkpt lat="47.16766" lon="-1.60198">
        <ele>68</ele>
        <time>2021-03-07T15:00:40.000Z</time>
      </trkpt>
      <trkpt lat="47.16774" lon="-1.60213">
        <ele>68</ele>
        <time>2021-03-07T15:00:42.000Z</time>
      </trkpt>
      <trkpt lat="47.16783" lon="-1.60223">
        <ele>66</ele>
        <time>2021-03-07T15:00:44.000Z</time>
      </trkpt>
      <trkpt lat="47.1679" lon="-1.60237">
        <ele>66</ele>
        <time>2021-03-07T15:00:46.000Z</time>
      </trkpt>
      <trkpt lat="47.16799" lon="-1.60252">
        <ele>68</ele>
        <time>2021-03-07T15:00:48.000Z</time>
      </trkpt>
      <trkpt lat="47.16809" lon="-1.60265">
        <ele>69</ele>
        <time>2021-03-07T15:00:50.000Z</time>
      </trkpt>
      <trkpt lat="47.16825" lon="-1.60277">
        <ele>70</ele>
        <time>2021-03-07T15:00:53.000Z</time>
      </trkpt>
      <trkpt lat="47.16838" lon="-1.60278">
        <ele>70</ele>
        <time>2021-03-07T15:00:55.000Z</time>
      </trkpt>
      <trkpt lat="47.16849" lon="-1.60282">
        <ele>71</ele>
        <time>2021-03-07T15:00:57.000Z</time>
      </trkpt>
      <trkpt lat="47.16861" lon="-1.60285">
        <ele>72</ele>
        <time>2021-03-07T15:00:59.000Z</time>
      </trkpt>
      <trkpt lat="47.16874" lon="-1.60288">
        <ele>72</ele>
        <time>2021-03-07T15:01:01.000Z</time>
      </trkpt>
      <trkpt lat="47.16886" lon="-1.60291">
        <ele>72</ele>
        <time>2021-03-07T15:01:03.000Z</time>
      </trkpt>
      <trkpt lat="47.16898" lon="-1.60295">
        <ele>72</ele>
        <time>2021-03-07T15:01:05.000Z</time>
      </trkpt>
      <trkpt lat="47.1691" lon="-1.60297">
        <ele>72</ele>
        <time>2021-03-07T15:01:07.000Z</time>
      </trkpt>
      <trkpt lat="47.16921" lon="-1.603">
        <ele>72</ele>
        <time>2021-03-07T15:01:09.000Z</time>
      </trkpt>
      <trkpt lat="47.16935" lon="-1.60314">
        <ele>72</ele>
        <time>2021-03-07T15:01:12.000Z</time>
      </trkpt>
      <trkpt lat="47.16934" lon="-1.60333">
        <ele>72</ele>
        <time>2021-03-07T15:01:14.000Z</time>
      </trkpt>
      <trkpt lat="47.16918" lon="-1.6035">
        <ele>71</ele>
        <time>2021-03-07T15:01:17.000Z</time>
      </trkpt>
      <trkpt lat="47.16904" lon="-1.6036">
        <ele>72</ele>
        <time>2021-03-07T15:01:19.000Z</time>
      </trkpt>
      <trkpt lat="47.16886" lon="-1.60368">
        <ele>72</ele>
        <time>2021-03-07T15:01:22.000Z</time>
      </trkpt>
      <trkpt lat="47.16875" lon="-1.60372">
        <ele>71</ele>
        <time>2021-03-07T15:01:24.000Z</time>
      </trkpt>
      <trkpt lat="47.16863" lon="-1.60374">
        <ele>70</ele>
        <time>2021-03-07T15:01:26.000Z</time>
      </trkpt>
      <trkpt lat="47.1685" lon="-1.60378">
        <ele>69</ele>
        <time>2021-03-07T15:01:28.000Z</time>
      </trkpt>
      <trkpt lat="47.16839" lon="-1.60383">
        <ele>66</ele>
        <time>2021-03-07T15:01:30.000Z</time>
      </trkpt>
      <trkpt lat="47.16821" lon="-1.6039">
        <ele>67</ele>
        <time>2021-03-07T15:01:33.000Z</time>
      </trkpt>
      <trkpt lat="47.16808" lon="-1.60395">
        <ele>68</ele>
        <time>2021-03-07T15:01:35.000Z</time>
      </trkpt>
      <trkpt lat="47.16794" lon="-1.604">
        <ele>69</ele>
        <time>2021-03-07T15:01:37.000Z</time>
      </trkpt>
      <trkpt lat="47.16783" lon="-1.60406">
        <ele>67</ele>
        <time>2021-03-07T15:01:39.000Z</time>
      </trkpt>
      <trkpt lat="47.16771" lon="-1.60411">
        <ele>68</ele>
        <time>2021-03-07T15:01:41.000Z</time>
      </trkpt>
      <trkpt lat="47.16759" lon="-1.60418">
        <ele>68</ele>
        <time>2021-03-07T15:01:43.000Z</time>
      </trkpt>
      <trkpt lat="47.16747" lon="-1.60427">
        <ele>69</ele>
        <time>2021-03-07T15:01:45.000Z</time>
      </trkpt>
      <trkpt lat="47.16735" lon="-1.60434">
        <ele>69</ele>
        <time>2021-03-07T15:01:47.000Z</time>
      </trkpt>
      <trkpt lat="47.16723" lon="-1.60439">
        <ele>69</ele>
        <time>2021-03-07T15:01:49.000Z</time>
      </trkpt>
      <trkpt lat="47.16713" lon="-1.6045">
        <ele>70</ele>
        <time>2021-03-07T15:01:51.000Z</time>
      </trkpt>
      <trkpt lat="47.16703" lon="-1.60459">
        <ele>70</ele>
        <time>2021-03-07T15:01:53.000Z</time>
      </trkpt>
      <trkpt lat="47.16687" lon="-1.60473">
        <ele>70</ele>
        <time>2021-03-07T15:01:56.000Z</time>
      </trkpt>
      <trkpt lat="47.16678" lon="-1.60482">
        <ele>71</ele>
        <time>2021-03-07T15:01:58.000Z</time>
      </trkpt>
      <trkpt lat="47.1666" lon="-1.60494">
        <ele>72</ele>
        <time>2021-03-07T15:02:01.000Z</time>
      </trkpt>
      <trkpt lat="47.16647" lon="-1.60507">
        <ele>70</ele>
        <time>2021-03-07T15:02:03.000Z</time>
      </trkpt>
      <trkpt lat="47.16636" lon="-1.60512">
        <ele>71</ele>
        <time>2021-03-07T15:02:05.000Z</time>
      </trkpt>
      <trkpt lat="47.16624" lon="-1.60517">
        <ele>71</ele>
        <time>2021-03-07T15:02:07.000Z</time>
      </trkpt>
      <trkpt lat="47.16612" lon="-1.60522">
        <ele>71</ele>
        <time>2021-03-07T15:02:09.000Z</time>
      </trkpt>
      <trkpt lat="47.166" lon="-1.6053">
        <ele>71</ele>
        <time>2021-03-07T15:02:11.000Z</time>
      </trkpt>
      <trkpt lat="47.16589" lon="-1.60532">
        <ele>71</ele>
        <time>2021-03-07T15:02:13.000Z</time>
      </trkpt>
      <trkpt lat="47.16578" lon="-1.60536">
        <ele>72</ele>
        <time>2021-03-07T15:02:15.000Z</time>
      </trkpt>
      <trkpt lat="47.16564" lon="-1.60553">
        <ele>72</ele>
        <time>2021-03-07T15:02:18.000Z</time>
      </trkpt>
      <trkpt lat="47.16559" lon="-1.60569">
        <ele>72</ele>
        <time>2021-03-07T15:02:20.000Z</time>
      </trkpt>
      <trkpt lat="47.16553" lon="-1.60597">
        <ele>72</ele>
        <time>2021-03-07T15:02:23.000Z</time>
      </trkpt>
      <trkpt lat="47.16549" lon="-1.60617">
        <ele>74</ele>
        <time>2021-03-07T15:02:25.000Z</time>
      </trkpt>
      <trkpt lat="47.16546" lon="-1.60635">
        <ele>72</ele>
        <time>2021-03-07T15:02:27.000Z</time>
      </trkpt>
      <trkpt lat="47.16542" lon="-1.60653">
        <ele>72</ele>
        <time>2021-03-07T15:02:29.000Z</time>
      </trkpt>
      <trkpt lat="47.16537" lon="-1.60678">
        <ele>71</ele>
        <time>2021-03-07T15:02:32.000Z</time>
      </trkpt>
      <trkpt lat="47.16534" lon="-1.60696">
        <ele>71</ele>
        <time>2021-03-07T15:02:34.000Z</time>
      </trkpt>
      <trkpt lat="47.16529" lon="-1.60715">
        <ele>67</ele>
        <time>2021-03-07T15:02:36.000Z</time>
      </trkpt>
      <trkpt lat="47.16524" lon="-1.60745">
        <ele>66</ele>
        <time>2021-03-07T15:02:39.000Z</time>
      </trkpt>
      <trkpt lat="47.1652" lon="-1.60763">
        <ele>67</ele>
        <time>2021-03-07T15:02:41.000Z</time>
      </trkpt>
      <trkpt lat="47.16523" lon="-1.60782">
        <ele>67</ele>
        <time>2021-03-07T15:02:43.000Z</time>
      </trkpt>
      <trkpt lat="47.16532" lon="-1.60797">
        <ele>67</ele>
        <time>2021-03-07T15:02:45.000Z</time>
      </trkpt>
      <trkpt lat="47.16545" lon="-1.60818">
        <ele>67</ele>
        <time>2021-03-07T15:02:48.000Z</time>
      </trkpt>
      <trkpt lat="47.16554" lon="-1.60833">
        <ele>68</ele>
        <time>2021-03-07T15:02:50.000Z</time>
      </trkpt>
      <trkpt lat="47.16567" lon="-1.60853">
        <ele>66</ele>
        <time>2021-03-07T15:02:53.000Z</time>
      </trkpt>
      <trkpt lat="47.16575" lon="-1.60869">
        <ele>67</ele>
        <time>2021-03-07T15:02:55.000Z</time>
      </trkpt>
      <trkpt lat="47.16582" lon="-1.60884">
        <ele>70</ele>
        <time>2021-03-07T15:02:57.000Z</time>
      </trkpt>
      <trkpt lat="47.1659" lon="-1.60899">
        <ele>70</ele>
        <time>2021-03-07T15:02:59.000Z</time>
      </trkpt>
      <trkpt lat="47.16597" lon="-1.60915">
        <ele>70</ele>
        <time>2021-03-07T15:03:01.000Z</time>
      </trkpt>
      <trkpt lat="47.16604" lon="-1.60931">
        <ele>70</ele>
        <time>2021-03-07T15:03:03.000Z</time>
      </trkpt>
      <trkpt lat="47.1661" lon="-1.60947">
        <ele>69</ele>
        <time>2021-03-07T15:03:05.000Z</time>
      </trkpt>
      <trkpt lat="47.16618" lon="-1.60962">
        <ele>69</ele>
        <time>2021-03-07T15:03:07.000Z</time>
      </trkpt>
      <trkpt lat="47.16625" lon="-1.60977">
        <ele>69</ele>
        <time>2021-03-07T15:03:09.000Z</time>
      </trkpt>
      <trkpt lat="47.16632" lon="-1.60992">
        <ele>68</ele>
        <time>2021-03-07T15:03:11.000Z</time>
      </trkpt>
      <trkpt lat="47.16638" lon="-1.61009">
        <ele>67</ele>
        <time>2021-03-07T15:03:13.000Z</time>
      </trkpt>
      <trkpt lat="47.16644" lon="-1.61037">
        <ele>66</ele>
        <time>2021-03-07T15:03:16.000Z</time>
      </trkpt>
      <trkpt lat="47.16647" lon="-1.61058">
        <ele>66</ele>
        <time>2021-03-07T15:03:18.000Z</time>
      </trkpt>
      <trkpt lat="47.16651" lon="-1.61082">
        <ele>65</ele>
        <time>2021-03-07T15:03:20.000Z</time>
      </trkpt>
      <trkpt lat="47.16653" lon="-1.61102">
        <ele>62</ele>
        <time>2021-03-07T15:03:22.000Z</time>
      </trkpt>
      <trkpt lat="47.16655" lon="-1.61126">
        <ele>60</ele>
        <time>2021-03-07T15:03:24.000Z</time>
      </trkpt>
      <trkpt lat="47.16666" lon="-1.61149">
        <ele>60</ele>
        <time>2021-03-07T15:03:26.000Z</time>
      </trkpt>
      <trkpt lat="47.16674" lon="-1.61159">
        <ele>59</ele>
        <time>2021-03-07T15:03:27.000Z</time>
      </trkpt>
      <trkpt lat="47.16692" lon="-1.61173">
        <ele>58</ele>
        <time>2021-03-07T15:03:29.000Z</time>
      </trkpt>
      <trkpt lat="47.16702" lon="-1.61177">
        <ele>58</ele>
        <time>2021-03-07T15:03:30.000Z</time>
      </trkpt>
      <trkpt lat="47.16711" lon="-1.61181">
        <ele>57</ele>
        <time>2021-03-07T15:03:31.000Z</time>
      </trkpt>
      <trkpt lat="47.16731" lon="-1.61191">
        <ele>56</ele>
        <time>2021-03-07T15:03:33.000Z</time>
      </trkpt>
      <trkpt lat="47.16742" lon="-1.61197">
        <ele>56</ele>
        <time>2021-03-07T15:03:34.000Z</time>
      </trkpt>
      <trkpt lat="47.16752" lon="-1.61204">
        <ele>56</ele>
        <time>2021-03-07T15:03:35.000Z</time>
      </trkpt>
      <trkpt lat="47.16762" lon="-1.61211">
        <ele>56</ele>
        <time>2021-03-07T15:03:36.000Z</time>
      </trkpt>
      <trkpt lat="47.16781" lon="-1.61222">
        <ele>54</ele>
        <time>2021-03-07T15:03:38.000Z</time>
      </trkpt>
      <trkpt lat="47.16798" lon="-1.61233">
        <ele>53</ele>
        <time>2021-03-07T15:03:40.000Z</time>
      </trkpt>
      <trkpt lat="47.16814" lon="-1.61245">
        <ele>52</ele>
        <time>2021-03-07T15:03:42.000Z</time>
      </trkpt>
      <trkpt lat="47.1683" lon="-1.61252">
        <ele>53</ele>
        <time>2021-03-07T15:03:44.000Z</time>
      </trkpt>
      <trkpt lat="47.16846" lon="-1.61256">
        <ele>53</ele>
        <time>2021-03-07T15:03:46.000Z</time>
      </trkpt>
      <trkpt lat="47.16858" lon="-1.61254">
        <ele>52</ele>
        <time>2021-03-07T15:03:48.000Z</time>
      </trkpt>
      <trkpt lat="47.16869" lon="-1.61253">
        <ele>52</ele>
        <time>2021-03-07T15:03:50.000Z</time>
      </trkpt>
      <trkpt lat="47.1688" lon="-1.61256">
        <ele>53</ele>
        <time>2021-03-07T15:03:52.000Z</time>
      </trkpt>
      <trkpt lat="47.16891" lon="-1.61263">
        <ele>54</ele>
        <time>2021-03-07T15:03:54.000Z</time>
      </trkpt>
      <trkpt lat="47.169" lon="-1.61272">
        <ele>56</ele>
        <time>2021-03-07T15:03:56.000Z</time>
      </trkpt>
      <trkpt lat="47.16908" lon="-1.61282">
        <ele>57</ele>
        <time>2021-03-07T15:03:58.000Z</time>
      </trkpt>
      <trkpt lat="47.16914" lon="-1.61293">
        <ele>57</ele>
        <time>2021-03-07T15:04:00.000Z</time>
      </trkpt>
      <trkpt lat="47.16921" lon="-1.61305">
        <ele>57</ele>
        <time>2021-03-07T15:04:02.000Z</time>
      </trkpt>
      <trkpt lat="47.16929" lon="-1.61319">
        <ele>57</ele>
        <time>2021-03-07T15:04:04.000Z</time>
      </trkpt>
      <trkpt lat="47.16937" lon="-1.61337">
        <ele>57</ele>
        <time>2021-03-07T15:04:07.000Z</time>
      </trkpt>
      <trkpt lat="47.16942" lon="-1.61351">
        <ele>58</ele>
        <time>2021-03-07T15:04:09.000Z</time>
      </trkpt>
      <trkpt lat="47.16946" lon="-1.61364">
        <ele>59</ele>
        <time>2021-03-07T15:04:11.000Z</time>
      </trkpt>
      <trkpt lat="47.16952" lon="-1.61377">
        <ele>60</ele>
        <time>2021-03-07T15:04:13.000Z</time>
      </trkpt>
      <trkpt lat="47.16957" lon="-1.6139">
        <ele>60</ele>
        <time>2021-03-07T15:04:15.000Z</time>
      </trkpt>
      <trkpt lat="47.16963" lon="-1.61403">
        <ele>60</ele>
        <time>2021-03-07T15:04:17.000Z</time>
      </trkpt>
      <trkpt lat="47.16969" lon="-1.61417">
        <ele>59</ele>
        <time>2021-03-07T15:04:19.000Z</time>
      </trkpt>
      <trkpt lat="47.16975" lon="-1.61432">
        <ele>59</ele>
        <time>2021-03-07T15:04:21.000Z</time>
      </trkpt>
      <trkpt lat="47.16981" lon="-1.61448">
        <ele>59</ele>
        <time>2021-03-07T15:04:23.000Z</time>
      </trkpt>
      <trkpt lat="47.16987" lon="-1.61465">
        <ele>58</ele>
        <time>2021-03-07T15:04:25.000Z</time>
      </trkpt>
      <trkpt lat="47.16993" lon="-1.61481">
        <ele>58</ele>
        <time>2021-03-07T15:04:27.000Z</time>
      </trkpt>
      <trkpt lat="47.17" lon="-1.61507">
        <ele>58</ele>
        <time>2021-03-07T15:04:30.000Z</time>
      </trkpt>
      <trkpt lat="47.17006" lon="-1.61525">
        <ele>59</ele>
        <time>2021-03-07T15:04:32.000Z</time>
      </trkpt>
      <trkpt lat="47.1701" lon="-1.61542">
        <ele>59</ele>
        <time>2021-03-07T15:04:34.000Z</time>
      </trkpt>
      <trkpt lat="47.17014" lon="-1.61557">
        <ele>59</ele>
        <time>2021-03-07T15:04:36.000Z</time>
      </trkpt>
      <trkpt lat="47.17018" lon="-1.61573">
        <ele>59</ele>
        <time>2021-03-07T15:04:38.000Z</time>
      </trkpt>
      <trkpt lat="47.17021" lon="-1.61587">
        <ele>59</ele>
        <time>2021-03-07T15:04:40.000Z</time>
      </trkpt>
      <trkpt lat="47.17033" lon="-1.61605">
        <ele>57</ele>
        <time>2021-03-07T15:04:43.000Z</time>
      </trkpt>
      <trkpt lat="47.17051" lon="-1.61615">
        <ele>57</ele>
        <time>2021-03-07T15:04:46.000Z</time>
      </trkpt>
      <trkpt lat="47.17063" lon="-1.61621">
        <ele>57</ele>
        <time>2021-03-07T15:04:48.000Z</time>
      </trkpt>
      <trkpt lat="47.17074" lon="-1.61627">
        <ele>58</ele>
        <time>2021-03-07T15:04:50.000Z</time>
      </trkpt>
      <trkpt lat="47.17103" lon="-1.61643">
        <ele>57</ele>
        <time>2021-03-07T15:04:55.000Z</time>
      </trkpt>
      <trkpt lat="47.17115" lon="-1.61645">
        <ele>57</ele>
        <time>2021-03-07T15:04:57.000Z</time>
      </trkpt>
      <trkpt lat="47.17124" lon="-1.61653">
        <ele>60</ele>
        <time>2021-03-07T15:04:59.000Z</time>
      </trkpt>
      <trkpt lat="47.17135" lon="-1.61659">
        <ele>61</ele>
        <time>2021-03-07T15:05:01.000Z</time>
      </trkpt>
      <trkpt lat="47.17149" lon="-1.61667">
        <ele>63</ele>
        <time>2021-03-07T15:05:04.000Z</time>
      </trkpt>
      <trkpt lat="47.17163" lon="-1.61678">
        <ele>66</ele>
        <time>2021-03-07T15:05:07.000Z</time>
      </trkpt>
      <trkpt lat="47.17172" lon="-1.61688">
        <ele>65</ele>
        <time>2021-03-07T15:05:09.000Z</time>
      </trkpt>
      <trkpt lat="47.1718" lon="-1.61697">
        <ele>67</ele>
        <time>2021-03-07T15:05:11.000Z</time>
      </trkpt>
      <trkpt lat="47.17187" lon="-1.61707">
        <ele>65</ele>
        <time>2021-03-07T15:05:13.000Z</time>
      </trkpt>
      <trkpt lat="47.172" lon="-1.61722">
        <ele>66</ele>
        <time>2021-03-07T15:05:16.000Z</time>
      </trkpt>
      <trkpt lat="47.17209" lon="-1.61731">
        <ele>62</ele>
        <time>2021-03-07T15:05:18.000Z</time>
      </trkpt>
      <trkpt lat="47.17218" lon="-1.61746">
        <ele>65</ele>
        <time>2021-03-07T15:05:21.000Z</time>
      </trkpt>
      <trkpt lat="47.1723" lon="-1.61752">
        <ele>61</ele>
        <time>2021-03-07T15:05:24.000Z</time>
      </trkpt>
      <trkpt lat="47.1724" lon="-1.61755">
        <ele>64</ele>
        <time>2021-03-07T15:05:26.000Z</time>
      </trkpt>
      <trkpt lat="47.17243" lon="-1.61768">
        <ele>65</ele>
        <time>2021-03-07T15:05:28.000Z</time>
      </trkpt>
      <trkpt lat="47.17236" lon="-1.61782">
        <ele>65</ele>
        <time>2021-03-07T15:05:30.000Z</time>
      </trkpt>
      <trkpt lat="47.17227" lon="-1.61794">
        <ele>65</ele>
        <time>2021-03-07T15:05:32.000Z</time>
      </trkpt>
      <trkpt lat="47.17218" lon="-1.618">
        <ele>64</ele>
        <time>2021-03-07T15:05:34.000Z</time>
      </trkpt>
      <trkpt lat="47.17208" lon="-1.61807">
        <ele>65</ele>
        <time>2021-03-07T15:05:36.000Z</time>
      </trkpt>
      <trkpt lat="47.17198" lon="-1.61815">
        <ele>65</ele>
        <time>2021-03-07T15:05:38.000Z</time>
      </trkpt>
      <trkpt lat="47.17188" lon="-1.61825">
        <ele>66</ele>
        <time>2021-03-07T15:05:40.000Z</time>
      </trkpt>
      <trkpt lat="47.1718" lon="-1.61833">
        <ele>67</ele>
        <time>2021-03-07T15:05:42.000Z</time>
      </trkpt>
      <trkpt lat="47.1717" lon="-1.61842">
        <ele>66</ele>
        <time>2021-03-07T15:05:44.000Z</time>
      </trkpt>
      <trkpt lat="47.17161" lon="-1.61854">
        <ele>65</ele>
        <time>2021-03-07T15:05:46.000Z</time>
      </trkpt>
      <trkpt lat="47.17147" lon="-1.61866">
        <ele>66</ele>
        <time>2021-03-07T15:05:49.000Z</time>
      </trkpt>
      <trkpt lat="47.17135" lon="-1.61874">
        <ele>66</ele>
        <time>2021-03-07T15:05:51.000Z</time>
      </trkpt>
      <trkpt lat="47.17125" lon="-1.61883">
        <ele>67</ele>
        <time>2021-03-07T15:05:53.000Z</time>
      </trkpt>
      <trkpt lat="47.17114" lon="-1.61897">
        <ele>65</ele>
        <time>2021-03-07T15:05:55.000Z</time>
      </trkpt>
      <trkpt lat="47.17105" lon="-1.61904">
        <ele>65</ele>
        <time>2021-03-07T15:05:57.000Z</time>
      </trkpt>
      <trkpt lat="47.17094" lon="-1.61914">
        <ele>66</ele>
        <time>2021-03-07T15:05:59.000Z</time>
      </trkpt>
      <trkpt lat="47.17084" lon="-1.61923">
        <ele>65</ele>
        <time>2021-03-07T15:06:01.000Z</time>
      </trkpt>
      <trkpt lat="47.17075" lon="-1.61932">
        <ele>65</ele>
        <time>2021-03-07T15:06:03.000Z</time>
      </trkpt>
      <trkpt lat="47.17066" lon="-1.61943">
        <ele>65</ele>
        <time>2021-03-07T15:06:05.000Z</time>
      </trkpt>
      <trkpt lat="47.17057" lon="-1.61954">
        <ele>65</ele>
        <time>2021-03-07T15:06:07.000Z</time>
      </trkpt>
      <trkpt lat="47.17047" lon="-1.61968">
        <ele>65</ele>
        <time>2021-03-07T15:06:09.000Z</time>
      </trkpt>
      <trkpt lat="47.17037" lon="-1.61987">
        <ele>64</ele>
        <time>2021-03-07T15:06:11.000Z</time>
      </trkpt>
      <trkpt lat="47.17028" lon="-1.61998">
        <ele>64</ele>
        <time>2021-03-07T15:06:13.000Z</time>
      </trkpt>
      <trkpt lat="47.17018" lon="-1.6201">
        <ele>65</ele>
        <time>2021-03-07T15:06:15.000Z</time>
      </trkpt>
      <trkpt lat="47.17009" lon="-1.62024">
        <ele>63</ele>
        <time>2021-03-07T15:06:17.000Z</time>
      </trkpt>
      <trkpt lat="47.17" lon="-1.62038">
        <ele>61</ele>
        <time>2021-03-07T15:06:19.000Z</time>
      </trkpt>
      <trkpt lat="47.16992" lon="-1.62053">
        <ele>62</ele>
        <time>2021-03-07T15:06:21.000Z</time>
      </trkpt>
      <trkpt lat="47.16984" lon="-1.62067">
        <ele>63</ele>
        <time>2021-03-07T15:06:23.000Z</time>
      </trkpt>
      <trkpt lat="47.16976" lon="-1.62081">
        <ele>63</ele>
        <time>2021-03-07T15:06:25.000Z</time>
      </trkpt>
      <trkpt lat="47.16967" lon="-1.62095">
        <ele>62</ele>
        <time>2021-03-07T15:06:27.000Z</time>
      </trkpt>
      <trkpt lat="47.16956" lon="-1.62116">
        <ele>63</ele>
        <time>2021-03-07T15:06:30.000Z</time>
      </trkpt>
      <trkpt lat="47.16948" lon="-1.62132">
        <ele>64</ele>
        <time>2021-03-07T15:06:32.000Z</time>
      </trkpt>
      <trkpt lat="47.16941" lon="-1.62146">
        <ele>63</ele>
        <time>2021-03-07T15:06:34.000Z</time>
      </trkpt>
      <trkpt lat="47.16931" lon="-1.6217">
        <ele>64</ele>
        <time>2021-03-07T15:06:37.000Z</time>
      </trkpt>
      <trkpt lat="47.16925" lon="-1.62185">
        <ele>64</ele>
        <time>2021-03-07T15:06:39.000Z</time>
      </trkpt>
      <trkpt lat="47.16917" lon="-1.62199">
        <ele>64</ele>
        <time>2021-03-07T15:06:41.000Z</time>
      </trkpt>
      <trkpt lat="47.16908" lon="-1.62211">
        <ele>62</ele>
        <time>2021-03-07T15:06:43.000Z</time>
      </trkpt>
      <trkpt lat="47.16897" lon="-1.62224">
        <ele>63</ele>
        <time>2021-03-07T15:06:45.000Z</time>
      </trkpt>
      <trkpt lat="47.16887" lon="-1.62237">
        <ele>64</ele>
        <time>2021-03-07T15:06:47.000Z</time>
      </trkpt>
      <trkpt lat="47.16878" lon="-1.6225">
        <ele>64</ele>
        <time>2021-03-07T15:06:49.000Z</time>
      </trkpt>
      <trkpt lat="47.16868" lon="-1.62263">
        <ele>65</ele>
        <time>2021-03-07T15:06:51.000Z</time>
      </trkpt>
      <trkpt lat="47.16858" lon="-1.62275">
        <ele>65</ele>
        <time>2021-03-07T15:06:53.000Z</time>
      </trkpt>
      <trkpt lat="47.16848" lon="-1.62287">
        <ele>66</ele>
        <time>2021-03-07T15:06:55.000Z</time>
      </trkpt>
      <trkpt lat="47.16839" lon="-1.62299">
        <ele>66</ele>
        <time>2021-03-07T15:06:57.000Z</time>
      </trkpt>
      <trkpt lat="47.16828" lon="-1.62309">
        <ele>67</ele>
        <time>2021-03-07T15:06:59.000Z</time>
      </trkpt>
      <trkpt lat="47.16812" lon="-1.62323">
        <ele>67</ele>
        <time>2021-03-07T15:07:02.000Z</time>
      </trkpt>
      <trkpt lat="47.16799" lon="-1.6233">
        <ele>66</ele>
        <time>2021-03-07T15:07:04.000Z</time>
      </trkpt>
      <trkpt lat="47.16786" lon="-1.62337">
        <ele>66</ele>
        <time>2021-03-07T15:07:06.000Z</time>
      </trkpt>
      <trkpt lat="47.16775" lon="-1.62344">
        <ele>65</ele>
        <time>2021-03-07T15:07:08.000Z</time>
      </trkpt>
      <trkpt lat="47.16764" lon="-1.62352">
        <ele>65</ele>
        <time>2021-03-07T15:07:10.000Z</time>
      </trkpt>
      <trkpt lat="47.16753" lon="-1.6236">
        <ele>65</ele>
        <time>2021-03-07T15:07:12.000Z</time>
      </trkpt>
      <trkpt lat="47.1674" lon="-1.62379">
        <ele>63</ele>
        <time>2021-03-07T15:07:15.000Z</time>
      </trkpt>
      <trkpt lat="47.1673" lon="-1.62408">
        <ele>63</ele>
        <time>2021-03-07T15:07:18.000Z</time>
      </trkpt>
      <trkpt lat="47.16727" lon="-1.62425">
        <ele>63</ele>
        <time>2021-03-07T15:07:20.000Z</time>
      </trkpt>
      <trkpt lat="47.16726" lon="-1.62443">
        <ele>63</ele>
        <time>2021-03-07T15:07:22.000Z</time>
      </trkpt>
      <trkpt lat="47.16721" lon="-1.62458">
        <ele>63</ele>
        <time>2021-03-07T15:07:24.000Z</time>
      </trkpt>
      <trkpt lat="47.16717" lon="-1.62474">
        <ele>64</ele>
        <time>2021-03-07T15:07:26.000Z</time>
      </trkpt>
      <trkpt lat="47.16717" lon="-1.6249">
        <ele>64</ele>
        <time>2021-03-07T15:07:28.000Z</time>
      </trkpt>
      <trkpt lat="47.16731" lon="-1.625">
        <ele>64</ele>
        <time>2021-03-07T15:07:31.000Z</time>
      </trkpt>
      <trkpt lat="47.16743" lon="-1.62504">
        <ele>66</ele>
        <time>2021-03-07T15:07:33.000Z</time>
      </trkpt>
      <trkpt lat="47.16753" lon="-1.6251">
        <ele>66</ele>
        <time>2021-03-07T15:07:35.000Z</time>
      </trkpt>
      <trkpt lat="47.16765" lon="-1.62516">
        <ele>67</ele>
        <time>2021-03-07T15:07:37.000Z</time>
      </trkpt>
      <trkpt lat="47.16777" lon="-1.62524">
        <ele>67</ele>
        <time>2021-03-07T15:07:39.000Z</time>
      </trkpt>
      <trkpt lat="47.16795" lon="-1.62535">
        <ele>67</ele>
        <time>2021-03-07T15:07:42.000Z</time>
      </trkpt>
      <trkpt lat="47.16806" lon="-1.62542">
        <ele>67</ele>
        <time>2021-03-07T15:07:44.000Z</time>
      </trkpt>
      <trkpt lat="47.16818" lon="-1.6255">
        <ele>67</ele>
        <time>2021-03-07T15:07:46.000Z</time>
      </trkpt>
      <trkpt lat="47.16827" lon="-1.62562">
        <ele>66</ele>
        <time>2021-03-07T15:07:48.000Z</time>
      </trkpt>
      <trkpt lat="47.16831" lon="-1.62578">
        <ele>66</ele>
        <time>2021-03-07T15:07:50.000Z</time>
      </trkpt>
      <trkpt lat="47.16822" lon="-1.62601">
        <ele>65</ele>
        <time>2021-03-07T15:07:53.000Z</time>
      </trkpt>
      <trkpt lat="47.16814" lon="-1.62614">
        <ele>64</ele>
        <time>2021-03-07T15:07:55.000Z</time>
      </trkpt>
      <trkpt lat="47.16807" lon="-1.62629">
        <ele>65</ele>
        <time>2021-03-07T15:07:57.000Z</time>
      </trkpt>
      <trkpt lat="47.16796" lon="-1.62645">
        <ele>65</ele>
        <time>2021-03-07T15:08:00.000Z</time>
      </trkpt>
      <trkpt lat="47.1679" lon="-1.62657">
        <ele>64</ele>
        <time>2021-03-07T15:08:02.000Z</time>
      </trkpt>
      <trkpt lat="47.16782" lon="-1.62666">
        <ele>64</ele>
        <time>2021-03-07T15:08:04.000Z</time>
      </trkpt>
      <trkpt lat="47.16775" lon="-1.62657">
        <ele>65</ele>
        <time>2021-03-07T15:08:08.000Z</time>
      </trkpt>
    </trkseg>
  </trk>
</gpx>